<?xml version="1.0" encoding="UTF-8" standalone="yes"?>
<gpx version="1.1" creator="outdooractive - http://www.outdooractive.com" xmlns="http://www.topografix.com/GPX/1/1" xmlns:oa="http://www.outdooractive.com/GPX/Extensions/1" xmlns:xsi="http://www.w3.org/2001/XMLSchema-instance" xsi:schemaLocation="http://www.topografix.com/GPX/1/1 http://www.topografix.com/GPX/1/1/gpx.xsd http://www.outdooractive.com/GPX/Extensions/1 https://www.outdooractive.com/schema/gpx_extensions.xsd">
  <metadata>
    <name>Hintere Schöntaufspitze am 3. September 2026 um 07:18</name>
    <author>
      <name>Marion Renner Sparer - Community</name>
    </author>
    <link href="https://www.outdooractive.com/r/351811415"/>
    <time>2026-09-03T14:11:55.548Z</time>
    <extensions>
      <oa:oaCategory>trackCityTrail</oa:oaCategory>
    </extensions>
  </metadata>
  <trk>
    <name>Hintere Schöntaufspitze am 3. September 2026 um 07:18</name>
    <type>trackCityTrail</type>
    <trkseg>
      <trkpt lat="46.481434" lon="10.678965">
        <ele>2264.39437</ele>
        <time>2026-09-03T05:19:31.014Z</time>
      </trkpt>
      <trkpt lat="46.481506" lon="10.679285">
        <ele>2263.38206</ele>
        <time>2026-09-03T05:19:32.012Z</time>
      </trkpt>
      <trkpt lat="46.481502" lon="10.679245">
        <ele>2262.6414</ele>
        <time>2026-09-03T05:19:33.011Z</time>
      </trkpt>
      <trkpt lat="46.481494" lon="10.679165">
        <ele>2262.55849</ele>
        <time>2026-09-03T05:19:40.999Z</time>
      </trkpt>
      <trkpt lat="46.481477" lon="10.67914">
        <ele>2262.40306</ele>
        <time>2026-09-03T05:19:46.000Z</time>
      </trkpt>
      <trkpt lat="46.481473" lon="10.67907">
        <ele>2262.348</ele>
        <time>2026-09-03T05:20:02.000Z</time>
      </trkpt>
      <trkpt lat="46.481445" lon="10.67906">
        <ele>2262.36914</ele>
        <time>2026-09-03T05:20:03.000Z</time>
      </trkpt>
      <trkpt lat="46.481433" lon="10.679029">
        <ele>2262.4307</ele>
        <time>2026-09-03T05:20:05.000Z</time>
      </trkpt>
      <trkpt lat="46.481414" lon="10.679">
        <ele>2262.48513</ele>
        <time>2026-09-03T05:20:07.001Z</time>
      </trkpt>
      <trkpt lat="46.4814" lon="10.678967">
        <ele>2262.60681</ele>
        <time>2026-09-03T05:20:10.001Z</time>
      </trkpt>
      <trkpt lat="46.481391" lon="10.678924">
        <ele>2262.71186</ele>
        <time>2026-09-03T05:20:12.001Z</time>
      </trkpt>
      <trkpt lat="46.481406" lon="10.67889">
        <ele>2262.87776</ele>
        <time>2026-09-03T05:20:16.001Z</time>
      </trkpt>
      <trkpt lat="46.481392" lon="10.678827">
        <ele>2263.01634</ele>
        <time>2026-09-03T05:20:19.001Z</time>
      </trkpt>
      <trkpt lat="46.481386" lon="10.678789">
        <ele>2263.08603</ele>
        <time>2026-09-03T05:20:23.001Z</time>
      </trkpt>
      <trkpt lat="46.481386" lon="10.678748">
        <ele>2263.13129</ele>
        <time>2026-09-03T05:20:25.001Z</time>
      </trkpt>
      <trkpt lat="46.481388" lon="10.678711">
        <ele>2263.60466</ele>
        <time>2026-09-03T05:20:47.002Z</time>
      </trkpt>
      <trkpt lat="46.481398" lon="10.678755">
        <ele>2263.69848</ele>
        <time>2026-09-03T05:20:57.002Z</time>
      </trkpt>
      <trkpt lat="46.481401" lon="10.678707">
        <ele>2263.76281</ele>
        <time>2026-09-03T05:21:05.002Z</time>
      </trkpt>
      <trkpt lat="46.481403" lon="10.67866">
        <ele>2263.77998</ele>
        <time>2026-09-03T05:21:09.002Z</time>
      </trkpt>
      <trkpt lat="46.481412" lon="10.678629">
        <ele>2263.7958</ele>
        <time>2026-09-03T05:21:11.002Z</time>
      </trkpt>
      <trkpt lat="46.481407" lon="10.678594">
        <ele>2263.81384</ele>
        <time>2026-09-03T05:21:13.003Z</time>
      </trkpt>
      <trkpt lat="46.481403" lon="10.678559">
        <ele>2263.83706</ele>
        <time>2026-09-03T05:21:15.003Z</time>
      </trkpt>
      <trkpt lat="46.481404" lon="10.678527">
        <ele>2263.86755</ele>
        <time>2026-09-03T05:21:17.003Z</time>
      </trkpt>
      <trkpt lat="46.481413" lon="10.678488">
        <ele>2263.89702</ele>
        <time>2026-09-03T05:21:19.003Z</time>
      </trkpt>
      <trkpt lat="46.481423" lon="10.678448">
        <ele>2263.95534</ele>
        <time>2026-09-03T05:21:22.003Z</time>
      </trkpt>
      <trkpt lat="46.481436" lon="10.678405">
        <ele>2264.00128</ele>
        <time>2026-09-03T05:21:24.003Z</time>
      </trkpt>
      <trkpt lat="46.481452" lon="10.678362">
        <ele>2264.07348</ele>
        <time>2026-09-03T05:21:27.003Z</time>
      </trkpt>
      <trkpt lat="46.481464" lon="10.678327">
        <ele>2264.13681</ele>
        <time>2026-09-03T05:21:29.003Z</time>
      </trkpt>
      <trkpt lat="46.481475" lon="10.67829">
        <ele>2264.19351</ele>
        <time>2026-09-03T05:21:31.003Z</time>
      </trkpt>
      <trkpt lat="46.48149" lon="10.678251">
        <ele>2264.30118</ele>
        <time>2026-09-03T05:21:34.003Z</time>
      </trkpt>
      <trkpt lat="46.481508" lon="10.678226">
        <ele>2264.45243</ele>
        <time>2026-09-03T05:21:37.003Z</time>
      </trkpt>
      <trkpt lat="46.481521" lon="10.678192">
        <ele>2264.55055</ele>
        <time>2026-09-03T05:21:39.003Z</time>
      </trkpt>
      <trkpt lat="46.481521" lon="10.678148">
        <ele>2264.74003</ele>
        <time>2026-09-03T05:21:42.003Z</time>
      </trkpt>
      <trkpt lat="46.481533" lon="10.678119">
        <ele>2264.99707</ele>
        <time>2026-09-03T05:21:45.003Z</time>
      </trkpt>
      <trkpt lat="46.481518" lon="10.678092">
        <ele>2265.19904</ele>
        <time>2026-09-03T05:21:47.002Z</time>
      </trkpt>
      <trkpt lat="46.481505" lon="10.678063">
        <ele>2265.50994</ele>
        <time>2026-09-03T05:21:50.002Z</time>
      </trkpt>
      <trkpt lat="46.481499" lon="10.678024">
        <ele>2265.71319</ele>
        <time>2026-09-03T05:21:52.002Z</time>
      </trkpt>
      <trkpt lat="46.481489" lon="10.677991">
        <ele>2265.91725</ele>
        <time>2026-09-03T05:21:54.002Z</time>
      </trkpt>
      <trkpt lat="46.481494" lon="10.677944">
        <ele>2266.26518</ele>
        <time>2026-09-03T05:21:57.001Z</time>
      </trkpt>
      <trkpt lat="46.481501" lon="10.67791">
        <ele>2266.53719</ele>
        <time>2026-09-03T05:21:59.001Z</time>
      </trkpt>
      <trkpt lat="46.481499" lon="10.677877">
        <ele>2266.98225</ele>
        <time>2026-09-03T05:22:02.001Z</time>
      </trkpt>
      <trkpt lat="46.481502" lon="10.677831">
        <ele>2267.25939</ele>
        <time>2026-09-03T05:22:04.001Z</time>
      </trkpt>
      <trkpt lat="46.481511" lon="10.677795">
        <ele>2267.51149</ele>
        <time>2026-09-03T05:22:06.001Z</time>
      </trkpt>
      <trkpt lat="46.481517" lon="10.67775">
        <ele>2267.88923</ele>
        <time>2026-09-03T05:22:09.001Z</time>
      </trkpt>
      <trkpt lat="46.481533" lon="10.677715">
        <ele>2268.12085</ele>
        <time>2026-09-03T05:22:11.001Z</time>
      </trkpt>
      <trkpt lat="46.481555" lon="10.677674">
        <ele>2268.42094</ele>
        <time>2026-09-03T05:22:14.001Z</time>
      </trkpt>
      <trkpt lat="46.481567" lon="10.67764">
        <ele>2268.6226</ele>
        <time>2026-09-03T05:22:16.000Z</time>
      </trkpt>
      <trkpt lat="46.48158" lon="10.677595">
        <ele>2268.94511</ele>
        <time>2026-09-03T05:22:19.000Z</time>
      </trkpt>
      <trkpt lat="46.481597" lon="10.677556">
        <ele>2269.1889</ele>
        <time>2026-09-03T05:22:22.000Z</time>
      </trkpt>
      <trkpt lat="46.481616" lon="10.677521">
        <ele>2269.28418</ele>
        <time>2026-09-03T05:22:24.000Z</time>
      </trkpt>
      <trkpt lat="46.481613" lon="10.677474">
        <ele>2269.4143</ele>
        <time>2026-09-03T05:22:27.000Z</time>
      </trkpt>
      <trkpt lat="46.481627" lon="10.677444">
        <ele>2269.53821</ele>
        <time>2026-09-03T05:22:29.000Z</time>
      </trkpt>
      <trkpt lat="46.481638" lon="10.677412">
        <ele>2269.65633</ele>
        <time>2026-09-03T05:22:31.000Z</time>
      </trkpt>
      <trkpt lat="46.481644" lon="10.677378">
        <ele>2269.76695</ele>
        <time>2026-09-03T05:22:33.000Z</time>
      </trkpt>
      <trkpt lat="46.481666" lon="10.677348">
        <ele>2269.86129</ele>
        <time>2026-09-03T05:22:35.000Z</time>
      </trkpt>
      <trkpt lat="46.481684" lon="10.677319">
        <ele>2269.94599</ele>
        <time>2026-09-03T05:22:37.000Z</time>
      </trkpt>
      <trkpt lat="46.481709" lon="10.677292">
        <ele>2270.03951</ele>
        <time>2026-09-03T05:22:39.000Z</time>
      </trkpt>
      <trkpt lat="46.481726" lon="10.677265">
        <ele>2270.12679</ele>
        <time>2026-09-03T05:22:41.000Z</time>
      </trkpt>
      <trkpt lat="46.481746" lon="10.677244">
        <ele>2270.24897</ele>
        <time>2026-09-03T05:22:43.000Z</time>
      </trkpt>
      <trkpt lat="46.481772" lon="10.677211">
        <ele>2270.42507</ele>
        <time>2026-09-03T05:22:46.000Z</time>
      </trkpt>
      <trkpt lat="46.481798" lon="10.677182">
        <ele>2270.5913</ele>
        <time>2026-09-03T05:22:49.000Z</time>
      </trkpt>
      <trkpt lat="46.481816" lon="10.677144">
        <ele>2270.76316</ele>
        <time>2026-09-03T05:22:52.000Z</time>
      </trkpt>
      <trkpt lat="46.481831" lon="10.677117">
        <ele>2271.02206</ele>
        <time>2026-09-03T05:23:01.000Z</time>
      </trkpt>
      <trkpt lat="46.48185" lon="10.677078">
        <ele>2271.09036</ele>
        <time>2026-09-03T05:23:04.000Z</time>
      </trkpt>
      <trkpt lat="46.481867" lon="10.67705">
        <ele>2271.14591</ele>
        <time>2026-09-03T05:23:06.000Z</time>
      </trkpt>
      <trkpt lat="46.481878" lon="10.677021">
        <ele>2271.22381</ele>
        <time>2026-09-03T05:23:09.000Z</time>
      </trkpt>
      <trkpt lat="46.4819" lon="10.677015">
        <ele>2271.38082</ele>
        <time>2026-09-03T05:23:13.000Z</time>
      </trkpt>
      <trkpt lat="46.481927" lon="10.677027">
        <ele>2271.56851</ele>
        <time>2026-09-03T05:23:17.000Z</time>
      </trkpt>
      <trkpt lat="46.4819" lon="10.677006">
        <ele>2271.75488</ele>
        <time>2026-09-03T05:23:22.000Z</time>
      </trkpt>
      <trkpt lat="46.481881" lon="10.676966">
        <ele>2271.8071</ele>
        <time>2026-09-03T05:23:28.000Z</time>
      </trkpt>
      <trkpt lat="46.481888" lon="10.676934">
        <ele>2271.80545</ele>
        <time>2026-09-03T05:23:33.000Z</time>
      </trkpt>
      <trkpt lat="46.481892" lon="10.676894">
        <ele>2271.76301</ele>
        <time>2026-09-03T05:23:38.000Z</time>
      </trkpt>
      <trkpt lat="46.481922" lon="10.676893">
        <ele>2271.73819</ele>
        <time>2026-09-03T05:23:41.000Z</time>
      </trkpt>
      <trkpt lat="46.481946" lon="10.676862">
        <ele>2271.61442</ele>
        <time>2026-09-03T05:23:45.000Z</time>
      </trkpt>
      <trkpt lat="46.481939" lon="10.676827">
        <ele>2271.34568</ele>
        <time>2026-09-03T05:23:49.001Z</time>
      </trkpt>
      <trkpt lat="46.481952" lon="10.676792">
        <ele>2270.92766</ele>
        <time>2026-09-03T05:23:53.001Z</time>
      </trkpt>
      <trkpt lat="46.481969" lon="10.676769">
        <ele>2270.30285</ele>
        <time>2026-09-03T05:23:57.001Z</time>
      </trkpt>
      <trkpt lat="46.481991" lon="10.676757">
        <ele>2269.84919</ele>
        <time>2026-09-03T05:23:59.001Z</time>
      </trkpt>
      <trkpt lat="46.481989" lon="10.676724">
        <ele>2269.01825</ele>
        <time>2026-09-03T05:24:02.000Z</time>
      </trkpt>
      <trkpt lat="46.481982" lon="10.676692">
        <ele>2267.57983</ele>
        <time>2026-09-03T05:24:06.000Z</time>
      </trkpt>
      <trkpt lat="46.481991" lon="10.676659">
        <ele>2265.43285</ele>
        <time>2026-09-03T05:24:10.000Z</time>
      </trkpt>
      <trkpt lat="46.482002" lon="10.676624">
        <ele>2263.35038</ele>
        <time>2026-09-03T05:24:14.000Z</time>
      </trkpt>
      <trkpt lat="46.482001" lon="10.676588">
        <ele>2261.95342</ele>
        <time>2026-09-03T05:24:17.000Z</time>
      </trkpt>
      <trkpt lat="46.481988" lon="10.676546">
        <ele>2260.21045</ele>
        <time>2026-09-03T05:24:22.000Z</time>
      </trkpt>
      <trkpt lat="46.481995" lon="10.676514">
        <ele>2259.35688</ele>
        <time>2026-09-03T05:24:25.000Z</time>
      </trkpt>
      <trkpt lat="46.481999" lon="10.676474">
        <ele>2258.81748</ele>
        <time>2026-09-03T05:24:28.000Z</time>
      </trkpt>
      <trkpt lat="46.481976" lon="10.676472">
        <ele>2258.42707</ele>
        <time>2026-09-03T05:24:31.000Z</time>
      </trkpt>
      <trkpt lat="46.481974" lon="10.676439">
        <ele>2257.91573</ele>
        <time>2026-09-03T05:24:35.000Z</time>
      </trkpt>
      <trkpt lat="46.481988" lon="10.676405">
        <ele>2257.33078</ele>
        <time>2026-09-03T05:24:39.000Z</time>
      </trkpt>
      <trkpt lat="46.481988" lon="10.676366">
        <ele>2256.88112</ele>
        <time>2026-09-03T05:24:42.000Z</time>
      </trkpt>
      <trkpt lat="46.481987" lon="10.676324">
        <ele>2256.59501</ele>
        <time>2026-09-03T05:24:45.000Z</time>
      </trkpt>
      <trkpt lat="46.481993" lon="10.676288">
        <ele>2256.4036</ele>
        <time>2026-09-03T05:24:48.000Z</time>
      </trkpt>
      <trkpt lat="46.482006" lon="10.676251">
        <ele>2256.33767</ele>
        <time>2026-09-03T05:24:51.000Z</time>
      </trkpt>
      <trkpt lat="46.482019" lon="10.676218">
        <ele>2256.38553</ele>
        <time>2026-09-03T05:24:54.000Z</time>
      </trkpt>
      <trkpt lat="46.48203" lon="10.676176">
        <ele>2256.47035</ele>
        <time>2026-09-03T05:24:57.000Z</time>
      </trkpt>
      <trkpt lat="46.482042" lon="10.676143">
        <ele>2256.63573</ele>
        <time>2026-09-03T05:25:01.000Z</time>
      </trkpt>
      <trkpt lat="46.482039" lon="10.67611">
        <ele>2256.88869</ele>
        <time>2026-09-03T05:25:05.000Z</time>
      </trkpt>
      <trkpt lat="46.482041" lon="10.676076">
        <ele>2257.1366</ele>
        <time>2026-09-03T05:25:09.000Z</time>
      </trkpt>
      <trkpt lat="46.482043" lon="10.67604">
        <ele>2257.44706</ele>
        <time>2026-09-03T05:25:13.000Z</time>
      </trkpt>
      <trkpt lat="46.482045" lon="10.675998">
        <ele>2257.72467</ele>
        <time>2026-09-03T05:25:17.000Z</time>
      </trkpt>
      <trkpt lat="46.482034" lon="10.67597">
        <ele>2257.86809</ele>
        <time>2026-09-03T05:25:19.000Z</time>
      </trkpt>
      <trkpt lat="46.482043" lon="10.675932">
        <ele>2258.21679</ele>
        <time>2026-09-03T05:25:23.000Z</time>
      </trkpt>
      <trkpt lat="46.482034" lon="10.675896">
        <ele>2258.72888</ele>
        <time>2026-09-03T05:25:28.000Z</time>
      </trkpt>
      <trkpt lat="46.482015" lon="10.67587">
        <ele>2259.40614</ele>
        <time>2026-09-03T05:25:33.000Z</time>
      </trkpt>
      <trkpt lat="46.482001" lon="10.675842">
        <ele>2259.70533</ele>
        <time>2026-09-03T05:25:35.000Z</time>
      </trkpt>
      <trkpt lat="46.481998" lon="10.675794">
        <ele>2260.48028</ele>
        <time>2026-09-03T05:25:39.000Z</time>
      </trkpt>
      <trkpt lat="46.482007" lon="10.67576">
        <ele>2261.5904</ele>
        <time>2026-09-03T05:25:43.000Z</time>
      </trkpt>
      <trkpt lat="46.482" lon="10.675729">
        <ele>2262.31725</ele>
        <time>2026-09-03T05:25:46.000Z</time>
      </trkpt>
      <trkpt lat="46.481992" lon="10.675695">
        <ele>2263.26476</ele>
        <time>2026-09-03T05:25:51.000Z</time>
      </trkpt>
      <trkpt lat="46.482008" lon="10.675671">
        <ele>2263.81469</ele>
        <time>2026-09-03T05:25:54.000Z</time>
      </trkpt>
      <trkpt lat="46.482033" lon="10.675642">
        <ele>2264.56837</ele>
        <time>2026-09-03T05:25:58.001Z</time>
      </trkpt>
      <trkpt lat="46.48205" lon="10.675619">
        <ele>2265.01859</ele>
        <time>2026-09-03T05:26:00.001Z</time>
      </trkpt>
      <trkpt lat="46.482055" lon="10.675586">
        <ele>2265.58658</ele>
        <time>2026-09-03T05:26:03.001Z</time>
      </trkpt>
      <trkpt lat="46.482069" lon="10.675553">
        <ele>2266.67363</ele>
        <time>2026-09-03T05:26:08.001Z</time>
      </trkpt>
      <trkpt lat="46.482081" lon="10.675519">
        <ele>2267.18967</ele>
        <time>2026-09-03T05:26:10.001Z</time>
      </trkpt>
      <trkpt lat="46.482089" lon="10.675487">
        <ele>2267.81955</ele>
        <time>2026-09-03T05:26:13.000Z</time>
      </trkpt>
      <trkpt lat="46.482088" lon="10.675445">
        <ele>2268.58521</ele>
        <time>2026-09-03T05:26:17.000Z</time>
      </trkpt>
      <trkpt lat="46.482093" lon="10.675412">
        <ele>2268.89063</ele>
        <time>2026-09-03T05:26:20.000Z</time>
      </trkpt>
      <trkpt lat="46.482111" lon="10.675379">
        <ele>2269.25363</ele>
        <time>2026-09-03T05:26:23.000Z</time>
      </trkpt>
      <trkpt lat="46.482119" lon="10.675345">
        <ele>2269.58974</ele>
        <time>2026-09-03T05:26:26.000Z</time>
      </trkpt>
      <trkpt lat="46.482136" lon="10.67532">
        <ele>2269.86231</ele>
        <time>2026-09-03T05:26:29.000Z</time>
      </trkpt>
      <trkpt lat="46.482163" lon="10.675278">
        <ele>2270.20448</ele>
        <time>2026-09-03T05:26:32.000Z</time>
      </trkpt>
      <trkpt lat="46.48218" lon="10.675242">
        <ele>2270.75058</ele>
        <time>2026-09-03T05:26:36.000Z</time>
      </trkpt>
      <trkpt lat="46.482206" lon="10.67521">
        <ele>2271.43408</ele>
        <time>2026-09-03T05:26:39.000Z</time>
      </trkpt>
      <trkpt lat="46.482224" lon="10.675179">
        <ele>2272.06496</ele>
        <time>2026-09-03T05:26:42.000Z</time>
      </trkpt>
      <trkpt lat="46.482243" lon="10.675143">
        <ele>2272.54008</ele>
        <time>2026-09-03T05:26:45.000Z</time>
      </trkpt>
      <trkpt lat="46.482261" lon="10.675121">
        <ele>2272.81105</ele>
        <time>2026-09-03T05:26:47.000Z</time>
      </trkpt>
      <trkpt lat="46.482284" lon="10.675088">
        <ele>2273.03646</ele>
        <time>2026-09-03T05:26:49.000Z</time>
      </trkpt>
      <trkpt lat="46.4823" lon="10.675055">
        <ele>2273.46016</ele>
        <time>2026-09-03T05:26:54.000Z</time>
      </trkpt>
      <trkpt lat="46.482323" lon="10.675017">
        <ele>2273.65086</ele>
        <time>2026-09-03T05:26:57.000Z</time>
      </trkpt>
      <trkpt lat="46.48234" lon="10.674987">
        <ele>2273.89867</ele>
        <time>2026-09-03T05:27:00.000Z</time>
      </trkpt>
      <trkpt lat="46.482374" lon="10.674966">
        <ele>2274.08085</ele>
        <time>2026-09-03T05:27:02.000Z</time>
      </trkpt>
      <trkpt lat="46.482365" lon="10.67493">
        <ele>2274.38768</ele>
        <time>2026-09-03T05:27:05.000Z</time>
      </trkpt>
      <trkpt lat="46.482373" lon="10.674895">
        <ele>2274.92873</ele>
        <time>2026-09-03T05:27:10.000Z</time>
      </trkpt>
      <trkpt lat="46.482383" lon="10.674864">
        <ele>2275.31852</ele>
        <time>2026-09-03T05:27:13.000Z</time>
      </trkpt>
      <trkpt lat="46.482401" lon="10.674843">
        <ele>2275.87516</ele>
        <time>2026-09-03T05:27:17.000Z</time>
      </trkpt>
      <trkpt lat="46.482403" lon="10.674808">
        <ele>2276.32696</ele>
        <time>2026-09-03T05:27:20.000Z</time>
      </trkpt>
      <trkpt lat="46.482417" lon="10.674775">
        <ele>2277.08397</ele>
        <time>2026-09-03T05:27:24.000Z</time>
      </trkpt>
      <trkpt lat="46.482388" lon="10.674768">
        <ele>2278.00846</ele>
        <time>2026-09-03T05:27:30.000Z</time>
      </trkpt>
      <trkpt lat="46.482351" lon="10.67475">
        <ele>2278.35797</ele>
        <time>2026-09-03T05:27:33.000Z</time>
      </trkpt>
      <trkpt lat="46.48233" lon="10.674769">
        <ele>2278.83669</ele>
        <time>2026-09-03T05:27:38.000Z</time>
      </trkpt>
      <trkpt lat="46.482299" lon="10.674777">
        <ele>2279.45808</ele>
        <time>2026-09-03T05:27:45.000Z</time>
      </trkpt>
      <trkpt lat="46.482313" lon="10.67474">
        <ele>2280.00688</ele>
        <time>2026-09-03T05:27:50.000Z</time>
      </trkpt>
      <trkpt lat="46.482325" lon="10.674706">
        <ele>2280.62769</ele>
        <time>2026-09-03T05:27:56.000Z</time>
      </trkpt>
      <trkpt lat="46.482338" lon="10.674673">
        <ele>2281.81879</ele>
        <time>2026-09-03T05:28:04.001Z</time>
      </trkpt>
      <trkpt lat="46.482344" lon="10.674637">
        <ele>2282.76958</ele>
        <time>2026-09-03T05:28:10.001Z</time>
      </trkpt>
      <trkpt lat="46.482361" lon="10.674606">
        <ele>2283.45665</ele>
        <time>2026-09-03T05:28:15.001Z</time>
      </trkpt>
      <trkpt lat="46.482391" lon="10.674587">
        <ele>2283.83076</ele>
        <time>2026-09-03T05:28:18.001Z</time>
      </trkpt>
      <trkpt lat="46.482413" lon="10.674566">
        <ele>2284.30037</ele>
        <time>2026-09-03T05:28:21.001Z</time>
      </trkpt>
      <trkpt lat="46.482417" lon="10.674528">
        <ele>2285.00891</ele>
        <time>2026-09-03T05:28:25.000Z</time>
      </trkpt>
      <trkpt lat="46.482422" lon="10.674494">
        <ele>2285.78018</ele>
        <time>2026-09-03T05:28:29.000Z</time>
      </trkpt>
      <trkpt lat="46.482441" lon="10.674463">
        <ele>2286.36248</ele>
        <time>2026-09-03T05:28:32.000Z</time>
      </trkpt>
      <trkpt lat="46.482459" lon="10.674432">
        <ele>2287.07069</ele>
        <time>2026-09-03T05:28:36.000Z</time>
      </trkpt>
      <trkpt lat="46.482468" lon="10.674392">
        <ele>2287.80081</ele>
        <time>2026-09-03T05:28:40.000Z</time>
      </trkpt>
      <trkpt lat="46.482494" lon="10.674366">
        <ele>2288.62309</ele>
        <time>2026-09-03T05:28:44.000Z</time>
      </trkpt>
      <trkpt lat="46.482513" lon="10.674332">
        <ele>2289.20686</ele>
        <time>2026-09-03T05:28:48.000Z</time>
      </trkpt>
      <trkpt lat="46.482533" lon="10.674309">
        <ele>2289.91709</ele>
        <time>2026-09-03T05:28:52.000Z</time>
      </trkpt>
      <trkpt lat="46.482509" lon="10.674292">
        <ele>2290.48834</ele>
        <time>2026-09-03T05:28:55.000Z</time>
      </trkpt>
      <trkpt lat="46.48252" lon="10.67425">
        <ele>2291.41616</ele>
        <time>2026-09-03T05:29:01.000Z</time>
      </trkpt>
      <trkpt lat="46.482532" lon="10.67422">
        <ele>2291.95718</ele>
        <time>2026-09-03T05:29:03.000Z</time>
      </trkpt>
      <trkpt lat="46.482556" lon="10.674198">
        <ele>2292.758</ele>
        <time>2026-09-03T05:29:06.000Z</time>
      </trkpt>
      <trkpt lat="46.482574" lon="10.674168">
        <ele>2294.03182</ele>
        <time>2026-09-03T05:29:12.000Z</time>
      </trkpt>
      <trkpt lat="46.482595" lon="10.674144">
        <ele>2295.04901</ele>
        <time>2026-09-03T05:29:17.000Z</time>
      </trkpt>
      <trkpt lat="46.482617" lon="10.67413">
        <ele>2296.23907</ele>
        <time>2026-09-03T05:29:23.000Z</time>
      </trkpt>
      <trkpt lat="46.482628" lon="10.674098">
        <ele>2297.11011</ele>
        <time>2026-09-03T05:29:28.000Z</time>
      </trkpt>
      <trkpt lat="46.482644" lon="10.674069">
        <ele>2298.1049</ele>
        <time>2026-09-03T05:29:33.000Z</time>
      </trkpt>
      <trkpt lat="46.482649" lon="10.674036">
        <ele>2299.30784</ele>
        <time>2026-09-03T05:29:39.000Z</time>
      </trkpt>
      <trkpt lat="46.48267" lon="10.674024">
        <ele>2300.56352</ele>
        <time>2026-09-03T05:29:44.000Z</time>
      </trkpt>
      <trkpt lat="46.482702" lon="10.673998">
        <ele>2301.99162</ele>
        <time>2026-09-03T05:29:50.000Z</time>
      </trkpt>
      <trkpt lat="46.482703" lon="10.67396">
        <ele>2303.03693</ele>
        <time>2026-09-03T05:29:56.000Z</time>
      </trkpt>
      <trkpt lat="46.482721" lon="10.673939">
        <ele>2303.80717</ele>
        <time>2026-09-03T05:30:02.000Z</time>
      </trkpt>
      <trkpt lat="46.482732" lon="10.67391">
        <ele>2304.46196</ele>
        <time>2026-09-03T05:30:07.001Z</time>
      </trkpt>
      <trkpt lat="46.482758" lon="10.6739">
        <ele>2305.52576</ele>
        <time>2026-09-03T05:30:14.001Z</time>
      </trkpt>
      <trkpt lat="46.48278" lon="10.673885">
        <ele>2306.37111</ele>
        <time>2026-09-03T05:30:19.001Z</time>
      </trkpt>
      <trkpt lat="46.482802" lon="10.673868">
        <ele>2307.12605</ele>
        <time>2026-09-03T05:30:23.001Z</time>
      </trkpt>
      <trkpt lat="46.482817" lon="10.673835">
        <ele>2307.77925</ele>
        <time>2026-09-03T05:30:27.000Z</time>
      </trkpt>
      <trkpt lat="46.48285" lon="10.673823">
        <ele>2308.5644</ele>
        <time>2026-09-03T05:30:33.000Z</time>
      </trkpt>
      <trkpt lat="46.482878" lon="10.673813">
        <ele>2308.95319</ele>
        <time>2026-09-03T05:30:36.000Z</time>
      </trkpt>
      <trkpt lat="46.482914" lon="10.673799">
        <ele>2309.44896</ele>
        <time>2026-09-03T05:30:40.000Z</time>
      </trkpt>
      <trkpt lat="46.482948" lon="10.673804">
        <ele>2309.74419</ele>
        <time>2026-09-03T05:30:43.000Z</time>
      </trkpt>
      <trkpt lat="46.482982" lon="10.673788">
        <ele>2309.99312</ele>
        <time>2026-09-03T05:30:46.000Z</time>
      </trkpt>
      <trkpt lat="46.483006" lon="10.673774">
        <ele>2310.22175</ele>
        <time>2026-09-03T05:30:49.000Z</time>
      </trkpt>
      <trkpt lat="46.483033" lon="10.673766">
        <ele>2310.4067</ele>
        <time>2026-09-03T05:30:52.000Z</time>
      </trkpt>
      <trkpt lat="46.483058" lon="10.67378">
        <ele>2310.52738</ele>
        <time>2026-09-03T05:30:54.000Z</time>
      </trkpt>
      <trkpt lat="46.483087" lon="10.673749">
        <ele>2310.78196</ele>
        <time>2026-09-03T05:30:58.000Z</time>
      </trkpt>
      <trkpt lat="46.483101" lon="10.673713">
        <ele>2311.08738</ele>
        <time>2026-09-03T05:31:02.000Z</time>
      </trkpt>
      <trkpt lat="46.483122" lon="10.673684">
        <ele>2311.23133</ele>
        <time>2026-09-03T05:31:04.000Z</time>
      </trkpt>
      <trkpt lat="46.483142" lon="10.673655">
        <ele>2311.85099</ele>
        <time>2026-09-03T05:31:12.000Z</time>
      </trkpt>
      <trkpt lat="46.483153" lon="10.673623">
        <ele>2312.09741</ele>
        <time>2026-09-03T05:31:15.000Z</time>
      </trkpt>
      <trkpt lat="46.483173" lon="10.673607">
        <ele>2312.29092</ele>
        <time>2026-09-03T05:31:17.000Z</time>
      </trkpt>
      <trkpt lat="46.483197" lon="10.6736">
        <ele>2312.50667</ele>
        <time>2026-09-03T05:31:20.000Z</time>
      </trkpt>
      <trkpt lat="46.483227" lon="10.673599">
        <ele>2312.6951</ele>
        <time>2026-09-03T05:31:23.000Z</time>
      </trkpt>
      <trkpt lat="46.483246" lon="10.673581">
        <ele>2312.86165</ele>
        <time>2026-09-03T05:31:25.000Z</time>
      </trkpt>
      <trkpt lat="46.48327" lon="10.673551">
        <ele>2313.05098</ele>
        <time>2026-09-03T05:31:28.000Z</time>
      </trkpt>
      <trkpt lat="46.483294" lon="10.673549">
        <ele>2313.21709</ele>
        <time>2026-09-03T05:31:30.000Z</time>
      </trkpt>
      <trkpt lat="46.483314" lon="10.673506">
        <ele>2313.4568</ele>
        <time>2026-09-03T05:31:33.000Z</time>
      </trkpt>
      <trkpt lat="46.483334" lon="10.673483">
        <ele>2313.54502</ele>
        <time>2026-09-03T05:31:34.000Z</time>
      </trkpt>
      <trkpt lat="46.483353" lon="10.673458">
        <ele>2313.80656</ele>
        <time>2026-09-03T05:31:38.000Z</time>
      </trkpt>
      <trkpt lat="46.483369" lon="10.67343">
        <ele>2314.07104</ele>
        <time>2026-09-03T05:31:42.000Z</time>
      </trkpt>
      <trkpt lat="46.483393" lon="10.673405">
        <ele>2314.2116</ele>
        <time>2026-09-03T05:31:44.000Z</time>
      </trkpt>
      <trkpt lat="46.483401" lon="10.673362">
        <ele>2314.3267</ele>
        <time>2026-09-03T05:31:47.000Z</time>
      </trkpt>
      <trkpt lat="46.483422" lon="10.673339">
        <ele>2314.40244</ele>
        <time>2026-09-03T05:31:49.000Z</time>
      </trkpt>
      <trkpt lat="46.483441" lon="10.673323">
        <ele>2314.45352</ele>
        <time>2026-09-03T05:31:51.000Z</time>
      </trkpt>
      <trkpt lat="46.483475" lon="10.673315">
        <ele>2314.55757</ele>
        <time>2026-09-03T05:31:54.000Z</time>
      </trkpt>
      <trkpt lat="46.483498" lon="10.673303">
        <ele>2314.63411</ele>
        <time>2026-09-03T05:31:56.000Z</time>
      </trkpt>
      <trkpt lat="46.483523" lon="10.673304">
        <ele>2314.73503</ele>
        <time>2026-09-03T05:31:58.000Z</time>
      </trkpt>
      <trkpt lat="46.48355" lon="10.673283">
        <ele>2314.96403</ele>
        <time>2026-09-03T05:32:01.000Z</time>
      </trkpt>
      <trkpt lat="46.483569" lon="10.673266">
        <ele>2315.10984</ele>
        <time>2026-09-03T05:32:03.000Z</time>
      </trkpt>
      <trkpt lat="46.483574" lon="10.673232">
        <ele>2315.36575</ele>
        <time>2026-09-03T05:32:06.000Z</time>
      </trkpt>
      <trkpt lat="46.4836" lon="10.673213">
        <ele>2315.7598</ele>
        <time>2026-09-03T05:32:09.000Z</time>
      </trkpt>
      <trkpt lat="46.483627" lon="10.673205">
        <ele>2316.05366</ele>
        <time>2026-09-03T05:32:11.000Z</time>
      </trkpt>
      <trkpt lat="46.483653" lon="10.673188">
        <ele>2316.47869</ele>
        <time>2026-09-03T05:32:14.001Z</time>
      </trkpt>
      <trkpt lat="46.483689" lon="10.673172">
        <ele>2316.94266</ele>
        <time>2026-09-03T05:32:17.000Z</time>
      </trkpt>
      <trkpt lat="46.483713" lon="10.673159">
        <ele>2317.4978</ele>
        <time>2026-09-03T05:32:20.000Z</time>
      </trkpt>
      <trkpt lat="46.483736" lon="10.673155">
        <ele>2318.12406</ele>
        <time>2026-09-03T05:32:23.000Z</time>
      </trkpt>
      <trkpt lat="46.483756" lon="10.673125">
        <ele>2318.97742</ele>
        <time>2026-09-03T05:32:27.000Z</time>
      </trkpt>
      <trkpt lat="46.483784" lon="10.673109">
        <ele>2320.12605</ele>
        <time>2026-09-03T05:32:32.000Z</time>
      </trkpt>
      <trkpt lat="46.483763" lon="10.673094">
        <ele>2322.55894</ele>
        <time>2026-09-03T05:32:48.000Z</time>
      </trkpt>
      <trkpt lat="46.48379" lon="10.673093">
        <ele>2322.81139</ele>
        <time>2026-09-03T05:32:54.000Z</time>
      </trkpt>
      <trkpt lat="46.483821" lon="10.673091">
        <ele>2322.98466</ele>
        <time>2026-09-03T05:32:58.000Z</time>
      </trkpt>
      <trkpt lat="46.48385" lon="10.673077">
        <ele>2323.32793</ele>
        <time>2026-09-03T05:33:04.000Z</time>
      </trkpt>
      <trkpt lat="46.483878" lon="10.673055">
        <ele>2323.54817</ele>
        <time>2026-09-03T05:33:08.000Z</time>
      </trkpt>
      <trkpt lat="46.483899" lon="10.673037">
        <ele>2323.80452</ele>
        <time>2026-09-03T05:33:12.000Z</time>
      </trkpt>
      <trkpt lat="46.483928" lon="10.673033">
        <ele>2323.93401</ele>
        <time>2026-09-03T05:33:14.000Z</time>
      </trkpt>
      <trkpt lat="46.483955" lon="10.673017">
        <ele>2324.2094</ele>
        <time>2026-09-03T05:33:18.000Z</time>
      </trkpt>
      <trkpt lat="46.48398" lon="10.673019">
        <ele>2324.41212</ele>
        <time>2026-09-03T05:33:21.000Z</time>
      </trkpt>
      <trkpt lat="46.484005" lon="10.673003">
        <ele>2324.81235</ele>
        <time>2026-09-03T05:33:25.000Z</time>
      </trkpt>
      <trkpt lat="46.484028" lon="10.672998">
        <ele>2325.04663</ele>
        <time>2026-09-03T05:33:27.000Z</time>
      </trkpt>
      <trkpt lat="46.484043" lon="10.672962">
        <ele>2325.48737</ele>
        <time>2026-09-03T05:33:30.000Z</time>
      </trkpt>
      <trkpt lat="46.484064" lon="10.672946">
        <ele>2325.87945</ele>
        <time>2026-09-03T05:33:33.000Z</time>
      </trkpt>
      <trkpt lat="46.484089" lon="10.672919">
        <ele>2326.35976</ele>
        <time>2026-09-03T05:33:39.000Z</time>
      </trkpt>
      <trkpt lat="46.484076" lon="10.672892">
        <ele>2327.34122</ele>
        <time>2026-09-03T05:33:59.999Z</time>
      </trkpt>
      <trkpt lat="46.484067" lon="10.672845">
        <ele>2327.36278</ele>
        <time>2026-09-03T05:34:02.999Z</time>
      </trkpt>
      <trkpt lat="46.484089" lon="10.672808">
        <ele>2327.36112</ele>
        <time>2026-09-03T05:34:04.999Z</time>
      </trkpt>
      <trkpt lat="46.484098" lon="10.672771">
        <ele>2327.35382</ele>
        <time>2026-09-03T05:34:07.999Z</time>
      </trkpt>
      <trkpt lat="46.484113" lon="10.672731">
        <ele>2327.31614</ele>
        <time>2026-09-03T05:34:10.999Z</time>
      </trkpt>
      <trkpt lat="46.484121" lon="10.672687">
        <ele>2327.24551</ele>
        <time>2026-09-03T05:34:14.999Z</time>
      </trkpt>
      <trkpt lat="46.48414" lon="10.672653">
        <ele>2327.17941</ele>
        <time>2026-09-03T05:34:17.999Z</time>
      </trkpt>
      <trkpt lat="46.484156" lon="10.672628">
        <ele>2326.79726</ele>
        <time>2026-09-03T05:34:30.000Z</time>
      </trkpt>
      <trkpt lat="46.484138" lon="10.672658">
        <ele>2326.59425</ele>
        <time>2026-09-03T05:34:36.000Z</time>
      </trkpt>
      <trkpt lat="46.484154" lon="10.67262">
        <ele>2326.2834</ele>
        <time>2026-09-03T05:34:52.000Z</time>
      </trkpt>
      <trkpt lat="46.484148" lon="10.672564">
        <ele>2326.14816</ele>
        <time>2026-09-03T05:34:56.000Z</time>
      </trkpt>
      <trkpt lat="46.484154" lon="10.672524">
        <ele>2325.9633</ele>
        <time>2026-09-03T05:35:00.000Z</time>
      </trkpt>
      <trkpt lat="46.484166" lon="10.672484">
        <ele>2325.82906</ele>
        <time>2026-09-03T05:35:03.000Z</time>
      </trkpt>
      <trkpt lat="46.484174" lon="10.672452">
        <ele>2325.7535</ele>
        <time>2026-09-03T05:35:05.000Z</time>
      </trkpt>
      <trkpt lat="46.484187" lon="10.67242">
        <ele>2325.66954</ele>
        <time>2026-09-03T05:35:08.000Z</time>
      </trkpt>
      <trkpt lat="46.484184" lon="10.672375">
        <ele>2325.5584</ele>
        <time>2026-09-03T05:35:11.000Z</time>
      </trkpt>
      <trkpt lat="46.484192" lon="10.672343">
        <ele>2325.40946</ele>
        <time>2026-09-03T05:35:15.000Z</time>
      </trkpt>
      <trkpt lat="46.484186" lon="10.6723">
        <ele>2325.28337</ele>
        <time>2026-09-03T05:35:18.000Z</time>
      </trkpt>
      <trkpt lat="46.484197" lon="10.672254">
        <ele>2325.21389</ele>
        <time>2026-09-03T05:35:20.000Z</time>
      </trkpt>
      <trkpt lat="46.484218" lon="10.672214">
        <ele>2325.0725</ele>
        <time>2026-09-03T05:35:23.000Z</time>
      </trkpt>
      <trkpt lat="46.48423" lon="10.672187">
        <ele>2325.01944</ele>
        <time>2026-09-03T05:35:25.000Z</time>
      </trkpt>
      <trkpt lat="46.484231" lon="10.67215">
        <ele>2324.9981</ele>
        <time>2026-09-03T05:35:26.000Z</time>
      </trkpt>
      <trkpt lat="46.484244" lon="10.67212">
        <ele>2324.94914</ele>
        <time>2026-09-03T05:35:29.000Z</time>
      </trkpt>
      <trkpt lat="46.484257" lon="10.672076">
        <ele>2324.90984</ele>
        <time>2026-09-03T05:35:32.000Z</time>
      </trkpt>
      <trkpt lat="46.484269" lon="10.672037">
        <ele>2324.88295</ele>
        <time>2026-09-03T05:35:35.000Z</time>
      </trkpt>
      <trkpt lat="46.484294" lon="10.672002">
        <ele>2324.87126</ele>
        <time>2026-09-03T05:35:37.000Z</time>
      </trkpt>
      <trkpt lat="46.484308" lon="10.671977">
        <ele>2324.86756</ele>
        <time>2026-09-03T05:35:39.000Z</time>
      </trkpt>
      <trkpt lat="46.484305" lon="10.671935">
        <ele>2324.86361</ele>
        <time>2026-09-03T05:35:42.000Z</time>
      </trkpt>
      <trkpt lat="46.484315" lon="10.671895">
        <ele>2324.86741</ele>
        <time>2026-09-03T05:35:44.000Z</time>
      </trkpt>
      <trkpt lat="46.484333" lon="10.671863">
        <ele>2324.87336</ele>
        <time>2026-09-03T05:35:45.999Z</time>
      </trkpt>
      <trkpt lat="46.48435" lon="10.671832">
        <ele>2324.89432</ele>
        <time>2026-09-03T05:35:48.999Z</time>
      </trkpt>
      <trkpt lat="46.484371" lon="10.671789">
        <ele>2324.90483</ele>
        <time>2026-09-03T05:35:51.999Z</time>
      </trkpt>
      <trkpt lat="46.484383" lon="10.671752">
        <ele>2324.90696</ele>
        <time>2026-09-03T05:35:53.999Z</time>
      </trkpt>
      <trkpt lat="46.484399" lon="10.671721">
        <ele>2324.90946</ele>
        <time>2026-09-03T05:35:55.999Z</time>
      </trkpt>
      <trkpt lat="46.484418" lon="10.671697">
        <ele>2324.91232</ele>
        <time>2026-09-03T05:35:58.999Z</time>
      </trkpt>
      <trkpt lat="46.484435" lon="10.671648">
        <ele>2324.91239</ele>
        <time>2026-09-03T05:36:01.999Z</time>
      </trkpt>
      <trkpt lat="46.484438" lon="10.671606">
        <ele>2324.91191</ele>
        <time>2026-09-03T05:36:03.999Z</time>
      </trkpt>
      <trkpt lat="46.484447" lon="10.671555">
        <ele>2324.9116</ele>
        <time>2026-09-03T05:36:06.999Z</time>
      </trkpt>
      <trkpt lat="46.484467" lon="10.671517">
        <ele>2324.90876</ele>
        <time>2026-09-03T05:36:08.999Z</time>
      </trkpt>
      <trkpt lat="46.484477" lon="10.671485">
        <ele>2324.91568</ele>
        <time>2026-09-03T05:36:10.999Z</time>
      </trkpt>
      <trkpt lat="46.484478" lon="10.671448">
        <ele>2324.92149</ele>
        <time>2026-09-03T05:36:12.999Z</time>
      </trkpt>
      <trkpt lat="46.484492" lon="10.671408">
        <ele>2324.93193</ele>
        <time>2026-09-03T05:36:15.999Z</time>
      </trkpt>
      <trkpt lat="46.484481" lon="10.671374">
        <ele>2324.94197</ele>
        <time>2026-09-03T05:36:17.999Z</time>
      </trkpt>
      <trkpt lat="46.48449" lon="10.671343">
        <ele>2324.95154</ele>
        <time>2026-09-03T05:36:19.999Z</time>
      </trkpt>
      <trkpt lat="46.4845" lon="10.671287">
        <ele>2324.96312</ele>
        <time>2026-09-03T05:36:22.999Z</time>
      </trkpt>
      <trkpt lat="46.484515" lon="10.67124">
        <ele>2324.98858</ele>
        <time>2026-09-03T05:36:26.000Z</time>
      </trkpt>
      <trkpt lat="46.484518" lon="10.671198">
        <ele>2325.01632</ele>
        <time>2026-09-03T05:36:29.000Z</time>
      </trkpt>
      <trkpt lat="46.484525" lon="10.671153">
        <ele>2325.04841</ele>
        <time>2026-09-03T05:36:31.000Z</time>
      </trkpt>
      <trkpt lat="46.484522" lon="10.67112">
        <ele>2325.07257</ele>
        <time>2026-09-03T05:36:33.000Z</time>
      </trkpt>
      <trkpt lat="46.484534" lon="10.671087">
        <ele>2325.09079</ele>
        <time>2026-09-03T05:36:35.000Z</time>
      </trkpt>
      <trkpt lat="46.484539" lon="10.671055">
        <ele>2325.09914</ele>
        <time>2026-09-03T05:36:37.000Z</time>
      </trkpt>
      <trkpt lat="46.484548" lon="10.671005">
        <ele>2325.12241</ele>
        <time>2026-09-03T05:36:40.000Z</time>
      </trkpt>
      <trkpt lat="46.484551" lon="10.670969">
        <ele>2325.16794</ele>
        <time>2026-09-03T05:36:43.000Z</time>
      </trkpt>
      <trkpt lat="46.48455" lon="10.670931">
        <ele>2325.20059</ele>
        <time>2026-09-03T05:36:45.000Z</time>
      </trkpt>
      <trkpt lat="46.484562" lon="10.67088">
        <ele>2325.23281</ele>
        <time>2026-09-03T05:36:47.000Z</time>
      </trkpt>
      <trkpt lat="46.484562" lon="10.670837">
        <ele>2325.30084</ele>
        <time>2026-09-03T05:36:51.000Z</time>
      </trkpt>
      <trkpt lat="46.48457" lon="10.670798">
        <ele>2325.39653</ele>
        <time>2026-09-03T05:36:54.000Z</time>
      </trkpt>
      <trkpt lat="46.484593" lon="10.670771">
        <ele>2325.54513</ele>
        <time>2026-09-03T05:36:57.000Z</time>
      </trkpt>
      <trkpt lat="46.48462" lon="10.670768">
        <ele>2325.6398</ele>
        <time>2026-09-03T05:36:59.000Z</time>
      </trkpt>
      <trkpt lat="46.484641" lon="10.670787">
        <ele>2325.73894</ele>
        <time>2026-09-03T05:37:01.000Z</time>
      </trkpt>
      <trkpt lat="46.484696" lon="10.670785">
        <ele>2325.8192</ele>
        <time>2026-09-03T05:37:04.000Z</time>
      </trkpt>
      <trkpt lat="46.484721" lon="10.670778">
        <ele>2325.94784</ele>
        <time>2026-09-03T05:37:08.000Z</time>
      </trkpt>
      <trkpt lat="46.484762" lon="10.670769">
        <ele>2326.01758</ele>
        <time>2026-09-03T05:37:10.000Z</time>
      </trkpt>
      <trkpt lat="46.484784" lon="10.670734">
        <ele>2326.11139</ele>
        <time>2026-09-03T05:37:13.000Z</time>
      </trkpt>
      <trkpt lat="46.484803" lon="10.670716">
        <ele>2326.17604</ele>
        <time>2026-09-03T05:37:15.000Z</time>
      </trkpt>
      <trkpt lat="46.484824" lon="10.670689">
        <ele>2326.28611</ele>
        <time>2026-09-03T05:37:19.000Z</time>
      </trkpt>
      <trkpt lat="46.484855" lon="10.670647">
        <ele>2326.33913</ele>
        <time>2026-09-03T05:37:21.000Z</time>
      </trkpt>
      <trkpt lat="46.484863" lon="10.670604">
        <ele>2326.41479</ele>
        <time>2026-09-03T05:37:24.000Z</time>
      </trkpt>
      <trkpt lat="46.484879" lon="10.67058">
        <ele>2326.47517</ele>
        <time>2026-09-03T05:37:26.000Z</time>
      </trkpt>
      <trkpt lat="46.484899" lon="10.670545">
        <ele>2326.5629</ele>
        <time>2026-09-03T05:37:28.000Z</time>
      </trkpt>
      <trkpt lat="46.484917" lon="10.670505">
        <ele>2326.78296</ele>
        <time>2026-09-03T05:37:31.000Z</time>
      </trkpt>
      <trkpt lat="46.484931" lon="10.670479">
        <ele>2326.89465</ele>
        <time>2026-09-03T05:37:32.999Z</time>
      </trkpt>
      <trkpt lat="46.484943" lon="10.670439">
        <ele>2327.03677</ele>
        <time>2026-09-03T05:37:34.999Z</time>
      </trkpt>
      <trkpt lat="46.484951" lon="10.670404">
        <ele>2327.18067</ele>
        <time>2026-09-03T05:37:36.999Z</time>
      </trkpt>
      <trkpt lat="46.484949" lon="10.670371">
        <ele>2327.32485</ele>
        <time>2026-09-03T05:37:38.999Z</time>
      </trkpt>
      <trkpt lat="46.484952" lon="10.670318">
        <ele>2327.52124</ele>
        <time>2026-09-03T05:37:41.999Z</time>
      </trkpt>
      <trkpt lat="46.48496" lon="10.670276">
        <ele>2328.02254</ele>
        <time>2026-09-03T05:37:46.999Z</time>
      </trkpt>
      <trkpt lat="46.484982" lon="10.670225">
        <ele>2328.43074</ele>
        <time>2026-09-03T05:37:49.999Z</time>
      </trkpt>
      <trkpt lat="46.484978" lon="10.670192">
        <ele>2328.86621</ele>
        <time>2026-09-03T05:37:52.999Z</time>
      </trkpt>
      <trkpt lat="46.484979" lon="10.670159">
        <ele>2329.69923</ele>
        <time>2026-09-03T05:37:58.999Z</time>
      </trkpt>
      <trkpt lat="46.484998" lon="10.67013">
        <ele>2330.24986</ele>
        <time>2026-09-03T05:38:01.999Z</time>
      </trkpt>
      <trkpt lat="46.485031" lon="10.670123">
        <ele>2331.11465</ele>
        <time>2026-09-03T05:38:06.999Z</time>
      </trkpt>
      <trkpt lat="46.48507" lon="10.670103">
        <ele>2331.7389</ele>
        <time>2026-09-03T05:38:10.999Z</time>
      </trkpt>
      <trkpt lat="46.485104" lon="10.670105">
        <ele>2332.35956</ele>
        <time>2026-09-03T05:38:15.999Z</time>
      </trkpt>
      <trkpt lat="46.485127" lon="10.670123">
        <ele>2332.54241</ele>
        <time>2026-09-03T05:38:17.999Z</time>
      </trkpt>
      <trkpt lat="46.485149" lon="10.670152">
        <ele>2333.36919</ele>
        <time>2026-09-03T05:38:23.999Z</time>
      </trkpt>
      <trkpt lat="46.485173" lon="10.670169">
        <ele>2333.7688</ele>
        <time>2026-09-03T05:38:26.999Z</time>
      </trkpt>
      <trkpt lat="46.485188" lon="10.670194">
        <ele>2334.45617</ele>
        <time>2026-09-03T05:38:32.000Z</time>
      </trkpt>
      <trkpt lat="46.485212" lon="10.67021">
        <ele>2335.09031</ele>
        <time>2026-09-03T05:38:36.000Z</time>
      </trkpt>
      <trkpt lat="46.485246" lon="10.670196">
        <ele>2335.54774</ele>
        <time>2026-09-03T05:38:39.000Z</time>
      </trkpt>
      <trkpt lat="46.485268" lon="10.670208">
        <ele>2336.25452</ele>
        <time>2026-09-03T05:38:43.000Z</time>
      </trkpt>
      <trkpt lat="46.485289" lon="10.670189">
        <ele>2337.01789</ele>
        <time>2026-09-03T05:38:47.000Z</time>
      </trkpt>
      <trkpt lat="46.485323" lon="10.670214">
        <ele>2338.07073</ele>
        <time>2026-09-03T05:38:52.000Z</time>
      </trkpt>
      <trkpt lat="46.485347" lon="10.67022">
        <ele>2338.98387</ele>
        <time>2026-09-03T05:38:57.000Z</time>
      </trkpt>
      <trkpt lat="46.485361" lon="10.670247">
        <ele>2339.50107</ele>
        <time>2026-09-03T05:39:00.000Z</time>
      </trkpt>
      <trkpt lat="46.485393" lon="10.670255">
        <ele>2339.97934</ele>
        <time>2026-09-03T05:39:03.000Z</time>
      </trkpt>
      <trkpt lat="46.485418" lon="10.670235">
        <ele>2340.41021</ele>
        <time>2026-09-03T05:39:06.000Z</time>
      </trkpt>
      <trkpt lat="46.485445" lon="10.670224">
        <ele>2340.88814</ele>
        <time>2026-09-03T05:39:09.000Z</time>
      </trkpt>
      <trkpt lat="46.485473" lon="10.670235">
        <ele>2341.23179</ele>
        <time>2026-09-03T05:39:12.000Z</time>
      </trkpt>
      <trkpt lat="46.485499" lon="10.670241">
        <ele>2341.53625</ele>
        <time>2026-09-03T05:39:16.000Z</time>
      </trkpt>
      <trkpt lat="46.485526" lon="10.670251">
        <ele>2342.06086</ele>
        <time>2026-09-03T05:39:22.000Z</time>
      </trkpt>
      <trkpt lat="46.485552" lon="10.670231">
        <ele>2342.45818</ele>
        <time>2026-09-03T05:39:26.000Z</time>
      </trkpt>
      <trkpt lat="46.48558" lon="10.670216">
        <ele>2342.71845</ele>
        <time>2026-09-03T05:39:28.000Z</time>
      </trkpt>
      <trkpt lat="46.485594" lon="10.670188">
        <ele>2342.97551</ele>
        <time>2026-09-03T05:39:30.000Z</time>
      </trkpt>
      <trkpt lat="46.485593" lon="10.670142">
        <ele>2343.84908</ele>
        <time>2026-09-03T05:39:35.000Z</time>
      </trkpt>
      <trkpt lat="46.485604" lon="10.670106">
        <ele>2344.26504</ele>
        <time>2026-09-03T05:39:37.000Z</time>
      </trkpt>
      <trkpt lat="46.485604" lon="10.670072">
        <ele>2344.9247</ele>
        <time>2026-09-03T05:39:40.000Z</time>
      </trkpt>
      <trkpt lat="46.485621" lon="10.670038">
        <ele>2345.44157</ele>
        <time>2026-09-03T05:39:42.000Z</time>
      </trkpt>
      <trkpt lat="46.48559" lon="10.670031">
        <ele>2345.90195</ele>
        <time>2026-09-03T05:39:44.000Z</time>
      </trkpt>
      <trkpt lat="46.485578" lon="10.669988">
        <ele>2346.5113</ele>
        <time>2026-09-03T05:39:47.000Z</time>
      </trkpt>
      <trkpt lat="46.485588" lon="10.669942">
        <ele>2347.59136</ele>
        <time>2026-09-03T05:39:51.999Z</time>
      </trkpt>
      <trkpt lat="46.485605" lon="10.669905">
        <ele>2348.03273</ele>
        <time>2026-09-03T05:39:53.999Z</time>
      </trkpt>
      <trkpt lat="46.485581" lon="10.669876">
        <ele>2348.59496</ele>
        <time>2026-09-03T05:39:56.999Z</time>
      </trkpt>
      <trkpt lat="46.485596" lon="10.669847">
        <ele>2349.32527</ele>
        <time>2026-09-03T05:40:01.999Z</time>
      </trkpt>
      <trkpt lat="46.485596" lon="10.669809">
        <ele>2350.09423</ele>
        <time>2026-09-03T05:40:07.999Z</time>
      </trkpt>
      <trkpt lat="46.485599" lon="10.66977">
        <ele>2350.43354</ele>
        <time>2026-09-03T05:40:10.999Z</time>
      </trkpt>
      <trkpt lat="46.485598" lon="10.669727">
        <ele>2350.73301</ele>
        <time>2026-09-03T05:40:14.999Z</time>
      </trkpt>
      <trkpt lat="46.485583" lon="10.669675">
        <ele>2350.80124</ele>
        <time>2026-09-03T05:40:15.999Z</time>
      </trkpt>
      <trkpt lat="46.48557" lon="10.669635">
        <ele>2351.12922</ele>
        <time>2026-09-03T05:40:19.999Z</time>
      </trkpt>
      <trkpt lat="46.485566" lon="10.669602">
        <ele>2351.66734</ele>
        <time>2026-09-03T05:40:23.999Z</time>
      </trkpt>
      <trkpt lat="46.485564" lon="10.669556">
        <ele>2352.22717</ele>
        <time>2026-09-03T05:40:27.999Z</time>
      </trkpt>
      <trkpt lat="46.485572" lon="10.669503">
        <ele>2352.89822</ele>
        <time>2026-09-03T05:40:31.999Z</time>
      </trkpt>
      <trkpt lat="46.485573" lon="10.669467">
        <ele>2354.16019</ele>
        <time>2026-09-03T05:40:39.000Z</time>
      </trkpt>
      <trkpt lat="46.48558" lon="10.669433">
        <ele>2355.11973</ele>
        <time>2026-09-03T05:40:43.000Z</time>
      </trkpt>
      <trkpt lat="46.485584" lon="10.66939">
        <ele>2355.60497</ele>
        <time>2026-09-03T05:40:45.000Z</time>
      </trkpt>
      <trkpt lat="46.485585" lon="10.669324">
        <ele>2356.78578</ele>
        <time>2026-09-03T05:40:50.000Z</time>
      </trkpt>
      <trkpt lat="46.485592" lon="10.66929">
        <ele>2357.5807</ele>
        <time>2026-09-03T05:40:54.000Z</time>
      </trkpt>
      <trkpt lat="46.485591" lon="10.669241">
        <ele>2358.2789</ele>
        <time>2026-09-03T05:40:58.000Z</time>
      </trkpt>
      <trkpt lat="46.485596" lon="10.669198">
        <ele>2358.90265</ele>
        <time>2026-09-03T05:41:03.000Z</time>
      </trkpt>
      <trkpt lat="46.485598" lon="10.669161">
        <ele>2359.07317</ele>
        <time>2026-09-03T05:41:05.000Z</time>
      </trkpt>
      <trkpt lat="46.485617" lon="10.669135">
        <ele>2359.56288</ele>
        <time>2026-09-03T05:41:10.000Z</time>
      </trkpt>
      <trkpt lat="46.485647" lon="10.669114">
        <ele>2359.73351</ele>
        <time>2026-09-03T05:41:12.000Z</time>
      </trkpt>
      <trkpt lat="46.48567" lon="10.66911">
        <ele>2359.81062</ele>
        <time>2026-09-03T05:41:13.000Z</time>
      </trkpt>
      <trkpt lat="46.485692" lon="10.669097">
        <ele>2360.35495</ele>
        <time>2026-09-03T05:41:18.000Z</time>
      </trkpt>
      <trkpt lat="46.485724" lon="10.66909">
        <ele>2360.59961</ele>
        <time>2026-09-03T05:41:20.000Z</time>
      </trkpt>
      <trkpt lat="46.485746" lon="10.669069">
        <ele>2360.8447</ele>
        <time>2026-09-03T05:41:22.000Z</time>
      </trkpt>
      <trkpt lat="46.48577" lon="10.669063">
        <ele>2361.19613</ele>
        <time>2026-09-03T05:41:25.000Z</time>
      </trkpt>
      <trkpt lat="46.48575" lon="10.669045">
        <ele>2362.50723</ele>
        <time>2026-09-03T05:41:50.000Z</time>
      </trkpt>
      <trkpt lat="46.48577" lon="10.669066">
        <ele>2362.63027</ele>
        <time>2026-09-03T05:42:48.000Z</time>
      </trkpt>
      <trkpt lat="46.485745" lon="10.669058">
        <ele>2362.96147</ele>
        <time>2026-09-03T05:43:29.000Z</time>
      </trkpt>
      <trkpt lat="46.485713" lon="10.669024">
        <ele>2362.98886</ele>
        <time>2026-09-03T05:43:32.000Z</time>
      </trkpt>
      <trkpt lat="46.485691" lon="10.669003">
        <ele>2363.00942</ele>
        <time>2026-09-03T05:43:35.000Z</time>
      </trkpt>
      <trkpt lat="46.485663" lon="10.668983">
        <ele>2363.01682</ele>
        <time>2026-09-03T05:43:37.000Z</time>
      </trkpt>
      <trkpt lat="46.485631" lon="10.668968">
        <ele>2363.0279</ele>
        <time>2026-09-03T05:43:43.000Z</time>
      </trkpt>
      <trkpt lat="46.485598" lon="10.668956">
        <ele>2363.02472</ele>
        <time>2026-09-03T05:43:46.000Z</time>
      </trkpt>
      <trkpt lat="46.485584" lon="10.668931">
        <ele>2363.01467</ele>
        <time>2026-09-03T05:43:49.000Z</time>
      </trkpt>
      <trkpt lat="46.485576" lon="10.668875">
        <ele>2363.00764</ele>
        <time>2026-09-03T05:43:51.999Z</time>
      </trkpt>
      <trkpt lat="46.485578" lon="10.668835">
        <ele>2362.68606</ele>
        <time>2026-09-03T05:44:35.999Z</time>
      </trkpt>
      <trkpt lat="46.485555" lon="10.668828">
        <ele>2362.68779</ele>
        <time>2026-09-03T05:44:39.999Z</time>
      </trkpt>
      <trkpt lat="46.485559" lon="10.668786">
        <ele>2362.70031</ele>
        <time>2026-09-03T05:44:42.999Z</time>
      </trkpt>
      <trkpt lat="46.485566" lon="10.668753">
        <ele>2362.71752</ele>
        <time>2026-09-03T05:44:44.999Z</time>
      </trkpt>
      <trkpt lat="46.485589" lon="10.668729">
        <ele>2362.73897</ele>
        <time>2026-09-03T05:44:46.999Z</time>
      </trkpt>
      <trkpt lat="46.485595" lon="10.668696">
        <ele>2362.85841</ele>
        <time>2026-09-03T05:44:52.000Z</time>
      </trkpt>
      <trkpt lat="46.485598" lon="10.668662">
        <ele>2362.94766</ele>
        <time>2026-09-03T05:44:54.000Z</time>
      </trkpt>
      <trkpt lat="46.485592" lon="10.668625">
        <ele>2363.09356</ele>
        <time>2026-09-03T05:44:56.000Z</time>
      </trkpt>
      <trkpt lat="46.485579" lon="10.668585">
        <ele>2363.51954</ele>
        <time>2026-09-03T05:44:59.000Z</time>
      </trkpt>
      <trkpt lat="46.485581" lon="10.668537">
        <ele>2364.00531</ele>
        <time>2026-09-03T05:45:02.000Z</time>
      </trkpt>
      <trkpt lat="46.485608" lon="10.668515">
        <ele>2364.38463</ele>
        <time>2026-09-03T05:45:04.000Z</time>
      </trkpt>
      <trkpt lat="46.485628" lon="10.668489">
        <ele>2364.81847</ele>
        <time>2026-09-03T05:45:06.000Z</time>
      </trkpt>
      <trkpt lat="46.485618" lon="10.668459">
        <ele>2365.34185</ele>
        <time>2026-09-03T05:45:08.000Z</time>
      </trkpt>
      <trkpt lat="46.485632" lon="10.6684">
        <ele>2366.49624</ele>
        <time>2026-09-03T05:45:12.000Z</time>
      </trkpt>
      <trkpt lat="46.485627" lon="10.668361">
        <ele>2367.02079</ele>
        <time>2026-09-03T05:45:14.000Z</time>
      </trkpt>
      <trkpt lat="46.485614" lon="10.668331">
        <ele>2367.65834</ele>
        <time>2026-09-03T05:45:17.000Z</time>
      </trkpt>
      <trkpt lat="46.485611" lon="10.668295">
        <ele>2368.40765</ele>
        <time>2026-09-03T05:45:20.000Z</time>
      </trkpt>
      <trkpt lat="46.485622" lon="10.668256">
        <ele>2369.09342</ele>
        <time>2026-09-03T05:45:23.000Z</time>
      </trkpt>
      <trkpt lat="46.485634" lon="10.668215">
        <ele>2369.76433</ele>
        <time>2026-09-03T05:45:26.000Z</time>
      </trkpt>
      <trkpt lat="46.485625" lon="10.668182">
        <ele>2370.53931</ele>
        <time>2026-09-03T05:45:30.000Z</time>
      </trkpt>
      <trkpt lat="46.485621" lon="10.668134">
        <ele>2370.87378</ele>
        <time>2026-09-03T05:45:32.000Z</time>
      </trkpt>
      <trkpt lat="46.485652" lon="10.668096">
        <ele>2371.28837</ele>
        <time>2026-09-03T05:45:35.000Z</time>
      </trkpt>
      <trkpt lat="46.485647" lon="10.668049">
        <ele>2371.79298</ele>
        <time>2026-09-03T05:45:39.000Z</time>
      </trkpt>
      <trkpt lat="46.48565" lon="10.667998">
        <ele>2372.17376</ele>
        <time>2026-09-03T05:45:42.000Z</time>
      </trkpt>
      <trkpt lat="46.485672" lon="10.667946">
        <ele>2372.643</ele>
        <time>2026-09-03T05:45:47.000Z</time>
      </trkpt>
      <trkpt lat="46.485648" lon="10.66792">
        <ele>2373.483</ele>
        <time>2026-09-03T05:45:53.000Z</time>
      </trkpt>
      <trkpt lat="46.485642" lon="10.667888">
        <ele>2373.73643</ele>
        <time>2026-09-03T05:45:55.000Z</time>
      </trkpt>
      <trkpt lat="46.485682" lon="10.667867">
        <ele>2374.15673</ele>
        <time>2026-09-03T05:45:57.999Z</time>
      </trkpt>
      <trkpt lat="46.485719" lon="10.667853">
        <ele>2374.71014</ele>
        <time>2026-09-03T05:46:00.999Z</time>
      </trkpt>
      <trkpt lat="46.485758" lon="10.667833">
        <ele>2375.76698</ele>
        <time>2026-09-03T05:46:05.999Z</time>
      </trkpt>
      <trkpt lat="46.485786" lon="10.667804">
        <ele>2376.25833</ele>
        <time>2026-09-03T05:46:07.999Z</time>
      </trkpt>
      <trkpt lat="46.485769" lon="10.667762">
        <ele>2377.23013</ele>
        <time>2026-09-03T05:46:10.999Z</time>
      </trkpt>
      <trkpt lat="46.485794" lon="10.667711">
        <ele>2377.8803</ele>
        <time>2026-09-03T05:46:12.999Z</time>
      </trkpt>
      <trkpt lat="46.485786" lon="10.667675">
        <ele>2379.41875</ele>
        <time>2026-09-03T05:46:17.999Z</time>
      </trkpt>
      <trkpt lat="46.485808" lon="10.667637">
        <ele>2380.01776</ele>
        <time>2026-09-03T05:46:19.999Z</time>
      </trkpt>
      <trkpt lat="46.4858" lon="10.667599">
        <ele>2380.69417</ele>
        <time>2026-09-03T05:46:21.999Z</time>
      </trkpt>
      <trkpt lat="46.485781" lon="10.66758">
        <ele>2381.39715</ele>
        <time>2026-09-03T05:46:24.999Z</time>
      </trkpt>
      <trkpt lat="46.485783" lon="10.667547">
        <ele>2381.85744</ele>
        <time>2026-09-03T05:46:26.999Z</time>
      </trkpt>
      <trkpt lat="46.485799" lon="10.667515">
        <ele>2382.28144</ele>
        <time>2026-09-03T05:46:28.999Z</time>
      </trkpt>
      <trkpt lat="46.485805" lon="10.66748">
        <ele>2382.85159</ele>
        <time>2026-09-03T05:46:32.999Z</time>
      </trkpt>
      <trkpt lat="46.485823" lon="10.667439">
        <ele>2383.09055</ele>
        <time>2026-09-03T05:46:34.999Z</time>
      </trkpt>
      <trkpt lat="46.485846" lon="10.667401">
        <ele>2383.30197</ele>
        <time>2026-09-03T05:46:37.999Z</time>
      </trkpt>
      <trkpt lat="46.485869" lon="10.667382">
        <ele>2383.70459</ele>
        <time>2026-09-03T05:46:44.999Z</time>
      </trkpt>
      <trkpt lat="46.485894" lon="10.667357">
        <ele>2383.81304</ele>
        <time>2026-09-03T05:46:47.999Z</time>
      </trkpt>
      <trkpt lat="46.485906" lon="10.667311">
        <ele>2383.91611</ele>
        <time>2026-09-03T05:46:49.999Z</time>
      </trkpt>
      <trkpt lat="46.485924" lon="10.667283">
        <ele>2383.97691</ele>
        <time>2026-09-03T05:46:50.999Z</time>
      </trkpt>
      <trkpt lat="46.485906" lon="10.667254">
        <ele>2384.3944</ele>
        <time>2026-09-03T05:46:56.000Z</time>
      </trkpt>
      <trkpt lat="46.485902" lon="10.667217">
        <ele>2384.72081</ele>
        <time>2026-09-03T05:46:59.000Z</time>
      </trkpt>
      <trkpt lat="46.485926" lon="10.667188">
        <ele>2384.8375</ele>
        <time>2026-09-03T05:47:00.000Z</time>
      </trkpt>
      <trkpt lat="46.485918" lon="10.667145">
        <ele>2385.13579</ele>
        <time>2026-09-03T05:47:03.000Z</time>
      </trkpt>
      <trkpt lat="46.485945" lon="10.667117">
        <ele>2385.41063</ele>
        <time>2026-09-03T05:47:05.000Z</time>
      </trkpt>
      <trkpt lat="46.485934" lon="10.667086">
        <ele>2385.89787</ele>
        <time>2026-09-03T05:47:10.000Z</time>
      </trkpt>
      <trkpt lat="46.485931" lon="10.667039">
        <ele>2386.09843</ele>
        <time>2026-09-03T05:47:12.000Z</time>
      </trkpt>
      <trkpt lat="46.485943" lon="10.66701">
        <ele>2386.26472</ele>
        <time>2026-09-03T05:47:14.000Z</time>
      </trkpt>
      <trkpt lat="46.485922" lon="10.666965">
        <ele>2386.68953</ele>
        <time>2026-09-03T05:47:18.000Z</time>
      </trkpt>
      <trkpt lat="46.485944" lon="10.666929">
        <ele>2387.10971</ele>
        <time>2026-09-03T05:47:22.000Z</time>
      </trkpt>
      <trkpt lat="46.485935" lon="10.666897">
        <ele>2387.79501</ele>
        <time>2026-09-03T05:47:28.000Z</time>
      </trkpt>
      <trkpt lat="46.485926" lon="10.666862">
        <ele>2388.05206</ele>
        <time>2026-09-03T05:47:30.000Z</time>
      </trkpt>
      <trkpt lat="46.485902" lon="10.66684">
        <ele>2388.3477</ele>
        <time>2026-09-03T05:47:32.000Z</time>
      </trkpt>
      <trkpt lat="46.48589" lon="10.666809">
        <ele>2388.79008</ele>
        <time>2026-09-03T05:47:35.000Z</time>
      </trkpt>
      <trkpt lat="46.485883" lon="10.666765">
        <ele>2389.28779</ele>
        <time>2026-09-03T05:47:39.000Z</time>
      </trkpt>
      <trkpt lat="46.485871" lon="10.666732">
        <ele>2389.57455</ele>
        <time>2026-09-03T05:47:41.000Z</time>
      </trkpt>
      <trkpt lat="46.485893" lon="10.666739">
        <ele>2389.8405</ele>
        <time>2026-09-03T05:47:43.000Z</time>
      </trkpt>
      <trkpt lat="46.485903" lon="10.666702">
        <ele>2389.97607</ele>
        <time>2026-09-03T05:47:44.000Z</time>
      </trkpt>
      <trkpt lat="46.485921" lon="10.666665">
        <ele>2390.32417</ele>
        <time>2026-09-03T05:47:46.000Z</time>
      </trkpt>
      <trkpt lat="46.485941" lon="10.666643">
        <ele>2391.07528</ele>
        <time>2026-09-03T05:47:50.000Z</time>
      </trkpt>
      <trkpt lat="46.48595" lon="10.666609">
        <ele>2391.75844</ele>
        <time>2026-09-03T05:47:53.000Z</time>
      </trkpt>
      <trkpt lat="46.485963" lon="10.666568">
        <ele>2392.13809</ele>
        <time>2026-09-03T05:47:55.000Z</time>
      </trkpt>
      <trkpt lat="46.485962" lon="10.666522">
        <ele>2393.10173</ele>
        <time>2026-09-03T05:47:58.999Z</time>
      </trkpt>
      <trkpt lat="46.485976" lon="10.666464">
        <ele>2393.58441</ele>
        <time>2026-09-03T05:48:01.999Z</time>
      </trkpt>
      <trkpt lat="46.485983" lon="10.66643">
        <ele>2394.02662</ele>
        <time>2026-09-03T05:48:04.999Z</time>
      </trkpt>
      <trkpt lat="46.48599" lon="10.666389">
        <ele>2394.46209</ele>
        <time>2026-09-03T05:48:07.999Z</time>
      </trkpt>
      <trkpt lat="46.485999" lon="10.666353">
        <ele>2394.68008</ele>
        <time>2026-09-03T05:48:09.999Z</time>
      </trkpt>
      <trkpt lat="46.486" lon="10.66631">
        <ele>2395.26461</ele>
        <time>2026-09-03T05:48:14.999Z</time>
      </trkpt>
      <trkpt lat="46.486021" lon="10.666288">
        <ele>2395.7221</ele>
        <time>2026-09-03T05:48:18.999Z</time>
      </trkpt>
      <trkpt lat="46.486043" lon="10.666237">
        <ele>2395.98267</ele>
        <time>2026-09-03T05:48:22.999Z</time>
      </trkpt>
      <trkpt lat="46.486042" lon="10.666201">
        <ele>2396.12431</ele>
        <time>2026-09-03T05:48:24.999Z</time>
      </trkpt>
      <trkpt lat="46.486054" lon="10.66617">
        <ele>2396.2793</ele>
        <time>2026-09-03T05:48:26.999Z</time>
      </trkpt>
      <trkpt lat="46.48608" lon="10.666117">
        <ele>2396.74575</ele>
        <time>2026-09-03T05:48:31.999Z</time>
      </trkpt>
      <trkpt lat="46.486084" lon="10.666076">
        <ele>2397.14598</ele>
        <time>2026-09-03T05:48:35.999Z</time>
      </trkpt>
      <trkpt lat="46.486102" lon="10.666048">
        <ele>2397.25213</ele>
        <time>2026-09-03T05:48:36.999Z</time>
      </trkpt>
      <trkpt lat="46.486111" lon="10.666014">
        <ele>2397.52353</ele>
        <time>2026-09-03T05:48:39.999Z</time>
      </trkpt>
      <trkpt lat="46.486118" lon="10.665981">
        <ele>2397.73119</ele>
        <time>2026-09-03T05:48:41.999Z</time>
      </trkpt>
      <trkpt lat="46.486135" lon="10.665955">
        <ele>2397.8501</ele>
        <time>2026-09-03T05:48:42.999Z</time>
      </trkpt>
      <trkpt lat="46.486136" lon="10.665901">
        <ele>2398.26031</ele>
        <time>2026-09-03T05:48:46.999Z</time>
      </trkpt>
      <trkpt lat="46.486136" lon="10.665861">
        <ele>2398.6775</ele>
        <time>2026-09-03T05:48:50.999Z</time>
      </trkpt>
      <trkpt lat="46.486143" lon="10.66581">
        <ele>2399.02368</ele>
        <time>2026-09-03T05:48:53.999Z</time>
      </trkpt>
      <trkpt lat="46.486153" lon="10.665778">
        <ele>2399.14265</ele>
        <time>2026-09-03T05:48:54.999Z</time>
      </trkpt>
      <trkpt lat="46.486183" lon="10.665753">
        <ele>2399.61532</ele>
        <time>2026-09-03T05:48:58.999Z</time>
      </trkpt>
      <trkpt lat="46.486204" lon="10.665724">
        <ele>2399.97045</ele>
        <time>2026-09-03T05:49:02.000Z</time>
      </trkpt>
      <trkpt lat="46.486216" lon="10.665688">
        <ele>2400.39074</ele>
        <time>2026-09-03T05:49:05.000Z</time>
      </trkpt>
      <trkpt lat="46.486191" lon="10.665683">
        <ele>2400.55756</ele>
        <time>2026-09-03T05:49:06.000Z</time>
      </trkpt>
      <trkpt lat="46.486134" lon="10.665691">
        <ele>2400.93271</ele>
        <time>2026-09-03T05:49:08.000Z</time>
      </trkpt>
      <trkpt lat="46.486138" lon="10.665648">
        <ele>2401.52701</ele>
        <time>2026-09-03T05:49:11.000Z</time>
      </trkpt>
      <trkpt lat="46.48615" lon="10.665614">
        <ele>2402.17855</ele>
        <time>2026-09-03T05:49:14.000Z</time>
      </trkpt>
      <trkpt lat="46.48617" lon="10.665585">
        <ele>2402.35027</ele>
        <time>2026-09-03T05:49:15.000Z</time>
      </trkpt>
      <trkpt lat="46.486199" lon="10.665547">
        <ele>2402.62358</ele>
        <time>2026-09-03T05:49:17.000Z</time>
      </trkpt>
      <trkpt lat="46.486221" lon="10.665522">
        <ele>2402.91431</ele>
        <time>2026-09-03T05:49:19.000Z</time>
      </trkpt>
      <trkpt lat="46.486247" lon="10.665507">
        <ele>2403.30458</ele>
        <time>2026-09-03T05:49:22.000Z</time>
      </trkpt>
      <trkpt lat="46.486268" lon="10.665478">
        <ele>2403.42532</ele>
        <time>2026-09-03T05:49:23.000Z</time>
      </trkpt>
      <trkpt lat="46.486274" lon="10.665445">
        <ele>2403.7344</ele>
        <time>2026-09-03T05:49:26.000Z</time>
      </trkpt>
      <trkpt lat="46.486275" lon="10.665411">
        <ele>2404.20477</ele>
        <time>2026-09-03T05:49:31.000Z</time>
      </trkpt>
      <trkpt lat="46.486288" lon="10.665366">
        <ele>2404.32922</ele>
        <time>2026-09-03T05:49:32.000Z</time>
      </trkpt>
      <trkpt lat="46.486304" lon="10.665331">
        <ele>2404.63568</ele>
        <time>2026-09-03T05:49:35.000Z</time>
      </trkpt>
      <trkpt lat="46.486314" lon="10.66529">
        <ele>2404.78029</ele>
        <time>2026-09-03T05:49:37.000Z</time>
      </trkpt>
      <trkpt lat="46.486335" lon="10.665237">
        <ele>2404.96607</ele>
        <time>2026-09-03T05:49:39.000Z</time>
      </trkpt>
      <trkpt lat="46.486309" lon="10.665234">
        <ele>2405.19725</ele>
        <time>2026-09-03T05:49:42.000Z</time>
      </trkpt>
      <trkpt lat="46.486316" lon="10.665194">
        <ele>2405.36076</ele>
        <time>2026-09-03T05:49:44.000Z</time>
      </trkpt>
      <trkpt lat="46.486317" lon="10.665152">
        <ele>2405.52787</ele>
        <time>2026-09-03T05:49:46.000Z</time>
      </trkpt>
      <trkpt lat="46.486334" lon="10.66511">
        <ele>2405.72716</ele>
        <time>2026-09-03T05:49:49.000Z</time>
      </trkpt>
      <trkpt lat="46.486336" lon="10.665062">
        <ele>2406.01966</ele>
        <time>2026-09-03T05:49:53.000Z</time>
      </trkpt>
      <trkpt lat="46.486362" lon="10.665039">
        <ele>2406.19584</ele>
        <time>2026-09-03T05:49:55.000Z</time>
      </trkpt>
      <trkpt lat="46.486358" lon="10.665003">
        <ele>2406.37227</ele>
        <time>2026-09-03T05:49:58.000Z</time>
      </trkpt>
      <trkpt lat="46.486355" lon="10.664966">
        <ele>2406.73981</ele>
        <time>2026-09-03T05:50:02.000Z</time>
      </trkpt>
      <trkpt lat="46.486381" lon="10.664936">
        <ele>2406.8238</ele>
        <time>2026-09-03T05:50:03.000Z</time>
      </trkpt>
      <trkpt lat="46.486373" lon="10.664888">
        <ele>2407.11969</ele>
        <time>2026-09-03T05:50:06.000Z</time>
      </trkpt>
      <trkpt lat="46.486377" lon="10.664852">
        <ele>2407.31105</ele>
        <time>2026-09-03T05:50:08.000Z</time>
      </trkpt>
      <trkpt lat="46.486382" lon="10.66482">
        <ele>2407.64982</ele>
        <time>2026-09-03T05:50:10.999Z</time>
      </trkpt>
      <trkpt lat="46.486382" lon="10.664777">
        <ele>2408.00887</ele>
        <time>2026-09-03T05:50:13.999Z</time>
      </trkpt>
      <trkpt lat="46.486367" lon="10.664723">
        <ele>2408.36242</ele>
        <time>2026-09-03T05:50:16.999Z</time>
      </trkpt>
      <trkpt lat="46.486359" lon="10.664677">
        <ele>2408.89508</ele>
        <time>2026-09-03T05:50:21.999Z</time>
      </trkpt>
      <trkpt lat="46.486388" lon="10.664669">
        <ele>2409.18931</ele>
        <time>2026-09-03T05:50:26.999Z</time>
      </trkpt>
      <trkpt lat="46.486408" lon="10.664647">
        <ele>2409.62663</ele>
        <time>2026-09-03T05:50:31.999Z</time>
      </trkpt>
      <trkpt lat="46.486428" lon="10.664633">
        <ele>2409.80408</ele>
        <time>2026-09-03T05:50:33.999Z</time>
      </trkpt>
      <trkpt lat="46.486454" lon="10.664607">
        <ele>2409.97793</ele>
        <time>2026-09-03T05:50:35.999Z</time>
      </trkpt>
      <trkpt lat="46.486448" lon="10.664564">
        <ele>2410.39683</ele>
        <time>2026-09-03T05:50:39.999Z</time>
      </trkpt>
      <trkpt lat="46.486446" lon="10.664531">
        <ele>2410.77199</ele>
        <time>2026-09-03T05:50:42.999Z</time>
      </trkpt>
      <trkpt lat="46.486478" lon="10.6645">
        <ele>2411.32442</ele>
        <time>2026-09-03T05:50:46.999Z</time>
      </trkpt>
      <trkpt lat="46.486504" lon="10.664508">
        <ele>2411.66311</ele>
        <time>2026-09-03T05:50:48.999Z</time>
      </trkpt>
      <trkpt lat="46.48653" lon="10.664484">
        <ele>2412.10449</ele>
        <time>2026-09-03T05:50:51.999Z</time>
      </trkpt>
      <trkpt lat="46.486528" lon="10.664442">
        <ele>2412.46951</ele>
        <time>2026-09-03T05:50:54.999Z</time>
      </trkpt>
      <trkpt lat="46.486551" lon="10.664406">
        <ele>2413.02801</ele>
        <time>2026-09-03T05:50:58.999Z</time>
      </trkpt>
      <trkpt lat="46.486571" lon="10.664386">
        <ele>2413.89285</ele>
        <time>2026-09-03T05:51:03.999Z</time>
      </trkpt>
      <trkpt lat="46.486578" lon="10.664346">
        <ele>2414.37907</ele>
        <time>2026-09-03T05:51:07.000Z</time>
      </trkpt>
      <trkpt lat="46.486607" lon="10.664326">
        <ele>2414.97482</ele>
        <time>2026-09-03T05:51:10.000Z</time>
      </trkpt>
      <trkpt lat="46.486582" lon="10.664307">
        <ele>2415.58446</ele>
        <time>2026-09-03T05:51:13.000Z</time>
      </trkpt>
      <trkpt lat="46.486573" lon="10.664263">
        <ele>2416.12424</ele>
        <time>2026-09-03T05:51:16.000Z</time>
      </trkpt>
      <trkpt lat="46.486595" lon="10.664243">
        <ele>2416.28805</ele>
        <time>2026-09-03T05:51:17.000Z</time>
      </trkpt>
      <trkpt lat="46.486634" lon="10.664241">
        <ele>2416.52328</ele>
        <time>2026-09-03T05:51:19.000Z</time>
      </trkpt>
      <trkpt lat="46.486666" lon="10.664205">
        <ele>2416.97471</ele>
        <time>2026-09-03T05:51:22.000Z</time>
      </trkpt>
      <trkpt lat="46.486673" lon="10.664166">
        <ele>2417.38502</ele>
        <time>2026-09-03T05:51:25.000Z</time>
      </trkpt>
      <trkpt lat="46.486696" lon="10.664162">
        <ele>2417.94792</ele>
        <time>2026-09-03T05:51:28.000Z</time>
      </trkpt>
      <trkpt lat="46.486731" lon="10.664169">
        <ele>2418.34154</ele>
        <time>2026-09-03T05:51:30.000Z</time>
      </trkpt>
      <trkpt lat="46.486751" lon="10.664137">
        <ele>2418.87765</ele>
        <time>2026-09-03T05:51:33.000Z</time>
      </trkpt>
      <trkpt lat="46.486769" lon="10.664104">
        <ele>2419.20631</ele>
        <time>2026-09-03T05:51:35.000Z</time>
      </trkpt>
      <trkpt lat="46.486794" lon="10.664084">
        <ele>2419.5745</ele>
        <time>2026-09-03T05:51:37.000Z</time>
      </trkpt>
      <trkpt lat="46.486812" lon="10.664054">
        <ele>2419.96427</ele>
        <time>2026-09-03T05:51:39.000Z</time>
      </trkpt>
      <trkpt lat="46.486829" lon="10.664025">
        <ele>2421.07581</ele>
        <time>2026-09-03T05:51:45.000Z</time>
      </trkpt>
      <trkpt lat="46.486859" lon="10.66399">
        <ele>2421.37389</ele>
        <time>2026-09-03T05:51:47.000Z</time>
      </trkpt>
      <trkpt lat="46.486846" lon="10.663948">
        <ele>2421.87874</ele>
        <time>2026-09-03T05:51:50.000Z</time>
      </trkpt>
      <trkpt lat="46.486851" lon="10.663895">
        <ele>2422.52166</ele>
        <time>2026-09-03T05:51:54.000Z</time>
      </trkpt>
      <trkpt lat="46.486861" lon="10.66385">
        <ele>2423.09569</ele>
        <time>2026-09-03T05:51:58.000Z</time>
      </trkpt>
      <trkpt lat="46.486889" lon="10.663829">
        <ele>2423.76393</ele>
        <time>2026-09-03T05:52:03.000Z</time>
      </trkpt>
      <trkpt lat="46.486901" lon="10.663792">
        <ele>2424.05474</ele>
        <time>2026-09-03T05:52:05.000Z</time>
      </trkpt>
      <trkpt lat="46.48692" lon="10.66377">
        <ele>2424.42968</ele>
        <time>2026-09-03T05:52:07.000Z</time>
      </trkpt>
      <trkpt lat="46.486929" lon="10.66373">
        <ele>2424.80556</ele>
        <time>2026-09-03T05:52:09.000Z</time>
      </trkpt>
      <trkpt lat="46.486951" lon="10.663747">
        <ele>2425.11738</ele>
        <time>2026-09-03T05:52:11.000Z</time>
      </trkpt>
      <trkpt lat="46.486968" lon="10.663725">
        <ele>2425.43064</ele>
        <time>2026-09-03T05:52:13.000Z</time>
      </trkpt>
      <trkpt lat="46.486992" lon="10.663692">
        <ele>2426.09334</ele>
        <time>2026-09-03T05:52:16.999Z</time>
      </trkpt>
      <trkpt lat="46.487015" lon="10.663654">
        <ele>2427.27309</ele>
        <time>2026-09-03T05:52:23.999Z</time>
      </trkpt>
      <trkpt lat="46.487041" lon="10.663631">
        <ele>2427.41695</ele>
        <time>2026-09-03T05:52:24.999Z</time>
      </trkpt>
      <trkpt lat="46.487053" lon="10.663601">
        <ele>2427.83115</ele>
        <time>2026-09-03T05:52:27.999Z</time>
      </trkpt>
      <trkpt lat="46.487077" lon="10.663578">
        <ele>2428.09536</ele>
        <time>2026-09-03T05:52:29.999Z</time>
      </trkpt>
      <trkpt lat="46.487096" lon="10.663559">
        <ele>2428.53641</ele>
        <time>2026-09-03T05:52:32.999Z</time>
      </trkpt>
      <trkpt lat="46.487114" lon="10.663523">
        <ele>2428.85189</ele>
        <time>2026-09-03T05:52:34.999Z</time>
      </trkpt>
      <trkpt lat="46.487128" lon="10.663484">
        <ele>2429.37803</ele>
        <time>2026-09-03T05:52:37.999Z</time>
      </trkpt>
      <trkpt lat="46.487121" lon="10.66343">
        <ele>2430.52011</ele>
        <time>2026-09-03T05:52:42.999Z</time>
      </trkpt>
      <trkpt lat="46.48712" lon="10.66337">
        <ele>2431.10433</ele>
        <time>2026-09-03T05:52:45.999Z</time>
      </trkpt>
      <trkpt lat="46.487135" lon="10.663336">
        <ele>2431.65254</ele>
        <time>2026-09-03T05:52:49.999Z</time>
      </trkpt>
      <trkpt lat="46.487139" lon="10.663296">
        <ele>2432.08517</ele>
        <time>2026-09-03T05:52:52.999Z</time>
      </trkpt>
      <trkpt lat="46.487167" lon="10.663256">
        <ele>2432.60637</ele>
        <time>2026-09-03T05:52:56.999Z</time>
      </trkpt>
      <trkpt lat="46.48716" lon="10.663223">
        <ele>2432.94014</ele>
        <time>2026-09-03T05:52:59.999Z</time>
      </trkpt>
      <trkpt lat="46.487172" lon="10.663189">
        <ele>2433.41867</ele>
        <time>2026-09-03T05:53:03.999Z</time>
      </trkpt>
      <trkpt lat="46.487189" lon="10.663151">
        <ele>2433.5417</ele>
        <time>2026-09-03T05:53:04.999Z</time>
      </trkpt>
      <trkpt lat="46.487195" lon="10.663097">
        <ele>2433.95779</ele>
        <time>2026-09-03T05:53:08.999Z</time>
      </trkpt>
      <trkpt lat="46.487176" lon="10.663071">
        <ele>2434.19995</ele>
        <time>2026-09-03T05:53:10.999Z</time>
      </trkpt>
      <trkpt lat="46.48718" lon="10.663036">
        <ele>2434.69573</ele>
        <time>2026-09-03T05:53:16.000Z</time>
      </trkpt>
      <trkpt lat="46.48719" lon="10.663005">
        <ele>2434.8657</ele>
        <time>2026-09-03T05:53:18.000Z</time>
      </trkpt>
      <trkpt lat="46.487179" lon="10.662974">
        <ele>2435.07337</ele>
        <time>2026-09-03T05:53:20.000Z</time>
      </trkpt>
      <trkpt lat="46.487199" lon="10.66293">
        <ele>2435.40138</ele>
        <time>2026-09-03T05:53:24.000Z</time>
      </trkpt>
      <trkpt lat="46.487236" lon="10.662905">
        <ele>2435.61068</ele>
        <time>2026-09-03T05:53:26.000Z</time>
      </trkpt>
      <trkpt lat="46.487247" lon="10.662859">
        <ele>2436.11852</ele>
        <time>2026-09-03T05:53:31.000Z</time>
      </trkpt>
      <trkpt lat="46.487242" lon="10.66282">
        <ele>2436.33273</ele>
        <time>2026-09-03T05:53:33.000Z</time>
      </trkpt>
      <trkpt lat="46.487241" lon="10.662783">
        <ele>2436.66762</ele>
        <time>2026-09-03T05:53:36.000Z</time>
      </trkpt>
      <trkpt lat="46.48728" lon="10.662771">
        <ele>2436.78626</ele>
        <time>2026-09-03T05:53:38.000Z</time>
      </trkpt>
      <trkpt lat="46.48731" lon="10.662762">
        <ele>2436.878</ele>
        <time>2026-09-03T05:53:39.000Z</time>
      </trkpt>
      <trkpt lat="46.487305" lon="10.66273">
        <ele>2436.96194</ele>
        <time>2026-09-03T05:53:40.000Z</time>
      </trkpt>
      <trkpt lat="46.487313" lon="10.662679">
        <ele>2437.18439</ele>
        <time>2026-09-03T05:53:44.000Z</time>
      </trkpt>
      <trkpt lat="46.487339" lon="10.662625">
        <ele>2437.59213</ele>
        <time>2026-09-03T05:53:49.000Z</time>
      </trkpt>
      <trkpt lat="46.48735" lon="10.662594">
        <ele>2437.95433</ele>
        <time>2026-09-03T05:53:53.000Z</time>
      </trkpt>
      <trkpt lat="46.487368" lon="10.662562">
        <ele>2438.1519</ele>
        <time>2026-09-03T05:53:55.000Z</time>
      </trkpt>
      <trkpt lat="46.487375" lon="10.662517">
        <ele>2438.38991</ele>
        <time>2026-09-03T05:53:59.000Z</time>
      </trkpt>
      <trkpt lat="46.487393" lon="10.662472">
        <ele>2438.56831</ele>
        <time>2026-09-03T05:54:02.000Z</time>
      </trkpt>
      <trkpt lat="46.487422" lon="10.662447">
        <ele>2438.67855</ele>
        <time>2026-09-03T05:54:04.000Z</time>
      </trkpt>
      <trkpt lat="46.487451" lon="10.662419">
        <ele>2438.82119</ele>
        <time>2026-09-03T05:54:06.000Z</time>
      </trkpt>
      <trkpt lat="46.487481" lon="10.662385">
        <ele>2439.02904</ele>
        <time>2026-09-03T05:54:08.000Z</time>
      </trkpt>
      <trkpt lat="46.487495" lon="10.662359">
        <ele>2439.453</ele>
        <time>2026-09-03T05:54:11.000Z</time>
      </trkpt>
      <trkpt lat="46.487506" lon="10.662328">
        <ele>2439.79189</ele>
        <time>2026-09-03T05:54:13.000Z</time>
      </trkpt>
      <trkpt lat="46.487521" lon="10.662302">
        <ele>2439.9673</ele>
        <time>2026-09-03T05:54:14.000Z</time>
      </trkpt>
      <trkpt lat="46.487552" lon="10.66225">
        <ele>2440.92166</ele>
        <time>2026-09-03T05:54:19.000Z</time>
      </trkpt>
      <trkpt lat="46.48756" lon="10.662204">
        <ele>2441.29016</ele>
        <time>2026-09-03T05:54:21.000Z</time>
      </trkpt>
      <trkpt lat="46.48757" lon="10.662167">
        <ele>2441.65554</ele>
        <time>2026-09-03T05:54:22.999Z</time>
      </trkpt>
      <trkpt lat="46.487604" lon="10.662154">
        <ele>2442.10922</ele>
        <time>2026-09-03T05:54:25.999Z</time>
      </trkpt>
      <trkpt lat="46.487627" lon="10.662123">
        <ele>2442.36812</ele>
        <time>2026-09-03T05:54:27.999Z</time>
      </trkpt>
      <trkpt lat="46.487647" lon="10.662093">
        <ele>2442.63345</ele>
        <time>2026-09-03T05:54:29.999Z</time>
      </trkpt>
      <trkpt lat="46.487665" lon="10.662073">
        <ele>2442.84884</ele>
        <time>2026-09-03T05:54:31.999Z</time>
      </trkpt>
      <trkpt lat="46.487688" lon="10.662063">
        <ele>2443.04084</ele>
        <time>2026-09-03T05:54:33.999Z</time>
      </trkpt>
      <trkpt lat="46.487716" lon="10.662056">
        <ele>2443.1803</ele>
        <time>2026-09-03T05:54:35.999Z</time>
      </trkpt>
      <trkpt lat="46.48774" lon="10.662045">
        <ele>2443.34942</ele>
        <time>2026-09-03T05:54:37.999Z</time>
      </trkpt>
      <trkpt lat="46.487758" lon="10.66202">
        <ele>2443.80139</ele>
        <time>2026-09-03T05:54:42.999Z</time>
      </trkpt>
      <trkpt lat="46.487757" lon="10.661987">
        <ele>2443.89787</ele>
        <time>2026-09-03T05:54:43.999Z</time>
      </trkpt>
      <trkpt lat="46.487765" lon="10.661947">
        <ele>2444.06676</ele>
        <time>2026-09-03T05:54:45.999Z</time>
      </trkpt>
      <trkpt lat="46.487782" lon="10.661921">
        <ele>2444.21571</ele>
        <time>2026-09-03T05:54:47.999Z</time>
      </trkpt>
      <trkpt lat="46.487761" lon="10.661901">
        <ele>2444.36331</ele>
        <time>2026-09-03T05:54:49.999Z</time>
      </trkpt>
      <trkpt lat="46.487772" lon="10.661862">
        <ele>2444.49676</ele>
        <time>2026-09-03T05:54:52.999Z</time>
      </trkpt>
      <trkpt lat="46.487752" lon="10.66183">
        <ele>2444.60912</ele>
        <time>2026-09-03T05:54:54.999Z</time>
      </trkpt>
      <trkpt lat="46.487736" lon="10.661763">
        <ele>2444.79675</ele>
        <time>2026-09-03T05:54:57.999Z</time>
      </trkpt>
      <trkpt lat="46.487705" lon="10.661736">
        <ele>2445.04207</ele>
        <time>2026-09-03T05:55:02.999Z</time>
      </trkpt>
      <trkpt lat="46.487705" lon="10.661693">
        <ele>2445.17667</ele>
        <time>2026-09-03T05:55:04.999Z</time>
      </trkpt>
      <trkpt lat="46.487718" lon="10.66166">
        <ele>2445.28586</ele>
        <time>2026-09-03T05:55:07.999Z</time>
      </trkpt>
      <trkpt lat="46.487726" lon="10.661625">
        <ele>2445.43415</ele>
        <time>2026-09-03T05:55:10.999Z</time>
      </trkpt>
      <trkpt lat="46.48772" lon="10.661561">
        <ele>2445.51755</ele>
        <time>2026-09-03T05:55:12.999Z</time>
      </trkpt>
      <trkpt lat="46.487709" lon="10.661516">
        <ele>2445.64981</ele>
        <time>2026-09-03T05:55:16.999Z</time>
      </trkpt>
      <trkpt lat="46.487712" lon="10.661474">
        <ele>2445.79326</ele>
        <time>2026-09-03T05:55:19.000Z</time>
      </trkpt>
      <trkpt lat="46.487717" lon="10.661439">
        <ele>2445.86875</ele>
        <time>2026-09-03T05:55:21.000Z</time>
      </trkpt>
      <trkpt lat="46.487726" lon="10.66139">
        <ele>2445.95334</ele>
        <time>2026-09-03T05:55:24.000Z</time>
      </trkpt>
      <trkpt lat="46.48773" lon="10.661334">
        <ele>2446.05063</ele>
        <time>2026-09-03T05:55:27.000Z</time>
      </trkpt>
      <trkpt lat="46.48774" lon="10.661304">
        <ele>2446.11537</ele>
        <time>2026-09-03T05:55:30.000Z</time>
      </trkpt>
      <trkpt lat="46.487746" lon="10.661261">
        <ele>2446.13983</ele>
        <time>2026-09-03T05:55:33.000Z</time>
      </trkpt>
      <trkpt lat="46.487749" lon="10.661222">
        <ele>2446.16339</ele>
        <time>2026-09-03T05:55:35.000Z</time>
      </trkpt>
      <trkpt lat="46.487745" lon="10.661187">
        <ele>2446.21692</ele>
        <time>2026-09-03T05:55:37.000Z</time>
      </trkpt>
      <trkpt lat="46.487758" lon="10.661141">
        <ele>2446.23441</ele>
        <time>2026-09-03T05:55:40.000Z</time>
      </trkpt>
      <trkpt lat="46.487747" lon="10.661102">
        <ele>2446.31811</ele>
        <time>2026-09-03T05:55:44.000Z</time>
      </trkpt>
      <trkpt lat="46.487736" lon="10.661073">
        <ele>2446.33502</ele>
        <time>2026-09-03T05:55:47.000Z</time>
      </trkpt>
      <trkpt lat="46.487727" lon="10.661011">
        <ele>2446.4478</ele>
        <time>2026-09-03T05:55:50.000Z</time>
      </trkpt>
      <trkpt lat="46.487731" lon="10.660956">
        <ele>2446.5265</ele>
        <time>2026-09-03T05:55:52.000Z</time>
      </trkpt>
      <trkpt lat="46.487719" lon="10.660911">
        <ele>2446.71332</ele>
        <time>2026-09-03T05:55:56.000Z</time>
      </trkpt>
      <trkpt lat="46.487719" lon="10.660858">
        <ele>2447.06405</ele>
        <time>2026-09-03T05:56:00.000Z</time>
      </trkpt>
      <trkpt lat="46.487733" lon="10.660825">
        <ele>2447.62287</ele>
        <time>2026-09-03T05:56:04.000Z</time>
      </trkpt>
      <trkpt lat="46.487744" lon="10.660784">
        <ele>2448.02237</ele>
        <time>2026-09-03T05:56:06.000Z</time>
      </trkpt>
      <trkpt lat="46.487733" lon="10.66073">
        <ele>2448.36822</ele>
        <time>2026-09-03T05:56:08.000Z</time>
      </trkpt>
      <trkpt lat="46.487757" lon="10.660675">
        <ele>2449.04699</ele>
        <time>2026-09-03T05:56:11.000Z</time>
      </trkpt>
      <trkpt lat="46.487742" lon="10.660642">
        <ele>2449.95956</ele>
        <time>2026-09-03T05:56:15.000Z</time>
      </trkpt>
      <trkpt lat="46.487739" lon="10.660608">
        <ele>2450.2093</ele>
        <time>2026-09-03T05:56:16.000Z</time>
      </trkpt>
      <trkpt lat="46.487741" lon="10.660571">
        <ele>2450.72723</ele>
        <time>2026-09-03T05:56:19.000Z</time>
      </trkpt>
      <trkpt lat="46.487742" lon="10.660521">
        <ele>2451.27341</ele>
        <time>2026-09-03T05:56:22.000Z</time>
      </trkpt>
      <trkpt lat="46.487743" lon="10.660464">
        <ele>2451.72691</ele>
        <time>2026-09-03T05:56:24.999Z</time>
      </trkpt>
      <trkpt lat="46.487735" lon="10.660418">
        <ele>2451.93645</ele>
        <time>2026-09-03T05:56:26.999Z</time>
      </trkpt>
      <trkpt lat="46.487713" lon="10.660392">
        <ele>2452.26017</ele>
        <time>2026-09-03T05:56:29.999Z</time>
      </trkpt>
      <trkpt lat="46.487712" lon="10.66035">
        <ele>2452.56909</ele>
        <time>2026-09-03T05:56:32.999Z</time>
      </trkpt>
      <trkpt lat="46.487725" lon="10.660318">
        <ele>2452.6773</ele>
        <time>2026-09-03T05:56:34.999Z</time>
      </trkpt>
      <trkpt lat="46.487715" lon="10.660274">
        <ele>2452.97149</ele>
        <time>2026-09-03T05:56:37.999Z</time>
      </trkpt>
      <trkpt lat="46.487717" lon="10.660237">
        <ele>2453.11137</ele>
        <time>2026-09-03T05:56:39.999Z</time>
      </trkpt>
      <trkpt lat="46.487716" lon="10.660202">
        <ele>2453.28879</ele>
        <time>2026-09-03T05:56:41.999Z</time>
      </trkpt>
      <trkpt lat="46.487717" lon="10.660167">
        <ele>2453.39611</ele>
        <time>2026-09-03T05:56:43.999Z</time>
      </trkpt>
      <trkpt lat="46.487707" lon="10.660133">
        <ele>2453.51608</ele>
        <time>2026-09-03T05:56:45.999Z</time>
      </trkpt>
      <trkpt lat="46.487714" lon="10.660099">
        <ele>2453.57863</ele>
        <time>2026-09-03T05:56:46.999Z</time>
      </trkpt>
      <trkpt lat="46.487718" lon="10.660062">
        <ele>2453.7044</ele>
        <time>2026-09-03T05:56:50.999Z</time>
      </trkpt>
      <trkpt lat="46.48768" lon="10.660099">
        <ele>2453.73335</ele>
        <time>2026-09-03T05:56:51.999Z</time>
      </trkpt>
      <trkpt lat="46.487677" lon="10.660066">
        <ele>2453.74448</ele>
        <time>2026-09-03T05:56:52.999Z</time>
      </trkpt>
      <trkpt lat="46.487697" lon="10.66003">
        <ele>2453.76157</ele>
        <time>2026-09-03T05:56:54.999Z</time>
      </trkpt>
      <trkpt lat="46.487694" lon="10.659981">
        <ele>2453.79962</ele>
        <time>2026-09-03T05:56:56.999Z</time>
      </trkpt>
      <trkpt lat="46.487681" lon="10.659927">
        <ele>2453.89353</ele>
        <time>2026-09-03T05:57:00.999Z</time>
      </trkpt>
      <trkpt lat="46.48768" lon="10.659886">
        <ele>2453.95234</ele>
        <time>2026-09-03T05:57:02.999Z</time>
      </trkpt>
      <trkpt lat="46.487694" lon="10.65986">
        <ele>2454.03987</ele>
        <time>2026-09-03T05:57:05.999Z</time>
      </trkpt>
      <trkpt lat="46.4877" lon="10.659812">
        <ele>2454.08108</ele>
        <time>2026-09-03T05:57:07.999Z</time>
      </trkpt>
      <trkpt lat="46.487722" lon="10.659789">
        <ele>2454.23511</ele>
        <time>2026-09-03T05:57:10.999Z</time>
      </trkpt>
      <trkpt lat="46.487722" lon="10.659754">
        <ele>2454.38978</ele>
        <time>2026-09-03T05:57:13.999Z</time>
      </trkpt>
      <trkpt lat="46.487725" lon="10.659711">
        <ele>2454.48416</ele>
        <time>2026-09-03T05:57:15.999Z</time>
      </trkpt>
      <trkpt lat="46.48772" lon="10.659679">
        <ele>2454.61837</ele>
        <time>2026-09-03T05:57:17.999Z</time>
      </trkpt>
      <trkpt lat="46.487709" lon="10.65965">
        <ele>2454.84733</ele>
        <time>2026-09-03T05:57:20.999Z</time>
      </trkpt>
      <trkpt lat="46.487714" lon="10.659608">
        <ele>2455.07703</ele>
        <time>2026-09-03T05:57:23.999Z</time>
      </trkpt>
      <trkpt lat="46.487706" lon="10.659561">
        <ele>2455.48278</ele>
        <time>2026-09-03T05:57:29.000Z</time>
      </trkpt>
      <trkpt lat="46.487701" lon="10.659512">
        <ele>2455.69322</ele>
        <time>2026-09-03T05:57:31.000Z</time>
      </trkpt>
      <trkpt lat="46.487707" lon="10.659462">
        <ele>2455.9871</ele>
        <time>2026-09-03T05:57:33.000Z</time>
      </trkpt>
      <trkpt lat="46.487697" lon="10.659412">
        <ele>2456.96999</ele>
        <time>2026-09-03T05:57:38.000Z</time>
      </trkpt>
      <trkpt lat="46.487707" lon="10.659378">
        <ele>2457.7398</ele>
        <time>2026-09-03T05:57:41.000Z</time>
      </trkpt>
      <trkpt lat="46.48771" lon="10.659335">
        <ele>2458.29105</ele>
        <time>2026-09-03T05:57:43.000Z</time>
      </trkpt>
      <trkpt lat="46.487696" lon="10.65931">
        <ele>2459.1791</ele>
        <time>2026-09-03T05:57:47.000Z</time>
      </trkpt>
      <trkpt lat="46.487672" lon="10.659268">
        <ele>2459.53929</ele>
        <time>2026-09-03T05:57:49.000Z</time>
      </trkpt>
      <trkpt lat="46.487684" lon="10.659239">
        <ele>2459.71739</ele>
        <time>2026-09-03T05:57:51.000Z</time>
      </trkpt>
      <trkpt lat="46.487705" lon="10.659199">
        <ele>2459.88024</ele>
        <time>2026-09-03T05:57:53.000Z</time>
      </trkpt>
      <trkpt lat="46.487692" lon="10.659162">
        <ele>2460.26202</ele>
        <time>2026-09-03T05:57:57.000Z</time>
      </trkpt>
      <trkpt lat="46.487693" lon="10.659127">
        <ele>2460.38157</ele>
        <time>2026-09-03T05:58:00.000Z</time>
      </trkpt>
      <trkpt lat="46.487716" lon="10.659081">
        <ele>2460.60263</ele>
        <time>2026-09-03T05:58:02.000Z</time>
      </trkpt>
      <trkpt lat="46.487715" lon="10.659043">
        <ele>2460.77044</ele>
        <time>2026-09-03T05:58:04.000Z</time>
      </trkpt>
      <trkpt lat="46.487708" lon="10.659009">
        <ele>2460.86424</ele>
        <time>2026-09-03T05:58:06.000Z</time>
      </trkpt>
      <trkpt lat="46.48768" lon="10.658959">
        <ele>2461.37804</ele>
        <time>2026-09-03T05:58:11.000Z</time>
      </trkpt>
      <trkpt lat="46.48768" lon="10.658906">
        <ele>2461.45682</ele>
        <time>2026-09-03T05:58:13.000Z</time>
      </trkpt>
      <trkpt lat="46.487685" lon="10.658872">
        <ele>2461.83245</ele>
        <time>2026-09-03T05:58:17.000Z</time>
      </trkpt>
      <trkpt lat="46.487692" lon="10.658835">
        <ele>2462.14424</ele>
        <time>2026-09-03T05:58:21.000Z</time>
      </trkpt>
      <trkpt lat="46.487694" lon="10.658798">
        <ele>2462.45051</ele>
        <time>2026-09-03T05:58:23.000Z</time>
      </trkpt>
      <trkpt lat="46.487709" lon="10.65876">
        <ele>2462.84996</ele>
        <time>2026-09-03T05:58:26.000Z</time>
      </trkpt>
      <trkpt lat="46.487713" lon="10.658718">
        <ele>2463.15728</ele>
        <time>2026-09-03T05:58:28.000Z</time>
      </trkpt>
      <trkpt lat="46.48773" lon="10.658682">
        <ele>2463.61764</ele>
        <time>2026-09-03T05:58:31.000Z</time>
      </trkpt>
      <trkpt lat="46.487706" lon="10.658664">
        <ele>2464.0579</ele>
        <time>2026-09-03T05:58:33.999Z</time>
      </trkpt>
      <trkpt lat="46.487697" lon="10.658618">
        <ele>2464.5573</ele>
        <time>2026-09-03T05:58:35.999Z</time>
      </trkpt>
      <trkpt lat="46.487673" lon="10.658611">
        <ele>2465.61019</ele>
        <time>2026-09-03T05:58:39.999Z</time>
      </trkpt>
      <trkpt lat="46.487665" lon="10.65858">
        <ele>2466.10626</ele>
        <time>2026-09-03T05:58:41.999Z</time>
      </trkpt>
      <trkpt lat="46.487677" lon="10.658546">
        <ele>2466.38547</ele>
        <time>2026-09-03T05:58:42.999Z</time>
      </trkpt>
      <trkpt lat="46.487698" lon="10.658528">
        <ele>2466.82363</ele>
        <time>2026-09-03T05:58:44.999Z</time>
      </trkpt>
      <trkpt lat="46.487718" lon="10.658544">
        <ele>2467.79749</ele>
        <time>2026-09-03T05:58:50.999Z</time>
      </trkpt>
      <trkpt lat="46.487734" lon="10.658515">
        <ele>2468.07266</ele>
        <time>2026-09-03T05:58:52.999Z</time>
      </trkpt>
      <trkpt lat="46.487761" lon="10.658498">
        <ele>2468.21203</ele>
        <time>2026-09-03T05:58:53.999Z</time>
      </trkpt>
      <trkpt lat="46.487817" lon="10.658519">
        <ele>2468.64387</ele>
        <time>2026-09-03T05:58:55.999Z</time>
      </trkpt>
      <trkpt lat="46.487817" lon="10.658477">
        <ele>2469.39525</ele>
        <time>2026-09-03T05:58:58.999Z</time>
      </trkpt>
      <trkpt lat="46.487803" lon="10.658443">
        <ele>2469.92802</ele>
        <time>2026-09-03T05:59:00.999Z</time>
      </trkpt>
      <trkpt lat="46.487778" lon="10.658434">
        <ele>2470.43597</ele>
        <time>2026-09-03T05:59:02.999Z</time>
      </trkpt>
      <trkpt lat="46.487757" lon="10.658413">
        <ele>2471.08059</ele>
        <time>2026-09-03T05:59:04.999Z</time>
      </trkpt>
      <trkpt lat="46.48773" lon="10.65839">
        <ele>2471.77131</ele>
        <time>2026-09-03T05:59:06.999Z</time>
      </trkpt>
      <trkpt lat="46.487707" lon="10.658362">
        <ele>2473.54555</ele>
        <time>2026-09-03T05:59:12.999Z</time>
      </trkpt>
      <trkpt lat="46.487712" lon="10.658318">
        <ele>2474.8952</ele>
        <time>2026-09-03T05:59:18.999Z</time>
      </trkpt>
      <trkpt lat="46.487746" lon="10.658324">
        <ele>2475.09254</ele>
        <time>2026-09-03T05:59:19.999Z</time>
      </trkpt>
      <trkpt lat="46.487771" lon="10.658311">
        <ele>2475.80928</ele>
        <time>2026-09-03T05:59:22.999Z</time>
      </trkpt>
      <trkpt lat="46.487784" lon="10.658274">
        <ele>2476.54666</ele>
        <time>2026-09-03T05:59:25.999Z</time>
      </trkpt>
      <trkpt lat="46.48776" lon="10.658283">
        <ele>2477.43479</ele>
        <time>2026-09-03T05:59:29.999Z</time>
      </trkpt>
      <trkpt lat="46.487758" lon="10.658239">
        <ele>2477.94363</ele>
        <time>2026-09-03T05:59:33.000Z</time>
      </trkpt>
      <trkpt lat="46.487779" lon="10.658217">
        <ele>2478.32269</ele>
        <time>2026-09-03T05:59:36.000Z</time>
      </trkpt>
      <trkpt lat="46.487771" lon="10.658184">
        <ele>2479.41606</ele>
        <time>2026-09-03T05:59:42.000Z</time>
      </trkpt>
      <trkpt lat="46.487747" lon="10.658163">
        <ele>2480.52458</ele>
        <time>2026-09-03T05:59:47.000Z</time>
      </trkpt>
      <trkpt lat="46.487756" lon="10.658133">
        <ele>2480.99478</ele>
        <time>2026-09-03T05:59:49.000Z</time>
      </trkpt>
      <trkpt lat="46.487729" lon="10.658114">
        <ele>2481.39959</ele>
        <time>2026-09-03T05:59:51.000Z</time>
      </trkpt>
      <trkpt lat="46.487749" lon="10.658094">
        <ele>2482.77733</ele>
        <time>2026-09-03T05:59:58.000Z</time>
      </trkpt>
      <trkpt lat="46.487774" lon="10.658094">
        <ele>2483.87502</ele>
        <time>2026-09-03T06:00:04.000Z</time>
      </trkpt>
      <trkpt lat="46.487801" lon="10.658077">
        <ele>2484.56433</ele>
        <time>2026-09-03T06:00:08.000Z</time>
      </trkpt>
      <trkpt lat="46.487825" lon="10.658082">
        <ele>2484.90744</ele>
        <time>2026-09-03T06:00:10.000Z</time>
      </trkpt>
      <trkpt lat="46.487814" lon="10.658043">
        <ele>2485.69739</ele>
        <time>2026-09-03T06:00:16.000Z</time>
      </trkpt>
      <trkpt lat="46.487786" lon="10.658022">
        <ele>2486.55248</ele>
        <time>2026-09-03T06:00:22.000Z</time>
      </trkpt>
      <trkpt lat="46.487786" lon="10.657987">
        <ele>2486.90317</ele>
        <time>2026-09-03T06:00:24.000Z</time>
      </trkpt>
      <trkpt lat="46.487806" lon="10.65797">
        <ele>2487.60101</ele>
        <time>2026-09-03T06:00:28.000Z</time>
      </trkpt>
      <trkpt lat="46.487829" lon="10.657965">
        <ele>2488.30885</ele>
        <time>2026-09-03T06:00:32.000Z</time>
      </trkpt>
      <trkpt lat="46.487853" lon="10.657955">
        <ele>2488.61515</ele>
        <time>2026-09-03T06:00:33.999Z</time>
      </trkpt>
      <trkpt lat="46.487875" lon="10.657941">
        <ele>2488.92909</ele>
        <time>2026-09-03T06:00:35.999Z</time>
      </trkpt>
      <trkpt lat="46.487845" lon="10.657928">
        <ele>2489.48075</ele>
        <time>2026-09-03T06:00:39.999Z</time>
      </trkpt>
      <trkpt lat="46.487819" lon="10.657876">
        <ele>2489.87611</ele>
        <time>2026-09-03T06:00:42.999Z</time>
      </trkpt>
      <trkpt lat="46.487798" lon="10.65789">
        <ele>2490.34454</ele>
        <time>2026-09-03T06:00:45.999Z</time>
      </trkpt>
      <trkpt lat="46.487768" lon="10.657858">
        <ele>2490.87733</ele>
        <time>2026-09-03T06:00:48.999Z</time>
      </trkpt>
      <trkpt lat="46.487749" lon="10.657837">
        <ele>2491.82017</ele>
        <time>2026-09-03T06:00:53.999Z</time>
      </trkpt>
      <trkpt lat="46.48777" lon="10.657818">
        <ele>2492.68541</ele>
        <time>2026-09-03T06:00:57.999Z</time>
      </trkpt>
      <trkpt lat="46.487798" lon="10.657814">
        <ele>2493.58919</ele>
        <time>2026-09-03T06:01:01.999Z</time>
      </trkpt>
      <trkpt lat="46.487819" lon="10.657788">
        <ele>2494.45</ele>
        <time>2026-09-03T06:01:06.999Z</time>
      </trkpt>
      <trkpt lat="46.487845" lon="10.657773">
        <ele>2494.82414</ele>
        <time>2026-09-03T06:01:08.999Z</time>
      </trkpt>
      <trkpt lat="46.487865" lon="10.657752">
        <ele>2496.03118</ele>
        <time>2026-09-03T06:01:15.999Z</time>
      </trkpt>
      <trkpt lat="46.487887" lon="10.657737">
        <ele>2496.89317</ele>
        <time>2026-09-03T06:01:20.999Z</time>
      </trkpt>
      <trkpt lat="46.487908" lon="10.657712">
        <ele>2497.51615</ele>
        <time>2026-09-03T06:01:23.999Z</time>
      </trkpt>
      <trkpt lat="46.487912" lon="10.657675">
        <ele>2498.9471</ele>
        <time>2026-09-03T06:01:29.999Z</time>
      </trkpt>
      <trkpt lat="46.487897" lon="10.65765">
        <ele>2500.7412</ele>
        <time>2026-09-03T06:01:37.000Z</time>
      </trkpt>
      <trkpt lat="46.487886" lon="10.657615">
        <ele>2501.7787</ele>
        <time>2026-09-03T06:01:41.000Z</time>
      </trkpt>
      <trkpt lat="46.487867" lon="10.657591">
        <ele>2502.54314</ele>
        <time>2026-09-03T06:01:44.000Z</time>
      </trkpt>
      <trkpt lat="46.487838" lon="10.657586">
        <ele>2503.73779</ele>
        <time>2026-09-03T06:01:49.000Z</time>
      </trkpt>
      <trkpt lat="46.487813" lon="10.657589">
        <ele>2505.03689</ele>
        <time>2026-09-03T06:01:54.000Z</time>
      </trkpt>
      <trkpt lat="46.487787" lon="10.657577">
        <ele>2506.40598</ele>
        <time>2026-09-03T06:02:00.000Z</time>
      </trkpt>
      <trkpt lat="46.487763" lon="10.657559">
        <ele>2507.00064</ele>
        <time>2026-09-03T06:02:03.000Z</time>
      </trkpt>
      <trkpt lat="46.48774" lon="10.657527">
        <ele>2507.38333</ele>
        <time>2026-09-03T06:02:05.000Z</time>
      </trkpt>
      <trkpt lat="46.487734" lon="10.657559">
        <ele>2507.75491</ele>
        <time>2026-09-03T06:02:07.000Z</time>
      </trkpt>
      <trkpt lat="46.487716" lon="10.657529">
        <ele>2508.79833</ele>
        <time>2026-09-03T06:02:14.000Z</time>
      </trkpt>
      <trkpt lat="46.487703" lon="10.657503">
        <ele>2509.17937</ele>
        <time>2026-09-03T06:02:17.000Z</time>
      </trkpt>
      <trkpt lat="46.487696" lon="10.65747">
        <ele>2509.41131</ele>
        <time>2026-09-03T06:02:19.000Z</time>
      </trkpt>
      <trkpt lat="46.487672" lon="10.657457">
        <ele>2509.94315</ele>
        <time>2026-09-03T06:02:23.000Z</time>
      </trkpt>
      <trkpt lat="46.48765" lon="10.657472">
        <ele>2510.31501</ele>
        <time>2026-09-03T06:02:26.000Z</time>
      </trkpt>
      <trkpt lat="46.487656" lon="10.657426">
        <ele>2511.54256</ele>
        <time>2026-09-03T06:02:36.000Z</time>
      </trkpt>
      <trkpt lat="46.487677" lon="10.657415">
        <ele>2511.64284</ele>
        <time>2026-09-03T06:02:37.000Z</time>
      </trkpt>
      <trkpt lat="46.487707" lon="10.657404">
        <ele>2512.01761</ele>
        <time>2026-09-03T06:02:40.000Z</time>
      </trkpt>
      <trkpt lat="46.487736" lon="10.657381">
        <ele>2513.61281</ele>
        <time>2026-09-03T06:02:49.999Z</time>
      </trkpt>
      <trkpt lat="46.487758" lon="10.657364">
        <ele>2514.83179</ele>
        <time>2026-09-03T06:02:54.999Z</time>
      </trkpt>
      <trkpt lat="46.487774" lon="10.657341">
        <ele>2515.72268</ele>
        <time>2026-09-03T06:02:58.999Z</time>
      </trkpt>
      <trkpt lat="46.48776" lon="10.657305">
        <ele>2516.44803</ele>
        <time>2026-09-03T06:03:02.999Z</time>
      </trkpt>
      <trkpt lat="46.487787" lon="10.657298">
        <ele>2517.05523</ele>
        <time>2026-09-03T06:03:05.999Z</time>
      </trkpt>
      <trkpt lat="46.487815" lon="10.657276">
        <ele>2517.65096</ele>
        <time>2026-09-03T06:03:08.999Z</time>
      </trkpt>
      <trkpt lat="46.487839" lon="10.657252">
        <ele>2518.37375</ele>
        <time>2026-09-03T06:03:12.999Z</time>
      </trkpt>
      <trkpt lat="46.48785" lon="10.65722">
        <ele>2519.79755</ele>
        <time>2026-09-03T06:03:19.999Z</time>
      </trkpt>
      <trkpt lat="46.487878" lon="10.657194">
        <ele>2520.59348</ele>
        <time>2026-09-03T06:03:23.999Z</time>
      </trkpt>
      <trkpt lat="46.487895" lon="10.657157">
        <ele>2521.19652</ele>
        <time>2026-09-03T06:03:26.999Z</time>
      </trkpt>
      <trkpt lat="46.487874" lon="10.657171">
        <ele>2521.3822</ele>
        <time>2026-09-03T06:03:27.999Z</time>
      </trkpt>
      <trkpt lat="46.487843" lon="10.657163">
        <ele>2521.90722</ele>
        <time>2026-09-03T06:03:30.999Z</time>
      </trkpt>
      <trkpt lat="46.487845" lon="10.657129">
        <ele>2522.53697</ele>
        <time>2026-09-03T06:03:34.999Z</time>
      </trkpt>
      <trkpt lat="46.487827" lon="10.657163">
        <ele>2523.01652</ele>
        <time>2026-09-03T06:03:37.999Z</time>
      </trkpt>
      <trkpt lat="46.487806" lon="10.657145">
        <ele>2523.17798</ele>
        <time>2026-09-03T06:03:38.999Z</time>
      </trkpt>
      <trkpt lat="46.487774" lon="10.657135">
        <ele>2524.2927</ele>
        <time>2026-09-03T06:03:45.000Z</time>
      </trkpt>
      <trkpt lat="46.487754" lon="10.65716">
        <ele>2524.96347</ele>
        <time>2026-09-03T06:03:50.000Z</time>
      </trkpt>
      <trkpt lat="46.487725" lon="10.657145">
        <ele>2525.09521</ele>
        <time>2026-09-03T06:03:51.000Z</time>
      </trkpt>
      <trkpt lat="46.487724" lon="10.657103">
        <ele>2525.42105</ele>
        <time>2026-09-03T06:03:54.000Z</time>
      </trkpt>
      <trkpt lat="46.487743" lon="10.657079">
        <ele>2525.52177</ele>
        <time>2026-09-03T06:03:55.000Z</time>
      </trkpt>
      <trkpt lat="46.48777" lon="10.657047">
        <ele>2526.02948</ele>
        <time>2026-09-03T06:03:58.000Z</time>
      </trkpt>
      <trkpt lat="46.487793" lon="10.657043">
        <ele>2526.46302</ele>
        <time>2026-09-03T06:04:01.000Z</time>
      </trkpt>
      <trkpt lat="46.487813" lon="10.657023">
        <ele>2527.53196</ele>
        <time>2026-09-03T06:04:07.000Z</time>
      </trkpt>
      <trkpt lat="46.487838" lon="10.657007">
        <ele>2528.30875</ele>
        <time>2026-09-03T06:04:11.000Z</time>
      </trkpt>
      <trkpt lat="46.487823" lon="10.656979">
        <ele>2528.72888</ele>
        <time>2026-09-03T06:04:13.000Z</time>
      </trkpt>
      <trkpt lat="46.487822" lon="10.656944">
        <ele>2529.81804</ele>
        <time>2026-09-03T06:04:19.000Z</time>
      </trkpt>
      <trkpt lat="46.487798" lon="10.656929">
        <ele>2530.38266</ele>
        <time>2026-09-03T06:04:22.000Z</time>
      </trkpt>
      <trkpt lat="46.487767" lon="10.656907">
        <ele>2531.41778</ele>
        <time>2026-09-03T06:04:28.000Z</time>
      </trkpt>
      <trkpt lat="46.487782" lon="10.656882">
        <ele>2531.73266</ele>
        <time>2026-09-03T06:04:30.000Z</time>
      </trkpt>
      <trkpt lat="46.487801" lon="10.656864">
        <ele>2532.81433</ele>
        <time>2026-09-03T06:04:37.000Z</time>
      </trkpt>
      <trkpt lat="46.487833" lon="10.656858">
        <ele>2533.22688</ele>
        <time>2026-09-03T06:04:39.000Z</time>
      </trkpt>
      <trkpt lat="46.487854" lon="10.656824">
        <ele>2534.66222</ele>
        <time>2026-09-03T06:04:46.000Z</time>
      </trkpt>
      <trkpt lat="46.487883" lon="10.656792">
        <ele>2535.49142</ele>
        <time>2026-09-03T06:04:50.000Z</time>
      </trkpt>
      <trkpt lat="46.487873" lon="10.656763">
        <ele>2536.59336</ele>
        <time>2026-09-03T06:04:55.000Z</time>
      </trkpt>
      <trkpt lat="46.487894" lon="10.656735">
        <ele>2537.15613</ele>
        <time>2026-09-03T06:04:57.999Z</time>
      </trkpt>
      <trkpt lat="46.487879" lon="10.656694">
        <ele>2538.24744</ele>
        <time>2026-09-03T06:05:04.999Z</time>
      </trkpt>
      <trkpt lat="46.487899" lon="10.656671">
        <ele>2538.63113</ele>
        <time>2026-09-03T06:05:07.999Z</time>
      </trkpt>
      <trkpt lat="46.487921" lon="10.656661">
        <ele>2539.08938</ele>
        <time>2026-09-03T06:05:10.999Z</time>
      </trkpt>
      <trkpt lat="46.487931" lon="10.656625">
        <ele>2540.40976</ele>
        <time>2026-09-03T06:05:18.999Z</time>
      </trkpt>
      <trkpt lat="46.487941" lon="10.656589">
        <ele>2541.78081</ele>
        <time>2026-09-03T06:05:25.999Z</time>
      </trkpt>
      <trkpt lat="46.487947" lon="10.656552">
        <ele>2542.71262</ele>
        <time>2026-09-03T06:05:29.999Z</time>
      </trkpt>
      <trkpt lat="46.487973" lon="10.656508">
        <ele>2543.66775</ele>
        <time>2026-09-03T06:05:33.999Z</time>
      </trkpt>
      <trkpt lat="46.487994" lon="10.656484">
        <ele>2545.61864</ele>
        <time>2026-09-03T06:05:42.999Z</time>
      </trkpt>
      <trkpt lat="46.488015" lon="10.656454">
        <ele>2546.526</ele>
        <time>2026-09-03T06:05:46.999Z</time>
      </trkpt>
      <trkpt lat="46.48803" lon="10.656429">
        <ele>2547.02868</ele>
        <time>2026-09-03T06:05:50.000Z</time>
      </trkpt>
      <trkpt lat="46.488036" lon="10.656394">
        <ele>2547.82707</ele>
        <time>2026-09-03T06:05:54.000Z</time>
      </trkpt>
      <trkpt lat="46.488055" lon="10.656373">
        <ele>2548.38632</ele>
        <time>2026-09-03T06:05:57.000Z</time>
      </trkpt>
      <trkpt lat="46.488068" lon="10.656342">
        <ele>2548.98235</ele>
        <time>2026-09-03T06:06:00.000Z</time>
      </trkpt>
      <trkpt lat="46.488083" lon="10.656312">
        <ele>2549.38533</ele>
        <time>2026-09-03T06:06:02.000Z</time>
      </trkpt>
      <trkpt lat="46.488091" lon="10.656275">
        <ele>2550.56012</ele>
        <time>2026-09-03T06:06:08.000Z</time>
      </trkpt>
      <trkpt lat="46.488106" lon="10.656231">
        <ele>2550.98685</ele>
        <time>2026-09-03T06:06:10.000Z</time>
      </trkpt>
      <trkpt lat="46.488118" lon="10.656193">
        <ele>2552.97257</ele>
        <time>2026-09-03T06:06:17.000Z</time>
      </trkpt>
      <trkpt lat="46.488137" lon="10.656172">
        <ele>2553.91313</ele>
        <time>2026-09-03T06:06:21.000Z</time>
      </trkpt>
      <trkpt lat="46.488167" lon="10.656149">
        <ele>2555.055</ele>
        <time>2026-09-03T06:06:25.000Z</time>
      </trkpt>
      <trkpt lat="46.488183" lon="10.656119">
        <ele>2557.23164</ele>
        <time>2026-09-03T06:06:31.000Z</time>
      </trkpt>
      <trkpt lat="46.488209" lon="10.65609">
        <ele>2558.29121</ele>
        <time>2026-09-03T06:06:34.000Z</time>
      </trkpt>
      <trkpt lat="46.488189" lon="10.656075">
        <ele>2559.24209</ele>
        <time>2026-09-03T06:06:37.000Z</time>
      </trkpt>
      <trkpt lat="46.488211" lon="10.656055">
        <ele>2560.41853</ele>
        <time>2026-09-03T06:06:42.000Z</time>
      </trkpt>
      <trkpt lat="46.488237" lon="10.656039">
        <ele>2561.232</ele>
        <time>2026-09-03T06:06:46.000Z</time>
      </trkpt>
      <trkpt lat="46.488256" lon="10.656008">
        <ele>2562.07457</ele>
        <time>2026-09-03T06:06:50.000Z</time>
      </trkpt>
      <trkpt lat="46.488273" lon="10.65598">
        <ele>2562.72764</ele>
        <time>2026-09-03T06:06:52.999Z</time>
      </trkpt>
      <trkpt lat="46.488306" lon="10.655979">
        <ele>2564.87749</ele>
        <time>2026-09-03T06:07:03.999Z</time>
      </trkpt>
      <trkpt lat="46.488316" lon="10.655947">
        <ele>2565.53905</ele>
        <time>2026-09-03T06:07:06.999Z</time>
      </trkpt>
      <trkpt lat="46.4883" lon="10.655914">
        <ele>2566.18204</ele>
        <time>2026-09-03T06:07:10.999Z</time>
      </trkpt>
      <trkpt lat="46.488294" lon="10.655882">
        <ele>2566.76826</ele>
        <time>2026-09-03T06:07:14.999Z</time>
      </trkpt>
      <trkpt lat="46.488274" lon="10.655856">
        <ele>2567.78576</ele>
        <time>2026-09-03T06:07:20.999Z</time>
      </trkpt>
      <trkpt lat="46.488301" lon="10.655831">
        <ele>2568.23943</ele>
        <time>2026-09-03T06:07:23.999Z</time>
      </trkpt>
      <trkpt lat="46.488336" lon="10.655807">
        <ele>2568.70379</ele>
        <time>2026-09-03T06:07:25.999Z</time>
      </trkpt>
      <trkpt lat="46.488362" lon="10.655782">
        <ele>2570.94715</ele>
        <time>2026-09-03T06:07:34.999Z</time>
      </trkpt>
      <trkpt lat="46.488369" lon="10.655747">
        <ele>2571.66381</ele>
        <time>2026-09-03T06:07:37.999Z</time>
      </trkpt>
      <trkpt lat="46.4884" lon="10.655726">
        <ele>2573.18092</ele>
        <time>2026-09-03T06:07:44.999Z</time>
      </trkpt>
      <trkpt lat="46.488427" lon="10.655697">
        <ele>2574.15995</ele>
        <time>2026-09-03T06:07:48.999Z</time>
      </trkpt>
      <trkpt lat="46.488431" lon="10.655664">
        <ele>2574.80267</ele>
        <time>2026-09-03T06:07:51.999Z</time>
      </trkpt>
      <trkpt lat="46.488453" lon="10.655657">
        <ele>2575.64099</ele>
        <time>2026-09-03T06:07:56.000Z</time>
      </trkpt>
      <trkpt lat="46.488438" lon="10.655627">
        <ele>2576.58167</ele>
        <time>2026-09-03T06:08:01.000Z</time>
      </trkpt>
      <trkpt lat="46.488425" lon="10.655589">
        <ele>2577.25662</ele>
        <time>2026-09-03T06:08:05.000Z</time>
      </trkpt>
      <trkpt lat="46.488451" lon="10.655572">
        <ele>2577.89459</ele>
        <time>2026-09-03T06:08:09.000Z</time>
      </trkpt>
      <trkpt lat="46.488473" lon="10.655548">
        <ele>2578.37065</ele>
        <time>2026-09-03T06:08:12.000Z</time>
      </trkpt>
      <trkpt lat="46.488484" lon="10.655507">
        <ele>2579.10991</ele>
        <time>2026-09-03T06:08:16.000Z</time>
      </trkpt>
      <trkpt lat="46.488464" lon="10.65549">
        <ele>2579.74181</ele>
        <time>2026-09-03T06:08:19.000Z</time>
      </trkpt>
      <trkpt lat="46.488438" lon="10.655474">
        <ele>2580.53994</ele>
        <time>2026-09-03T06:08:23.000Z</time>
      </trkpt>
      <trkpt lat="46.488466" lon="10.655449">
        <ele>2581.38113</ele>
        <time>2026-09-03T06:08:28.000Z</time>
      </trkpt>
      <trkpt lat="46.488488" lon="10.655448">
        <ele>2581.92191</ele>
        <time>2026-09-03T06:08:31.000Z</time>
      </trkpt>
      <trkpt lat="46.488493" lon="10.655415">
        <ele>2582.53109</ele>
        <time>2026-09-03T06:08:35.000Z</time>
      </trkpt>
      <trkpt lat="46.488508" lon="10.655375">
        <ele>2582.98827</ele>
        <time>2026-09-03T06:08:39.000Z</time>
      </trkpt>
      <trkpt lat="46.488525" lon="10.655342">
        <ele>2583.37606</ele>
        <time>2026-09-03T06:08:43.000Z</time>
      </trkpt>
      <trkpt lat="46.488546" lon="10.655306">
        <ele>2583.87974</ele>
        <time>2026-09-03T06:08:49.000Z</time>
      </trkpt>
      <trkpt lat="46.488564" lon="10.655274">
        <ele>2584.32638</ele>
        <time>2026-09-03T06:08:53.000Z</time>
      </trkpt>
      <trkpt lat="46.488584" lon="10.655258">
        <ele>2585.00268</ele>
        <time>2026-09-03T06:08:58.000Z</time>
      </trkpt>
      <trkpt lat="46.488596" lon="10.655214">
        <ele>2585.49559</ele>
        <time>2026-09-03T06:09:00.999Z</time>
      </trkpt>
      <trkpt lat="46.488608" lon="10.655162">
        <ele>2586.21226</ele>
        <time>2026-09-03T06:09:05.999Z</time>
      </trkpt>
      <trkpt lat="46.488615" lon="10.655124">
        <ele>2586.66115</ele>
        <time>2026-09-03T06:09:08.999Z</time>
      </trkpt>
      <trkpt lat="46.488628" lon="10.655093">
        <ele>2587.79557</ele>
        <time>2026-09-03T06:09:15.999Z</time>
      </trkpt>
      <trkpt lat="46.48866" lon="10.655078">
        <ele>2588.17318</ele>
        <time>2026-09-03T06:09:17.999Z</time>
      </trkpt>
      <trkpt lat="46.488671" lon="10.655046">
        <ele>2588.54647</ele>
        <time>2026-09-03T06:09:19.999Z</time>
      </trkpt>
      <trkpt lat="46.488684" lon="10.655005">
        <ele>2589.13321</ele>
        <time>2026-09-03T06:09:22.999Z</time>
      </trkpt>
      <trkpt lat="46.488729" lon="10.654972">
        <ele>2590.01614</ele>
        <time>2026-09-03T06:09:26.999Z</time>
      </trkpt>
      <trkpt lat="46.488711" lon="10.654953">
        <ele>2590.60486</ele>
        <time>2026-09-03T06:09:29.999Z</time>
      </trkpt>
      <trkpt lat="46.488696" lon="10.654927">
        <ele>2591.77552</ele>
        <time>2026-09-03T06:09:34.999Z</time>
      </trkpt>
      <trkpt lat="46.48871" lon="10.654899">
        <ele>2593.01457</ele>
        <time>2026-09-03T06:09:40.999Z</time>
      </trkpt>
      <trkpt lat="46.488729" lon="10.654881">
        <ele>2593.45937</ele>
        <time>2026-09-03T06:09:42.999Z</time>
      </trkpt>
      <trkpt lat="46.488756" lon="10.65486">
        <ele>2593.84603</ele>
        <time>2026-09-03T06:09:44.999Z</time>
      </trkpt>
      <trkpt lat="46.488773" lon="10.654834">
        <ele>2594.22352</ele>
        <time>2026-09-03T06:09:46.999Z</time>
      </trkpt>
      <trkpt lat="46.488774" lon="10.65479">
        <ele>2594.58541</ele>
        <time>2026-09-03T06:09:49.999Z</time>
      </trkpt>
      <trkpt lat="46.488782" lon="10.654757">
        <ele>2594.9435</ele>
        <time>2026-09-03T06:09:51.999Z</time>
      </trkpt>
      <trkpt lat="46.488789" lon="10.654716">
        <ele>2595.35099</ele>
        <time>2026-09-03T06:09:53.999Z</time>
      </trkpt>
      <trkpt lat="46.488802" lon="10.654684">
        <ele>2596.12997</ele>
        <time>2026-09-03T06:09:57.999Z</time>
      </trkpt>
      <trkpt lat="46.488781" lon="10.654665">
        <ele>2596.91793</ele>
        <time>2026-09-03T06:10:03.000Z</time>
      </trkpt>
      <trkpt lat="46.488761" lon="10.65469">
        <ele>2597.38303</ele>
        <time>2026-09-03T06:10:13.000Z</time>
      </trkpt>
      <trkpt lat="46.488782" lon="10.654668">
        <ele>2597.69706</ele>
        <time>2026-09-03T06:10:19.000Z</time>
      </trkpt>
      <trkpt lat="46.488774" lon="10.654628">
        <ele>2597.80133</ele>
        <time>2026-09-03T06:10:22.000Z</time>
      </trkpt>
      <trkpt lat="46.488803" lon="10.654589">
        <ele>2597.8367</ele>
        <time>2026-09-03T06:10:24.000Z</time>
      </trkpt>
      <trkpt lat="46.488792" lon="10.65455">
        <ele>2597.90761</ele>
        <time>2026-09-03T06:10:27.000Z</time>
      </trkpt>
      <trkpt lat="46.488812" lon="10.654532">
        <ele>2597.96048</ele>
        <time>2026-09-03T06:10:29.000Z</time>
      </trkpt>
      <trkpt lat="46.488827" lon="10.654493">
        <ele>2598.06184</ele>
        <time>2026-09-03T06:10:32.000Z</time>
      </trkpt>
      <trkpt lat="46.488834" lon="10.654455">
        <ele>2598.14755</ele>
        <time>2026-09-03T06:10:35.000Z</time>
      </trkpt>
      <trkpt lat="46.488839" lon="10.654419">
        <ele>2598.24143</ele>
        <time>2026-09-03T06:10:38.000Z</time>
      </trkpt>
      <trkpt lat="46.488845" lon="10.654379">
        <ele>2598.40959</ele>
        <time>2026-09-03T06:10:42.000Z</time>
      </trkpt>
      <trkpt lat="46.488856" lon="10.654346">
        <ele>2598.56692</ele>
        <time>2026-09-03T06:10:45.000Z</time>
      </trkpt>
      <trkpt lat="46.488859" lon="10.654307">
        <ele>2598.83352</ele>
        <time>2026-09-03T06:10:49.000Z</time>
      </trkpt>
      <trkpt lat="46.488866" lon="10.654266">
        <ele>2599.08154</ele>
        <time>2026-09-03T06:10:52.000Z</time>
      </trkpt>
      <trkpt lat="46.488869" lon="10.654232">
        <ele>2599.37343</ele>
        <time>2026-09-03T06:10:55.000Z</time>
      </trkpt>
      <trkpt lat="46.488852" lon="10.654186">
        <ele>2600.05054</ele>
        <time>2026-09-03T06:10:59.000Z</time>
      </trkpt>
      <trkpt lat="46.488876" lon="10.654145">
        <ele>2600.78828</ele>
        <time>2026-09-03T06:11:03.000Z</time>
      </trkpt>
      <trkpt lat="46.488868" lon="10.65411">
        <ele>2601.47595</ele>
        <time>2026-09-03T06:11:06.000Z</time>
      </trkpt>
      <trkpt lat="46.488867" lon="10.654075">
        <ele>2602.23457</ele>
        <time>2026-09-03T06:11:09.000Z</time>
      </trkpt>
      <trkpt lat="46.48886" lon="10.654041">
        <ele>2603.23628</ele>
        <time>2026-09-03T06:11:12.000Z</time>
      </trkpt>
      <trkpt lat="46.488854" lon="10.654">
        <ele>2604.56277</ele>
        <time>2026-09-03T06:11:16.000Z</time>
      </trkpt>
      <trkpt lat="46.488866" lon="10.653969">
        <ele>2605.59298</ele>
        <time>2026-09-03T06:11:19.999Z</time>
      </trkpt>
      <trkpt lat="46.488878" lon="10.653936">
        <ele>2605.98088</ele>
        <time>2026-09-03T06:11:21.999Z</time>
      </trkpt>
      <trkpt lat="46.488866" lon="10.653898">
        <ele>2606.55648</ele>
        <time>2026-09-03T06:11:24.999Z</time>
      </trkpt>
      <trkpt lat="46.488869" lon="10.653864">
        <ele>2606.94398</ele>
        <time>2026-09-03T06:11:26.999Z</time>
      </trkpt>
      <trkpt lat="46.488901" lon="10.65382">
        <ele>2607.49618</ele>
        <time>2026-09-03T06:11:30.999Z</time>
      </trkpt>
      <trkpt lat="46.488917" lon="10.653785">
        <ele>2607.94619</ele>
        <time>2026-09-03T06:11:33.999Z</time>
      </trkpt>
      <trkpt lat="46.488933" lon="10.653757">
        <ele>2608.23411</ele>
        <time>2026-09-03T06:11:35.999Z</time>
      </trkpt>
      <trkpt lat="46.488932" lon="10.65372">
        <ele>2608.65799</ele>
        <time>2026-09-03T06:11:38.999Z</time>
      </trkpt>
      <trkpt lat="46.488933" lon="10.653678">
        <ele>2609.24958</ele>
        <time>2026-09-03T06:11:42.999Z</time>
      </trkpt>
      <trkpt lat="46.488937" lon="10.653641">
        <ele>2609.70464</ele>
        <time>2026-09-03T06:11:45.999Z</time>
      </trkpt>
      <trkpt lat="46.48895" lon="10.653613">
        <ele>2609.93975</ele>
        <time>2026-09-03T06:11:47.999Z</time>
      </trkpt>
      <trkpt lat="46.488955" lon="10.653574">
        <ele>2610.44548</ele>
        <time>2026-09-03T06:11:51.999Z</time>
      </trkpt>
      <trkpt lat="46.488963" lon="10.653532">
        <ele>2610.74343</ele>
        <time>2026-09-03T06:11:54.999Z</time>
      </trkpt>
      <trkpt lat="46.488967" lon="10.653494">
        <ele>2611.14652</ele>
        <time>2026-09-03T06:11:57.999Z</time>
      </trkpt>
      <trkpt lat="46.488958" lon="10.653463">
        <ele>2611.53451</ele>
        <time>2026-09-03T06:12:00.999Z</time>
      </trkpt>
      <trkpt lat="46.488951" lon="10.653426">
        <ele>2611.84668</ele>
        <time>2026-09-03T06:12:03.999Z</time>
      </trkpt>
      <trkpt lat="46.488948" lon="10.65339">
        <ele>2612.36285</ele>
        <time>2026-09-03T06:12:08.000Z</time>
      </trkpt>
      <trkpt lat="46.488942" lon="10.653355">
        <ele>2612.88552</ele>
        <time>2026-09-03T06:12:11.000Z</time>
      </trkpt>
      <trkpt lat="46.488942" lon="10.653314">
        <ele>2614.08531</ele>
        <time>2026-09-03T06:12:17.000Z</time>
      </trkpt>
      <trkpt lat="46.488958" lon="10.653288">
        <ele>2614.50149</ele>
        <time>2026-09-03T06:12:19.000Z</time>
      </trkpt>
      <trkpt lat="46.488975" lon="10.653256">
        <ele>2615.60366</ele>
        <time>2026-09-03T06:12:24.000Z</time>
      </trkpt>
      <trkpt lat="46.488991" lon="10.653232">
        <ele>2616.30702</ele>
        <time>2026-09-03T06:12:27.000Z</time>
      </trkpt>
      <trkpt lat="46.489008" lon="10.653181">
        <ele>2617.18526</ele>
        <time>2026-09-03T06:12:32.000Z</time>
      </trkpt>
      <trkpt lat="46.489019" lon="10.65315">
        <ele>2617.92569</ele>
        <time>2026-09-03T06:12:36.000Z</time>
      </trkpt>
      <trkpt lat="46.489025" lon="10.653119">
        <ele>2618.24618</ele>
        <time>2026-09-03T06:12:38.000Z</time>
      </trkpt>
      <trkpt lat="46.489046" lon="10.653094">
        <ele>2618.78835</ele>
        <time>2026-09-03T06:12:41.000Z</time>
      </trkpt>
      <trkpt lat="46.48905" lon="10.653054">
        <ele>2619.75233</ele>
        <time>2026-09-03T06:12:45.000Z</time>
      </trkpt>
      <trkpt lat="46.489052" lon="10.653013">
        <ele>2620.588</ele>
        <time>2026-09-03T06:12:49.000Z</time>
      </trkpt>
      <trkpt lat="46.489056" lon="10.652966">
        <ele>2621.26061</ele>
        <time>2026-09-03T06:12:52.000Z</time>
      </trkpt>
      <trkpt lat="46.48906" lon="10.652918">
        <ele>2622.15724</ele>
        <time>2026-09-03T06:12:56.000Z</time>
      </trkpt>
      <trkpt lat="46.489072" lon="10.652886">
        <ele>2622.62424</ele>
        <time>2026-09-03T06:12:59.000Z</time>
      </trkpt>
      <trkpt lat="46.489086" lon="10.652852">
        <ele>2623.2471</ele>
        <time>2026-09-03T06:13:03.000Z</time>
      </trkpt>
      <trkpt lat="46.489103" lon="10.652819">
        <ele>2623.74254</ele>
        <time>2026-09-03T06:13:06.000Z</time>
      </trkpt>
      <trkpt lat="46.48912" lon="10.652787">
        <ele>2624.22047</ele>
        <time>2026-09-03T06:13:09.000Z</time>
      </trkpt>
      <trkpt lat="46.489142" lon="10.652759">
        <ele>2624.55355</ele>
        <time>2026-09-03T06:13:12.000Z</time>
      </trkpt>
      <trkpt lat="46.489159" lon="10.652735">
        <ele>2624.76382</ele>
        <time>2026-09-03T06:13:14.000Z</time>
      </trkpt>
      <trkpt lat="46.489168" lon="10.652701">
        <ele>2625.10712</ele>
        <time>2026-09-03T06:13:16.999Z</time>
      </trkpt>
      <trkpt lat="46.48915" lon="10.652673">
        <ele>2625.33315</ele>
        <time>2026-09-03T06:13:18.999Z</time>
      </trkpt>
      <trkpt lat="46.489161" lon="10.652644">
        <ele>2625.78782</ele>
        <time>2026-09-03T06:13:22.999Z</time>
      </trkpt>
      <trkpt lat="46.489175" lon="10.652608">
        <ele>2626.22466</ele>
        <time>2026-09-03T06:13:25.999Z</time>
      </trkpt>
      <trkpt lat="46.489187" lon="10.652569">
        <ele>2626.83432</ele>
        <time>2026-09-03T06:13:28.999Z</time>
      </trkpt>
      <trkpt lat="46.489189" lon="10.652525">
        <ele>2627.64798</ele>
        <time>2026-09-03T06:13:32.999Z</time>
      </trkpt>
      <trkpt lat="46.489204" lon="10.652489">
        <ele>2628.09065</ele>
        <time>2026-09-03T06:13:34.999Z</time>
      </trkpt>
      <trkpt lat="46.48921" lon="10.652448">
        <ele>2628.91232</ele>
        <time>2026-09-03T06:13:38.999Z</time>
      </trkpt>
      <trkpt lat="46.489219" lon="10.652409">
        <ele>2629.61479</ele>
        <time>2026-09-03T06:13:41.999Z</time>
      </trkpt>
      <trkpt lat="46.489232" lon="10.652372">
        <ele>2630.23896</ele>
        <time>2026-09-03T06:13:44.999Z</time>
      </trkpt>
      <trkpt lat="46.489243" lon="10.652345">
        <ele>2630.84023</ele>
        <time>2026-09-03T06:13:47.999Z</time>
      </trkpt>
      <trkpt lat="46.489255" lon="10.652308">
        <ele>2631.34625</ele>
        <time>2026-09-03T06:13:50.999Z</time>
      </trkpt>
      <trkpt lat="46.489269" lon="10.652282">
        <ele>2631.82247</ele>
        <time>2026-09-03T06:13:53.999Z</time>
      </trkpt>
      <trkpt lat="46.48924" lon="10.652275">
        <ele>2632.27753</ele>
        <time>2026-09-03T06:13:56.999Z</time>
      </trkpt>
      <trkpt lat="46.489226" lon="10.652243">
        <ele>2632.66597</ele>
        <time>2026-09-03T06:13:58.999Z</time>
      </trkpt>
      <trkpt lat="46.489209" lon="10.652209">
        <ele>2633.30609</ele>
        <time>2026-09-03T06:14:02.999Z</time>
      </trkpt>
      <trkpt lat="46.489191" lon="10.65218">
        <ele>2633.9121</ele>
        <time>2026-09-03T06:14:06.999Z</time>
      </trkpt>
      <trkpt lat="46.489177" lon="10.652136">
        <ele>2634.47879</ele>
        <time>2026-09-03T06:14:09.999Z</time>
      </trkpt>
      <trkpt lat="46.489167" lon="10.652086">
        <ele>2635.27732</ele>
        <time>2026-09-03T06:14:16.000Z</time>
      </trkpt>
      <trkpt lat="46.489163" lon="10.652046">
        <ele>2635.55072</ele>
        <time>2026-09-03T06:14:19.000Z</time>
      </trkpt>
      <trkpt lat="46.489177" lon="10.652009">
        <ele>2636.35886</ele>
        <time>2026-09-03T06:14:25.000Z</time>
      </trkpt>
      <trkpt lat="46.489197" lon="10.651995">
        <ele>2636.91282</ele>
        <time>2026-09-03T06:14:28.000Z</time>
      </trkpt>
      <trkpt lat="46.489219" lon="10.651981">
        <ele>2637.77936</ele>
        <time>2026-09-03T06:14:32.000Z</time>
      </trkpt>
      <trkpt lat="46.489242" lon="10.651956">
        <ele>2638.80054</ele>
        <time>2026-09-03T06:14:36.000Z</time>
      </trkpt>
      <trkpt lat="46.48926" lon="10.65193">
        <ele>2639.52559</ele>
        <time>2026-09-03T06:14:39.000Z</time>
      </trkpt>
      <trkpt lat="46.489255" lon="10.651895">
        <ele>2640.13162</ele>
        <time>2026-09-03T06:14:42.000Z</time>
      </trkpt>
      <trkpt lat="46.489233" lon="10.651881">
        <ele>2640.80747</ele>
        <time>2026-09-03T06:14:45.000Z</time>
      </trkpt>
      <trkpt lat="46.489207" lon="10.651862">
        <ele>2641.80487</ele>
        <time>2026-09-03T06:14:50.000Z</time>
      </trkpt>
      <trkpt lat="46.489191" lon="10.651832">
        <ele>2642.33116</ele>
        <time>2026-09-03T06:14:53.000Z</time>
      </trkpt>
      <trkpt lat="46.489184" lon="10.651795">
        <ele>2642.99167</ele>
        <time>2026-09-03T06:14:57.000Z</time>
      </trkpt>
      <trkpt lat="46.489166" lon="10.651767">
        <ele>2643.53618</ele>
        <time>2026-09-03T06:15:01.000Z</time>
      </trkpt>
      <trkpt lat="46.489154" lon="10.651731">
        <ele>2644.06955</ele>
        <time>2026-09-03T06:15:06.000Z</time>
      </trkpt>
      <trkpt lat="46.489163" lon="10.651697">
        <ele>2644.42832</ele>
        <time>2026-09-03T06:15:09.000Z</time>
      </trkpt>
      <trkpt lat="46.489177" lon="10.651666">
        <ele>2644.8921</ele>
        <time>2026-09-03T06:15:13.000Z</time>
      </trkpt>
      <trkpt lat="46.489203" lon="10.651664">
        <ele>2645.26883</ele>
        <time>2026-09-03T06:15:15.999Z</time>
      </trkpt>
      <trkpt lat="46.489233" lon="10.651663">
        <ele>2645.64925</ele>
        <time>2026-09-03T06:15:18.999Z</time>
      </trkpt>
      <trkpt lat="46.489231" lon="10.651626">
        <ele>2646.26283</ele>
        <time>2026-09-03T06:15:22.999Z</time>
      </trkpt>
      <trkpt lat="46.489219" lon="10.651575">
        <ele>2647.23302</ele>
        <time>2026-09-03T06:15:28.999Z</time>
      </trkpt>
      <trkpt lat="46.489229" lon="10.651545">
        <ele>2648.16891</ele>
        <time>2026-09-03T06:15:32.999Z</time>
      </trkpt>
      <trkpt lat="46.489222" lon="10.651505">
        <ele>2649.33663</ele>
        <time>2026-09-03T06:15:36.999Z</time>
      </trkpt>
      <trkpt lat="46.489244" lon="10.651479">
        <ele>2650.87842</ele>
        <time>2026-09-03T06:15:43.999Z</time>
      </trkpt>
      <trkpt lat="46.489269" lon="10.651467">
        <ele>2651.41731</ele>
        <time>2026-09-03T06:15:46.999Z</time>
      </trkpt>
      <trkpt lat="46.489256" lon="10.651433">
        <ele>2651.93049</ele>
        <time>2026-09-03T06:15:49.999Z</time>
      </trkpt>
      <trkpt lat="46.489257" lon="10.651396">
        <ele>2652.63571</ele>
        <time>2026-09-03T06:15:54.999Z</time>
      </trkpt>
      <trkpt lat="46.489273" lon="10.651356">
        <ele>2653.31506</ele>
        <time>2026-09-03T06:15:59.999Z</time>
      </trkpt>
      <trkpt lat="46.489297" lon="10.651338">
        <ele>2653.69925</ele>
        <time>2026-09-03T06:16:02.999Z</time>
      </trkpt>
      <trkpt lat="46.489318" lon="10.651306">
        <ele>2654.44617</ele>
        <time>2026-09-03T06:16:06.999Z</time>
      </trkpt>
      <trkpt lat="46.489316" lon="10.651256">
        <ele>2655.25887</ele>
        <time>2026-09-03T06:16:10.999Z</time>
      </trkpt>
      <trkpt lat="46.489327" lon="10.651214">
        <ele>2656.24438</ele>
        <time>2026-09-03T06:16:16.999Z</time>
      </trkpt>
      <trkpt lat="46.489338" lon="10.651177">
        <ele>2656.77481</ele>
        <time>2026-09-03T06:16:21.000Z</time>
      </trkpt>
      <trkpt lat="46.489348" lon="10.651142">
        <ele>2657.36744</ele>
        <time>2026-09-03T06:16:25.000Z</time>
      </trkpt>
      <trkpt lat="46.48936" lon="10.651102">
        <ele>2658.1615</ele>
        <time>2026-09-03T06:16:30.000Z</time>
      </trkpt>
      <trkpt lat="46.489378" lon="10.651069">
        <ele>2658.84639</ele>
        <time>2026-09-03T06:16:34.000Z</time>
      </trkpt>
      <trkpt lat="46.489396" lon="10.651046">
        <ele>2659.2514</ele>
        <time>2026-09-03T06:16:36.000Z</time>
      </trkpt>
      <trkpt lat="46.489405" lon="10.651015">
        <ele>2659.98636</ele>
        <time>2026-09-03T06:16:40.000Z</time>
      </trkpt>
      <trkpt lat="46.489421" lon="10.650979">
        <ele>2660.79673</ele>
        <time>2026-09-03T06:16:45.000Z</time>
      </trkpt>
      <trkpt lat="46.489434" lon="10.650949">
        <ele>2661.18353</ele>
        <time>2026-09-03T06:16:48.000Z</time>
      </trkpt>
      <trkpt lat="46.489449" lon="10.650913">
        <ele>2662.00624</ele>
        <time>2026-09-03T06:16:54.000Z</time>
      </trkpt>
      <trkpt lat="46.489459" lon="10.650883">
        <ele>2662.69557</ele>
        <time>2026-09-03T06:16:57.000Z</time>
      </trkpt>
      <trkpt lat="46.489473" lon="10.650844">
        <ele>2663.94542</ele>
        <time>2026-09-03T06:17:02.000Z</time>
      </trkpt>
      <trkpt lat="46.489499" lon="10.650818">
        <ele>2665.317</ele>
        <time>2026-09-03T06:17:07.000Z</time>
      </trkpt>
      <trkpt lat="46.489509" lon="10.650774">
        <ele>2666.53798</ele>
        <time>2026-09-03T06:17:12.000Z</time>
      </trkpt>
      <trkpt lat="46.489525" lon="10.650748">
        <ele>2667.80914</ele>
        <time>2026-09-03T06:17:17.000Z</time>
      </trkpt>
      <trkpt lat="46.489547" lon="10.650734">
        <ele>2668.65635</ele>
        <time>2026-09-03T06:17:21.000Z</time>
      </trkpt>
      <trkpt lat="46.48956" lon="10.650702">
        <ele>2669.28718</ele>
        <time>2026-09-03T06:17:25.000Z</time>
      </trkpt>
      <trkpt lat="46.489576" lon="10.650675">
        <ele>2669.89429</ele>
        <time>2026-09-03T06:17:28.999Z</time>
      </trkpt>
      <trkpt lat="46.489575" lon="10.650641">
        <ele>2670.53909</ele>
        <time>2026-09-03T06:17:32.999Z</time>
      </trkpt>
      <trkpt lat="46.489591" lon="10.650605">
        <ele>2671.15775</ele>
        <time>2026-09-03T06:17:36.999Z</time>
      </trkpt>
      <trkpt lat="46.489574" lon="10.650575">
        <ele>2671.61718</ele>
        <time>2026-09-03T06:17:39.999Z</time>
      </trkpt>
      <trkpt lat="46.489589" lon="10.650547">
        <ele>2672.26541</ele>
        <time>2026-09-03T06:17:44.999Z</time>
      </trkpt>
      <trkpt lat="46.489608" lon="10.650518">
        <ele>2672.92863</ele>
        <time>2026-09-03T06:17:48.999Z</time>
      </trkpt>
      <trkpt lat="46.489607" lon="10.650472">
        <ele>2673.751</ele>
        <time>2026-09-03T06:17:54.999Z</time>
      </trkpt>
      <trkpt lat="46.489615" lon="10.650437">
        <ele>2674.2311</ele>
        <time>2026-09-03T06:17:58.999Z</time>
      </trkpt>
      <trkpt lat="46.48962" lon="10.650404">
        <ele>2674.69143</ele>
        <time>2026-09-03T06:18:02.999Z</time>
      </trkpt>
      <trkpt lat="46.489616" lon="10.650367">
        <ele>2675.1956</ele>
        <time>2026-09-03T06:18:06.999Z</time>
      </trkpt>
      <trkpt lat="46.489622" lon="10.650329">
        <ele>2675.62682</ele>
        <time>2026-09-03T06:18:10.999Z</time>
      </trkpt>
      <trkpt lat="46.489635" lon="10.650298">
        <ele>2675.95613</ele>
        <time>2026-09-03T06:18:13.999Z</time>
      </trkpt>
      <trkpt lat="46.489634" lon="10.650256">
        <ele>2676.53954</ele>
        <time>2026-09-03T06:18:19.999Z</time>
      </trkpt>
      <trkpt lat="46.489636" lon="10.650223">
        <ele>2676.96502</ele>
        <time>2026-09-03T06:18:23.999Z</time>
      </trkpt>
      <trkpt lat="46.489649" lon="10.650192">
        <ele>2677.61415</ele>
        <time>2026-09-03T06:18:29.000Z</time>
      </trkpt>
      <trkpt lat="46.489661" lon="10.650153">
        <ele>2678.43829</ele>
        <time>2026-09-03T06:18:34.000Z</time>
      </trkpt>
      <trkpt lat="46.489678" lon="10.650124">
        <ele>2679.55099</ele>
        <time>2026-09-03T06:18:39.000Z</time>
      </trkpt>
      <trkpt lat="46.489692" lon="10.650089">
        <ele>2680.90202</ele>
        <time>2026-09-03T06:18:45.000Z</time>
      </trkpt>
      <trkpt lat="46.489712" lon="10.650064">
        <ele>2682.23787</ele>
        <time>2026-09-03T06:18:50.000Z</time>
      </trkpt>
      <trkpt lat="46.489706" lon="10.65003">
        <ele>2683.48524</ele>
        <time>2026-09-03T06:18:55.000Z</time>
      </trkpt>
      <trkpt lat="46.489726" lon="10.650003">
        <ele>2684.24749</ele>
        <time>2026-09-03T06:18:58.000Z</time>
      </trkpt>
      <trkpt lat="46.489745" lon="10.649975">
        <ele>2684.90155</ele>
        <time>2026-09-03T06:19:01.000Z</time>
      </trkpt>
      <trkpt lat="46.489771" lon="10.649956">
        <ele>2686.11007</ele>
        <time>2026-09-03T06:19:06.000Z</time>
      </trkpt>
      <trkpt lat="46.489785" lon="10.649923">
        <ele>2686.67236</ele>
        <time>2026-09-03T06:19:09.000Z</time>
      </trkpt>
      <trkpt lat="46.489803" lon="10.649899">
        <ele>2687.49952</ele>
        <time>2026-09-03T06:19:14.000Z</time>
      </trkpt>
      <trkpt lat="46.489806" lon="10.649859">
        <ele>2688.18558</ele>
        <time>2026-09-03T06:19:19.000Z</time>
      </trkpt>
      <trkpt lat="46.489821" lon="10.649831">
        <ele>2688.96084</ele>
        <time>2026-09-03T06:19:24.000Z</time>
      </trkpt>
      <trkpt lat="46.489846" lon="10.649821">
        <ele>2689.24625</ele>
        <time>2026-09-03T06:19:27.000Z</time>
      </trkpt>
      <trkpt lat="46.489859" lon="10.649792">
        <ele>2689.93327</ele>
        <time>2026-09-03T06:19:31.999Z</time>
      </trkpt>
      <trkpt lat="46.489864" lon="10.649758">
        <ele>2690.369</ele>
        <time>2026-09-03T06:19:34.999Z</time>
      </trkpt>
      <trkpt lat="46.489888" lon="10.649722">
        <ele>2690.7839</ele>
        <time>2026-09-03T06:19:38.999Z</time>
      </trkpt>
      <trkpt lat="46.489893" lon="10.64969">
        <ele>2691.02476</ele>
        <time>2026-09-03T06:19:41.999Z</time>
      </trkpt>
      <trkpt lat="46.489918" lon="10.649665">
        <ele>2691.39545</ele>
        <time>2026-09-03T06:19:45.999Z</time>
      </trkpt>
      <trkpt lat="46.489934" lon="10.64964">
        <ele>2691.50178</ele>
        <time>2026-09-03T06:19:47.999Z</time>
      </trkpt>
      <trkpt lat="46.489957" lon="10.649627">
        <ele>2691.75037</ele>
        <time>2026-09-03T06:19:49.999Z</time>
      </trkpt>
      <trkpt lat="46.489963" lon="10.649588">
        <ele>2692.09131</ele>
        <time>2026-09-03T06:19:52.999Z</time>
      </trkpt>
      <trkpt lat="46.48999" lon="10.649546">
        <ele>2692.43348</ele>
        <time>2026-09-03T06:19:55.999Z</time>
      </trkpt>
      <trkpt lat="46.490012" lon="10.649516">
        <ele>2692.71055</ele>
        <time>2026-09-03T06:19:58.999Z</time>
      </trkpt>
      <trkpt lat="46.490026" lon="10.649488">
        <ele>2692.8704</ele>
        <time>2026-09-03T06:20:00.999Z</time>
      </trkpt>
      <trkpt lat="46.490052" lon="10.649464">
        <ele>2693.0382</ele>
        <time>2026-09-03T06:20:03.999Z</time>
      </trkpt>
      <trkpt lat="46.490073" lon="10.64945">
        <ele>2693.13039</ele>
        <time>2026-09-03T06:20:05.999Z</time>
      </trkpt>
      <trkpt lat="46.490092" lon="10.649423">
        <ele>2693.21328</ele>
        <time>2026-09-03T06:20:07.999Z</time>
      </trkpt>
      <trkpt lat="46.490121" lon="10.649397">
        <ele>2693.39442</ele>
        <time>2026-09-03T06:20:10.999Z</time>
      </trkpt>
      <trkpt lat="46.490144" lon="10.649365">
        <ele>2693.56993</ele>
        <time>2026-09-03T06:20:13.999Z</time>
      </trkpt>
      <trkpt lat="46.490174" lon="10.649337">
        <ele>2693.76558</ele>
        <time>2026-09-03T06:20:16.999Z</time>
      </trkpt>
      <trkpt lat="46.490192" lon="10.649308">
        <ele>2693.96249</ele>
        <time>2026-09-03T06:20:20.999Z</time>
      </trkpt>
      <trkpt lat="46.490212" lon="10.649289">
        <ele>2694.05751</ele>
        <time>2026-09-03T06:20:22.999Z</time>
      </trkpt>
      <trkpt lat="46.490234" lon="10.64927">
        <ele>2694.16059</ele>
        <time>2026-09-03T06:20:24.999Z</time>
      </trkpt>
      <trkpt lat="46.490255" lon="10.649243">
        <ele>2694.3692</ele>
        <time>2026-09-03T06:20:27.999Z</time>
      </trkpt>
      <trkpt lat="46.49026" lon="10.649207">
        <ele>2694.51686</ele>
        <time>2026-09-03T06:20:29.999Z</time>
      </trkpt>
      <trkpt lat="46.490262" lon="10.649163">
        <ele>2694.65466</ele>
        <time>2026-09-03T06:20:33.000Z</time>
      </trkpt>
      <trkpt lat="46.490276" lon="10.649129">
        <ele>2694.86523</ele>
        <time>2026-09-03T06:20:37.000Z</time>
      </trkpt>
      <trkpt lat="46.490292" lon="10.649078">
        <ele>2695.01417</ele>
        <time>2026-09-03T06:20:39.000Z</time>
      </trkpt>
      <trkpt lat="46.490288" lon="10.649041">
        <ele>2695.16148</ele>
        <time>2026-09-03T06:20:42.000Z</time>
      </trkpt>
      <trkpt lat="46.490305" lon="10.649004">
        <ele>2695.35739</ele>
        <time>2026-09-03T06:20:45.000Z</time>
      </trkpt>
      <trkpt lat="46.490325" lon="10.64896">
        <ele>2695.76083</ele>
        <time>2026-09-03T06:20:49.000Z</time>
      </trkpt>
      <trkpt lat="46.490332" lon="10.648901">
        <ele>2696.38403</ele>
        <time>2026-09-03T06:20:54.000Z</time>
      </trkpt>
      <trkpt lat="46.49032" lon="10.648872">
        <ele>2696.81027</ele>
        <time>2026-09-03T06:20:57.000Z</time>
      </trkpt>
      <trkpt lat="46.490357" lon="10.648841">
        <ele>2698.20425</ele>
        <time>2026-09-03T06:21:09.000Z</time>
      </trkpt>
      <trkpt lat="46.490342" lon="10.648802">
        <ele>2698.44734</ele>
        <time>2026-09-03T06:21:11.000Z</time>
      </trkpt>
      <trkpt lat="46.490354" lon="10.648771">
        <ele>2698.7816</ele>
        <time>2026-09-03T06:21:14.000Z</time>
      </trkpt>
      <trkpt lat="46.490359" lon="10.648729">
        <ele>2699.3851</ele>
        <time>2026-09-03T06:21:18.000Z</time>
      </trkpt>
      <trkpt lat="46.49036" lon="10.648683">
        <ele>2700.30248</ele>
        <time>2026-09-03T06:21:22.000Z</time>
      </trkpt>
      <trkpt lat="46.490366" lon="10.648641">
        <ele>2701.96084</ele>
        <time>2026-09-03T06:21:29.000Z</time>
      </trkpt>
      <trkpt lat="46.490385" lon="10.648608">
        <ele>2702.70596</ele>
        <time>2026-09-03T06:21:31.000Z</time>
      </trkpt>
      <trkpt lat="46.490408" lon="10.648575">
        <ele>2703.73954</ele>
        <time>2026-09-03T06:21:33.999Z</time>
      </trkpt>
      <trkpt lat="46.490421" lon="10.648545">
        <ele>2705.1361</ele>
        <time>2026-09-03T06:21:37.999Z</time>
      </trkpt>
      <trkpt lat="46.490433" lon="10.6485">
        <ele>2705.99552</ele>
        <time>2026-09-03T06:21:40.999Z</time>
      </trkpt>
      <trkpt lat="46.490426" lon="10.648459">
        <ele>2706.71913</ele>
        <time>2026-09-03T06:21:43.999Z</time>
      </trkpt>
      <trkpt lat="46.490444" lon="10.648414">
        <ele>2707.76658</ele>
        <time>2026-09-03T06:21:48.999Z</time>
      </trkpt>
      <trkpt lat="46.49045" lon="10.648377">
        <ele>2708.19751</ele>
        <time>2026-09-03T06:21:51.999Z</time>
      </trkpt>
      <trkpt lat="46.490465" lon="10.648343">
        <ele>2708.8894</ele>
        <time>2026-09-03T06:21:55.999Z</time>
      </trkpt>
      <trkpt lat="46.490466" lon="10.648302">
        <ele>2709.65881</ele>
        <time>2026-09-03T06:22:00.999Z</time>
      </trkpt>
      <trkpt lat="46.490456" lon="10.648266">
        <ele>2710.00999</ele>
        <time>2026-09-03T06:22:03.999Z</time>
      </trkpt>
      <trkpt lat="46.490459" lon="10.648233">
        <ele>2710.23311</ele>
        <time>2026-09-03T06:22:05.999Z</time>
      </trkpt>
      <trkpt lat="46.490467" lon="10.648186">
        <ele>2710.60917</ele>
        <time>2026-09-03T06:22:09.999Z</time>
      </trkpt>
      <trkpt lat="46.490472" lon="10.64815">
        <ele>2710.82857</ele>
        <time>2026-09-03T06:22:11.999Z</time>
      </trkpt>
      <trkpt lat="46.490488" lon="10.648121">
        <ele>2710.99039</ele>
        <time>2026-09-03T06:22:13.999Z</time>
      </trkpt>
      <trkpt lat="46.490477" lon="10.64809">
        <ele>2711.25015</ele>
        <time>2026-09-03T06:22:17.999Z</time>
      </trkpt>
      <trkpt lat="46.490488" lon="10.648037">
        <ele>2711.32485</ele>
        <time>2026-09-03T06:22:19.999Z</time>
      </trkpt>
      <trkpt lat="46.490505" lon="10.64801">
        <ele>2711.6125</ele>
        <time>2026-09-03T06:22:24.999Z</time>
      </trkpt>
      <trkpt lat="46.490515" lon="10.647965">
        <ele>2711.88264</ele>
        <time>2026-09-03T06:22:28.999Z</time>
      </trkpt>
      <trkpt lat="46.49052" lon="10.647926">
        <ele>2712.25595</ele>
        <time>2026-09-03T06:22:31.999Z</time>
      </trkpt>
      <trkpt lat="46.490533" lon="10.647887">
        <ele>2712.59483</ele>
        <time>2026-09-03T06:22:33.999Z</time>
      </trkpt>
      <trkpt lat="46.490535" lon="10.647848">
        <ele>2714.07887</ele>
        <time>2026-09-03T06:22:41.000Z</time>
      </trkpt>
      <trkpt lat="46.490539" lon="10.647806">
        <ele>2714.55092</ele>
        <time>2026-09-03T06:22:43.000Z</time>
      </trkpt>
      <trkpt lat="46.490542" lon="10.647769">
        <ele>2715.00987</ele>
        <time>2026-09-03T06:22:45.000Z</time>
      </trkpt>
      <trkpt lat="46.490559" lon="10.647745">
        <ele>2715.28518</ele>
        <time>2026-09-03T06:22:46.000Z</time>
      </trkpt>
      <trkpt lat="46.49057" lon="10.647696">
        <ele>2716.4094</ele>
        <time>2026-09-03T06:22:50.000Z</time>
      </trkpt>
      <trkpt lat="46.490558" lon="10.647659">
        <ele>2717.28404</ele>
        <time>2026-09-03T06:22:53.000Z</time>
      </trkpt>
      <trkpt lat="46.490563" lon="10.647621">
        <ele>2718.32159</ele>
        <time>2026-09-03T06:22:57.000Z</time>
      </trkpt>
      <trkpt lat="46.490574" lon="10.647567">
        <ele>2719.43876</ele>
        <time>2026-09-03T06:23:01.000Z</time>
      </trkpt>
      <trkpt lat="46.490572" lon="10.647531">
        <ele>2720.07704</ele>
        <time>2026-09-03T06:23:04.000Z</time>
      </trkpt>
      <trkpt lat="46.490583" lon="10.647484">
        <ele>2720.68906</ele>
        <time>2026-09-03T06:23:07.000Z</time>
      </trkpt>
      <trkpt lat="46.490582" lon="10.64744">
        <ele>2721.11668</ele>
        <time>2026-09-03T06:23:10.000Z</time>
      </trkpt>
      <trkpt lat="46.490592" lon="10.64741">
        <ele>2721.32421</ele>
        <time>2026-09-03T06:23:12.000Z</time>
      </trkpt>
      <trkpt lat="46.490592" lon="10.647376">
        <ele>2721.69905</ele>
        <time>2026-09-03T06:23:16.000Z</time>
      </trkpt>
      <trkpt lat="46.490603" lon="10.647342">
        <ele>2721.87019</ele>
        <time>2026-09-03T06:23:18.000Z</time>
      </trkpt>
      <trkpt lat="46.490605" lon="10.647304">
        <ele>2722.31572</ele>
        <time>2026-09-03T06:23:22.000Z</time>
      </trkpt>
      <trkpt lat="46.490623" lon="10.647285">
        <ele>2722.51563</ele>
        <time>2026-09-03T06:23:24.000Z</time>
      </trkpt>
      <trkpt lat="46.490634" lon="10.647245">
        <ele>2722.73465</ele>
        <time>2026-09-03T06:23:26.000Z</time>
      </trkpt>
      <trkpt lat="46.490628" lon="10.647206">
        <ele>2723.02005</ele>
        <time>2026-09-03T06:23:29.000Z</time>
      </trkpt>
      <trkpt lat="46.49064" lon="10.647167">
        <ele>2723.32837</ele>
        <time>2026-09-03T06:23:32.000Z</time>
      </trkpt>
      <trkpt lat="46.490664" lon="10.647153">
        <ele>2723.50371</ele>
        <time>2026-09-03T06:23:34.000Z</time>
      </trkpt>
      <trkpt lat="46.49067" lon="10.64712">
        <ele>2723.65886</ele>
        <time>2026-09-03T06:23:36.000Z</time>
      </trkpt>
      <trkpt lat="46.49069" lon="10.647077">
        <ele>2724.00583</ele>
        <time>2026-09-03T06:23:39.000Z</time>
      </trkpt>
      <trkpt lat="46.490688" lon="10.647041">
        <ele>2724.22553</ele>
        <time>2026-09-03T06:23:41.000Z</time>
      </trkpt>
      <trkpt lat="46.490701" lon="10.646996">
        <ele>2724.72805</ele>
        <time>2026-09-03T06:23:45.000Z</time>
      </trkpt>
      <trkpt lat="46.490704" lon="10.646953">
        <ele>2725.12373</ele>
        <time>2026-09-03T06:23:47.999Z</time>
      </trkpt>
      <trkpt lat="46.490706" lon="10.646907">
        <ele>2725.24097</ele>
        <time>2026-09-03T06:23:48.999Z</time>
      </trkpt>
      <trkpt lat="46.490694" lon="10.64688">
        <ele>2725.71463</ele>
        <time>2026-09-03T06:23:53.999Z</time>
      </trkpt>
      <trkpt lat="46.490702" lon="10.646848">
        <ele>2725.89819</ele>
        <time>2026-09-03T06:23:55.999Z</time>
      </trkpt>
      <trkpt lat="46.490717" lon="10.646816">
        <ele>2726.08638</ele>
        <time>2026-09-03T06:23:58.999Z</time>
      </trkpt>
      <trkpt lat="46.490726" lon="10.646776">
        <ele>2726.21535</ele>
        <time>2026-09-03T06:24:00.999Z</time>
      </trkpt>
      <trkpt lat="46.49073" lon="10.646734">
        <ele>2726.45102</ele>
        <time>2026-09-03T06:24:03.999Z</time>
      </trkpt>
      <trkpt lat="46.490722" lon="10.646699">
        <ele>2726.78965</ele>
        <time>2026-09-03T06:24:06.999Z</time>
      </trkpt>
      <trkpt lat="46.490703" lon="10.646675">
        <ele>2727.11049</ele>
        <time>2026-09-03T06:24:09.999Z</time>
      </trkpt>
      <trkpt lat="46.490699" lon="10.646623">
        <ele>2727.28561</ele>
        <time>2026-09-03T06:24:11.999Z</time>
      </trkpt>
      <trkpt lat="46.490699" lon="10.646587">
        <ele>2727.70257</ele>
        <time>2026-09-03T06:24:16.999Z</time>
      </trkpt>
      <trkpt lat="46.490725" lon="10.646563">
        <ele>2728.40593</ele>
        <time>2026-09-03T06:24:28.999Z</time>
      </trkpt>
      <trkpt lat="46.490743" lon="10.646542">
        <ele>2728.47935</ele>
        <time>2026-09-03T06:24:31.999Z</time>
      </trkpt>
      <trkpt lat="46.490776" lon="10.646532">
        <ele>2728.56687</ele>
        <time>2026-09-03T06:24:34.999Z</time>
      </trkpt>
      <trkpt lat="46.490808" lon="10.646546">
        <ele>2728.5983</ele>
        <time>2026-09-03T06:24:35.999Z</time>
      </trkpt>
      <trkpt lat="46.490828" lon="10.646529">
        <ele>2728.63859</ele>
        <time>2026-09-03T06:24:37.999Z</time>
      </trkpt>
      <trkpt lat="46.490853" lon="10.646515">
        <ele>2728.65315</ele>
        <time>2026-09-03T06:24:39.999Z</time>
      </trkpt>
      <trkpt lat="46.490882" lon="10.64652">
        <ele>2728.68085</ele>
        <time>2026-09-03T06:24:41.999Z</time>
      </trkpt>
      <trkpt lat="46.490906" lon="10.646501">
        <ele>2728.73557</ele>
        <time>2026-09-03T06:24:44.000Z</time>
      </trkpt>
      <trkpt lat="46.490936" lon="10.646502">
        <ele>2729.10621</ele>
        <time>2026-09-03T06:24:48.000Z</time>
      </trkpt>
      <trkpt lat="46.490966" lon="10.64649">
        <ele>2729.92665</ele>
        <time>2026-09-03T06:24:53.000Z</time>
      </trkpt>
      <trkpt lat="46.490987" lon="10.646474">
        <ele>2730.42731</ele>
        <time>2026-09-03T06:24:55.000Z</time>
      </trkpt>
      <trkpt lat="46.491023" lon="10.646429">
        <ele>2731.00788</ele>
        <time>2026-09-03T06:24:57.000Z</time>
      </trkpt>
      <trkpt lat="46.490995" lon="10.646429">
        <ele>2732.65959</ele>
        <time>2026-09-03T06:25:03.000Z</time>
      </trkpt>
      <trkpt lat="46.491028" lon="10.646425">
        <ele>2733.7106</ele>
        <time>2026-09-03T06:25:07.000Z</time>
      </trkpt>
      <trkpt lat="46.491053" lon="10.646421">
        <ele>2734.53394</ele>
        <time>2026-09-03T06:25:12.000Z</time>
      </trkpt>
      <trkpt lat="46.491069" lon="10.64639">
        <ele>2735.16125</ele>
        <time>2026-09-03T06:25:15.000Z</time>
      </trkpt>
      <trkpt lat="46.491097" lon="10.646378">
        <ele>2736.00589</ele>
        <time>2026-09-03T06:25:20.000Z</time>
      </trkpt>
      <trkpt lat="46.49112" lon="10.646365">
        <ele>2736.29611</ele>
        <time>2026-09-03T06:25:22.000Z</time>
      </trkpt>
      <trkpt lat="46.491138" lon="10.64634">
        <ele>2736.85353</ele>
        <time>2026-09-03T06:25:25.000Z</time>
      </trkpt>
      <trkpt lat="46.491172" lon="10.646314">
        <ele>2737.40882</ele>
        <time>2026-09-03T06:25:30.000Z</time>
      </trkpt>
      <trkpt lat="46.491206" lon="10.646305">
        <ele>2737.71389</ele>
        <time>2026-09-03T06:25:32.000Z</time>
      </trkpt>
      <trkpt lat="46.491232" lon="10.646279">
        <ele>2738.17208</ele>
        <time>2026-09-03T06:25:37.000Z</time>
      </trkpt>
      <trkpt lat="46.491262" lon="10.646252">
        <ele>2738.62801</ele>
        <time>2026-09-03T06:25:41.000Z</time>
      </trkpt>
      <trkpt lat="46.49129" lon="10.646236">
        <ele>2739.18587</ele>
        <time>2026-09-03T06:25:47.000Z</time>
      </trkpt>
      <trkpt lat="46.491311" lon="10.646224">
        <ele>2739.44504</ele>
        <time>2026-09-03T06:25:50.000Z</time>
      </trkpt>
      <trkpt lat="46.49133" lon="10.646204">
        <ele>2739.69233</ele>
        <time>2026-09-03T06:25:53.000Z</time>
      </trkpt>
      <trkpt lat="46.491343" lon="10.646166">
        <ele>2739.9338</ele>
        <time>2026-09-03T06:25:55.999Z</time>
      </trkpt>
      <trkpt lat="46.491362" lon="10.646131">
        <ele>2740.06621</ele>
        <time>2026-09-03T06:25:57.999Z</time>
      </trkpt>
      <trkpt lat="46.491383" lon="10.646102">
        <ele>2740.50126</ele>
        <time>2026-09-03T06:26:02.999Z</time>
      </trkpt>
      <trkpt lat="46.491397" lon="10.646068">
        <ele>2740.73666</ele>
        <time>2026-09-03T06:26:04.999Z</time>
      </trkpt>
      <trkpt lat="46.491407" lon="10.646018">
        <ele>2741.12281</ele>
        <time>2026-09-03T06:26:08.999Z</time>
      </trkpt>
      <trkpt lat="46.491395" lon="10.64598">
        <ele>2741.2816</ele>
        <time>2026-09-03T06:26:10.999Z</time>
      </trkpt>
      <trkpt lat="46.491404" lon="10.645938">
        <ele>2741.6423</ele>
        <time>2026-09-03T06:26:13.999Z</time>
      </trkpt>
      <trkpt lat="46.491432" lon="10.645932">
        <ele>2741.90359</ele>
        <time>2026-09-03T06:26:16.999Z</time>
      </trkpt>
      <trkpt lat="46.491442" lon="10.645899">
        <ele>2742.36586</ele>
        <time>2026-09-03T06:26:19.999Z</time>
      </trkpt>
      <trkpt lat="46.491465" lon="10.645875">
        <ele>2742.80883</ele>
        <time>2026-09-03T06:26:22.999Z</time>
      </trkpt>
      <trkpt lat="46.491493" lon="10.645852">
        <ele>2743.89359</ele>
        <time>2026-09-03T06:26:27.999Z</time>
      </trkpt>
      <trkpt lat="46.491506" lon="10.645825">
        <ele>2744.58559</ele>
        <time>2026-09-03T06:26:31.999Z</time>
      </trkpt>
      <trkpt lat="46.491523" lon="10.645787">
        <ele>2745.45478</ele>
        <time>2026-09-03T06:26:34.999Z</time>
      </trkpt>
      <trkpt lat="46.491551" lon="10.645768">
        <ele>2746.29326</ele>
        <time>2026-09-03T06:26:37.999Z</time>
      </trkpt>
      <trkpt lat="46.491576" lon="10.645756">
        <ele>2746.49631</ele>
        <time>2026-09-03T06:26:39.999Z</time>
      </trkpt>
      <trkpt lat="46.491601" lon="10.645752">
        <ele>2746.78379</ele>
        <time>2026-09-03T06:26:41.999Z</time>
      </trkpt>
      <trkpt lat="46.491623" lon="10.645744">
        <ele>2746.95669</ele>
        <time>2026-09-03T06:26:42.999Z</time>
      </trkpt>
      <trkpt lat="46.491641" lon="10.645717">
        <ele>2747.18738</ele>
        <time>2026-09-03T06:26:45.999Z</time>
      </trkpt>
      <trkpt lat="46.491668" lon="10.645699">
        <ele>2747.37377</ele>
        <time>2026-09-03T06:26:47.999Z</time>
      </trkpt>
      <trkpt lat="46.491693" lon="10.645692">
        <ele>2747.68377</ele>
        <time>2026-09-03T06:26:50.000Z</time>
      </trkpt>
      <trkpt lat="46.491717" lon="10.645696">
        <ele>2747.75564</ele>
        <time>2026-09-03T06:26:52.000Z</time>
      </trkpt>
      <trkpt lat="46.491737" lon="10.645679">
        <ele>2747.85848</ele>
        <time>2026-09-03T06:26:54.000Z</time>
      </trkpt>
      <trkpt lat="46.491767" lon="10.645664">
        <ele>2747.95347</ele>
        <time>2026-09-03T06:26:56.000Z</time>
      </trkpt>
      <trkpt lat="46.491794" lon="10.645647">
        <ele>2748.18958</ele>
        <time>2026-09-03T06:26:59.000Z</time>
      </trkpt>
      <trkpt lat="46.491821" lon="10.645621">
        <ele>2748.38328</ele>
        <time>2026-09-03T06:27:02.000Z</time>
      </trkpt>
      <trkpt lat="46.491844" lon="10.645596">
        <ele>2748.63446</ele>
        <time>2026-09-03T06:27:04.000Z</time>
      </trkpt>
      <trkpt lat="46.49186" lon="10.645556">
        <ele>2748.98237</ele>
        <time>2026-09-03T06:27:07.000Z</time>
      </trkpt>
      <trkpt lat="46.491888" lon="10.645534">
        <ele>2749.72474</ele>
        <time>2026-09-03T06:27:12.000Z</time>
      </trkpt>
      <trkpt lat="46.491916" lon="10.645528">
        <ele>2750.29077</ele>
        <time>2026-09-03T06:27:15.000Z</time>
      </trkpt>
      <trkpt lat="46.491939" lon="10.645511">
        <ele>2750.79673</ele>
        <time>2026-09-03T06:27:17.000Z</time>
      </trkpt>
      <trkpt lat="46.49196" lon="10.645485">
        <ele>2751.57123</ele>
        <time>2026-09-03T06:27:20.000Z</time>
      </trkpt>
      <trkpt lat="46.491992" lon="10.64548">
        <ele>2752.58759</ele>
        <time>2026-09-03T06:27:23.000Z</time>
      </trkpt>
      <trkpt lat="46.492026" lon="10.645459">
        <ele>2754.18493</ele>
        <time>2026-09-03T06:27:28.000Z</time>
      </trkpt>
      <trkpt lat="46.492046" lon="10.645433">
        <ele>2754.72457</ele>
        <time>2026-09-03T06:27:31.000Z</time>
      </trkpt>
      <trkpt lat="46.492069" lon="10.645418">
        <ele>2755.05759</ele>
        <time>2026-09-03T06:27:33.000Z</time>
      </trkpt>
      <trkpt lat="46.49209" lon="10.645402">
        <ele>2755.52666</ele>
        <time>2026-09-03T06:27:36.000Z</time>
      </trkpt>
      <trkpt lat="46.492116" lon="10.645385">
        <ele>2755.84338</ele>
        <time>2026-09-03T06:27:39.000Z</time>
      </trkpt>
      <trkpt lat="46.492142" lon="10.645378">
        <ele>2756.06366</ele>
        <time>2026-09-03T06:27:42.000Z</time>
      </trkpt>
      <trkpt lat="46.492168" lon="10.64538">
        <ele>2756.27658</ele>
        <time>2026-09-03T06:27:45.000Z</time>
      </trkpt>
      <trkpt lat="46.492194" lon="10.645378">
        <ele>2756.36149</ele>
        <time>2026-09-03T06:27:46.000Z</time>
      </trkpt>
      <trkpt lat="46.492169" lon="10.645386">
        <ele>2756.77317</ele>
        <time>2026-09-03T06:27:52.000Z</time>
      </trkpt>
      <trkpt lat="46.492196" lon="10.645383">
        <ele>2756.93616</ele>
        <time>2026-09-03T06:27:55.000Z</time>
      </trkpt>
      <trkpt lat="46.492235" lon="10.64538">
        <ele>2757.05049</ele>
        <time>2026-09-03T06:27:57.000Z</time>
      </trkpt>
      <trkpt lat="46.492258" lon="10.645388">
        <ele>2757.27417</ele>
        <time>2026-09-03T06:28:00.999Z</time>
      </trkpt>
      <trkpt lat="46.492297" lon="10.64537">
        <ele>2757.40007</ele>
        <time>2026-09-03T06:28:02.999Z</time>
      </trkpt>
      <trkpt lat="46.492315" lon="10.645348">
        <ele>2757.63423</ele>
        <time>2026-09-03T06:28:06.999Z</time>
      </trkpt>
      <trkpt lat="46.492334" lon="10.645318">
        <ele>2757.86538</ele>
        <time>2026-09-03T06:28:10.999Z</time>
      </trkpt>
      <trkpt lat="46.492357" lon="10.645297">
        <ele>2758.13696</ele>
        <time>2026-09-03T06:28:14.999Z</time>
      </trkpt>
      <trkpt lat="46.49238" lon="10.645287">
        <ele>2758.40094</ele>
        <time>2026-09-03T06:28:17.999Z</time>
      </trkpt>
      <trkpt lat="46.492405" lon="10.645283">
        <ele>2758.56685</ele>
        <time>2026-09-03T06:28:19.999Z</time>
      </trkpt>
      <trkpt lat="46.492405" lon="10.645242">
        <ele>2758.90249</ele>
        <time>2026-09-03T06:28:22.999Z</time>
      </trkpt>
      <trkpt lat="46.492428" lon="10.645211">
        <ele>2759.43069</ele>
        <time>2026-09-03T06:28:27.999Z</time>
      </trkpt>
      <trkpt lat="46.492452" lon="10.6452">
        <ele>2759.91344</ele>
        <time>2026-09-03T06:28:30.999Z</time>
      </trkpt>
      <trkpt lat="46.492477" lon="10.645188">
        <ele>2760.76402</ele>
        <time>2026-09-03T06:28:36.999Z</time>
      </trkpt>
      <trkpt lat="46.492504" lon="10.645155">
        <ele>2761.23639</ele>
        <time>2026-09-03T06:28:38.999Z</time>
      </trkpt>
      <trkpt lat="46.492524" lon="10.645139">
        <ele>2761.91402</ele>
        <time>2026-09-03T06:28:41.999Z</time>
      </trkpt>
      <trkpt lat="46.492554" lon="10.645128">
        <ele>2762.63854</ele>
        <time>2026-09-03T06:28:44.999Z</time>
      </trkpt>
      <trkpt lat="46.492578" lon="10.645113">
        <ele>2763.47614</ele>
        <time>2026-09-03T06:28:48.999Z</time>
      </trkpt>
      <trkpt lat="46.492608" lon="10.645097">
        <ele>2763.84484</ele>
        <time>2026-09-03T06:28:50.999Z</time>
      </trkpt>
      <trkpt lat="46.492631" lon="10.645089">
        <ele>2764.33047</ele>
        <time>2026-09-03T06:28:52.999Z</time>
      </trkpt>
      <trkpt lat="46.492656" lon="10.645095">
        <ele>2764.87553</ele>
        <time>2026-09-03T06:28:57.000Z</time>
      </trkpt>
      <trkpt lat="46.492679" lon="10.645095">
        <ele>2765.8279</ele>
        <time>2026-09-03T06:29:02.000Z</time>
      </trkpt>
      <trkpt lat="46.492702" lon="10.645096">
        <ele>2766.20954</ele>
        <time>2026-09-03T06:29:05.000Z</time>
      </trkpt>
      <trkpt lat="46.492726" lon="10.645108">
        <ele>2766.55201</ele>
        <time>2026-09-03T06:29:09.000Z</time>
      </trkpt>
      <trkpt lat="46.492767" lon="10.645099">
        <ele>2766.68827</ele>
        <time>2026-09-03T06:29:12.000Z</time>
      </trkpt>
      <trkpt lat="46.492794" lon="10.645103">
        <ele>2766.80705</ele>
        <time>2026-09-03T06:29:14.000Z</time>
      </trkpt>
      <trkpt lat="46.492831" lon="10.645116">
        <ele>2766.95172</ele>
        <time>2026-09-03T06:29:18.000Z</time>
      </trkpt>
      <trkpt lat="46.492868" lon="10.645117">
        <ele>2766.98543</ele>
        <time>2026-09-03T06:29:19.000Z</time>
      </trkpt>
      <trkpt lat="46.492849" lon="10.64509">
        <ele>2767.06508</ele>
        <time>2026-09-03T06:29:22.000Z</time>
      </trkpt>
      <trkpt lat="46.49287" lon="10.645062">
        <ele>2767.16971</ele>
        <time>2026-09-03T06:29:24.000Z</time>
      </trkpt>
      <trkpt lat="46.492907" lon="10.645021">
        <ele>2767.40209</ele>
        <time>2026-09-03T06:29:29.000Z</time>
      </trkpt>
      <trkpt lat="46.492929" lon="10.645007">
        <ele>2767.53953</ele>
        <time>2026-09-03T06:29:31.000Z</time>
      </trkpt>
      <trkpt lat="46.492949" lon="10.644979">
        <ele>2767.83642</ele>
        <time>2026-09-03T06:29:35.000Z</time>
      </trkpt>
      <trkpt lat="46.492978" lon="10.644961">
        <ele>2768.0707</ele>
        <time>2026-09-03T06:29:37.000Z</time>
      </trkpt>
      <trkpt lat="46.493002" lon="10.644943">
        <ele>2768.30914</ele>
        <time>2026-09-03T06:29:39.000Z</time>
      </trkpt>
      <trkpt lat="46.493029" lon="10.644927">
        <ele>2768.71995</ele>
        <time>2026-09-03T06:29:42.000Z</time>
      </trkpt>
      <trkpt lat="46.493051" lon="10.644895">
        <ele>2769.18651</ele>
        <time>2026-09-03T06:29:45.000Z</time>
      </trkpt>
      <trkpt lat="46.493075" lon="10.644886">
        <ele>2769.57591</ele>
        <time>2026-09-03T06:29:47.000Z</time>
      </trkpt>
      <trkpt lat="46.493097" lon="10.644862">
        <ele>2770.26688</ele>
        <time>2026-09-03T06:29:50.000Z</time>
      </trkpt>
      <trkpt lat="46.4931" lon="10.644826">
        <ele>2771.64807</ele>
        <time>2026-09-03T06:29:55.000Z</time>
      </trkpt>
      <trkpt lat="46.493123" lon="10.644806">
        <ele>2772.51628</ele>
        <time>2026-09-03T06:29:59.000Z</time>
      </trkpt>
      <trkpt lat="46.493149" lon="10.644789">
        <ele>2772.68992</ele>
        <time>2026-09-03T06:30:00.000Z</time>
      </trkpt>
      <trkpt lat="46.493142" lon="10.644742">
        <ele>2773.40075</ele>
        <time>2026-09-03T06:30:03.999Z</time>
      </trkpt>
      <trkpt lat="46.493164" lon="10.644708">
        <ele>2773.71365</ele>
        <time>2026-09-03T06:30:05.999Z</time>
      </trkpt>
      <trkpt lat="46.493178" lon="10.644681">
        <ele>2774.06845</ele>
        <time>2026-09-03T06:30:07.999Z</time>
      </trkpt>
      <trkpt lat="46.49319" lon="10.644648">
        <ele>2774.46153</ele>
        <time>2026-09-03T06:30:10.999Z</time>
      </trkpt>
      <trkpt lat="46.493212" lon="10.644636">
        <ele>2774.79766</ele>
        <time>2026-09-03T06:30:13.999Z</time>
      </trkpt>
      <trkpt lat="46.493245" lon="10.644635">
        <ele>2775.16157</ele>
        <time>2026-09-03T06:30:16.999Z</time>
      </trkpt>
      <trkpt lat="46.493277" lon="10.644615">
        <ele>2775.38098</ele>
        <time>2026-09-03T06:30:18.999Z</time>
      </trkpt>
      <trkpt lat="46.493304" lon="10.644607">
        <ele>2775.61278</ele>
        <time>2026-09-03T06:30:21.999Z</time>
      </trkpt>
      <trkpt lat="46.493329" lon="10.644573">
        <ele>2775.81746</ele>
        <time>2026-09-03T06:30:24.999Z</time>
      </trkpt>
      <trkpt lat="46.49335" lon="10.644539">
        <ele>2775.9924</ele>
        <time>2026-09-03T06:30:27.999Z</time>
      </trkpt>
      <trkpt lat="46.493373" lon="10.644521">
        <ele>2776.16814</ele>
        <time>2026-09-03T06:30:31.999Z</time>
      </trkpt>
      <trkpt lat="46.493388" lon="10.644484">
        <ele>2776.2491</ele>
        <time>2026-09-03T06:30:33.999Z</time>
      </trkpt>
      <trkpt lat="46.493412" lon="10.644438">
        <ele>2776.3946</ele>
        <time>2026-09-03T06:30:36.999Z</time>
      </trkpt>
      <trkpt lat="46.493423" lon="10.644403">
        <ele>2776.52219</ele>
        <time>2026-09-03T06:30:39.999Z</time>
      </trkpt>
      <trkpt lat="46.493446" lon="10.644377">
        <ele>2776.62913</ele>
        <time>2026-09-03T06:30:42.999Z</time>
      </trkpt>
      <trkpt lat="46.493465" lon="10.64435">
        <ele>2776.68688</ele>
        <time>2026-09-03T06:30:44.999Z</time>
      </trkpt>
      <trkpt lat="46.493478" lon="10.644322">
        <ele>2776.74723</ele>
        <time>2026-09-03T06:30:46.999Z</time>
      </trkpt>
      <trkpt lat="46.493497" lon="10.644299">
        <ele>2776.75767</ele>
        <time>2026-09-03T06:30:48.999Z</time>
      </trkpt>
      <trkpt lat="46.493512" lon="10.64426">
        <ele>2776.75483</ele>
        <time>2026-09-03T06:30:50.999Z</time>
      </trkpt>
      <trkpt lat="46.493521" lon="10.644223">
        <ele>2776.73902</ele>
        <time>2026-09-03T06:30:52.999Z</time>
      </trkpt>
      <trkpt lat="46.493526" lon="10.644177">
        <ele>2776.73859</ele>
        <time>2026-09-03T06:30:54.999Z</time>
      </trkpt>
      <trkpt lat="46.493519" lon="10.644128">
        <ele>2776.7449</ele>
        <time>2026-09-03T06:30:57.999Z</time>
      </trkpt>
      <trkpt lat="46.493538" lon="10.644102">
        <ele>2776.75577</ele>
        <time>2026-09-03T06:30:58.999Z</time>
      </trkpt>
      <trkpt lat="46.493558" lon="10.644069">
        <ele>2776.7759</ele>
        <time>2026-09-03T06:31:01.000Z</time>
      </trkpt>
      <trkpt lat="46.493583" lon="10.644032">
        <ele>2776.81087</ele>
        <time>2026-09-03T06:31:04.000Z</time>
      </trkpt>
      <trkpt lat="46.493593" lon="10.643995">
        <ele>2776.817</ele>
        <time>2026-09-03T06:31:06.000Z</time>
      </trkpt>
      <trkpt lat="46.493608" lon="10.643962">
        <ele>2776.83481</ele>
        <time>2026-09-03T06:31:08.000Z</time>
      </trkpt>
      <trkpt lat="46.493627" lon="10.643924">
        <ele>2776.84539</ele>
        <time>2026-09-03T06:31:10.000Z</time>
      </trkpt>
      <trkpt lat="46.493636" lon="10.643893">
        <ele>2776.89568</ele>
        <time>2026-09-03T06:31:19.000Z</time>
      </trkpt>
      <trkpt lat="46.49363" lon="10.643857">
        <ele>2776.89806</ele>
        <time>2026-09-03T06:31:23.000Z</time>
      </trkpt>
      <trkpt lat="46.493636" lon="10.64382">
        <ele>2776.87834</ele>
        <time>2026-09-03T06:31:25.000Z</time>
      </trkpt>
      <trkpt lat="46.493664" lon="10.643795">
        <ele>2776.86416</ele>
        <time>2026-09-03T06:31:27.000Z</time>
      </trkpt>
      <trkpt lat="46.493688" lon="10.643778">
        <ele>2776.85289</ele>
        <time>2026-09-03T06:31:29.000Z</time>
      </trkpt>
      <trkpt lat="46.493714" lon="10.643759">
        <ele>2776.83895</ele>
        <time>2026-09-03T06:31:31.000Z</time>
      </trkpt>
      <trkpt lat="46.493744" lon="10.643747">
        <ele>2776.82781</ele>
        <time>2026-09-03T06:31:33.000Z</time>
      </trkpt>
      <trkpt lat="46.49377" lon="10.643736">
        <ele>2776.81855</ele>
        <time>2026-09-03T06:31:35.000Z</time>
      </trkpt>
      <trkpt lat="46.493794" lon="10.643703">
        <ele>2776.81124</ele>
        <time>2026-09-03T06:31:37.000Z</time>
      </trkpt>
      <trkpt lat="46.493821" lon="10.643685">
        <ele>2776.80269</ele>
        <time>2026-09-03T06:31:39.000Z</time>
      </trkpt>
      <trkpt lat="46.493844" lon="10.643667">
        <ele>2776.7948</ele>
        <time>2026-09-03T06:31:41.000Z</time>
      </trkpt>
      <trkpt lat="46.493866" lon="10.643652">
        <ele>2776.79164</ele>
        <time>2026-09-03T06:31:43.000Z</time>
      </trkpt>
      <trkpt lat="46.4939" lon="10.643644">
        <ele>2776.78849</ele>
        <time>2026-09-03T06:31:45.000Z</time>
      </trkpt>
      <trkpt lat="46.493933" lon="10.643624">
        <ele>2776.78518</ele>
        <time>2026-09-03T06:31:49.000Z</time>
      </trkpt>
      <trkpt lat="46.493961" lon="10.643592">
        <ele>2776.78594</ele>
        <time>2026-09-03T06:31:51.000Z</time>
      </trkpt>
      <trkpt lat="46.493987" lon="10.643579">
        <ele>2776.78183</ele>
        <time>2026-09-03T06:31:54.000Z</time>
      </trkpt>
      <trkpt lat="46.494005" lon="10.643556">
        <ele>2776.77957</ele>
        <time>2026-09-03T06:31:56.000Z</time>
      </trkpt>
      <trkpt lat="46.49403" lon="10.643525">
        <ele>2776.78393</ele>
        <time>2026-09-03T06:31:59.000Z</time>
      </trkpt>
      <trkpt lat="46.494052" lon="10.643501">
        <ele>2776.79256</ele>
        <time>2026-09-03T06:32:02.000Z</time>
      </trkpt>
      <trkpt lat="46.49406" lon="10.643459">
        <ele>2776.80629</ele>
        <time>2026-09-03T06:32:05.000Z</time>
      </trkpt>
      <trkpt lat="46.494073" lon="10.643422">
        <ele>2776.83008</ele>
        <time>2026-09-03T06:32:08.000Z</time>
      </trkpt>
      <trkpt lat="46.494087" lon="10.643385">
        <ele>2776.85218</ele>
        <time>2026-09-03T06:32:10.999Z</time>
      </trkpt>
      <trkpt lat="46.494107" lon="10.643367">
        <ele>2776.87983</ele>
        <time>2026-09-03T06:32:12.999Z</time>
      </trkpt>
      <trkpt lat="46.49413" lon="10.643355">
        <ele>2776.91273</ele>
        <time>2026-09-03T06:32:14.999Z</time>
      </trkpt>
      <trkpt lat="46.494156" lon="10.64333">
        <ele>2776.95725</ele>
        <time>2026-09-03T06:32:16.999Z</time>
      </trkpt>
      <trkpt lat="46.494188" lon="10.643309">
        <ele>2777.16874</ele>
        <time>2026-09-03T06:32:20.999Z</time>
      </trkpt>
      <trkpt lat="46.494211" lon="10.643289">
        <ele>2777.38024</ele>
        <time>2026-09-03T06:32:22.999Z</time>
      </trkpt>
      <trkpt lat="46.494232" lon="10.643249">
        <ele>2777.69641</ele>
        <time>2026-09-03T06:32:25.999Z</time>
      </trkpt>
      <trkpt lat="46.494275" lon="10.643234">
        <ele>2777.93828</ele>
        <time>2026-09-03T06:32:28.999Z</time>
      </trkpt>
      <trkpt lat="46.494323" lon="10.643213">
        <ele>2778.20118</ele>
        <time>2026-09-03T06:32:31.999Z</time>
      </trkpt>
      <trkpt lat="46.494352" lon="10.643208">
        <ele>2778.59267</ele>
        <time>2026-09-03T06:32:35.999Z</time>
      </trkpt>
      <trkpt lat="46.494384" lon="10.643191">
        <ele>2778.78741</ele>
        <time>2026-09-03T06:32:37.999Z</time>
      </trkpt>
      <trkpt lat="46.4944" lon="10.643169">
        <ele>2778.95117</ele>
        <time>2026-09-03T06:32:39.999Z</time>
      </trkpt>
      <trkpt lat="46.494416" lon="10.643143">
        <ele>2779.1434</ele>
        <time>2026-09-03T06:32:41.999Z</time>
      </trkpt>
      <trkpt lat="46.494419" lon="10.64311">
        <ele>2779.3201</ele>
        <time>2026-09-03T06:32:43.999Z</time>
      </trkpt>
      <trkpt lat="46.494451" lon="10.643085">
        <ele>2779.59955</ele>
        <time>2026-09-03T06:32:46.999Z</time>
      </trkpt>
      <trkpt lat="46.494478" lon="10.643065">
        <ele>2779.89616</ele>
        <time>2026-09-03T06:32:49.999Z</time>
      </trkpt>
      <trkpt lat="46.494498" lon="10.643049">
        <ele>2780.08892</ele>
        <time>2026-09-03T06:32:51.999Z</time>
      </trkpt>
      <trkpt lat="46.494531" lon="10.643034">
        <ele>2780.36816</ele>
        <time>2026-09-03T06:32:54.999Z</time>
      </trkpt>
      <trkpt lat="46.494558" lon="10.643028">
        <ele>2780.54215</ele>
        <time>2026-09-03T06:32:56.999Z</time>
      </trkpt>
      <trkpt lat="46.494578" lon="10.643007">
        <ele>2780.77754</ele>
        <time>2026-09-03T06:32:59.999Z</time>
      </trkpt>
      <trkpt lat="46.494602" lon="10.643006">
        <ele>2780.98487</ele>
        <time>2026-09-03T06:33:01.999Z</time>
      </trkpt>
      <trkpt lat="46.494628" lon="10.642987">
        <ele>2781.19606</ele>
        <time>2026-09-03T06:33:03.999Z</time>
      </trkpt>
      <trkpt lat="46.494655" lon="10.64298">
        <ele>2781.49954</ele>
        <time>2026-09-03T06:33:07.000Z</time>
      </trkpt>
      <trkpt lat="46.494683" lon="10.642969">
        <ele>2781.66753</ele>
        <time>2026-09-03T06:33:09.000Z</time>
      </trkpt>
      <trkpt lat="46.494708" lon="10.642953">
        <ele>2781.81387</ele>
        <time>2026-09-03T06:33:11.000Z</time>
      </trkpt>
      <trkpt lat="46.494729" lon="10.642941">
        <ele>2781.93926</ele>
        <time>2026-09-03T06:33:13.000Z</time>
      </trkpt>
      <trkpt lat="46.494759" lon="10.642927">
        <ele>2782.20004</ele>
        <time>2026-09-03T06:33:17.000Z</time>
      </trkpt>
      <trkpt lat="46.494783" lon="10.642913">
        <ele>2782.32467</ele>
        <time>2026-09-03T06:33:19.000Z</time>
      </trkpt>
      <trkpt lat="46.494815" lon="10.642908">
        <ele>2782.52765</ele>
        <time>2026-09-03T06:33:22.000Z</time>
      </trkpt>
      <trkpt lat="46.494837" lon="10.642894">
        <ele>2782.70097</ele>
        <time>2026-09-03T06:33:24.000Z</time>
      </trkpt>
      <trkpt lat="46.494871" lon="10.642893">
        <ele>2782.99073</ele>
        <time>2026-09-03T06:33:27.000Z</time>
      </trkpt>
      <trkpt lat="46.494896" lon="10.642895">
        <ele>2783.23076</ele>
        <time>2026-09-03T06:33:29.000Z</time>
      </trkpt>
      <trkpt lat="46.494921" lon="10.642897">
        <ele>2783.45506</ele>
        <time>2026-09-03T06:33:31.000Z</time>
      </trkpt>
      <trkpt lat="46.49495" lon="10.642892">
        <ele>2783.71182</ele>
        <time>2026-09-03T06:33:34.000Z</time>
      </trkpt>
      <trkpt lat="46.494985" lon="10.642917">
        <ele>2784.07257</ele>
        <time>2026-09-03T06:33:37.000Z</time>
      </trkpt>
      <trkpt lat="46.495014" lon="10.642905">
        <ele>2784.36023</ele>
        <time>2026-09-03T06:33:40.000Z</time>
      </trkpt>
      <trkpt lat="46.495037" lon="10.642902">
        <ele>2784.56815</ele>
        <time>2026-09-03T06:33:42.000Z</time>
      </trkpt>
      <trkpt lat="46.495062" lon="10.642902">
        <ele>2784.87718</ele>
        <time>2026-09-03T06:33:45.000Z</time>
      </trkpt>
      <trkpt lat="46.495097" lon="10.642899">
        <ele>2785.11983</ele>
        <time>2026-09-03T06:33:48.000Z</time>
      </trkpt>
      <trkpt lat="46.495126" lon="10.642887">
        <ele>2785.28145</ele>
        <time>2026-09-03T06:33:50.000Z</time>
      </trkpt>
      <trkpt lat="46.49515" lon="10.642883">
        <ele>2785.51762</ele>
        <time>2026-09-03T06:33:53.000Z</time>
      </trkpt>
      <trkpt lat="46.495172" lon="10.642893">
        <ele>2785.70197</ele>
        <time>2026-09-03T06:33:55.000Z</time>
      </trkpt>
      <trkpt lat="46.495198" lon="10.642902">
        <ele>2786.03179</ele>
        <time>2026-09-03T06:33:58.000Z</time>
      </trkpt>
      <trkpt lat="46.495229" lon="10.642878">
        <ele>2786.4294</ele>
        <time>2026-09-03T06:34:01.000Z</time>
      </trkpt>
      <trkpt lat="46.495246" lon="10.642843">
        <ele>2786.75538</ele>
        <time>2026-09-03T06:34:04.000Z</time>
      </trkpt>
      <trkpt lat="46.495273" lon="10.642812">
        <ele>2787.26444</ele>
        <time>2026-09-03T06:34:07.000Z</time>
      </trkpt>
      <trkpt lat="46.495297" lon="10.642817">
        <ele>2787.74965</ele>
        <time>2026-09-03T06:34:10.000Z</time>
      </trkpt>
      <trkpt lat="46.495318" lon="10.642805">
        <ele>2788.16805</ele>
        <time>2026-09-03T06:34:12.000Z</time>
      </trkpt>
      <trkpt lat="46.495345" lon="10.642785">
        <ele>2788.59044</ele>
        <time>2026-09-03T06:34:14.000Z</time>
      </trkpt>
      <trkpt lat="46.495366" lon="10.642765">
        <ele>2789.14749</ele>
        <time>2026-09-03T06:34:17.000Z</time>
      </trkpt>
      <trkpt lat="46.495388" lon="10.642746">
        <ele>2789.46166</ele>
        <time>2026-09-03T06:34:19.000Z</time>
      </trkpt>
      <trkpt lat="46.495404" lon="10.642711">
        <ele>2789.84321</ele>
        <time>2026-09-03T06:34:22.000Z</time>
      </trkpt>
      <trkpt lat="46.495415" lon="10.642672">
        <ele>2790.3872</ele>
        <time>2026-09-03T06:34:25.999Z</time>
      </trkpt>
      <trkpt lat="46.495444" lon="10.64265">
        <ele>2790.68697</ele>
        <time>2026-09-03T06:34:28.999Z</time>
      </trkpt>
      <trkpt lat="46.49546" lon="10.642614">
        <ele>2790.85789</ele>
        <time>2026-09-03T06:34:31.999Z</time>
      </trkpt>
      <trkpt lat="46.495477" lon="10.642592">
        <ele>2790.91231</ele>
        <time>2026-09-03T06:34:32.999Z</time>
      </trkpt>
      <trkpt lat="46.495498" lon="10.642574">
        <ele>2791.09378</ele>
        <time>2026-09-03T06:34:35.999Z</time>
      </trkpt>
      <trkpt lat="46.495517" lon="10.642554">
        <ele>2791.16023</ele>
        <time>2026-09-03T06:34:37.999Z</time>
      </trkpt>
      <trkpt lat="46.495543" lon="10.642538">
        <ele>2791.19679</ele>
        <time>2026-09-03T06:34:40.999Z</time>
      </trkpt>
      <trkpt lat="46.495565" lon="10.642528">
        <ele>2791.23446</ele>
        <time>2026-09-03T06:34:41.999Z</time>
      </trkpt>
      <trkpt lat="46.495588" lon="10.642517">
        <ele>2791.31772</ele>
        <time>2026-09-03T06:34:43.999Z</time>
      </trkpt>
      <trkpt lat="46.495611" lon="10.642497">
        <ele>2791.42192</ele>
        <time>2026-09-03T06:34:45.999Z</time>
      </trkpt>
      <trkpt lat="46.495634" lon="10.642488">
        <ele>2791.5329</ele>
        <time>2026-09-03T06:34:47.999Z</time>
      </trkpt>
      <trkpt lat="46.495655" lon="10.642475">
        <ele>2791.67091</ele>
        <time>2026-09-03T06:34:49.999Z</time>
      </trkpt>
      <trkpt lat="46.495677" lon="10.64246">
        <ele>2791.89661</ele>
        <time>2026-09-03T06:34:52.999Z</time>
      </trkpt>
      <trkpt lat="46.495704" lon="10.642443">
        <ele>2792.07056</ele>
        <time>2026-09-03T06:34:54.999Z</time>
      </trkpt>
      <trkpt lat="46.495726" lon="10.64241">
        <ele>2792.32158</ele>
        <time>2026-09-03T06:34:57.999Z</time>
      </trkpt>
      <trkpt lat="46.495741" lon="10.642383">
        <ele>2792.52598</ele>
        <time>2026-09-03T06:34:59.999Z</time>
      </trkpt>
      <trkpt lat="46.495765" lon="10.64236">
        <ele>2792.73576</ele>
        <time>2026-09-03T06:35:01.999Z</time>
      </trkpt>
      <trkpt lat="46.49578" lon="10.64233">
        <ele>2793.04983</ele>
        <time>2026-09-03T06:35:04.999Z</time>
      </trkpt>
      <trkpt lat="46.4958" lon="10.642311">
        <ele>2793.22504</ele>
        <time>2026-09-03T06:35:06.999Z</time>
      </trkpt>
      <trkpt lat="46.495835" lon="10.642289">
        <ele>2793.49981</ele>
        <time>2026-09-03T06:35:09.999Z</time>
      </trkpt>
      <trkpt lat="46.49586" lon="10.642275">
        <ele>2793.7994</ele>
        <time>2026-09-03T06:35:13.000Z</time>
      </trkpt>
      <trkpt lat="46.495879" lon="10.642252">
        <ele>2793.97519</ele>
        <time>2026-09-03T06:35:15.000Z</time>
      </trkpt>
      <trkpt lat="46.495901" lon="10.642225">
        <ele>2794.30723</ele>
        <time>2026-09-03T06:35:18.000Z</time>
      </trkpt>
      <trkpt lat="46.495922" lon="10.642199">
        <ele>2794.60557</ele>
        <time>2026-09-03T06:35:21.000Z</time>
      </trkpt>
      <trkpt lat="46.495945" lon="10.642179">
        <ele>2794.81148</ele>
        <time>2026-09-03T06:35:23.000Z</time>
      </trkpt>
      <trkpt lat="46.495964" lon="10.642161">
        <ele>2795.22946</ele>
        <time>2026-09-03T06:35:26.000Z</time>
      </trkpt>
      <trkpt lat="46.495987" lon="10.642159">
        <ele>2795.59234</ele>
        <time>2026-09-03T06:35:28.000Z</time>
      </trkpt>
      <trkpt lat="46.496012" lon="10.642136">
        <ele>2795.97469</ele>
        <time>2026-09-03T06:35:30.000Z</time>
      </trkpt>
      <trkpt lat="46.496033" lon="10.642104">
        <ele>2796.63951</ele>
        <time>2026-09-03T06:35:34.000Z</time>
      </trkpt>
      <trkpt lat="46.496068" lon="10.642076">
        <ele>2796.99388</ele>
        <time>2026-09-03T06:35:36.000Z</time>
      </trkpt>
      <trkpt lat="46.496088" lon="10.642057">
        <ele>2797.5026</ele>
        <time>2026-09-03T06:35:39.000Z</time>
      </trkpt>
      <trkpt lat="46.496114" lon="10.642044">
        <ele>2797.78419</ele>
        <time>2026-09-03T06:35:41.000Z</time>
      </trkpt>
      <trkpt lat="46.496136" lon="10.642012">
        <ele>2798.13709</ele>
        <time>2026-09-03T06:35:44.000Z</time>
      </trkpt>
      <trkpt lat="46.496148" lon="10.641981">
        <ele>2798.31491</ele>
        <time>2026-09-03T06:35:46.000Z</time>
      </trkpt>
      <trkpt lat="46.496173" lon="10.641958">
        <ele>2798.4834</ele>
        <time>2026-09-03T06:35:48.000Z</time>
      </trkpt>
      <trkpt lat="46.496197" lon="10.641949">
        <ele>2798.67111</ele>
        <time>2026-09-03T06:35:50.000Z</time>
      </trkpt>
      <trkpt lat="46.49622" lon="10.641917">
        <ele>2798.82507</ele>
        <time>2026-09-03T06:35:53.000Z</time>
      </trkpt>
      <trkpt lat="46.496242" lon="10.6419">
        <ele>2798.85042</ele>
        <time>2026-09-03T06:35:55.000Z</time>
      </trkpt>
      <trkpt lat="46.496262" lon="10.64188">
        <ele>2798.90594</ele>
        <time>2026-09-03T06:35:57.000Z</time>
      </trkpt>
      <trkpt lat="46.496285" lon="10.64187">
        <ele>2798.95261</ele>
        <time>2026-09-03T06:35:59.000Z</time>
      </trkpt>
      <trkpt lat="46.496304" lon="10.641844">
        <ele>2798.98895</ele>
        <time>2026-09-03T06:36:01.000Z</time>
      </trkpt>
      <trkpt lat="46.496327" lon="10.641821">
        <ele>2799.00638</ele>
        <time>2026-09-03T06:36:03.000Z</time>
      </trkpt>
      <trkpt lat="46.496341" lon="10.641792">
        <ele>2799.02832</ele>
        <time>2026-09-03T06:36:05.000Z</time>
      </trkpt>
      <trkpt lat="46.496363" lon="10.641785">
        <ele>2799.0534</ele>
        <time>2026-09-03T06:36:07.000Z</time>
      </trkpt>
      <trkpt lat="46.496386" lon="10.641768">
        <ele>2799.11037</ele>
        <time>2026-09-03T06:36:09.000Z</time>
      </trkpt>
      <trkpt lat="46.496418" lon="10.64176">
        <ele>2799.26289</ele>
        <time>2026-09-03T06:36:12.000Z</time>
      </trkpt>
      <trkpt lat="46.496446" lon="10.641729">
        <ele>2799.47815</ele>
        <time>2026-09-03T06:36:16.000Z</time>
      </trkpt>
      <trkpt lat="46.496471" lon="10.641709">
        <ele>2799.64058</ele>
        <time>2026-09-03T06:36:18.000Z</time>
      </trkpt>
      <trkpt lat="46.496494" lon="10.64171">
        <ele>2799.78337</ele>
        <time>2026-09-03T06:36:19.999Z</time>
      </trkpt>
      <trkpt lat="46.496526" lon="10.641696">
        <ele>2800.13995</ele>
        <time>2026-09-03T06:36:22.999Z</time>
      </trkpt>
      <trkpt lat="46.496545" lon="10.64167">
        <ele>2800.53885</ele>
        <time>2026-09-03T06:36:25.999Z</time>
      </trkpt>
      <trkpt lat="46.496567" lon="10.64166">
        <ele>2801.01294</ele>
        <time>2026-09-03T06:36:28.999Z</time>
      </trkpt>
      <trkpt lat="46.496599" lon="10.641652">
        <ele>2803.40268</ele>
        <time>2026-09-03T06:36:52.999Z</time>
      </trkpt>
      <trkpt lat="46.496625" lon="10.641637">
        <ele>2803.51031</ele>
        <time>2026-09-03T06:36:54.999Z</time>
      </trkpt>
      <trkpt lat="46.496646" lon="10.641613">
        <ele>2803.70375</ele>
        <time>2026-09-03T06:36:57.999Z</time>
      </trkpt>
      <trkpt lat="46.49668" lon="10.64159">
        <ele>2803.90831</ele>
        <time>2026-09-03T06:37:00.999Z</time>
      </trkpt>
      <trkpt lat="46.496681" lon="10.641557">
        <ele>2804.03062</ele>
        <time>2026-09-03T06:37:02.999Z</time>
      </trkpt>
      <trkpt lat="46.496683" lon="10.641521">
        <ele>2804.26677</ele>
        <time>2026-09-03T06:37:05.999Z</time>
      </trkpt>
      <trkpt lat="46.496698" lon="10.641493">
        <ele>2804.56038</ele>
        <time>2026-09-03T06:37:08.999Z</time>
      </trkpt>
      <trkpt lat="46.496711" lon="10.641465">
        <ele>2804.77011</ele>
        <time>2026-09-03T06:37:10.999Z</time>
      </trkpt>
      <trkpt lat="46.496728" lon="10.641425">
        <ele>2805.14863</ele>
        <time>2026-09-03T06:37:13.999Z</time>
      </trkpt>
      <trkpt lat="46.496747" lon="10.641405">
        <ele>2805.50788</ele>
        <time>2026-09-03T06:37:15.999Z</time>
      </trkpt>
      <trkpt lat="46.496773" lon="10.641382">
        <ele>2806.15786</ele>
        <time>2026-09-03T06:37:19.000Z</time>
      </trkpt>
      <trkpt lat="46.496792" lon="10.641357">
        <ele>2806.65441</ele>
        <time>2026-09-03T06:37:21.000Z</time>
      </trkpt>
      <trkpt lat="46.496818" lon="10.641343">
        <ele>2807.42196</ele>
        <time>2026-09-03T06:37:24.000Z</time>
      </trkpt>
      <trkpt lat="46.496841" lon="10.641331">
        <ele>2807.83935</ele>
        <time>2026-09-03T06:37:26.000Z</time>
      </trkpt>
      <trkpt lat="46.496867" lon="10.641312">
        <ele>2808.5265</ele>
        <time>2026-09-03T06:37:29.000Z</time>
      </trkpt>
      <trkpt lat="46.49689" lon="10.641291">
        <ele>2809.14055</ele>
        <time>2026-09-03T06:37:32.000Z</time>
      </trkpt>
      <trkpt lat="46.496913" lon="10.641276">
        <ele>2809.76645</ele>
        <time>2026-09-03T06:37:36.000Z</time>
      </trkpt>
      <trkpt lat="46.496934" lon="10.641263">
        <ele>2810.15653</ele>
        <time>2026-09-03T06:37:38.000Z</time>
      </trkpt>
      <trkpt lat="46.496958" lon="10.641251">
        <ele>2810.42482</ele>
        <time>2026-09-03T06:37:40.000Z</time>
      </trkpt>
      <trkpt lat="46.496979" lon="10.641211">
        <ele>2810.96216</ele>
        <time>2026-09-03T06:37:45.000Z</time>
      </trkpt>
      <trkpt lat="46.496999" lon="10.641185">
        <ele>2811.40003</ele>
        <time>2026-09-03T06:37:48.000Z</time>
      </trkpt>
      <trkpt lat="46.497016" lon="10.641159">
        <ele>2811.87461</ele>
        <time>2026-09-03T06:37:51.000Z</time>
      </trkpt>
      <trkpt lat="46.497039" lon="10.641131">
        <ele>2812.16299</ele>
        <time>2026-09-03T06:37:53.000Z</time>
      </trkpt>
      <trkpt lat="46.497049" lon="10.641098">
        <ele>2812.7559</ele>
        <time>2026-09-03T06:37:58.000Z</time>
      </trkpt>
      <trkpt lat="46.497059" lon="10.641066">
        <ele>2813.05838</ele>
        <time>2026-09-03T06:38:01.000Z</time>
      </trkpt>
      <trkpt lat="46.497072" lon="10.641031">
        <ele>2813.26026</ele>
        <time>2026-09-03T06:38:03.000Z</time>
      </trkpt>
      <trkpt lat="46.497084" lon="10.640992">
        <ele>2813.53716</ele>
        <time>2026-09-03T06:38:06.000Z</time>
      </trkpt>
      <trkpt lat="46.497106" lon="10.640976">
        <ele>2813.76484</ele>
        <time>2026-09-03T06:38:08.000Z</time>
      </trkpt>
      <trkpt lat="46.497127" lon="10.640942">
        <ele>2813.99813</ele>
        <time>2026-09-03T06:38:10.000Z</time>
      </trkpt>
      <trkpt lat="46.49715" lon="10.640916">
        <ele>2814.62883</ele>
        <time>2026-09-03T06:38:14.000Z</time>
      </trkpt>
      <trkpt lat="46.497167" lon="10.640889">
        <ele>2815.10736</ele>
        <time>2026-09-03T06:38:17.000Z</time>
      </trkpt>
      <trkpt lat="46.497184" lon="10.640853">
        <ele>2815.46801</ele>
        <time>2026-09-03T06:38:20.000Z</time>
      </trkpt>
      <trkpt lat="46.497198" lon="10.640816">
        <ele>2815.88077</ele>
        <time>2026-09-03T06:38:23.000Z</time>
      </trkpt>
      <trkpt lat="46.497214" lon="10.640777">
        <ele>2816.46026</ele>
        <time>2026-09-03T06:38:27.000Z</time>
      </trkpt>
      <trkpt lat="46.497233" lon="10.640752">
        <ele>2817.01907</ele>
        <time>2026-09-03T06:38:30.000Z</time>
      </trkpt>
      <trkpt lat="46.497255" lon="10.640727">
        <ele>2817.60938</ele>
        <time>2026-09-03T06:38:32.999Z</time>
      </trkpt>
      <trkpt lat="46.497271" lon="10.640703">
        <ele>2818.02629</ele>
        <time>2026-09-03T06:38:34.999Z</time>
      </trkpt>
      <trkpt lat="46.497272" lon="10.64067">
        <ele>2818.71126</ele>
        <time>2026-09-03T06:38:37.999Z</time>
      </trkpt>
      <trkpt lat="46.497281" lon="10.64064">
        <ele>2819.33292</ele>
        <time>2026-09-03T06:38:40.999Z</time>
      </trkpt>
      <trkpt lat="46.497292" lon="10.640611">
        <ele>2819.65288</ele>
        <time>2026-09-03T06:38:42.999Z</time>
      </trkpt>
      <trkpt lat="46.497313" lon="10.640589">
        <ele>2819.94106</ele>
        <time>2026-09-03T06:38:44.999Z</time>
      </trkpt>
      <trkpt lat="46.49733" lon="10.640568">
        <ele>2820.27793</ele>
        <time>2026-09-03T06:38:46.999Z</time>
      </trkpt>
      <trkpt lat="46.497341" lon="10.640534">
        <ele>2820.77727</ele>
        <time>2026-09-03T06:38:49.999Z</time>
      </trkpt>
      <trkpt lat="46.497362" lon="10.640497">
        <ele>2821.17688</ele>
        <time>2026-09-03T06:38:52.999Z</time>
      </trkpt>
      <trkpt lat="46.49739" lon="10.640484">
        <ele>2821.79865</ele>
        <time>2026-09-03T06:38:56.999Z</time>
      </trkpt>
      <trkpt lat="46.497413" lon="10.640459">
        <ele>2822.31156</ele>
        <time>2026-09-03T06:38:59.999Z</time>
      </trkpt>
      <trkpt lat="46.497431" lon="10.640418">
        <ele>2822.67246</ele>
        <time>2026-09-03T06:39:02.999Z</time>
      </trkpt>
      <trkpt lat="46.49745" lon="10.640382">
        <ele>2823.1462</ele>
        <time>2026-09-03T06:39:05.999Z</time>
      </trkpt>
      <trkpt lat="46.497465" lon="10.640347">
        <ele>2823.53086</ele>
        <time>2026-09-03T06:39:08.999Z</time>
      </trkpt>
      <trkpt lat="46.497483" lon="10.640321">
        <ele>2823.7506</ele>
        <time>2026-09-03T06:39:10.999Z</time>
      </trkpt>
      <trkpt lat="46.497487" lon="10.640283">
        <ele>2824.07521</ele>
        <time>2026-09-03T06:39:13.999Z</time>
      </trkpt>
      <trkpt lat="46.497513" lon="10.640235">
        <ele>2824.37936</ele>
        <time>2026-09-03T06:39:17.999Z</time>
      </trkpt>
      <trkpt lat="46.497541" lon="10.640235">
        <ele>2824.63436</ele>
        <time>2026-09-03T06:39:20.999Z</time>
      </trkpt>
      <trkpt lat="46.497565" lon="10.640211">
        <ele>2824.92448</ele>
        <time>2026-09-03T06:39:23.999Z</time>
      </trkpt>
      <trkpt lat="46.497598" lon="10.640202">
        <ele>2825.23042</ele>
        <time>2026-09-03T06:39:27.000Z</time>
      </trkpt>
      <trkpt lat="46.497622" lon="10.640201">
        <ele>2825.58567</ele>
        <time>2026-09-03T06:39:30.000Z</time>
      </trkpt>
      <trkpt lat="46.497641" lon="10.640177">
        <ele>2826.15427</ele>
        <time>2026-09-03T06:39:33.000Z</time>
      </trkpt>
      <trkpt lat="46.497655" lon="10.640141">
        <ele>2827.04266</ele>
        <time>2026-09-03T06:39:37.000Z</time>
      </trkpt>
      <trkpt lat="46.497663" lon="10.640106">
        <ele>2827.64617</ele>
        <time>2026-09-03T06:39:40.000Z</time>
      </trkpt>
      <trkpt lat="46.497664" lon="10.640073">
        <ele>2828.16894</ele>
        <time>2026-09-03T06:39:43.000Z</time>
      </trkpt>
      <trkpt lat="46.497649" lon="10.640046">
        <ele>2828.68298</ele>
        <time>2026-09-03T06:39:46.000Z</time>
      </trkpt>
      <trkpt lat="46.497641" lon="10.640009">
        <ele>2828.93869</ele>
        <time>2026-09-03T06:39:50.000Z</time>
      </trkpt>
      <trkpt lat="46.497644" lon="10.639967">
        <ele>2828.9831</ele>
        <time>2026-09-03T06:39:52.000Z</time>
      </trkpt>
      <trkpt lat="46.497645" lon="10.639929">
        <ele>2829.20641</ele>
        <time>2026-09-03T06:39:56.000Z</time>
      </trkpt>
      <trkpt lat="46.497658" lon="10.639884">
        <ele>2829.34446</ele>
        <time>2026-09-03T06:39:59.000Z</time>
      </trkpt>
      <trkpt lat="46.497672" lon="10.639846">
        <ele>2829.49476</ele>
        <time>2026-09-03T06:40:02.000Z</time>
      </trkpt>
      <trkpt lat="46.497673" lon="10.63981">
        <ele>2829.66852</ele>
        <time>2026-09-03T06:40:06.000Z</time>
      </trkpt>
      <trkpt lat="46.497682" lon="10.639776">
        <ele>2829.78828</ele>
        <time>2026-09-03T06:40:08.000Z</time>
      </trkpt>
      <trkpt lat="46.497679" lon="10.639728">
        <ele>2830.0601</ele>
        <time>2026-09-03T06:40:12.000Z</time>
      </trkpt>
      <trkpt lat="46.497682" lon="10.639688">
        <ele>2830.3021</ele>
        <time>2026-09-03T06:40:15.000Z</time>
      </trkpt>
      <trkpt lat="46.497672" lon="10.639643">
        <ele>2830.81232</ele>
        <time>2026-09-03T06:40:20.000Z</time>
      </trkpt>
      <trkpt lat="46.497667" lon="10.639594">
        <ele>2831.13609</ele>
        <time>2026-09-03T06:40:24.000Z</time>
      </trkpt>
      <trkpt lat="46.497661" lon="10.639562">
        <ele>2831.21763</ele>
        <time>2026-09-03T06:40:25.000Z</time>
      </trkpt>
      <trkpt lat="46.497655" lon="10.639517">
        <ele>2831.54769</ele>
        <time>2026-09-03T06:40:28.000Z</time>
      </trkpt>
      <trkpt lat="46.497659" lon="10.639476">
        <ele>2831.718</ele>
        <time>2026-09-03T06:40:30.000Z</time>
      </trkpt>
      <trkpt lat="46.497665" lon="10.639431">
        <ele>2831.95488</ele>
        <time>2026-09-03T06:40:33.000Z</time>
      </trkpt>
      <trkpt lat="46.497663" lon="10.63938">
        <ele>2832.30503</ele>
        <time>2026-09-03T06:40:37.000Z</time>
      </trkpt>
      <trkpt lat="46.497662" lon="10.639343">
        <ele>2832.58608</ele>
        <time>2026-09-03T06:40:39.999Z</time>
      </trkpt>
      <trkpt lat="46.497661" lon="10.639307">
        <ele>2832.7464</ele>
        <time>2026-09-03T06:40:41.999Z</time>
      </trkpt>
      <trkpt lat="46.497651" lon="10.639266">
        <ele>2833.09092</ele>
        <time>2026-09-03T06:40:44.999Z</time>
      </trkpt>
      <trkpt lat="46.497645" lon="10.639226">
        <ele>2833.39342</ele>
        <time>2026-09-03T06:40:47.999Z</time>
      </trkpt>
      <trkpt lat="46.49765" lon="10.639182">
        <ele>2833.69362</ele>
        <time>2026-09-03T06:40:50.999Z</time>
      </trkpt>
      <trkpt lat="46.497657" lon="10.639145">
        <ele>2834.54274</ele>
        <time>2026-09-03T06:40:56.999Z</time>
      </trkpt>
      <trkpt lat="46.497649" lon="10.639108">
        <ele>2835.15128</ele>
        <time>2026-09-03T06:40:59.999Z</time>
      </trkpt>
      <trkpt lat="46.497634" lon="10.639079">
        <ele>2835.79063</ele>
        <time>2026-09-03T06:41:02.999Z</time>
      </trkpt>
      <trkpt lat="46.497619" lon="10.639038">
        <ele>2836.3835</ele>
        <time>2026-09-03T06:41:05.999Z</time>
      </trkpt>
      <trkpt lat="46.497609" lon="10.638985">
        <ele>2837.13203</ele>
        <time>2026-09-03T06:41:12.999Z</time>
      </trkpt>
      <trkpt lat="46.497587" lon="10.638928">
        <ele>2837.6386</ele>
        <time>2026-09-03T06:41:18.999Z</time>
      </trkpt>
      <trkpt lat="46.497591" lon="10.638881">
        <ele>2838.088</ele>
        <time>2026-09-03T06:41:22.999Z</time>
      </trkpt>
      <trkpt lat="46.497572" lon="10.638858">
        <ele>2838.35488</ele>
        <time>2026-09-03T06:41:25.999Z</time>
      </trkpt>
      <trkpt lat="46.497562" lon="10.638822">
        <ele>2838.71772</ele>
        <time>2026-09-03T06:41:28.999Z</time>
      </trkpt>
      <trkpt lat="46.497549" lon="10.638787">
        <ele>2839.33797</ele>
        <time>2026-09-03T06:41:33.000Z</time>
      </trkpt>
      <trkpt lat="46.49754" lon="10.638756">
        <ele>2839.7197</ele>
        <time>2026-09-03T06:41:36.000Z</time>
      </trkpt>
      <trkpt lat="46.497531" lon="10.638715">
        <ele>2840.13182</ele>
        <time>2026-09-03T06:41:40.000Z</time>
      </trkpt>
      <trkpt lat="46.497526" lon="10.638675">
        <ele>2840.53747</ele>
        <time>2026-09-03T06:41:43.000Z</time>
      </trkpt>
      <trkpt lat="46.497519" lon="10.63864">
        <ele>2841.19314</ele>
        <time>2026-09-03T06:41:47.000Z</time>
      </trkpt>
      <trkpt lat="46.497537" lon="10.638621">
        <ele>2842.0456</ele>
        <time>2026-09-03T06:41:51.000Z</time>
      </trkpt>
      <trkpt lat="46.49756" lon="10.638598">
        <ele>2842.77461</ele>
        <time>2026-09-03T06:41:55.000Z</time>
      </trkpt>
      <trkpt lat="46.497566" lon="10.638556">
        <ele>2843.70858</ele>
        <time>2026-09-03T06:42:00.000Z</time>
      </trkpt>
      <trkpt lat="46.497588" lon="10.638523">
        <ele>2845.19995</ele>
        <time>2026-09-03T06:42:06.000Z</time>
      </trkpt>
      <trkpt lat="46.497609" lon="10.638501">
        <ele>2845.86176</ele>
        <time>2026-09-03T06:42:09.000Z</time>
      </trkpt>
      <trkpt lat="46.497635" lon="10.638497">
        <ele>2846.55293</ele>
        <time>2026-09-03T06:42:12.000Z</time>
      </trkpt>
      <trkpt lat="46.49766" lon="10.638491">
        <ele>2847.29183</ele>
        <time>2026-09-03T06:42:15.000Z</time>
      </trkpt>
      <trkpt lat="46.497689" lon="10.638461">
        <ele>2848.34377</ele>
        <time>2026-09-03T06:42:20.000Z</time>
      </trkpt>
      <trkpt lat="46.497684" lon="10.638424">
        <ele>2849.15308</ele>
        <time>2026-09-03T06:42:24.000Z</time>
      </trkpt>
      <trkpt lat="46.497695" lon="10.638393">
        <ele>2850.57786</ele>
        <time>2026-09-03T06:42:31.000Z</time>
      </trkpt>
      <trkpt lat="46.497739" lon="10.638377">
        <ele>2851.15755</ele>
        <time>2026-09-03T06:42:34.000Z</time>
      </trkpt>
      <trkpt lat="46.497765" lon="10.638358">
        <ele>2851.88974</ele>
        <time>2026-09-03T06:42:39.000Z</time>
      </trkpt>
      <trkpt lat="46.497776" lon="10.638318">
        <ele>2852.69812</ele>
        <time>2026-09-03T06:42:43.999Z</time>
      </trkpt>
      <trkpt lat="46.497781" lon="10.63828">
        <ele>2853.50281</ele>
        <time>2026-09-03T06:42:47.999Z</time>
      </trkpt>
      <trkpt lat="46.497783" lon="10.638241">
        <ele>2854.44365</ele>
        <time>2026-09-03T06:42:51.999Z</time>
      </trkpt>
      <trkpt lat="46.497791" lon="10.638208">
        <ele>2855.01389</ele>
        <time>2026-09-03T06:42:54.999Z</time>
      </trkpt>
      <trkpt lat="46.497777" lon="10.638181">
        <ele>2855.63206</ele>
        <time>2026-09-03T06:42:58.999Z</time>
      </trkpt>
      <trkpt lat="46.497771" lon="10.638136">
        <ele>2856.40718</ele>
        <time>2026-09-03T06:43:02.999Z</time>
      </trkpt>
      <trkpt lat="46.497759" lon="10.638095">
        <ele>2857.67003</ele>
        <time>2026-09-03T06:43:09.999Z</time>
      </trkpt>
      <trkpt lat="46.497758" lon="10.638058">
        <ele>2858.31752</ele>
        <time>2026-09-03T06:43:13.999Z</time>
      </trkpt>
      <trkpt lat="46.497782" lon="10.638037">
        <ele>2858.80474</ele>
        <time>2026-09-03T06:43:17.999Z</time>
      </trkpt>
      <trkpt lat="46.497763" lon="10.63801">
        <ele>2859.59562</ele>
        <time>2026-09-03T06:43:22.999Z</time>
      </trkpt>
      <trkpt lat="46.497744" lon="10.637973">
        <ele>2860.5155</ele>
        <time>2026-09-03T06:43:26.999Z</time>
      </trkpt>
      <trkpt lat="46.497742" lon="10.637935">
        <ele>2861.18488</ele>
        <time>2026-09-03T06:43:29.999Z</time>
      </trkpt>
      <trkpt lat="46.49777" lon="10.637925">
        <ele>2862.47566</ele>
        <time>2026-09-03T06:43:35.999Z</time>
      </trkpt>
      <trkpt lat="46.497789" lon="10.637907">
        <ele>2862.83746</ele>
        <time>2026-09-03T06:43:38.000Z</time>
      </trkpt>
      <trkpt lat="46.497807" lon="10.637871">
        <ele>2863.60462</ele>
        <time>2026-09-03T06:43:42.000Z</time>
      </trkpt>
      <trkpt lat="46.497822" lon="10.63783">
        <ele>2864.0956</ele>
        <time>2026-09-03T06:43:45.000Z</time>
      </trkpt>
      <trkpt lat="46.497815" lon="10.637792">
        <ele>2864.95094</ele>
        <time>2026-09-03T06:43:50.000Z</time>
      </trkpt>
      <trkpt lat="46.497827" lon="10.637747">
        <ele>2865.38299</ele>
        <time>2026-09-03T06:43:53.000Z</time>
      </trkpt>
      <trkpt lat="46.497809" lon="10.637714">
        <ele>2866.30631</ele>
        <time>2026-09-03T06:43:58.000Z</time>
      </trkpt>
      <trkpt lat="46.497798" lon="10.637669">
        <ele>2866.86135</ele>
        <time>2026-09-03T06:44:01.000Z</time>
      </trkpt>
      <trkpt lat="46.497819" lon="10.63765">
        <ele>2867.70045</ele>
        <time>2026-09-03T06:44:06.000Z</time>
      </trkpt>
      <trkpt lat="46.497807" lon="10.637606">
        <ele>2868.94787</ele>
        <time>2026-09-03T06:44:12.000Z</time>
      </trkpt>
      <trkpt lat="46.497807" lon="10.637573">
        <ele>2869.95193</ele>
        <time>2026-09-03T06:44:16.000Z</time>
      </trkpt>
      <trkpt lat="46.497795" lon="10.637536">
        <ele>2870.33096</ele>
        <time>2026-09-03T06:44:18.000Z</time>
      </trkpt>
      <trkpt lat="46.497777" lon="10.637512">
        <ele>2871.93456</ele>
        <time>2026-09-03T06:44:24.000Z</time>
      </trkpt>
      <trkpt lat="46.49778" lon="10.637471">
        <ele>2873.24527</ele>
        <time>2026-09-03T06:44:29.000Z</time>
      </trkpt>
      <trkpt lat="46.497784" lon="10.637438">
        <ele>2873.95527</ele>
        <time>2026-09-03T06:44:32.000Z</time>
      </trkpt>
      <trkpt lat="46.497802" lon="10.6374">
        <ele>2874.81512</ele>
        <time>2026-09-03T06:44:36.000Z</time>
      </trkpt>
      <trkpt lat="46.497796" lon="10.637367">
        <ele>2875.54378</ele>
        <time>2026-09-03T06:44:40.000Z</time>
      </trkpt>
      <trkpt lat="46.497819" lon="10.637339">
        <ele>2875.9312</ele>
        <time>2026-09-03T06:44:43.000Z</time>
      </trkpt>
      <trkpt lat="46.497841" lon="10.637313">
        <ele>2876.49432</ele>
        <time>2026-09-03T06:44:46.999Z</time>
      </trkpt>
      <trkpt lat="46.497851" lon="10.637283">
        <ele>2876.91597</ele>
        <time>2026-09-03T06:44:49.999Z</time>
      </trkpt>
      <trkpt lat="46.497866" lon="10.637248">
        <ele>2877.37421</ele>
        <time>2026-09-03T06:44:52.999Z</time>
      </trkpt>
      <trkpt lat="46.497878" lon="10.637219">
        <ele>2877.79973</ele>
        <time>2026-09-03T06:44:55.999Z</time>
      </trkpt>
      <trkpt lat="46.497892" lon="10.637187">
        <ele>2878.1932</ele>
        <time>2026-09-03T06:44:58.999Z</time>
      </trkpt>
      <trkpt lat="46.497905" lon="10.63716">
        <ele>2878.60189</ele>
        <time>2026-09-03T06:45:01.999Z</time>
      </trkpt>
      <trkpt lat="46.497924" lon="10.637128">
        <ele>2879.39928</ele>
        <time>2026-09-03T06:45:06.999Z</time>
      </trkpt>
      <trkpt lat="46.497946" lon="10.637117">
        <ele>2879.82376</ele>
        <time>2026-09-03T06:45:09.999Z</time>
      </trkpt>
      <trkpt lat="46.497967" lon="10.637093">
        <ele>2880.3033</ele>
        <time>2026-09-03T06:45:13.999Z</time>
      </trkpt>
      <trkpt lat="46.497984" lon="10.637121">
        <ele>2880.70532</ele>
        <time>2026-09-03T06:45:16.999Z</time>
      </trkpt>
      <trkpt lat="46.498009" lon="10.637141">
        <ele>2881.3758</ele>
        <time>2026-09-03T06:45:21.999Z</time>
      </trkpt>
      <trkpt lat="46.498024" lon="10.637101">
        <ele>2881.87818</ele>
        <time>2026-09-03T06:45:25.999Z</time>
      </trkpt>
      <trkpt lat="46.498013" lon="10.637065">
        <ele>2882.20612</ele>
        <time>2026-09-03T06:45:28.999Z</time>
      </trkpt>
      <trkpt lat="46.498011" lon="10.637031">
        <ele>2882.58808</ele>
        <time>2026-09-03T06:45:32.999Z</time>
      </trkpt>
      <trkpt lat="46.498018" lon="10.636998">
        <ele>2883.06906</ele>
        <time>2026-09-03T06:45:36.999Z</time>
      </trkpt>
      <trkpt lat="46.498022" lon="10.636953">
        <ele>2883.74418</ele>
        <time>2026-09-03T06:45:40.999Z</time>
      </trkpt>
      <trkpt lat="46.498023" lon="10.636911">
        <ele>2884.23767</ele>
        <time>2026-09-03T06:45:44.000Z</time>
      </trkpt>
      <trkpt lat="46.498023" lon="10.636873">
        <ele>2884.89091</ele>
        <time>2026-09-03T06:45:48.000Z</time>
      </trkpt>
      <trkpt lat="46.498012" lon="10.636841">
        <ele>2885.66906</ele>
        <time>2026-09-03T06:45:52.000Z</time>
      </trkpt>
      <trkpt lat="46.49799" lon="10.636831">
        <ele>2886.31074</ele>
        <time>2026-09-03T06:45:55.000Z</time>
      </trkpt>
      <trkpt lat="46.49797" lon="10.63679">
        <ele>2887.09068</ele>
        <time>2026-09-03T06:45:59.000Z</time>
      </trkpt>
      <trkpt lat="46.497948" lon="10.636775">
        <ele>2887.59631</ele>
        <time>2026-09-03T06:46:02.000Z</time>
      </trkpt>
      <trkpt lat="46.497926" lon="10.636758">
        <ele>2887.8938</ele>
        <time>2026-09-03T06:46:04.000Z</time>
      </trkpt>
      <trkpt lat="46.497906" lon="10.636741">
        <ele>2888.71061</ele>
        <time>2026-09-03T06:46:09.000Z</time>
      </trkpt>
      <trkpt lat="46.497886" lon="10.636708">
        <ele>2889.86414</ele>
        <time>2026-09-03T06:46:14.000Z</time>
      </trkpt>
      <trkpt lat="46.497863" lon="10.636698">
        <ele>2891.05429</ele>
        <time>2026-09-03T06:46:19.000Z</time>
      </trkpt>
      <trkpt lat="46.497842" lon="10.636685">
        <ele>2892.13055</ele>
        <time>2026-09-03T06:46:23.000Z</time>
      </trkpt>
      <trkpt lat="46.49784" lon="10.636651">
        <ele>2892.84057</ele>
        <time>2026-09-03T06:46:26.000Z</time>
      </trkpt>
      <trkpt lat="46.497831" lon="10.636621">
        <ele>2893.27833</ele>
        <time>2026-09-03T06:46:28.000Z</time>
      </trkpt>
      <trkpt lat="46.497816" lon="10.636583">
        <ele>2894.46518</ele>
        <time>2026-09-03T06:46:33.000Z</time>
      </trkpt>
      <trkpt lat="46.497809" lon="10.636544">
        <ele>2895.73999</ele>
        <time>2026-09-03T06:46:38.000Z</time>
      </trkpt>
      <trkpt lat="46.49779" lon="10.636505">
        <ele>2897.44556</ele>
        <time>2026-09-03T06:46:48.000Z</time>
      </trkpt>
      <trkpt lat="46.497768" lon="10.636474">
        <ele>2898.14826</ele>
        <time>2026-09-03T06:46:52.000Z</time>
      </trkpt>
      <trkpt lat="46.497742" lon="10.636457">
        <ele>2899.17333</ele>
        <time>2026-09-03T06:46:57.000Z</time>
      </trkpt>
      <trkpt lat="46.497727" lon="10.636424">
        <ele>2900.4691</ele>
        <time>2026-09-03T06:47:02.999Z</time>
      </trkpt>
      <trkpt lat="46.497736" lon="10.63639">
        <ele>2901.45843</ele>
        <time>2026-09-03T06:47:08.999Z</time>
      </trkpt>
      <trkpt lat="46.497761" lon="10.636394">
        <ele>2901.87694</ele>
        <time>2026-09-03T06:47:11.999Z</time>
      </trkpt>
      <trkpt lat="46.497787" lon="10.636394">
        <ele>2902.92311</ele>
        <time>2026-09-03T06:47:16.999Z</time>
      </trkpt>
      <trkpt lat="46.497813" lon="10.636395">
        <ele>2904.2869</ele>
        <time>2026-09-03T06:47:23.999Z</time>
      </trkpt>
      <trkpt lat="46.497838" lon="10.636389">
        <ele>2905.3885</ele>
        <time>2026-09-03T06:47:28.999Z</time>
      </trkpt>
      <trkpt lat="46.497848" lon="10.636358">
        <ele>2906.69083</ele>
        <time>2026-09-03T06:47:35.999Z</time>
      </trkpt>
      <trkpt lat="46.497873" lon="10.636353">
        <ele>2907.57169</ele>
        <time>2026-09-03T06:47:41.999Z</time>
      </trkpt>
      <trkpt lat="46.497895" lon="10.636347">
        <ele>2908.03993</ele>
        <time>2026-09-03T06:47:44.999Z</time>
      </trkpt>
      <trkpt lat="46.497912" lon="10.636311">
        <ele>2909.85984</ele>
        <time>2026-09-03T06:47:56.000Z</time>
      </trkpt>
      <trkpt lat="46.497933" lon="10.636328">
        <ele>2910.82424</ele>
        <time>2026-09-03T06:48:02.000Z</time>
      </trkpt>
      <trkpt lat="46.497944" lon="10.636293">
        <ele>2912.91916</ele>
        <time>2026-09-03T06:48:15.000Z</time>
      </trkpt>
      <trkpt lat="46.497969" lon="10.636287">
        <ele>2913.41083</ele>
        <time>2026-09-03T06:48:22.000Z</time>
      </trkpt>
      <trkpt lat="46.497995" lon="10.636294">
        <ele>2913.87984</ele>
        <time>2026-09-03T06:48:29.000Z</time>
      </trkpt>
      <trkpt lat="46.498018" lon="10.636295">
        <ele>2914.01479</ele>
        <time>2026-09-03T06:48:31.000Z</time>
      </trkpt>
      <trkpt lat="46.498039" lon="10.636281">
        <ele>2914.21775</ele>
        <time>2026-09-03T06:48:34.000Z</time>
      </trkpt>
      <trkpt lat="46.498054" lon="10.636257">
        <ele>2914.67219</ele>
        <time>2026-09-03T06:48:40.000Z</time>
      </trkpt>
      <trkpt lat="46.498073" lon="10.636236">
        <ele>2915.16728</ele>
        <time>2026-09-03T06:48:45.000Z</time>
      </trkpt>
      <trkpt lat="46.498088" lon="10.636204">
        <ele>2915.83778</ele>
        <time>2026-09-03T06:48:51.000Z</time>
      </trkpt>
      <trkpt lat="46.498066" lon="10.63619">
        <ele>2916.19687</ele>
        <time>2026-09-03T06:48:54.000Z</time>
      </trkpt>
      <trkpt lat="46.498044" lon="10.636186">
        <ele>2916.72372</ele>
        <time>2026-09-03T06:48:58.000Z</time>
      </trkpt>
      <trkpt lat="46.498012" lon="10.636181">
        <ele>2917.55133</ele>
        <time>2026-09-03T06:49:04.999Z</time>
      </trkpt>
      <trkpt lat="46.497988" lon="10.636171">
        <ele>2918.82901</ele>
        <time>2026-09-03T06:49:10.999Z</time>
      </trkpt>
      <trkpt lat="46.498002" lon="10.636146">
        <ele>2920.45459</ele>
        <time>2026-09-03T06:49:16.999Z</time>
      </trkpt>
      <trkpt lat="46.498014" lon="10.636111">
        <ele>2921.41097</ele>
        <time>2026-09-03T06:49:20.999Z</time>
      </trkpt>
      <trkpt lat="46.497985" lon="10.636089">
        <ele>2921.63288</ele>
        <time>2026-09-03T06:49:21.999Z</time>
      </trkpt>
      <trkpt lat="46.497962" lon="10.636089">
        <ele>2923.22563</ele>
        <time>2026-09-03T06:49:29.999Z</time>
      </trkpt>
      <trkpt lat="46.497946" lon="10.636066">
        <ele>2923.69669</ele>
        <time>2026-09-03T06:49:32.999Z</time>
      </trkpt>
      <trkpt lat="46.497934" lon="10.636033">
        <ele>2924.59934</ele>
        <time>2026-09-03T06:49:38.999Z</time>
      </trkpt>
      <trkpt lat="46.497911" lon="10.636009">
        <ele>2925.3622</ele>
        <time>2026-09-03T06:49:43.999Z</time>
      </trkpt>
      <trkpt lat="46.497948" lon="10.635946">
        <ele>2925.91261</ele>
        <time>2026-09-03T06:49:47.999Z</time>
      </trkpt>
      <trkpt lat="46.497973" lon="10.635943">
        <ele>2926.09482</ele>
        <time>2026-09-03T06:49:48.999Z</time>
      </trkpt>
      <trkpt lat="46.497995" lon="10.635983">
        <ele>2927.71384</ele>
        <time>2026-09-03T06:49:56.000Z</time>
      </trkpt>
      <trkpt lat="46.498023" lon="10.635982">
        <ele>2929.76744</ele>
        <time>2026-09-03T06:50:04.000Z</time>
      </trkpt>
      <trkpt lat="46.498046" lon="10.635976">
        <ele>2930.96293</ele>
        <time>2026-09-03T06:50:10.000Z</time>
      </trkpt>
      <trkpt lat="46.498063" lon="10.635953">
        <ele>2931.69178</ele>
        <time>2026-09-03T06:50:14.000Z</time>
      </trkpt>
      <trkpt lat="46.498084" lon="10.635942">
        <ele>2932.21868</ele>
        <time>2026-09-03T06:50:17.000Z</time>
      </trkpt>
      <trkpt lat="46.498117" lon="10.635937">
        <ele>2933.67095</ele>
        <time>2026-09-03T06:50:28.000Z</time>
      </trkpt>
      <trkpt lat="46.498138" lon="10.635905">
        <ele>2933.87256</ele>
        <time>2026-09-03T06:50:31.000Z</time>
      </trkpt>
      <trkpt lat="46.498145" lon="10.635873">
        <ele>2934.29659</ele>
        <time>2026-09-03T06:50:35.000Z</time>
      </trkpt>
      <trkpt lat="46.498148" lon="10.63584">
        <ele>2935.02471</ele>
        <time>2026-09-03T06:50:41.000Z</time>
      </trkpt>
      <trkpt lat="46.498158" lon="10.635805">
        <ele>2935.94121</ele>
        <time>2026-09-03T06:50:46.000Z</time>
      </trkpt>
      <trkpt lat="46.498165" lon="10.635772">
        <ele>2936.61135</ele>
        <time>2026-09-03T06:50:50.000Z</time>
      </trkpt>
      <trkpt lat="46.498168" lon="10.635736">
        <ele>2937.54163</ele>
        <time>2026-09-03T06:50:55.000Z</time>
      </trkpt>
      <trkpt lat="46.498184" lon="10.635707">
        <ele>2939.04834</ele>
        <time>2026-09-03T06:51:01.000Z</time>
      </trkpt>
      <trkpt lat="46.498204" lon="10.635675">
        <ele>2940.30733</ele>
        <time>2026-09-03T06:51:05.000Z</time>
      </trkpt>
      <trkpt lat="46.498226" lon="10.635658">
        <ele>2941.41017</ele>
        <time>2026-09-03T06:51:09.999Z</time>
      </trkpt>
      <trkpt lat="46.498239" lon="10.635629">
        <ele>2942.38232</ele>
        <time>2026-09-03T06:51:14.999Z</time>
      </trkpt>
      <trkpt lat="46.498221" lon="10.635596">
        <ele>2944.08877</ele>
        <time>2026-09-03T06:51:25.999Z</time>
      </trkpt>
      <trkpt lat="46.498198" lon="10.635604">
        <ele>2944.44938</ele>
        <time>2026-09-03T06:51:28.999Z</time>
      </trkpt>
      <trkpt lat="46.498174" lon="10.63561">
        <ele>2944.7667</ele>
        <time>2026-09-03T06:51:31.999Z</time>
      </trkpt>
      <trkpt lat="46.498149" lon="10.635598">
        <ele>2945.18607</ele>
        <time>2026-09-03T06:51:35.999Z</time>
      </trkpt>
      <trkpt lat="46.498127" lon="10.635584">
        <ele>2945.63474</ele>
        <time>2026-09-03T06:51:39.999Z</time>
      </trkpt>
      <trkpt lat="46.498101" lon="10.635582">
        <ele>2945.89483</ele>
        <time>2026-09-03T06:51:41.999Z</time>
      </trkpt>
      <trkpt lat="46.498078" lon="10.635572">
        <ele>2946.23449</ele>
        <time>2026-09-03T06:51:44.999Z</time>
      </trkpt>
      <trkpt lat="46.498049" lon="10.635565">
        <ele>2946.46903</ele>
        <time>2026-09-03T06:51:47.999Z</time>
      </trkpt>
      <trkpt lat="46.498039" lon="10.635527">
        <ele>2946.73888</ele>
        <time>2026-09-03T06:51:51.999Z</time>
      </trkpt>
      <trkpt lat="46.498014" lon="10.635507">
        <ele>2947.00518</ele>
        <time>2026-09-03T06:51:55.999Z</time>
      </trkpt>
      <trkpt lat="46.497997" lon="10.635476">
        <ele>2947.10587</ele>
        <time>2026-09-03T06:51:57.999Z</time>
      </trkpt>
      <trkpt lat="46.497977" lon="10.635447">
        <ele>2947.40255</ele>
        <time>2026-09-03T06:52:02.000Z</time>
      </trkpt>
      <trkpt lat="46.497958" lon="10.635409">
        <ele>2947.55351</ele>
        <time>2026-09-03T06:52:04.000Z</time>
      </trkpt>
      <trkpt lat="46.497941" lon="10.635377">
        <ele>2947.84248</ele>
        <time>2026-09-03T06:52:07.000Z</time>
      </trkpt>
      <trkpt lat="46.497925" lon="10.635353">
        <ele>2948.01697</ele>
        <time>2026-09-03T06:52:09.000Z</time>
      </trkpt>
      <trkpt lat="46.497901" lon="10.63535">
        <ele>2948.20404</ele>
        <time>2026-09-03T06:52:11.000Z</time>
      </trkpt>
      <trkpt lat="46.497879" lon="10.635338">
        <ele>2948.39304</ele>
        <time>2026-09-03T06:52:13.000Z</time>
      </trkpt>
      <trkpt lat="46.497855" lon="10.635304">
        <ele>2948.86523</ele>
        <time>2026-09-03T06:52:18.000Z</time>
      </trkpt>
      <trkpt lat="46.497835" lon="10.635269">
        <ele>2949.11474</ele>
        <time>2026-09-03T06:52:21.000Z</time>
      </trkpt>
      <trkpt lat="46.497817" lon="10.635236">
        <ele>2949.42342</ele>
        <time>2026-09-03T06:52:25.000Z</time>
      </trkpt>
      <trkpt lat="46.497799" lon="10.635218">
        <ele>2950.09639</ele>
        <time>2026-09-03T06:52:29.000Z</time>
      </trkpt>
      <trkpt lat="46.497792" lon="10.635185">
        <ele>2950.59011</ele>
        <time>2026-09-03T06:52:32.000Z</time>
      </trkpt>
      <trkpt lat="46.497778" lon="10.635159">
        <ele>2950.89619</ele>
        <time>2026-09-03T06:52:34.000Z</time>
      </trkpt>
      <trkpt lat="46.497758" lon="10.635137">
        <ele>2951.22954</ele>
        <time>2026-09-03T06:52:36.000Z</time>
      </trkpt>
      <trkpt lat="46.497739" lon="10.635103">
        <ele>2951.71342</ele>
        <time>2026-09-03T06:52:39.000Z</time>
      </trkpt>
      <trkpt lat="46.497705" lon="10.635059">
        <ele>2952.13399</ele>
        <time>2026-09-03T06:52:42.000Z</time>
      </trkpt>
      <trkpt lat="46.497681" lon="10.635043">
        <ele>2952.61571</ele>
        <time>2026-09-03T06:52:46.000Z</time>
      </trkpt>
      <trkpt lat="46.497662" lon="10.635002">
        <ele>2952.96062</ele>
        <time>2026-09-03T06:52:49.000Z</time>
      </trkpt>
      <trkpt lat="46.497647" lon="10.634975">
        <ele>2953.17636</ele>
        <time>2026-09-03T06:52:51.000Z</time>
      </trkpt>
      <trkpt lat="46.497622" lon="10.634965">
        <ele>2953.40663</ele>
        <time>2026-09-03T06:52:53.000Z</time>
      </trkpt>
      <trkpt lat="46.497598" lon="10.634969">
        <ele>2953.61322</ele>
        <time>2026-09-03T06:52:55.000Z</time>
      </trkpt>
      <trkpt lat="46.497574" lon="10.634958">
        <ele>2953.82778</ele>
        <time>2026-09-03T06:52:57.000Z</time>
      </trkpt>
      <trkpt lat="46.497551" lon="10.634938">
        <ele>2954.06267</ele>
        <time>2026-09-03T06:52:59.000Z</time>
      </trkpt>
      <trkpt lat="46.497537" lon="10.634909">
        <ele>2954.47526</ele>
        <time>2026-09-03T06:53:02.000Z</time>
      </trkpt>
      <trkpt lat="46.497527" lon="10.634865">
        <ele>2955.06549</ele>
        <time>2026-09-03T06:53:06.000Z</time>
      </trkpt>
      <trkpt lat="46.497541" lon="10.634832">
        <ele>2955.34025</ele>
        <time>2026-09-03T06:53:08.000Z</time>
      </trkpt>
      <trkpt lat="46.497557" lon="10.634798">
        <ele>2956.05977</ele>
        <time>2026-09-03T06:53:12.000Z</time>
      </trkpt>
      <trkpt lat="46.497534" lon="10.634779">
        <ele>2956.59343</ele>
        <time>2026-09-03T06:53:14.999Z</time>
      </trkpt>
      <trkpt lat="46.497515" lon="10.634754">
        <ele>2957.00131</ele>
        <time>2026-09-03T06:53:16.999Z</time>
      </trkpt>
      <trkpt lat="46.497499" lon="10.634715">
        <ele>2957.44374</ele>
        <time>2026-09-03T06:53:19.999Z</time>
      </trkpt>
      <trkpt lat="46.497496" lon="10.634678">
        <ele>2957.80745</ele>
        <time>2026-09-03T06:53:22.999Z</time>
      </trkpt>
      <trkpt lat="46.497478" lon="10.634641">
        <ele>2958.43532</ele>
        <time>2026-09-03T06:53:26.999Z</time>
      </trkpt>
      <trkpt lat="46.49746" lon="10.634614">
        <ele>2959.16728</ele>
        <time>2026-09-03T06:53:30.999Z</time>
      </trkpt>
      <trkpt lat="46.497461" lon="10.634572">
        <ele>2959.73544</ele>
        <time>2026-09-03T06:53:33.999Z</time>
      </trkpt>
      <trkpt lat="46.497474" lon="10.634533">
        <ele>2960.50033</ele>
        <time>2026-09-03T06:53:37.999Z</time>
      </trkpt>
      <trkpt lat="46.497461" lon="10.634507">
        <ele>2961.32703</ele>
        <time>2026-09-03T06:53:41.999Z</time>
      </trkpt>
      <trkpt lat="46.497465" lon="10.63447">
        <ele>2962.29988</ele>
        <time>2026-09-03T06:53:46.999Z</time>
      </trkpt>
      <trkpt lat="46.497444" lon="10.634445">
        <ele>2962.95357</ele>
        <time>2026-09-03T06:53:50.999Z</time>
      </trkpt>
      <trkpt lat="46.497429" lon="10.634413">
        <ele>2963.6289</ele>
        <time>2026-09-03T06:53:54.999Z</time>
      </trkpt>
      <trkpt lat="46.497417" lon="10.634381">
        <ele>2964.72506</ele>
        <time>2026-09-03T06:53:59.999Z</time>
      </trkpt>
      <trkpt lat="46.497402" lon="10.634347">
        <ele>2965.27128</ele>
        <time>2026-09-03T06:54:02.999Z</time>
      </trkpt>
      <trkpt lat="46.497401" lon="10.63431">
        <ele>2966.86306</ele>
        <time>2026-09-03T06:54:15.000Z</time>
      </trkpt>
      <trkpt lat="46.497377" lon="10.634264">
        <ele>2968.60754</ele>
        <time>2026-09-03T06:54:45.000Z</time>
      </trkpt>
      <trkpt lat="46.497368" lon="10.634202">
        <ele>2968.8044</ele>
        <time>2026-09-03T06:54:49.000Z</time>
      </trkpt>
      <trkpt lat="46.497342" lon="10.634176">
        <ele>2968.93683</ele>
        <time>2026-09-03T06:54:52.000Z</time>
      </trkpt>
      <trkpt lat="46.497328" lon="10.634148">
        <ele>2969.04062</ele>
        <time>2026-09-03T06:54:54.000Z</time>
      </trkpt>
      <trkpt lat="46.497334" lon="10.634112">
        <ele>2969.20017</ele>
        <time>2026-09-03T06:54:57.000Z</time>
      </trkpt>
      <trkpt lat="46.497344" lon="10.634079">
        <ele>2969.39231</ele>
        <time>2026-09-03T06:55:00.000Z</time>
      </trkpt>
      <trkpt lat="46.497351" lon="10.634022">
        <ele>2969.89874</ele>
        <time>2026-09-03T06:55:05.000Z</time>
      </trkpt>
      <trkpt lat="46.49734" lon="10.633977">
        <ele>2970.3392</ele>
        <time>2026-09-03T06:55:08.000Z</time>
      </trkpt>
      <trkpt lat="46.497317" lon="10.633953">
        <ele>2970.77233</ele>
        <time>2026-09-03T06:55:11.000Z</time>
      </trkpt>
      <trkpt lat="46.497287" lon="10.63393">
        <ele>2971.22042</ele>
        <time>2026-09-03T06:55:14.000Z</time>
      </trkpt>
      <trkpt lat="46.497275" lon="10.633899">
        <ele>2971.82362</ele>
        <time>2026-09-03T06:55:18.000Z</time>
      </trkpt>
      <trkpt lat="46.497261" lon="10.633862">
        <ele>2972.30985</ele>
        <time>2026-09-03T06:55:20.999Z</time>
      </trkpt>
      <trkpt lat="46.497249" lon="10.633829">
        <ele>2972.581</ele>
        <time>2026-09-03T06:55:22.999Z</time>
      </trkpt>
      <trkpt lat="46.497251" lon="10.633794">
        <ele>2972.96241</ele>
        <time>2026-09-03T06:55:24.999Z</time>
      </trkpt>
      <trkpt lat="46.497242" lon="10.633749">
        <ele>2973.41384</ele>
        <time>2026-09-03T06:55:27.999Z</time>
      </trkpt>
      <trkpt lat="46.497241" lon="10.633713">
        <ele>2973.90286</ele>
        <time>2026-09-03T06:55:31.999Z</time>
      </trkpt>
      <trkpt lat="46.497237" lon="10.633668">
        <ele>2974.28154</ele>
        <time>2026-09-03T06:55:35.999Z</time>
      </trkpt>
      <trkpt lat="46.497233" lon="10.633627">
        <ele>2974.50049</ele>
        <time>2026-09-03T06:55:37.999Z</time>
      </trkpt>
      <trkpt lat="46.497245" lon="10.633589">
        <ele>2974.89892</ele>
        <time>2026-09-03T06:55:42.999Z</time>
      </trkpt>
      <trkpt lat="46.497238" lon="10.633551">
        <ele>2975.20473</ele>
        <time>2026-09-03T06:55:46.999Z</time>
      </trkpt>
      <trkpt lat="46.497237" lon="10.633516">
        <ele>2975.54476</ele>
        <time>2026-09-03T06:55:50.999Z</time>
      </trkpt>
      <trkpt lat="46.497247" lon="10.633486">
        <ele>2975.73541</ele>
        <time>2026-09-03T06:55:52.999Z</time>
      </trkpt>
      <trkpt lat="46.497229" lon="10.633462">
        <ele>2976.34935</ele>
        <time>2026-09-03T06:55:56.999Z</time>
      </trkpt>
      <trkpt lat="46.497255" lon="10.633416">
        <ele>2976.67443</ele>
        <time>2026-09-03T06:55:58.999Z</time>
      </trkpt>
      <trkpt lat="46.497279" lon="10.63338">
        <ele>2977.50594</ele>
        <time>2026-09-03T06:56:02.999Z</time>
      </trkpt>
      <trkpt lat="46.497293" lon="10.633347">
        <ele>2978.61753</ele>
        <time>2026-09-03T06:56:06.999Z</time>
      </trkpt>
      <trkpt lat="46.497305" lon="10.633315">
        <ele>2979.95587</ele>
        <time>2026-09-03T06:56:10.999Z</time>
      </trkpt>
      <trkpt lat="46.49731" lon="10.633276">
        <ele>2981.31531</ele>
        <time>2026-09-03T06:56:15.000Z</time>
      </trkpt>
      <trkpt lat="46.49731" lon="10.633239">
        <ele>2982.53212</ele>
        <time>2026-09-03T06:56:19.000Z</time>
      </trkpt>
      <trkpt lat="46.497286" lon="10.633214">
        <ele>2983.83755</ele>
        <time>2026-09-03T06:56:24.000Z</time>
      </trkpt>
      <trkpt lat="46.497272" lon="10.633167">
        <ele>2984.78567</ele>
        <time>2026-09-03T06:56:28.000Z</time>
      </trkpt>
      <trkpt lat="46.497273" lon="10.633125">
        <ele>2986.41352</ele>
        <time>2026-09-03T06:56:36.000Z</time>
      </trkpt>
      <trkpt lat="46.49725" lon="10.633098">
        <ele>2987.7977</ele>
        <time>2026-09-03T06:56:43.000Z</time>
      </trkpt>
      <trkpt lat="46.497249" lon="10.633057">
        <ele>2988.62982</ele>
        <time>2026-09-03T06:56:47.000Z</time>
      </trkpt>
      <trkpt lat="46.497236" lon="10.633028">
        <ele>2989.19197</ele>
        <time>2026-09-03T06:56:50.000Z</time>
      </trkpt>
      <trkpt lat="46.497222" lon="10.632997">
        <ele>2990.82432</ele>
        <time>2026-09-03T06:56:57.000Z</time>
      </trkpt>
      <trkpt lat="46.497234" lon="10.632961">
        <ele>2992.13788</ele>
        <time>2026-09-03T06:57:04.000Z</time>
      </trkpt>
      <trkpt lat="46.497227" lon="10.63293">
        <ele>2992.66534</ele>
        <time>2026-09-03T06:57:07.000Z</time>
      </trkpt>
      <trkpt lat="46.497227" lon="10.632897">
        <ele>2993.23029</ele>
        <time>2026-09-03T06:57:10.000Z</time>
      </trkpt>
      <trkpt lat="46.497235" lon="10.632855">
        <ele>2994.20442</ele>
        <time>2026-09-03T06:57:15.000Z</time>
      </trkpt>
      <trkpt lat="46.497245" lon="10.632825">
        <ele>2994.6394</ele>
        <time>2026-09-03T06:57:17.000Z</time>
      </trkpt>
      <trkpt lat="46.497248" lon="10.632792">
        <ele>2996.67408</ele>
        <time>2026-09-03T06:57:24.999Z</time>
      </trkpt>
      <trkpt lat="46.497261" lon="10.63275">
        <ele>2998.10758</ele>
        <time>2026-09-03T06:57:30.999Z</time>
      </trkpt>
      <trkpt lat="46.49724" lon="10.632718">
        <ele>2998.50246</ele>
        <time>2026-09-03T06:57:32.999Z</time>
      </trkpt>
      <trkpt lat="46.497226" lon="10.632688">
        <ele>2998.82823</ele>
        <time>2026-09-03T06:57:34.999Z</time>
      </trkpt>
      <trkpt lat="46.497192" lon="10.63268">
        <ele>2999.86702</ele>
        <time>2026-09-03T06:57:41.999Z</time>
      </trkpt>
      <trkpt lat="46.497194" lon="10.632635">
        <ele>3000.18266</ele>
        <time>2026-09-03T06:57:44.999Z</time>
      </trkpt>
      <trkpt lat="46.497225" lon="10.632627">
        <ele>3000.33351</ele>
        <time>2026-09-03T06:57:46.999Z</time>
      </trkpt>
      <trkpt lat="46.497196" lon="10.632625">
        <ele>3000.64592</ele>
        <time>2026-09-03T06:57:49.999Z</time>
      </trkpt>
      <trkpt lat="46.497216" lon="10.632601">
        <ele>3000.94617</ele>
        <time>2026-09-03T06:57:52.999Z</time>
      </trkpt>
      <trkpt lat="46.497203" lon="10.632568">
        <ele>3001.2662</ele>
        <time>2026-09-03T06:57:55.999Z</time>
      </trkpt>
      <trkpt lat="46.49721" lon="10.632537">
        <ele>3001.53051</ele>
        <time>2026-09-03T06:57:58.999Z</time>
      </trkpt>
      <trkpt lat="46.497236" lon="10.632521">
        <ele>3001.85965</ele>
        <time>2026-09-03T06:58:03.999Z</time>
      </trkpt>
      <trkpt lat="46.497221" lon="10.632497">
        <ele>3001.98247</ele>
        <time>2026-09-03T06:58:05.999Z</time>
      </trkpt>
      <trkpt lat="46.49723" lon="10.632466">
        <ele>3002.14464</ele>
        <time>2026-09-03T06:58:08.999Z</time>
      </trkpt>
      <trkpt lat="46.497224" lon="10.632429">
        <ele>3002.51473</ele>
        <time>2026-09-03T06:58:12.999Z</time>
      </trkpt>
      <trkpt lat="46.497236" lon="10.632399">
        <ele>3002.68585</ele>
        <time>2026-09-03T06:58:14.999Z</time>
      </trkpt>
      <trkpt lat="46.497245" lon="10.632361">
        <ele>3003.14016</ele>
        <time>2026-09-03T06:58:19.000Z</time>
      </trkpt>
      <trkpt lat="46.49726" lon="10.632329">
        <ele>3003.69905</ele>
        <time>2026-09-03T06:58:23.000Z</time>
      </trkpt>
      <trkpt lat="46.497287" lon="10.632284">
        <ele>3006.35469</ele>
        <time>2026-09-03T06:58:47.000Z</time>
      </trkpt>
      <trkpt lat="46.497306" lon="10.632264">
        <ele>3006.7861</ele>
        <time>2026-09-03T06:58:51.000Z</time>
      </trkpt>
      <trkpt lat="46.497316" lon="10.632232">
        <ele>3007.43838</ele>
        <time>2026-09-03T06:58:56.000Z</time>
      </trkpt>
      <trkpt lat="46.49733" lon="10.632199">
        <ele>3007.7541</ele>
        <time>2026-09-03T06:58:58.000Z</time>
      </trkpt>
      <trkpt lat="46.497335" lon="10.632161">
        <ele>3008.02941</ele>
        <time>2026-09-03T06:59:00.000Z</time>
      </trkpt>
      <trkpt lat="46.497312" lon="10.632165">
        <ele>3008.34401</ele>
        <time>2026-09-03T06:59:02.000Z</time>
      </trkpt>
      <trkpt lat="46.497315" lon="10.63213">
        <ele>3008.66399</ele>
        <time>2026-09-03T06:59:04.000Z</time>
      </trkpt>
      <trkpt lat="46.497312" lon="10.632087">
        <ele>3009.11187</ele>
        <time>2026-09-03T06:59:07.000Z</time>
      </trkpt>
      <trkpt lat="46.497323" lon="10.632054">
        <ele>3009.63227</ele>
        <time>2026-09-03T06:59:11.000Z</time>
      </trkpt>
      <trkpt lat="46.497344" lon="10.632035">
        <ele>3010.28979</ele>
        <time>2026-09-03T06:59:15.000Z</time>
      </trkpt>
      <trkpt lat="46.497359" lon="10.632007">
        <ele>3010.47376</ele>
        <time>2026-09-03T06:59:16.000Z</time>
      </trkpt>
      <trkpt lat="46.497363" lon="10.631965">
        <ele>3011.77484</ele>
        <time>2026-09-03T06:59:23.000Z</time>
      </trkpt>
      <trkpt lat="46.49735" lon="10.631933">
        <ele>3012.78631</ele>
        <time>2026-09-03T06:59:28.000Z</time>
      </trkpt>
      <trkpt lat="46.497375" lon="10.631913">
        <ele>3013.4938</ele>
        <time>2026-09-03T06:59:31.999Z</time>
      </trkpt>
      <trkpt lat="46.497402" lon="10.631923">
        <ele>3013.88571</ele>
        <time>2026-09-03T06:59:33.999Z</time>
      </trkpt>
      <trkpt lat="46.497419" lon="10.631899">
        <ele>3014.34883</ele>
        <time>2026-09-03T06:59:35.999Z</time>
      </trkpt>
      <trkpt lat="46.497444" lon="10.631885">
        <ele>3015.6033</ele>
        <time>2026-09-03T06:59:40.999Z</time>
      </trkpt>
      <trkpt lat="46.497473" lon="10.631891">
        <ele>3016.64563</ele>
        <time>2026-09-03T06:59:44.999Z</time>
      </trkpt>
      <trkpt lat="46.497495" lon="10.631877">
        <ele>3018.56642</ele>
        <time>2026-09-03T06:59:51.999Z</time>
      </trkpt>
      <trkpt lat="46.497515" lon="10.631846">
        <ele>3020.68544</ele>
        <time>2026-09-03T06:59:59.999Z</time>
      </trkpt>
      <trkpt lat="46.497547" lon="10.631842">
        <ele>3021.80206</ele>
        <time>2026-09-03T07:00:04.999Z</time>
      </trkpt>
      <trkpt lat="46.497569" lon="10.631839">
        <ele>3022.32476</ele>
        <time>2026-09-03T07:00:07.999Z</time>
      </trkpt>
      <trkpt lat="46.497595" lon="10.631817">
        <ele>3023.42048</ele>
        <time>2026-09-03T07:00:14.999Z</time>
      </trkpt>
      <trkpt lat="46.497627" lon="10.631791">
        <ele>3023.94348</ele>
        <time>2026-09-03T07:00:18.999Z</time>
      </trkpt>
      <trkpt lat="46.497647" lon="10.631808">
        <ele>3024.34404</ele>
        <time>2026-09-03T07:00:22.999Z</time>
      </trkpt>
      <trkpt lat="46.49764" lon="10.631766">
        <ele>3025.24254</ele>
        <time>2026-09-03T07:00:33.000Z</time>
      </trkpt>
      <trkpt lat="46.497645" lon="10.63173">
        <ele>3025.41205</ele>
        <time>2026-09-03T07:00:36.000Z</time>
      </trkpt>
      <trkpt lat="46.497659" lon="10.631699">
        <ele>3025.94028</ele>
        <time>2026-09-03T07:00:43.000Z</time>
      </trkpt>
      <trkpt lat="46.497668" lon="10.631668">
        <ele>3026.14535</ele>
        <time>2026-09-03T07:00:45.000Z</time>
      </trkpt>
      <trkpt lat="46.497658" lon="10.631636">
        <ele>3026.79696</ele>
        <time>2026-09-03T07:00:52.000Z</time>
      </trkpt>
      <trkpt lat="46.497678" lon="10.631595">
        <ele>3027.71646</ele>
        <time>2026-09-03T07:00:59.000Z</time>
      </trkpt>
      <trkpt lat="46.497653" lon="10.631583">
        <ele>3028.36816</ele>
        <time>2026-09-03T07:01:03.000Z</time>
      </trkpt>
      <trkpt lat="46.497664" lon="10.631542">
        <ele>3028.7977</ele>
        <time>2026-09-03T07:01:06.000Z</time>
      </trkpt>
      <trkpt lat="46.49764" lon="10.631547">
        <ele>3029.51328</ele>
        <time>2026-09-03T07:01:12.000Z</time>
      </trkpt>
      <trkpt lat="46.49764" lon="10.631485">
        <ele>3029.95099</ele>
        <time>2026-09-03T07:01:15.000Z</time>
      </trkpt>
      <trkpt lat="46.497616" lon="10.631497">
        <ele>3030.46493</ele>
        <time>2026-09-03T07:01:18.000Z</time>
      </trkpt>
      <trkpt lat="46.497633" lon="10.631472">
        <ele>3031.58743</ele>
        <time>2026-09-03T07:01:23.000Z</time>
      </trkpt>
      <trkpt lat="46.497627" lon="10.631437">
        <ele>3032.63936</ele>
        <time>2026-09-03T07:01:27.000Z</time>
      </trkpt>
      <trkpt lat="46.497605" lon="10.63141">
        <ele>3034.34936</ele>
        <time>2026-09-03T07:01:33.999Z</time>
      </trkpt>
      <trkpt lat="46.497599" lon="10.631368">
        <ele>3035.00357</ele>
        <time>2026-09-03T07:01:36.999Z</time>
      </trkpt>
      <trkpt lat="46.497583" lon="10.631341">
        <ele>3037.58451</ele>
        <time>2026-09-03T07:01:46.999Z</time>
      </trkpt>
      <trkpt lat="46.497574" lon="10.631304">
        <ele>3038.19036</ele>
        <time>2026-09-03T07:01:49.999Z</time>
      </trkpt>
      <trkpt lat="46.497577" lon="10.631266">
        <ele>3039.75212</ele>
        <time>2026-09-03T07:01:58.999Z</time>
      </trkpt>
      <trkpt lat="46.497573" lon="10.631228">
        <ele>3040.36287</ele>
        <time>2026-09-03T07:02:03.999Z</time>
      </trkpt>
      <trkpt lat="46.497557" lon="10.631205">
        <ele>3040.6779</ele>
        <time>2026-09-03T07:02:06.999Z</time>
      </trkpt>
      <trkpt lat="46.497552" lon="10.631153">
        <ele>3041.36096</ele>
        <time>2026-09-03T07:02:11.999Z</time>
      </trkpt>
      <trkpt lat="46.497533" lon="10.631129">
        <ele>3041.97278</ele>
        <time>2026-09-03T07:02:15.999Z</time>
      </trkpt>
      <trkpt lat="46.497503" lon="10.631095">
        <ele>3043.22792</ele>
        <time>2026-09-03T07:02:23.999Z</time>
      </trkpt>
      <trkpt lat="46.497488" lon="10.631066">
        <ele>3044.23753</ele>
        <time>2026-09-03T07:02:31.000Z</time>
      </trkpt>
      <trkpt lat="46.497515" lon="10.631051">
        <ele>3045.32321</ele>
        <time>2026-09-03T07:02:39.000Z</time>
      </trkpt>
      <trkpt lat="46.49754" lon="10.631041">
        <ele>3046.33394</ele>
        <time>2026-09-03T07:02:44.000Z</time>
      </trkpt>
      <trkpt lat="46.497566" lon="10.631054">
        <ele>3047.65354</ele>
        <time>2026-09-03T07:02:49.000Z</time>
      </trkpt>
      <trkpt lat="46.497594" lon="10.63106">
        <ele>3048.69122</ele>
        <time>2026-09-03T07:02:53.000Z</time>
      </trkpt>
      <trkpt lat="46.49761" lon="10.631031">
        <ele>3049.7628</ele>
        <time>2026-09-03T07:02:57.000Z</time>
      </trkpt>
      <trkpt lat="46.497633" lon="10.63104">
        <ele>3051.14157</ele>
        <time>2026-09-03T07:03:02.000Z</time>
      </trkpt>
      <trkpt lat="46.49765" lon="10.631011">
        <ele>3052.96708</ele>
        <time>2026-09-03T07:03:10.000Z</time>
      </trkpt>
      <trkpt lat="46.49765" lon="10.630969">
        <ele>3053.56028</ele>
        <time>2026-09-03T07:03:14.000Z</time>
      </trkpt>
      <trkpt lat="46.497672" lon="10.630948">
        <ele>3054.02251</ele>
        <time>2026-09-03T07:03:17.000Z</time>
      </trkpt>
      <trkpt lat="46.497692" lon="10.630972">
        <ele>3054.5316</ele>
        <time>2026-09-03T07:03:20.000Z</time>
      </trkpt>
      <trkpt lat="46.497696" lon="10.63094">
        <ele>3055.92544</ele>
        <time>2026-09-03T07:03:31.000Z</time>
      </trkpt>
      <trkpt lat="46.497681" lon="10.630905">
        <ele>3056.20768</ele>
        <time>2026-09-03T07:03:35.000Z</time>
      </trkpt>
      <trkpt lat="46.497662" lon="10.630882">
        <ele>3056.53715</ele>
        <time>2026-09-03T07:03:38.999Z</time>
      </trkpt>
      <trkpt lat="46.497667" lon="10.630835">
        <ele>3056.93324</ele>
        <time>2026-09-03T07:03:42.999Z</time>
      </trkpt>
      <trkpt lat="46.497671" lon="10.630802">
        <ele>3057.28299</ele>
        <time>2026-09-03T07:03:45.999Z</time>
      </trkpt>
      <trkpt lat="46.497646" lon="10.630789">
        <ele>3058.15185</ele>
        <time>2026-09-03T07:03:51.999Z</time>
      </trkpt>
      <trkpt lat="46.497628" lon="10.630743">
        <ele>3058.61003</ele>
        <time>2026-09-03T07:03:54.999Z</time>
      </trkpt>
      <trkpt lat="46.497637" lon="10.63079">
        <ele>3058.77941</ele>
        <time>2026-09-03T07:03:55.999Z</time>
      </trkpt>
      <trkpt lat="46.497636" lon="10.630756">
        <ele>3059.1579</ele>
        <time>2026-09-03T07:03:57.999Z</time>
      </trkpt>
      <trkpt lat="46.497643" lon="10.630723">
        <ele>3060.5222</ele>
        <time>2026-09-03T07:04:04.999Z</time>
      </trkpt>
      <trkpt lat="46.49768" lon="10.630694">
        <ele>3061.96057</ele>
        <time>2026-09-03T07:04:10.999Z</time>
      </trkpt>
      <trkpt lat="46.49771" lon="10.630669">
        <ele>3063.71893</ele>
        <time>2026-09-03T07:04:18.999Z</time>
      </trkpt>
      <trkpt lat="46.497731" lon="10.630682">
        <ele>3064.28773</ele>
        <time>2026-09-03T07:04:21.999Z</time>
      </trkpt>
      <trkpt lat="46.497764" lon="10.630658">
        <ele>3066.01585</ele>
        <time>2026-09-03T07:04:29.999Z</time>
      </trkpt>
      <trkpt lat="46.497745" lon="10.630632">
        <ele>3067.36685</ele>
        <time>2026-09-03T07:04:37.000Z</time>
      </trkpt>
      <trkpt lat="46.497742" lon="10.63059">
        <ele>3067.78582</ele>
        <time>2026-09-03T07:04:40.000Z</time>
      </trkpt>
      <trkpt lat="46.497717" lon="10.63058">
        <ele>3068.33387</ele>
        <time>2026-09-03T07:04:44.000Z</time>
      </trkpt>
      <trkpt lat="46.497743" lon="10.63056">
        <ele>3069.19341</ele>
        <time>2026-09-03T07:04:52.000Z</time>
      </trkpt>
      <trkpt lat="46.497764" lon="10.630549">
        <ele>3069.81953</ele>
        <time>2026-09-03T07:04:57.000Z</time>
      </trkpt>
      <trkpt lat="46.497788" lon="10.630536">
        <ele>3070.83032</ele>
        <time>2026-09-03T07:05:03.000Z</time>
      </trkpt>
      <trkpt lat="46.497763" lon="10.630511">
        <ele>3071.08964</ele>
        <time>2026-09-03T07:05:05.000Z</time>
      </trkpt>
      <trkpt lat="46.497748" lon="10.630479">
        <ele>3072.11819</ele>
        <time>2026-09-03T07:05:12.000Z</time>
      </trkpt>
      <trkpt lat="46.497727" lon="10.63046">
        <ele>3072.41879</ele>
        <time>2026-09-03T07:05:15.000Z</time>
      </trkpt>
      <trkpt lat="46.497734" lon="10.630426">
        <ele>3072.554</ele>
        <time>2026-09-03T07:05:17.000Z</time>
      </trkpt>
      <trkpt lat="46.497767" lon="10.630426">
        <ele>3073.21646</ele>
        <time>2026-09-03T07:05:24.000Z</time>
      </trkpt>
      <trkpt lat="46.497791" lon="10.630426">
        <ele>3073.84633</ele>
        <time>2026-09-03T07:05:28.000Z</time>
      </trkpt>
      <trkpt lat="46.497797" lon="10.630387">
        <ele>3075.34895</ele>
        <time>2026-09-03T07:05:35.000Z</time>
      </trkpt>
      <trkpt lat="46.497784" lon="10.63036">
        <ele>3076.04934</ele>
        <time>2026-09-03T07:05:39.000Z</time>
      </trkpt>
      <trkpt lat="46.497773" lon="10.630329">
        <ele>3076.84507</ele>
        <time>2026-09-03T07:05:44.000Z</time>
      </trkpt>
      <trkpt lat="46.49775" lon="10.630299">
        <ele>3078.24326</ele>
        <time>2026-09-03T07:05:53.999Z</time>
      </trkpt>
      <trkpt lat="46.497726" lon="10.630239">
        <ele>3078.60898</ele>
        <time>2026-09-03T07:05:56.999Z</time>
      </trkpt>
      <trkpt lat="46.497741" lon="10.630272">
        <ele>3078.8879</ele>
        <time>2026-09-03T07:05:59.999Z</time>
      </trkpt>
      <trkpt lat="46.497711" lon="10.630273">
        <ele>3079.24208</ele>
        <time>2026-09-03T07:06:02.999Z</time>
      </trkpt>
      <trkpt lat="46.497678" lon="10.630268">
        <ele>3080.16091</ele>
        <time>2026-09-03T07:06:09.999Z</time>
      </trkpt>
      <trkpt lat="46.49767" lon="10.630228">
        <ele>3080.57595</ele>
        <time>2026-09-03T07:06:13.999Z</time>
      </trkpt>
      <trkpt lat="46.497663" lon="10.630262">
        <ele>3080.78845</ele>
        <time>2026-09-03T07:06:15.999Z</time>
      </trkpt>
      <trkpt lat="46.497653" lon="10.630232">
        <ele>3080.99687</ele>
        <time>2026-09-03T07:06:17.999Z</time>
      </trkpt>
      <trkpt lat="46.49765" lon="10.630194">
        <ele>3081.83482</ele>
        <time>2026-09-03T07:06:23.999Z</time>
      </trkpt>
      <trkpt lat="46.497679" lon="10.630161">
        <ele>3082.71641</ele>
        <time>2026-09-03T07:06:28.999Z</time>
      </trkpt>
      <trkpt lat="46.49771" lon="10.630144">
        <ele>3083.34619</ele>
        <time>2026-09-03T07:06:31.999Z</time>
      </trkpt>
      <trkpt lat="46.497735" lon="10.630152">
        <ele>3085.65876</ele>
        <time>2026-09-03T07:06:39.999Z</time>
      </trkpt>
      <trkpt lat="46.497716" lon="10.630132">
        <ele>3087.03403</ele>
        <time>2026-09-03T07:06:44.000Z</time>
      </trkpt>
      <trkpt lat="46.497703" lon="10.630097">
        <ele>3088.01197</ele>
        <time>2026-09-03T07:06:47.000Z</time>
      </trkpt>
      <trkpt lat="46.497692" lon="10.630062">
        <ele>3088.66604</ele>
        <time>2026-09-03T07:06:50.000Z</time>
      </trkpt>
      <trkpt lat="46.497713" lon="10.630044">
        <ele>3089.81774</ele>
        <time>2026-09-03T07:06:59.000Z</time>
      </trkpt>
      <trkpt lat="46.497742" lon="10.630041">
        <ele>3090.02833</ele>
        <time>2026-09-03T07:07:01.000Z</time>
      </trkpt>
      <trkpt lat="46.497718" lon="10.630025">
        <ele>3090.2093</ele>
        <time>2026-09-03T07:07:03.000Z</time>
      </trkpt>
      <trkpt lat="46.497744" lon="10.630015">
        <ele>3090.71843</ele>
        <time>2026-09-03T07:07:06.000Z</time>
      </trkpt>
      <trkpt lat="46.497771" lon="10.63002">
        <ele>3091.85805</ele>
        <time>2026-09-03T07:07:11.000Z</time>
      </trkpt>
      <trkpt lat="46.497784" lon="10.629992">
        <ele>3094.0701</ele>
        <time>2026-09-03T07:07:19.000Z</time>
      </trkpt>
      <trkpt lat="46.497793" lon="10.62996">
        <ele>3094.80431</ele>
        <time>2026-09-03T07:07:22.000Z</time>
      </trkpt>
      <trkpt lat="46.497787" lon="10.629923">
        <ele>3097.1863</ele>
        <time>2026-09-03T07:07:32.000Z</time>
      </trkpt>
      <trkpt lat="46.497808" lon="10.629908">
        <ele>3097.79521</ele>
        <time>2026-09-03T07:07:36.000Z</time>
      </trkpt>
      <trkpt lat="46.497784" lon="10.629911">
        <ele>3098.30451</ele>
        <time>2026-09-03T07:07:40.000Z</time>
      </trkpt>
      <trkpt lat="46.497777" lon="10.629879">
        <ele>3098.81499</ele>
        <time>2026-09-03T07:07:43.000Z</time>
      </trkpt>
      <trkpt lat="46.497772" lon="10.629844">
        <ele>3099.68084</ele>
        <time>2026-09-03T07:07:48.999Z</time>
      </trkpt>
      <trkpt lat="46.497754" lon="10.629821">
        <ele>3100.28735</ele>
        <time>2026-09-03T07:07:52.999Z</time>
      </trkpt>
      <trkpt lat="46.497766" lon="10.629784">
        <ele>3100.86443</ele>
        <time>2026-09-03T07:07:56.999Z</time>
      </trkpt>
      <trkpt lat="46.497746" lon="10.629761">
        <ele>3101.55747</ele>
        <time>2026-09-03T07:08:01.999Z</time>
      </trkpt>
      <trkpt lat="46.497721" lon="10.62974">
        <ele>3102.25595</ele>
        <time>2026-09-03T07:08:06.999Z</time>
      </trkpt>
      <trkpt lat="46.49775" lon="10.629723">
        <ele>3104.41027</ele>
        <time>2026-09-03T07:08:19.999Z</time>
      </trkpt>
      <trkpt lat="46.497778" lon="10.629704">
        <ele>3105.54853</ele>
        <time>2026-09-03T07:08:25.999Z</time>
      </trkpt>
      <trkpt lat="46.497771" lon="10.629671">
        <ele>3106.28529</ele>
        <time>2026-09-03T07:08:29.999Z</time>
      </trkpt>
      <trkpt lat="46.497769" lon="10.629637">
        <ele>3106.93023</ele>
        <time>2026-09-03T07:08:34.999Z</time>
      </trkpt>
      <trkpt lat="46.49775" lon="10.629611">
        <ele>3107.47745</ele>
        <time>2026-09-03T07:08:38.999Z</time>
      </trkpt>
      <trkpt lat="46.497727" lon="10.629611">
        <ele>3107.78425</ele>
        <time>2026-09-03T07:08:41.999Z</time>
      </trkpt>
      <trkpt lat="46.497708" lon="10.629591">
        <ele>3108.36901</ele>
        <time>2026-09-03T07:08:45.999Z</time>
      </trkpt>
      <trkpt lat="46.497732" lon="10.629582">
        <ele>3109.05582</ele>
        <time>2026-09-03T07:08:52.000Z</time>
      </trkpt>
      <trkpt lat="46.497751" lon="10.629562">
        <ele>3109.72048</ele>
        <time>2026-09-03T07:08:57.000Z</time>
      </trkpt>
      <trkpt lat="46.497774" lon="10.629558">
        <ele>3110.20818</ele>
        <time>2026-09-03T07:09:00.000Z</time>
      </trkpt>
      <trkpt lat="46.497793" lon="10.629539">
        <ele>3111.02303</ele>
        <time>2026-09-03T07:09:04.000Z</time>
      </trkpt>
      <trkpt lat="46.497816" lon="10.629534">
        <ele>3111.93004</ele>
        <time>2026-09-03T07:09:08.000Z</time>
      </trkpt>
      <trkpt lat="46.497845" lon="10.629531">
        <ele>3112.6111</ele>
        <time>2026-09-03T07:09:11.000Z</time>
      </trkpt>
      <trkpt lat="46.49787" lon="10.629532">
        <ele>3113.16582</ele>
        <time>2026-09-03T07:09:14.000Z</time>
      </trkpt>
      <trkpt lat="46.497883" lon="10.629497">
        <ele>3115.06945</ele>
        <time>2026-09-03T07:09:25.000Z</time>
      </trkpt>
      <trkpt lat="46.497897" lon="10.629472">
        <ele>3115.4465</ele>
        <time>2026-09-03T07:09:28.000Z</time>
      </trkpt>
      <trkpt lat="46.497921" lon="10.629422">
        <ele>3116.19199</ele>
        <time>2026-09-03T07:09:35.000Z</time>
      </trkpt>
      <trkpt lat="46.497931" lon="10.629382">
        <ele>3117.53799</ele>
        <time>2026-09-03T07:09:45.000Z</time>
      </trkpt>
      <trkpt lat="46.497936" lon="10.62935">
        <ele>3118.84829</ele>
        <time>2026-09-03T07:09:54.000Z</time>
      </trkpt>
      <trkpt lat="46.497963" lon="10.629328">
        <ele>3120.48031</ele>
        <time>2026-09-03T07:10:05.999Z</time>
      </trkpt>
      <trkpt lat="46.497989" lon="10.629328">
        <ele>3121.23036</ele>
        <time>2026-09-03T07:10:11.999Z</time>
      </trkpt>
      <trkpt lat="46.498009" lon="10.629309">
        <ele>3121.54127</ele>
        <time>2026-09-03T07:10:15.999Z</time>
      </trkpt>
      <trkpt lat="46.49799" lon="10.629287">
        <ele>3122.04568</ele>
        <time>2026-09-03T07:10:30.999Z</time>
      </trkpt>
      <trkpt lat="46.49801" lon="10.629313">
        <ele>3122.1111</ele>
        <time>2026-09-03T07:11:16.000Z</time>
      </trkpt>
      <trkpt lat="46.498018" lon="10.629278">
        <ele>3122.17986</ele>
        <time>2026-09-03T07:11:32.000Z</time>
      </trkpt>
      <trkpt lat="46.498009" lon="10.62931">
        <ele>3122.26024</ele>
        <time>2026-09-03T07:12:18.999Z</time>
      </trkpt>
      <trkpt lat="46.49799" lon="10.629293">
        <ele>3122.36273</ele>
        <time>2026-09-03T07:13:57.000Z</time>
      </trkpt>
      <trkpt lat="46.498011" lon="10.629309">
        <ele>3122.39128</ele>
        <time>2026-09-03T07:14:38.999Z</time>
      </trkpt>
      <trkpt lat="46.498038" lon="10.629315">
        <ele>3122.44148</ele>
        <time>2026-09-03T07:16:40.999Z</time>
      </trkpt>
      <trkpt lat="46.498062" lon="10.629324">
        <ele>3122.44237</ele>
        <time>2026-09-03T07:16:42.999Z</time>
      </trkpt>
      <trkpt lat="46.498086" lon="10.629334">
        <ele>3122.44533</ele>
        <time>2026-09-03T07:16:44.999Z</time>
      </trkpt>
      <trkpt lat="46.498109" lon="10.629357">
        <ele>3122.45126</ele>
        <time>2026-09-03T07:16:46.999Z</time>
      </trkpt>
      <trkpt lat="46.498138" lon="10.629348">
        <ele>3122.45711</ele>
        <time>2026-09-03T07:16:49.999Z</time>
      </trkpt>
      <trkpt lat="46.498161" lon="10.62935">
        <ele>3122.4661</ele>
        <time>2026-09-03T07:16:52.999Z</time>
      </trkpt>
      <trkpt lat="46.498194" lon="10.629359">
        <ele>3122.47654</ele>
        <time>2026-09-03T07:16:55.999Z</time>
      </trkpt>
      <trkpt lat="46.498214" lon="10.629379">
        <ele>3122.48272</ele>
        <time>2026-09-03T07:16:57.999Z</time>
      </trkpt>
      <trkpt lat="46.498235" lon="10.629399">
        <ele>3122.48995</ele>
        <time>2026-09-03T07:16:59.999Z</time>
      </trkpt>
      <trkpt lat="46.498264" lon="10.62942">
        <ele>3122.506</ele>
        <time>2026-09-03T07:17:02.999Z</time>
      </trkpt>
      <trkpt lat="46.498292" lon="10.629448">
        <ele>3122.52292</ele>
        <time>2026-09-03T07:17:05.999Z</time>
      </trkpt>
      <trkpt lat="46.498313" lon="10.629476">
        <ele>3122.54547</ele>
        <time>2026-09-03T07:17:08.999Z</time>
      </trkpt>
      <trkpt lat="46.498331" lon="10.629499">
        <ele>3122.56878</ele>
        <time>2026-09-03T07:17:11.999Z</time>
      </trkpt>
      <trkpt lat="46.498354" lon="10.629518">
        <ele>3122.59865</ele>
        <time>2026-09-03T07:17:15.000Z</time>
      </trkpt>
      <trkpt lat="46.498373" lon="10.629535">
        <ele>3122.61929</ele>
        <time>2026-09-03T07:17:17.000Z</time>
      </trkpt>
      <trkpt lat="46.498398" lon="10.629556">
        <ele>3122.66029</ele>
        <time>2026-09-03T07:17:21.000Z</time>
      </trkpt>
      <trkpt lat="46.498419" lon="10.629571">
        <ele>3122.67726</ele>
        <time>2026-09-03T07:17:23.000Z</time>
      </trkpt>
      <trkpt lat="46.498441" lon="10.629588">
        <ele>3122.69127</ele>
        <time>2026-09-03T07:17:25.000Z</time>
      </trkpt>
      <trkpt lat="46.498469" lon="10.629594">
        <ele>3122.7039</ele>
        <time>2026-09-03T07:17:28.000Z</time>
      </trkpt>
      <trkpt lat="46.498505" lon="10.62961">
        <ele>3122.71065</ele>
        <time>2026-09-03T07:17:32.000Z</time>
      </trkpt>
      <trkpt lat="46.498531" lon="10.629608">
        <ele>3122.74643</ele>
        <time>2026-09-03T07:17:41.000Z</time>
      </trkpt>
      <trkpt lat="46.49855" lon="10.629583">
        <ele>3122.82082</ele>
        <time>2026-09-03T07:17:47.000Z</time>
      </trkpt>
      <trkpt lat="46.498577" lon="10.629572">
        <ele>3123.04352</ele>
        <time>2026-09-03T07:17:52.000Z</time>
      </trkpt>
      <trkpt lat="46.498599" lon="10.629546">
        <ele>3123.46654</ele>
        <time>2026-09-03T07:17:57.000Z</time>
      </trkpt>
      <trkpt lat="46.498605" lon="10.629512">
        <ele>3124.05135</ele>
        <time>2026-09-03T07:18:03.000Z</time>
      </trkpt>
      <trkpt lat="46.498627" lon="10.62949">
        <ele>3124.52568</ele>
        <time>2026-09-03T07:18:07.000Z</time>
      </trkpt>
      <trkpt lat="46.498629" lon="10.629457">
        <ele>3126.1601</ele>
        <time>2026-09-03T07:18:16.999Z</time>
      </trkpt>
      <trkpt lat="46.498654" lon="10.629458">
        <ele>3127.07871</ele>
        <time>2026-09-03T07:18:21.999Z</time>
      </trkpt>
      <trkpt lat="46.498678" lon="10.629454">
        <ele>3128.50247</ele>
        <time>2026-09-03T07:18:29.999Z</time>
      </trkpt>
      <trkpt lat="46.498699" lon="10.629433">
        <ele>3129.94793</ele>
        <time>2026-09-03T07:18:39.999Z</time>
      </trkpt>
      <trkpt lat="46.498678" lon="10.629405">
        <ele>3130.3051</ele>
        <time>2026-09-03T07:18:42.999Z</time>
      </trkpt>
      <trkpt lat="46.498686" lon="10.629363">
        <ele>3131.52732</ele>
        <time>2026-09-03T07:18:53.999Z</time>
      </trkpt>
      <trkpt lat="46.4987" lon="10.629337">
        <ele>3133.74296</ele>
        <time>2026-09-03T07:19:09.999Z</time>
      </trkpt>
      <trkpt lat="46.498685" lon="10.629304">
        <ele>3135.39748</ele>
        <time>2026-09-03T07:19:19.000Z</time>
      </trkpt>
      <trkpt lat="46.498683" lon="10.629265">
        <ele>3136.24109</ele>
        <time>2026-09-03T07:19:24.000Z</time>
      </trkpt>
      <trkpt lat="46.49871" lon="10.629278">
        <ele>3136.75229</ele>
        <time>2026-09-03T07:19:28.000Z</time>
      </trkpt>
      <trkpt lat="46.498734" lon="10.629275">
        <ele>3137.744</ele>
        <time>2026-09-03T07:19:33.000Z</time>
      </trkpt>
      <trkpt lat="46.498756" lon="10.629284">
        <ele>3138.68476</ele>
        <time>2026-09-03T07:19:37.000Z</time>
      </trkpt>
      <trkpt lat="46.498749" lon="10.629243">
        <ele>3140.05501</ele>
        <time>2026-09-03T07:19:43.000Z</time>
      </trkpt>
      <trkpt lat="46.498744" lon="10.629207">
        <ele>3140.97121</ele>
        <time>2026-09-03T07:19:48.000Z</time>
      </trkpt>
      <trkpt lat="46.498734" lon="10.62917">
        <ele>3143.36187</ele>
        <time>2026-09-03T07:20:14.000Z</time>
      </trkpt>
      <trkpt lat="46.498764" lon="10.629174">
        <ele>3143.41358</ele>
        <time>2026-09-03T07:20:21.000Z</time>
      </trkpt>
      <trkpt lat="46.498778" lon="10.629147">
        <ele>3143.66572</ele>
        <time>2026-09-03T07:20:28.000Z</time>
      </trkpt>
      <trkpt lat="46.498762" lon="10.629112">
        <ele>3143.84005</ele>
        <time>2026-09-03T07:20:32.999Z</time>
      </trkpt>
      <trkpt lat="46.498746" lon="10.629082">
        <ele>3143.98024</ele>
        <time>2026-09-03T07:20:36.999Z</time>
      </trkpt>
      <trkpt lat="46.498767" lon="10.629052">
        <ele>3144.12289</ele>
        <time>2026-09-03T07:20:42.999Z</time>
      </trkpt>
      <trkpt lat="46.498792" lon="10.62905">
        <ele>3144.19215</ele>
        <time>2026-09-03T07:20:44.999Z</time>
      </trkpt>
      <trkpt lat="46.498817" lon="10.629039">
        <ele>3144.33805</ele>
        <time>2026-09-03T07:20:47.999Z</time>
      </trkpt>
      <trkpt lat="46.498845" lon="10.629035">
        <ele>3144.7294</ele>
        <time>2026-09-03T07:20:52.999Z</time>
      </trkpt>
      <trkpt lat="46.498867" lon="10.629045">
        <ele>3145.18074</ele>
        <time>2026-09-03T07:20:56.999Z</time>
      </trkpt>
      <trkpt lat="46.498888" lon="10.629067">
        <ele>3145.67309</ele>
        <time>2026-09-03T07:21:00.999Z</time>
      </trkpt>
      <trkpt lat="46.498911" lon="10.629081">
        <ele>3146.26154</ele>
        <time>2026-09-03T07:21:04.999Z</time>
      </trkpt>
      <trkpt lat="46.498933" lon="10.629101">
        <ele>3147.3432</ele>
        <time>2026-09-03T07:21:11.999Z</time>
      </trkpt>
      <trkpt lat="46.498956" lon="10.629114">
        <ele>3148.3969</ele>
        <time>2026-09-03T07:21:17.999Z</time>
      </trkpt>
      <trkpt lat="46.498981" lon="10.629127">
        <ele>3149.50897</ele>
        <time>2026-09-03T07:21:22.999Z</time>
      </trkpt>
      <trkpt lat="46.499007" lon="10.629144">
        <ele>3150.32557</ele>
        <time>2026-09-03T07:21:27.000Z</time>
      </trkpt>
      <trkpt lat="46.499027" lon="10.62918">
        <ele>3150.90432</ele>
        <time>2026-09-03T07:21:30.000Z</time>
      </trkpt>
      <trkpt lat="46.499049" lon="10.629188">
        <ele>3152.05023</ele>
        <time>2026-09-03T07:21:36.000Z</time>
      </trkpt>
      <trkpt lat="46.499071" lon="10.629201">
        <ele>3153.8363</ele>
        <time>2026-09-03T07:21:48.000Z</time>
      </trkpt>
      <trkpt lat="46.499096" lon="10.629208">
        <ele>3154.29657</ele>
        <time>2026-09-03T07:21:52.000Z</time>
      </trkpt>
      <trkpt lat="46.499109" lon="10.629179">
        <ele>3155.05158</ele>
        <time>2026-09-03T07:21:58.000Z</time>
      </trkpt>
      <trkpt lat="46.499127" lon="10.629155">
        <ele>3155.58746</ele>
        <time>2026-09-03T07:22:03.000Z</time>
      </trkpt>
      <trkpt lat="46.499149" lon="10.629167">
        <ele>3156.51314</ele>
        <time>2026-09-03T07:22:12.000Z</time>
      </trkpt>
      <trkpt lat="46.499167" lon="10.629137">
        <ele>3157.5427</ele>
        <time>2026-09-03T07:22:18.000Z</time>
      </trkpt>
      <trkpt lat="46.499195" lon="10.629124">
        <ele>3158.20883</ele>
        <time>2026-09-03T07:22:22.000Z</time>
      </trkpt>
      <trkpt lat="46.499201" lon="10.629157">
        <ele>3158.8892</ele>
        <time>2026-09-03T07:22:26.000Z</time>
      </trkpt>
      <trkpt lat="46.499223" lon="10.629177">
        <ele>3159.68512</ele>
        <time>2026-09-03T07:22:31.000Z</time>
      </trkpt>
      <trkpt lat="46.499246" lon="10.629163">
        <ele>3160.59989</ele>
        <time>2026-09-03T07:22:35.999Z</time>
      </trkpt>
      <trkpt lat="46.499268" lon="10.62915">
        <ele>3161.65433</ele>
        <time>2026-09-03T07:22:40.999Z</time>
      </trkpt>
      <trkpt lat="46.499292" lon="10.629171">
        <ele>3162.48335</ele>
        <time>2026-09-03T07:22:44.999Z</time>
      </trkpt>
      <trkpt lat="46.499313" lon="10.629194">
        <ele>3164.16669</ele>
        <time>2026-09-03T07:22:52.999Z</time>
      </trkpt>
      <trkpt lat="46.499338" lon="10.629193">
        <ele>3165.39916</ele>
        <time>2026-09-03T07:22:58.999Z</time>
      </trkpt>
      <trkpt lat="46.499341" lon="10.629152">
        <ele>3166.51129</ele>
        <time>2026-09-03T07:23:03.999Z</time>
      </trkpt>
      <trkpt lat="46.49936" lon="10.629124">
        <ele>3167.4399</ele>
        <time>2026-09-03T07:23:10.999Z</time>
      </trkpt>
      <trkpt lat="46.499381" lon="10.629101">
        <ele>3167.96883</ele>
        <time>2026-09-03T07:23:14.999Z</time>
      </trkpt>
      <trkpt lat="46.499397" lon="10.629074">
        <ele>3168.42751</ele>
        <time>2026-09-03T07:23:18.999Z</time>
      </trkpt>
      <trkpt lat="46.49939" lon="10.629037">
        <ele>3169.03245</ele>
        <time>2026-09-03T07:23:24.999Z</time>
      </trkpt>
      <trkpt lat="46.499402" lon="10.629002">
        <ele>3169.8417</ele>
        <time>2026-09-03T07:23:34.000Z</time>
      </trkpt>
      <trkpt lat="46.499428" lon="10.628992">
        <ele>3170.61905</ele>
        <time>2026-09-03T07:23:40.000Z</time>
      </trkpt>
      <trkpt lat="46.499451" lon="10.629013">
        <ele>3171.76722</ele>
        <time>2026-09-03T07:23:46.000Z</time>
      </trkpt>
      <trkpt lat="46.499473" lon="10.629025">
        <ele>3173.29978</ele>
        <time>2026-09-03T07:23:53.000Z</time>
      </trkpt>
      <trkpt lat="46.499497" lon="10.629012">
        <ele>3174.92817</ele>
        <time>2026-09-03T07:24:06.000Z</time>
      </trkpt>
      <trkpt lat="46.499492" lon="10.628977">
        <ele>3175.41304</ele>
        <time>2026-09-03T07:24:11.000Z</time>
      </trkpt>
      <trkpt lat="46.499512" lon="10.628953">
        <ele>3175.98112</ele>
        <time>2026-09-03T07:24:16.000Z</time>
      </trkpt>
      <trkpt lat="46.499515" lon="10.628993">
        <ele>3176.24851</ele>
        <time>2026-09-03T07:24:18.000Z</time>
      </trkpt>
      <trkpt lat="46.499537" lon="10.628963">
        <ele>3177.72749</ele>
        <time>2026-09-03T07:24:27.000Z</time>
      </trkpt>
      <trkpt lat="46.499545" lon="10.628931">
        <ele>3178.52227</ele>
        <time>2026-09-03T07:24:32.000Z</time>
      </trkpt>
      <trkpt lat="46.49957" lon="10.62893">
        <ele>3179.27507</ele>
        <time>2026-09-03T07:24:37.000Z</time>
      </trkpt>
      <trkpt lat="46.499595" lon="10.628946">
        <ele>3180.16465</ele>
        <time>2026-09-03T07:24:41.999Z</time>
      </trkpt>
      <trkpt lat="46.499617" lon="10.628917">
        <ele>3181.20978</ele>
        <time>2026-09-03T07:24:47.999Z</time>
      </trkpt>
      <trkpt lat="46.499645" lon="10.628915">
        <ele>3182.48286</ele>
        <time>2026-09-03T07:24:55.999Z</time>
      </trkpt>
      <trkpt lat="46.499663" lon="10.628946">
        <ele>3184.19757</ele>
        <time>2026-09-03T07:25:03.999Z</time>
      </trkpt>
      <trkpt lat="46.499685" lon="10.628961">
        <ele>3185.36733</ele>
        <time>2026-09-03T07:25:09.999Z</time>
      </trkpt>
      <trkpt lat="46.4997" lon="10.628992">
        <ele>3186.5379</ele>
        <time>2026-09-03T07:25:16.999Z</time>
      </trkpt>
      <trkpt lat="46.499719" lon="10.629026">
        <ele>3188.15064</ele>
        <time>2026-09-03T07:25:25.999Z</time>
      </trkpt>
      <trkpt lat="46.499737" lon="10.629047">
        <ele>3189.66749</ele>
        <time>2026-09-03T07:25:32.999Z</time>
      </trkpt>
      <trkpt lat="46.499745" lon="10.629015">
        <ele>3190.92352</ele>
        <time>2026-09-03T07:25:39.000Z</time>
      </trkpt>
      <trkpt lat="46.499755" lon="10.628975">
        <ele>3191.90091</ele>
        <time>2026-09-03T07:25:47.000Z</time>
      </trkpt>
      <trkpt lat="46.499775" lon="10.628941">
        <ele>3192.43733</ele>
        <time>2026-09-03T07:25:53.000Z</time>
      </trkpt>
      <trkpt lat="46.49979" lon="10.628907">
        <ele>3192.9382</ele>
        <time>2026-09-03T07:26:00.000Z</time>
      </trkpt>
      <trkpt lat="46.499818" lon="10.628905">
        <ele>3193.76732</ele>
        <time>2026-09-03T07:26:09.000Z</time>
      </trkpt>
      <trkpt lat="46.499832" lon="10.628943">
        <ele>3194.44004</ele>
        <time>2026-09-03T07:26:14.000Z</time>
      </trkpt>
      <trkpt lat="46.499846" lon="10.628968">
        <ele>3195.43833</ele>
        <time>2026-09-03T07:26:19.000Z</time>
      </trkpt>
      <trkpt lat="46.499862" lon="10.628939">
        <ele>3197.09167</ele>
        <time>2026-09-03T07:26:26.000Z</time>
      </trkpt>
      <trkpt lat="46.499887" lon="10.628945">
        <ele>3197.95469</ele>
        <time>2026-09-03T07:26:31.000Z</time>
      </trkpt>
      <trkpt lat="46.499891" lon="10.62891">
        <ele>3200.22875</ele>
        <time>2026-09-03T07:26:42.000Z</time>
      </trkpt>
      <trkpt lat="46.499917" lon="10.628918">
        <ele>3201.15476</ele>
        <time>2026-09-03T07:26:48.999Z</time>
      </trkpt>
      <trkpt lat="46.499937" lon="10.62894">
        <ele>3202.08729</ele>
        <time>2026-09-03T07:26:54.999Z</time>
      </trkpt>
      <trkpt lat="46.499962" lon="10.628947">
        <ele>3202.92024</ele>
        <time>2026-09-03T07:26:59.999Z</time>
      </trkpt>
      <trkpt lat="46.499948" lon="10.628918">
        <ele>3203.26276</ele>
        <time>2026-09-03T07:27:02.999Z</time>
      </trkpt>
      <trkpt lat="46.499965" lon="10.62894">
        <ele>3204.5416</ele>
        <time>2026-09-03T07:27:11.999Z</time>
      </trkpt>
      <trkpt lat="46.499988" lon="10.628947">
        <ele>3205.85634</ele>
        <time>2026-09-03T07:27:17.999Z</time>
      </trkpt>
      <trkpt lat="46.500005" lon="10.628988">
        <ele>3206.69047</ele>
        <time>2026-09-03T07:27:21.999Z</time>
      </trkpt>
      <trkpt lat="46.500027" lon="10.628993">
        <ele>3207.3884</ele>
        <time>2026-09-03T07:27:25.999Z</time>
      </trkpt>
      <trkpt lat="46.500047" lon="10.629011">
        <ele>3208.45117</ele>
        <time>2026-09-03T07:27:30.999Z</time>
      </trkpt>
      <trkpt lat="46.500066" lon="10.629029">
        <ele>3209.0721</ele>
        <time>2026-09-03T07:27:35.999Z</time>
      </trkpt>
      <trkpt lat="46.500087" lon="10.629055">
        <ele>3209.54401</ele>
        <time>2026-09-03T07:27:39.999Z</time>
      </trkpt>
      <trkpt lat="46.500106" lon="10.629028">
        <ele>3211.76379</ele>
        <time>2026-09-03T07:27:51.000Z</time>
      </trkpt>
      <trkpt lat="46.50009" lon="10.628995">
        <ele>3212.56232</ele>
        <time>2026-09-03T07:27:56.000Z</time>
      </trkpt>
      <trkpt lat="46.500092" lon="10.628957">
        <ele>3213.25719</ele>
        <time>2026-09-03T07:28:05.000Z</time>
      </trkpt>
      <trkpt lat="46.500108" lon="10.628926">
        <ele>3214.13083</ele>
        <time>2026-09-03T07:28:21.000Z</time>
      </trkpt>
      <trkpt lat="46.500124" lon="10.628949">
        <ele>3214.58266</ele>
        <time>2026-09-03T07:28:26.000Z</time>
      </trkpt>
      <trkpt lat="46.500144" lon="10.628963">
        <ele>3216.46828</ele>
        <time>2026-09-03T07:28:33.000Z</time>
      </trkpt>
      <trkpt lat="46.500164" lon="10.62898">
        <ele>3220.27509</ele>
        <time>2026-09-03T07:28:42.000Z</time>
      </trkpt>
      <trkpt lat="46.500182" lon="10.629003">
        <ele>3222.05099</ele>
        <time>2026-09-03T07:28:47.000Z</time>
      </trkpt>
      <trkpt lat="46.5002" lon="10.62897">
        <ele>3222.90407</ele>
        <time>2026-09-03T07:28:52.000Z</time>
      </trkpt>
      <trkpt lat="46.50021" lon="10.629013">
        <ele>3222.98157</ele>
        <time>2026-09-03T07:28:56.000Z</time>
      </trkpt>
      <trkpt lat="46.500211" lon="10.628978">
        <ele>3223.41633</ele>
        <time>2026-09-03T07:29:07.999Z</time>
      </trkpt>
      <trkpt lat="46.50021" lon="10.628942">
        <ele>3223.55221</ele>
        <time>2026-09-03T07:29:12.999Z</time>
      </trkpt>
      <trkpt lat="46.500234" lon="10.628935">
        <ele>3224.02914</ele>
        <time>2026-09-03T07:29:21.999Z</time>
      </trkpt>
      <trkpt lat="46.500253" lon="10.628953">
        <ele>3225.47528</ele>
        <time>2026-09-03T07:29:29.999Z</time>
      </trkpt>
      <trkpt lat="46.500269" lon="10.628929">
        <ele>3228.99267</ele>
        <time>2026-09-03T07:29:42.999Z</time>
      </trkpt>
      <trkpt lat="46.500267" lon="10.628893">
        <ele>3229.4722</ele>
        <time>2026-09-03T07:29:50.000Z</time>
      </trkpt>
      <trkpt lat="46.500274" lon="10.628856">
        <ele>3230.4435</ele>
        <time>2026-09-03T07:30:01.000Z</time>
      </trkpt>
      <trkpt lat="46.500296" lon="10.628862">
        <ele>3231.31011</ele>
        <time>2026-09-03T07:30:06.000Z</time>
      </trkpt>
      <trkpt lat="46.500314" lon="10.628885">
        <ele>3233.37442</ele>
        <time>2026-09-03T07:30:13.000Z</time>
      </trkpt>
      <trkpt lat="46.50034" lon="10.628868">
        <ele>3234.24423</ele>
        <time>2026-09-03T07:30:16.000Z</time>
      </trkpt>
      <trkpt lat="46.500318" lon="10.628852">
        <ele>3234.66655</ele>
        <time>2026-09-03T07:30:18.000Z</time>
      </trkpt>
      <trkpt lat="46.5003" lon="10.628832">
        <ele>3235.00057</ele>
        <time>2026-09-03T07:30:20.000Z</time>
      </trkpt>
      <trkpt lat="46.500311" lon="10.6288">
        <ele>3235.68121</ele>
        <time>2026-09-03T07:30:27.000Z</time>
      </trkpt>
      <trkpt lat="46.50033" lon="10.62877">
        <ele>3236.11009</ele>
        <time>2026-09-03T07:30:35.000Z</time>
      </trkpt>
      <trkpt lat="46.500346" lon="10.62874">
        <ele>3236.41247</ele>
        <time>2026-09-03T07:30:44.000Z</time>
      </trkpt>
      <trkpt lat="46.500355" lon="10.628772">
        <ele>3236.86854</ele>
        <time>2026-09-03T07:30:49.000Z</time>
      </trkpt>
      <trkpt lat="46.50037" lon="10.628746">
        <ele>3238.30678</ele>
        <time>2026-09-03T07:30:57.999Z</time>
      </trkpt>
      <trkpt lat="46.500366" lon="10.628711">
        <ele>3238.85014</ele>
        <time>2026-09-03T07:31:02.999Z</time>
      </trkpt>
      <trkpt lat="46.500388" lon="10.628697">
        <ele>3239.42864</ele>
        <time>2026-09-03T07:31:06.999Z</time>
      </trkpt>
      <trkpt lat="46.500412" lon="10.628695">
        <ele>3240.26237</ele>
        <time>2026-09-03T07:31:11.999Z</time>
      </trkpt>
      <trkpt lat="46.500438" lon="10.628702">
        <ele>3240.94138</ele>
        <time>2026-09-03T07:31:15.999Z</time>
      </trkpt>
      <trkpt lat="46.500458" lon="10.628685">
        <ele>3241.44946</ele>
        <time>2026-09-03T07:31:18.999Z</time>
      </trkpt>
      <trkpt lat="46.500474" lon="10.628658">
        <ele>3242.1543</ele>
        <time>2026-09-03T07:31:23.999Z</time>
      </trkpt>
      <trkpt lat="46.500498" lon="10.628658">
        <ele>3242.49322</ele>
        <time>2026-09-03T07:31:27.999Z</time>
      </trkpt>
      <trkpt lat="46.500519" lon="10.628686">
        <ele>3242.83098</ele>
        <time>2026-09-03T07:31:30.999Z</time>
      </trkpt>
      <trkpt lat="46.500544" lon="10.62868">
        <ele>3243.4152</ele>
        <time>2026-09-03T07:31:34.999Z</time>
      </trkpt>
      <trkpt lat="46.500573" lon="10.628685">
        <ele>3244.12385</ele>
        <time>2026-09-03T07:31:38.999Z</time>
      </trkpt>
      <trkpt lat="46.500593" lon="10.6287">
        <ele>3244.54203</ele>
        <time>2026-09-03T07:31:41.999Z</time>
      </trkpt>
      <trkpt lat="46.500616" lon="10.628721">
        <ele>3245.2039</ele>
        <time>2026-09-03T07:31:45.999Z</time>
      </trkpt>
      <trkpt lat="46.500637" lon="10.628763">
        <ele>3245.37943</ele>
        <time>2026-09-03T07:31:47.999Z</time>
      </trkpt>
      <trkpt lat="46.500653" lon="10.62873">
        <ele>3245.55652</ele>
        <time>2026-09-03T07:31:50.999Z</time>
      </trkpt>
      <trkpt lat="46.500676" lon="10.628727">
        <ele>3245.84206</ele>
        <time>2026-09-03T07:31:53.999Z</time>
      </trkpt>
      <trkpt lat="46.500708" lon="10.628713">
        <ele>3246.21558</ele>
        <time>2026-09-03T07:31:59.000Z</time>
      </trkpt>
      <trkpt lat="46.500736" lon="10.628712">
        <ele>3246.385</ele>
        <time>2026-09-03T07:32:02.000Z</time>
      </trkpt>
      <trkpt lat="46.500755" lon="10.628689">
        <ele>3246.76331</ele>
        <time>2026-09-03T07:32:06.000Z</time>
      </trkpt>
      <trkpt lat="46.500783" lon="10.628678">
        <ele>3247.10983</ele>
        <time>2026-09-03T07:32:09.000Z</time>
      </trkpt>
      <trkpt lat="46.500807" lon="10.628672">
        <ele>3247.51154</ele>
        <time>2026-09-03T07:32:12.000Z</time>
      </trkpt>
      <trkpt lat="46.500834" lon="10.628681">
        <ele>3248.01542</ele>
        <time>2026-09-03T07:32:15.000Z</time>
      </trkpt>
      <trkpt lat="46.500854" lon="10.6287">
        <ele>3248.58884</ele>
        <time>2026-09-03T07:32:18.000Z</time>
      </trkpt>
      <trkpt lat="46.500878" lon="10.628684">
        <ele>3249.35395</ele>
        <time>2026-09-03T07:32:22.000Z</time>
      </trkpt>
      <trkpt lat="46.50088" lon="10.628648">
        <ele>3250.06511</ele>
        <time>2026-09-03T07:32:26.000Z</time>
      </trkpt>
      <trkpt lat="46.500913" lon="10.628668">
        <ele>3250.60514</ele>
        <time>2026-09-03T07:32:29.000Z</time>
      </trkpt>
      <trkpt lat="46.500932" lon="10.628635">
        <ele>3251.7717</ele>
        <time>2026-09-03T07:32:35.000Z</time>
      </trkpt>
      <trkpt lat="46.500956" lon="10.628616">
        <ele>3252.41748</ele>
        <time>2026-09-03T07:32:39.000Z</time>
      </trkpt>
      <trkpt lat="46.500987" lon="10.628621">
        <ele>3252.87388</ele>
        <time>2026-09-03T07:32:42.000Z</time>
      </trkpt>
      <trkpt lat="46.501013" lon="10.628619">
        <ele>3253.63956</ele>
        <time>2026-09-03T07:32:46.000Z</time>
      </trkpt>
      <trkpt lat="46.501015" lon="10.628581">
        <ele>3254.03428</ele>
        <time>2026-09-03T07:32:49.000Z</time>
      </trkpt>
      <trkpt lat="46.501039" lon="10.628598">
        <ele>3254.68105</ele>
        <time>2026-09-03T07:32:53.000Z</time>
      </trkpt>
      <trkpt lat="46.501067" lon="10.62859">
        <ele>3255.58302</ele>
        <time>2026-09-03T07:32:57.000Z</time>
      </trkpt>
      <trkpt lat="46.501073" lon="10.628557">
        <ele>3256.52226</ele>
        <time>2026-09-03T07:33:00.999Z</time>
      </trkpt>
      <trkpt lat="46.501096" lon="10.628566">
        <ele>3257.43157</ele>
        <time>2026-09-03T07:33:04.999Z</time>
      </trkpt>
      <trkpt lat="46.501128" lon="10.628561">
        <ele>3258.47808</ele>
        <time>2026-09-03T07:33:09.999Z</time>
      </trkpt>
      <trkpt lat="46.501146" lon="10.628585">
        <ele>3259.33873</ele>
        <time>2026-09-03T07:33:13.999Z</time>
      </trkpt>
      <trkpt lat="46.501169" lon="10.628595">
        <ele>3259.98996</ele>
        <time>2026-09-03T07:33:16.999Z</time>
      </trkpt>
      <trkpt lat="46.501189" lon="10.628568">
        <ele>3260.85953</ele>
        <time>2026-09-03T07:33:20.999Z</time>
      </trkpt>
      <trkpt lat="46.501185" lon="10.628532">
        <ele>3261.31152</ele>
        <time>2026-09-03T07:33:23.999Z</time>
      </trkpt>
      <trkpt lat="46.501201" lon="10.628502">
        <ele>3262.13665</ele>
        <time>2026-09-03T07:33:29.999Z</time>
      </trkpt>
      <trkpt lat="46.50122" lon="10.628538">
        <ele>3263.20943</ele>
        <time>2026-09-03T07:33:36.999Z</time>
      </trkpt>
      <trkpt lat="46.501247" lon="10.628531">
        <ele>3263.74322</ele>
        <time>2026-09-03T07:33:39.999Z</time>
      </trkpt>
      <trkpt lat="46.501256" lon="10.628492">
        <ele>3264.41569</ele>
        <time>2026-09-03T07:33:44.999Z</time>
      </trkpt>
      <trkpt lat="46.501269" lon="10.628457">
        <ele>3264.77506</ele>
        <time>2026-09-03T07:33:48.999Z</time>
      </trkpt>
      <trkpt lat="46.501292" lon="10.62847">
        <ele>3265.02373</ele>
        <time>2026-09-03T07:33:52.999Z</time>
      </trkpt>
      <trkpt lat="46.501316" lon="10.628454">
        <ele>3265.2835</ele>
        <time>2026-09-03T07:33:57.999Z</time>
      </trkpt>
      <trkpt lat="46.501339" lon="10.628446">
        <ele>3265.46754</ele>
        <time>2026-09-03T07:33:59.999Z</time>
      </trkpt>
      <trkpt lat="46.501355" lon="10.628476">
        <ele>3266.25335</ele>
        <time>2026-09-03T07:34:06.000Z</time>
      </trkpt>
      <trkpt lat="46.501374" lon="10.628495">
        <ele>3266.78224</ele>
        <time>2026-09-03T07:34:08.000Z</time>
      </trkpt>
      <trkpt lat="46.501388" lon="10.628521">
        <ele>3268.20285</ele>
        <time>2026-09-03T07:34:14.000Z</time>
      </trkpt>
      <trkpt lat="46.501391" lon="10.628556">
        <ele>3268.45961</ele>
        <time>2026-09-03T07:34:16.000Z</time>
      </trkpt>
      <trkpt lat="46.501408" lon="10.628583">
        <ele>3269.12124</ele>
        <time>2026-09-03T07:34:22.000Z</time>
      </trkpt>
      <trkpt lat="46.501431" lon="10.628565">
        <ele>3269.67651</ele>
        <time>2026-09-03T07:34:27.000Z</time>
      </trkpt>
      <trkpt lat="46.501421" lon="10.628534">
        <ele>3269.94473</ele>
        <time>2026-09-03T07:34:29.000Z</time>
      </trkpt>
      <trkpt lat="46.501428" lon="10.628495">
        <ele>3270.57668</ele>
        <time>2026-09-03T07:34:34.000Z</time>
      </trkpt>
      <trkpt lat="46.50145" lon="10.628476">
        <ele>3271.0681</ele>
        <time>2026-09-03T07:34:38.000Z</time>
      </trkpt>
      <trkpt lat="46.501474" lon="10.628471">
        <ele>3271.42884</ele>
        <time>2026-09-03T07:34:42.000Z</time>
      </trkpt>
      <trkpt lat="46.501489" lon="10.628507">
        <ele>3271.65025</ele>
        <time>2026-09-03T07:34:45.000Z</time>
      </trkpt>
      <trkpt lat="46.501505" lon="10.628535">
        <ele>3272.09443</ele>
        <time>2026-09-03T07:34:51.000Z</time>
      </trkpt>
      <trkpt lat="46.501527" lon="10.628566">
        <ele>3272.6068</ele>
        <time>2026-09-03T07:34:55.000Z</time>
      </trkpt>
      <trkpt lat="46.50155" lon="10.628583">
        <ele>3273.40975</ele>
        <time>2026-09-03T07:35:00.000Z</time>
      </trkpt>
      <trkpt lat="46.501576" lon="10.628576">
        <ele>3274.56742</ele>
        <time>2026-09-03T07:35:05.999Z</time>
      </trkpt>
      <trkpt lat="46.501584" lon="10.628538">
        <ele>3275.82232</ele>
        <time>2026-09-03T07:35:11.999Z</time>
      </trkpt>
      <trkpt lat="46.501591" lon="10.628502">
        <ele>3276.71935</ele>
        <time>2026-09-03T07:35:16.999Z</time>
      </trkpt>
      <trkpt lat="46.501584" lon="10.628463">
        <ele>3276.91249</ele>
        <time>2026-09-03T07:35:18.999Z</time>
      </trkpt>
      <trkpt lat="46.501604" lon="10.628442">
        <ele>3277.32389</ele>
        <time>2026-09-03T07:35:24.999Z</time>
      </trkpt>
      <trkpt lat="46.501614" lon="10.628403">
        <ele>3278.01155</ele>
        <time>2026-09-03T07:35:32.999Z</time>
      </trkpt>
      <trkpt lat="46.501626" lon="10.628371">
        <ele>3278.2764</ele>
        <time>2026-09-03T07:35:36.999Z</time>
      </trkpt>
      <trkpt lat="46.501634" lon="10.628329">
        <ele>3278.52639</ele>
        <time>2026-09-03T07:35:40.999Z</time>
      </trkpt>
      <trkpt lat="46.501631" lon="10.628293">
        <ele>3278.69558</ele>
        <time>2026-09-03T07:35:44.999Z</time>
      </trkpt>
      <trkpt lat="46.501672" lon="10.628298">
        <ele>3278.83579</ele>
        <time>2026-09-03T07:35:51.999Z</time>
      </trkpt>
      <trkpt lat="46.501694" lon="10.628285">
        <ele>3279.87557</ele>
        <time>2026-09-03T07:35:56.999Z</time>
      </trkpt>
      <trkpt lat="46.501712" lon="10.628308">
        <ele>3280.69872</ele>
        <time>2026-09-03T07:35:59.999Z</time>
      </trkpt>
      <trkpt lat="46.501731" lon="10.62834">
        <ele>3282.75375</ele>
        <time>2026-09-03T07:36:04.999Z</time>
      </trkpt>
      <trkpt lat="46.501734" lon="10.628299">
        <ele>3286.10803</ele>
        <time>2026-09-03T07:36:15.000Z</time>
      </trkpt>
      <trkpt lat="46.501754" lon="10.62827">
        <ele>3287.22355</ele>
        <time>2026-09-03T07:36:21.000Z</time>
      </trkpt>
      <trkpt lat="46.501778" lon="10.628272">
        <ele>3287.87825</ele>
        <time>2026-09-03T07:36:26.000Z</time>
      </trkpt>
      <trkpt lat="46.501807" lon="10.628283">
        <ele>3289.42513</ele>
        <time>2026-09-03T07:36:35.000Z</time>
      </trkpt>
      <trkpt lat="46.501828" lon="10.628303">
        <ele>3290.52736</ele>
        <time>2026-09-03T07:36:40.000Z</time>
      </trkpt>
      <trkpt lat="46.501847" lon="10.628281">
        <ele>3293.28441</ele>
        <time>2026-09-03T07:36:50.000Z</time>
      </trkpt>
      <trkpt lat="46.501874" lon="10.628293">
        <ele>3294.63731</ele>
        <time>2026-09-03T07:36:56.000Z</time>
      </trkpt>
      <trkpt lat="46.501907" lon="10.6283">
        <ele>3295.75138</ele>
        <time>2026-09-03T07:37:03.000Z</time>
      </trkpt>
      <trkpt lat="46.501931" lon="10.628324">
        <ele>3297.72432</ele>
        <time>2026-09-03T07:37:11.000Z</time>
      </trkpt>
      <trkpt lat="46.501961" lon="10.628325">
        <ele>3299.31224</ele>
        <time>2026-09-03T07:37:22.999Z</time>
      </trkpt>
      <trkpt lat="46.501988" lon="10.628313">
        <ele>3299.74824</ele>
        <time>2026-09-03T07:37:27.999Z</time>
      </trkpt>
      <trkpt lat="46.502012" lon="10.628322">
        <ele>3300.08888</ele>
        <time>2026-09-03T07:37:30.999Z</time>
      </trkpt>
      <trkpt lat="46.502029" lon="10.628296">
        <ele>3300.82837</ele>
        <time>2026-09-03T07:37:35.999Z</time>
      </trkpt>
      <trkpt lat="46.50205" lon="10.628281">
        <ele>3301.68651</ele>
        <time>2026-09-03T07:37:42.999Z</time>
      </trkpt>
      <trkpt lat="46.502061" lon="10.628331">
        <ele>3302.09151</ele>
        <time>2026-09-03T07:37:44.999Z</time>
      </trkpt>
      <trkpt lat="46.502085" lon="10.628344">
        <ele>3302.45017</ele>
        <time>2026-09-03T07:37:46.999Z</time>
      </trkpt>
      <trkpt lat="46.502109" lon="10.628331">
        <ele>3303.82477</ele>
        <time>2026-09-03T07:37:53.999Z</time>
      </trkpt>
      <trkpt lat="46.502139" lon="10.62834">
        <ele>3304.61396</ele>
        <time>2026-09-03T07:37:57.999Z</time>
      </trkpt>
      <trkpt lat="46.502158" lon="10.628367">
        <ele>3306.38433</ele>
        <time>2026-09-03T07:38:05.999Z</time>
      </trkpt>
      <trkpt lat="46.502177" lon="10.628384">
        <ele>3307.25139</ele>
        <time>2026-09-03T07:38:09.999Z</time>
      </trkpt>
      <trkpt lat="46.502204" lon="10.628371">
        <ele>3307.76773</ele>
        <time>2026-09-03T07:38:13.000Z</time>
      </trkpt>
      <trkpt lat="46.50223" lon="10.628367">
        <ele>3308.87582</ele>
        <time>2026-09-03T07:38:21.000Z</time>
      </trkpt>
      <trkpt lat="46.502255" lon="10.628377">
        <ele>3309.331</ele>
        <time>2026-09-03T07:38:25.000Z</time>
      </trkpt>
      <trkpt lat="46.502278" lon="10.628373">
        <ele>3309.88147</ele>
        <time>2026-09-03T07:38:29.000Z</time>
      </trkpt>
      <trkpt lat="46.5023" lon="10.628361">
        <ele>3310.3278</ele>
        <time>2026-09-03T07:38:32.000Z</time>
      </trkpt>
      <trkpt lat="46.502333" lon="10.628381">
        <ele>3311.82439</ele>
        <time>2026-09-03T07:38:40.000Z</time>
      </trkpt>
      <trkpt lat="46.502357" lon="10.62838">
        <ele>3312.80399</ele>
        <time>2026-09-03T07:38:45.000Z</time>
      </trkpt>
      <trkpt lat="46.502384" lon="10.628389">
        <ele>3313.43791</ele>
        <time>2026-09-03T07:38:48.000Z</time>
      </trkpt>
      <trkpt lat="46.502408" lon="10.628402">
        <ele>3314.56712</ele>
        <time>2026-09-03T07:38:54.000Z</time>
      </trkpt>
      <trkpt lat="46.502432" lon="10.628428">
        <ele>3315.27719</ele>
        <time>2026-09-03T07:38:58.000Z</time>
      </trkpt>
      <trkpt lat="46.502456" lon="10.628426">
        <ele>3315.95418</ele>
        <time>2026-09-03T07:39:02.000Z</time>
      </trkpt>
      <trkpt lat="46.502484" lon="10.628428">
        <ele>3316.45386</ele>
        <time>2026-09-03T07:39:05.000Z</time>
      </trkpt>
      <trkpt lat="46.502507" lon="10.628415">
        <ele>3317.14838</ele>
        <time>2026-09-03T07:39:10.000Z</time>
      </trkpt>
      <trkpt lat="46.502533" lon="10.628424">
        <ele>3317.41676</ele>
        <time>2026-09-03T07:39:13.000Z</time>
      </trkpt>
      <trkpt lat="46.50255" lon="10.628448">
        <ele>3317.66525</ele>
        <time>2026-09-03T07:39:16.000Z</time>
      </trkpt>
      <trkpt lat="46.502564" lon="10.628474">
        <ele>3317.91771</ele>
        <time>2026-09-03T07:39:19.000Z</time>
      </trkpt>
      <trkpt lat="46.502564" lon="10.628513">
        <ele>3318.39408</ele>
        <time>2026-09-03T07:39:23.999Z</time>
      </trkpt>
      <trkpt lat="46.502584" lon="10.628542">
        <ele>3319.02397</ele>
        <time>2026-09-03T07:39:28.999Z</time>
      </trkpt>
      <trkpt lat="46.502608" lon="10.628554">
        <ele>3319.43009</ele>
        <time>2026-09-03T07:39:32.999Z</time>
      </trkpt>
      <trkpt lat="46.502637" lon="10.628548">
        <ele>3320.17646</ele>
        <time>2026-09-03T07:39:37.999Z</time>
      </trkpt>
      <trkpt lat="46.502664" lon="10.628526">
        <ele>3320.71115</ele>
        <time>2026-09-03T07:39:41.999Z</time>
      </trkpt>
      <trkpt lat="46.502694" lon="10.628518">
        <ele>3321.31903</ele>
        <time>2026-09-03T07:39:47.999Z</time>
      </trkpt>
      <trkpt lat="46.502717" lon="10.62852">
        <ele>3322.157</ele>
        <time>2026-09-03T07:40:08.999Z</time>
      </trkpt>
      <trkpt lat="46.502777" lon="10.628519">
        <ele>3322.1981</ele>
        <time>2026-09-03T07:40:22.000Z</time>
      </trkpt>
      <trkpt lat="46.5028" lon="10.628529">
        <ele>3322.37874</ele>
        <time>2026-09-03T07:40:25.000Z</time>
      </trkpt>
      <trkpt lat="46.502824" lon="10.628534">
        <ele>3322.67154</ele>
        <time>2026-09-03T07:40:28.000Z</time>
      </trkpt>
      <trkpt lat="46.502852" lon="10.628557">
        <ele>3323.12366</ele>
        <time>2026-09-03T07:40:31.000Z</time>
      </trkpt>
      <trkpt lat="46.502866" lon="10.628585">
        <ele>3323.7912</ele>
        <time>2026-09-03T07:40:34.000Z</time>
      </trkpt>
      <trkpt lat="46.502856" lon="10.628554">
        <ele>3330.4322</ele>
        <time>2026-09-03T07:41:46.999Z</time>
      </trkpt>
      <trkpt lat="46.502857" lon="10.628587">
        <ele>3330.44873</ele>
        <time>2026-09-03T07:41:47.999Z</time>
      </trkpt>
      <trkpt lat="46.502872" lon="10.628621">
        <ele>3330.43506</ele>
        <time>2026-09-03T07:42:03.999Z</time>
      </trkpt>
      <trkpt lat="46.502867" lon="10.628576">
        <ele>3330.48144</ele>
        <time>2026-09-03T07:42:11.999Z</time>
      </trkpt>
      <trkpt lat="46.502839" lon="10.628589">
        <ele>3330.41266</ele>
        <time>2026-09-03T07:42:23.999Z</time>
      </trkpt>
      <trkpt lat="46.502859" lon="10.628571">
        <ele>3330.22712</ele>
        <time>2026-09-03T07:42:58.000Z</time>
      </trkpt>
      <trkpt lat="46.502882" lon="10.628557">
        <ele>3330.20393</ele>
        <time>2026-09-03T07:43:02.000Z</time>
      </trkpt>
      <trkpt lat="46.502858" lon="10.628573">
        <ele>3329.63198</ele>
        <time>2026-09-03T07:44:29.999Z</time>
      </trkpt>
      <trkpt lat="46.502881" lon="10.628558">
        <ele>3329.58939</ele>
        <time>2026-09-03T07:45:20.000Z</time>
      </trkpt>
      <trkpt lat="46.50286" lon="10.628606">
        <ele>3329.55048</ele>
        <time>2026-09-03T07:45:48.999Z</time>
      </trkpt>
      <trkpt lat="46.502852" lon="10.628639">
        <ele>3329.53476</ele>
        <time>2026-09-03T07:46:06.999Z</time>
      </trkpt>
      <trkpt lat="46.502865" lon="10.628613">
        <ele>3329.85245</ele>
        <time>2026-09-03T07:46:42.000Z</time>
      </trkpt>
      <trkpt lat="46.502889" lon="10.628614">
        <ele>3324.47123</ele>
        <time>2026-09-03T07:50:37.999Z</time>
      </trkpt>
      <trkpt lat="46.502863" lon="10.628622">
        <ele>3323.93569</ele>
        <time>2026-09-03T07:52:19.999Z</time>
      </trkpt>
      <trkpt lat="46.502852" lon="10.62859">
        <ele>3323.9052</ele>
        <time>2026-09-03T07:52:48.999Z</time>
      </trkpt>
      <trkpt lat="46.502849" lon="10.628551">
        <ele>3324.25427</ele>
        <time>2026-09-03T07:53:19.000Z</time>
      </trkpt>
      <trkpt lat="46.502874" lon="10.628544">
        <ele>3325.089</ele>
        <time>2026-09-03T07:53:59.000Z</time>
      </trkpt>
      <trkpt lat="46.502852" lon="10.628531">
        <ele>3325.14775</ele>
        <time>2026-09-03T07:54:01.000Z</time>
      </trkpt>
      <trkpt lat="46.502823" lon="10.628543">
        <ele>3325.20654</ele>
        <time>2026-09-03T07:54:03.999Z</time>
      </trkpt>
      <trkpt lat="46.5028" lon="10.628551">
        <ele>3325.23408</ele>
        <time>2026-09-03T07:54:06.999Z</time>
      </trkpt>
      <trkpt lat="46.502817" lon="10.628582">
        <ele>3325.42799</ele>
        <time>2026-09-03T07:54:20.999Z</time>
      </trkpt>
      <trkpt lat="46.502827" lon="10.628625">
        <ele>3325.4748</ele>
        <time>2026-09-03T07:54:24.999Z</time>
      </trkpt>
      <trkpt lat="46.502852" lon="10.628623">
        <ele>3325.50289</ele>
        <time>2026-09-03T07:54:27.999Z</time>
      </trkpt>
      <trkpt lat="46.502835" lon="10.628589">
        <ele>3325.60283</ele>
        <time>2026-09-03T07:54:59.999Z</time>
      </trkpt>
      <trkpt lat="46.502806" lon="10.628567">
        <ele>3325.60392</ele>
        <time>2026-09-03T07:55:04.000Z</time>
      </trkpt>
      <trkpt lat="46.502781" lon="10.628554">
        <ele>3325.63264</ele>
        <time>2026-09-03T07:56:03.999Z</time>
      </trkpt>
      <trkpt lat="46.502801" lon="10.62857">
        <ele>3325.65864</ele>
        <time>2026-09-03T07:56:15.999Z</time>
      </trkpt>
      <trkpt lat="46.502776" lon="10.628555">
        <ele>3325.78154</ele>
        <time>2026-09-03T07:57:07.999Z</time>
      </trkpt>
      <trkpt lat="46.502785" lon="10.62859">
        <ele>3325.79355</ele>
        <time>2026-09-03T07:57:09.999Z</time>
      </trkpt>
      <trkpt lat="46.502798" lon="10.62856">
        <ele>3325.81379</ele>
        <time>2026-09-03T07:57:15.999Z</time>
      </trkpt>
      <trkpt lat="46.50277" lon="10.628573">
        <ele>3325.88393</ele>
        <time>2026-09-03T07:57:46.999Z</time>
      </trkpt>
      <trkpt lat="46.50275" lon="10.628553">
        <ele>3325.88217</ele>
        <time>2026-09-03T07:57:57.999Z</time>
      </trkpt>
      <trkpt lat="46.502733" lon="10.628504">
        <ele>3325.86148</ele>
        <time>2026-09-03T07:58:02.999Z</time>
      </trkpt>
      <trkpt lat="46.502708" lon="10.62851">
        <ele>3325.80041</ele>
        <time>2026-09-03T07:58:09.999Z</time>
      </trkpt>
      <trkpt lat="46.502728" lon="10.628488">
        <ele>3325.36184</ele>
        <time>2026-09-03T07:58:55.999Z</time>
      </trkpt>
      <trkpt lat="46.502738" lon="10.628519">
        <ele>3324.99071</ele>
        <time>2026-09-03T07:59:18.999Z</time>
      </trkpt>
      <trkpt lat="46.502764" lon="10.62849">
        <ele>3324.95234</ele>
        <time>2026-09-03T07:59:22.999Z</time>
      </trkpt>
      <trkpt lat="46.502788" lon="10.628471">
        <ele>3324.93906</ele>
        <time>2026-09-03T07:59:24.999Z</time>
      </trkpt>
      <trkpt lat="46.502802" lon="10.628506">
        <ele>3324.93971</ele>
        <time>2026-09-03T07:59:28.999Z</time>
      </trkpt>
      <trkpt lat="46.502818" lon="10.628548">
        <ele>3324.95808</ele>
        <time>2026-09-03T07:59:33.999Z</time>
      </trkpt>
      <trkpt lat="46.502842" lon="10.628573">
        <ele>3324.97511</ele>
        <time>2026-09-03T07:59:37.999Z</time>
      </trkpt>
      <trkpt lat="46.50286" lon="10.628601">
        <ele>3325.1513</ele>
        <time>2026-09-03T07:59:48.000Z</time>
      </trkpt>
      <trkpt lat="46.502876" lon="10.628627">
        <ele>3325.60608</ele>
        <time>2026-09-03T07:59:56.000Z</time>
      </trkpt>
      <trkpt lat="46.502886" lon="10.628583">
        <ele>3326.27382</ele>
        <time>2026-09-03T08:00:01.000Z</time>
      </trkpt>
      <trkpt lat="46.502871" lon="10.628556">
        <ele>3326.36534</ele>
        <time>2026-09-03T08:00:02.000Z</time>
      </trkpt>
      <trkpt lat="46.502846" lon="10.628546">
        <ele>3326.74883</ele>
        <time>2026-09-03T08:00:10.000Z</time>
      </trkpt>
      <trkpt lat="46.502869" lon="10.628545">
        <ele>3327.36877</ele>
        <time>2026-09-03T08:00:25.000Z</time>
      </trkpt>
      <trkpt lat="46.502873" lon="10.628578">
        <ele>3327.71622</ele>
        <time>2026-09-03T08:00:30.000Z</time>
      </trkpt>
      <trkpt lat="46.502866" lon="10.628543">
        <ele>3328.06679</ele>
        <time>2026-09-03T08:00:40.999Z</time>
      </trkpt>
      <trkpt lat="46.502847" lon="10.628565">
        <ele>3327.86815</ele>
        <time>2026-09-03T08:02:02.000Z</time>
      </trkpt>
      <trkpt lat="46.502878" lon="10.628566">
        <ele>3327.87567</ele>
        <time>2026-09-03T08:03:54.000Z</time>
      </trkpt>
      <trkpt lat="46.502857" lon="10.628587">
        <ele>3327.87739</ele>
        <time>2026-09-03T08:03:58.000Z</time>
      </trkpt>
      <trkpt lat="46.502832" lon="10.628565">
        <ele>3328.27061</ele>
        <time>2026-09-03T08:05:15.000Z</time>
      </trkpt>
      <trkpt lat="46.502821" lon="10.628601">
        <ele>3328.2666</ele>
        <time>2026-09-03T08:05:18.000Z</time>
      </trkpt>
      <trkpt lat="46.502841" lon="10.628563">
        <ele>3328.18666</ele>
        <time>2026-09-03T08:05:37.001Z</time>
      </trkpt>
      <trkpt lat="46.50282" lon="10.628575">
        <ele>3328.17823</ele>
        <time>2026-09-03T08:05:39.001Z</time>
      </trkpt>
      <trkpt lat="46.502806" lon="10.628549">
        <ele>3328.43549</ele>
        <time>2026-09-03T08:06:29.000Z</time>
      </trkpt>
      <trkpt lat="46.502805" lon="10.628582">
        <ele>3329.66635</ele>
        <time>2026-09-03T08:07:00.000Z</time>
      </trkpt>
      <trkpt lat="46.502801" lon="10.628548">
        <ele>3329.74957</ele>
        <time>2026-09-03T08:07:18.000Z</time>
      </trkpt>
      <trkpt lat="46.502787" lon="10.628508">
        <ele>3329.75022</ele>
        <time>2026-09-03T08:07:24.000Z</time>
      </trkpt>
      <trkpt lat="46.502761" lon="10.628501">
        <ele>3329.73055</ele>
        <time>2026-09-03T08:07:29.000Z</time>
      </trkpt>
      <trkpt lat="46.502734" lon="10.628513">
        <ele>3329.67853</ele>
        <time>2026-09-03T08:07:33.000Z</time>
      </trkpt>
      <trkpt lat="46.502769" lon="10.628509">
        <ele>3327.29939</ele>
        <time>2026-09-03T08:08:20.000Z</time>
      </trkpt>
      <trkpt lat="46.502739" lon="10.628516">
        <ele>3325.88865</ele>
        <time>2026-09-03T08:08:55.000Z</time>
      </trkpt>
      <trkpt lat="46.502741" lon="10.628549">
        <ele>3325.84561</ele>
        <time>2026-09-03T08:09:01.000Z</time>
      </trkpt>
      <trkpt lat="46.502722" lon="10.628517">
        <ele>3325.85475</ele>
        <time>2026-09-03T08:09:04.000Z</time>
      </trkpt>
      <trkpt lat="46.502717" lon="10.628485">
        <ele>3325.43877</ele>
        <time>2026-09-03T08:10:11.000Z</time>
      </trkpt>
      <trkpt lat="46.502698" lon="10.628508">
        <ele>3325.41864</ele>
        <time>2026-09-03T08:10:17.000Z</time>
      </trkpt>
      <trkpt lat="46.502671" lon="10.628495">
        <ele>3325.40464</ele>
        <time>2026-09-03T08:10:20.000Z</time>
      </trkpt>
      <trkpt lat="46.50265" lon="10.628519">
        <ele>3325.40016</ele>
        <time>2026-09-03T08:10:24.000Z</time>
      </trkpt>
      <trkpt lat="46.502628" lon="10.628534">
        <ele>3325.39566</ele>
        <time>2026-09-03T08:10:26.000Z</time>
      </trkpt>
      <trkpt lat="46.502618" lon="10.628583">
        <ele>3325.36755</ele>
        <time>2026-09-03T08:10:34.000Z</time>
      </trkpt>
      <trkpt lat="46.502594" lon="10.628575">
        <ele>3325.32703</ele>
        <time>2026-09-03T08:10:37.000Z</time>
      </trkpt>
      <trkpt lat="46.502573" lon="10.628546">
        <ele>3325.25119</ele>
        <time>2026-09-03T08:10:40.000Z</time>
      </trkpt>
      <trkpt lat="46.502542" lon="10.628552">
        <ele>3325.01784</ele>
        <time>2026-09-03T08:10:46.000Z</time>
      </trkpt>
      <trkpt lat="46.502537" lon="10.628517">
        <ele>3324.69401</ele>
        <time>2026-09-03T08:10:50.000Z</time>
      </trkpt>
      <trkpt lat="46.50253" lon="10.628482">
        <ele>3324.42195</ele>
        <time>2026-09-03T08:10:52.000Z</time>
      </trkpt>
      <trkpt lat="46.502516" lon="10.628454">
        <ele>3324.12627</ele>
        <time>2026-09-03T08:10:54.000Z</time>
      </trkpt>
      <trkpt lat="46.502505" lon="10.628419">
        <ele>3323.79854</ele>
        <time>2026-09-03T08:10:56.000Z</time>
      </trkpt>
      <trkpt lat="46.502477" lon="10.628404">
        <ele>3323.22557</ele>
        <time>2026-09-03T08:10:59.000Z</time>
      </trkpt>
      <trkpt lat="46.502457" lon="10.628422">
        <ele>3322.90756</ele>
        <time>2026-09-03T08:11:01.000Z</time>
      </trkpt>
      <trkpt lat="46.502432" lon="10.628423">
        <ele>3322.31163</ele>
        <time>2026-09-03T08:11:05.000Z</time>
      </trkpt>
      <trkpt lat="46.502406" lon="10.628439">
        <ele>3321.62571</ele>
        <time>2026-09-03T08:11:09.000Z</time>
      </trkpt>
      <trkpt lat="46.502385" lon="10.628425">
        <ele>3320.93649</ele>
        <time>2026-09-03T08:11:12.000Z</time>
      </trkpt>
      <trkpt lat="46.50237" lon="10.628392">
        <ele>3319.97337</ele>
        <time>2026-09-03T08:11:15.000Z</time>
      </trkpt>
      <trkpt lat="46.502342" lon="10.628406">
        <ele>3318.79336</ele>
        <time>2026-09-03T08:11:19.000Z</time>
      </trkpt>
      <trkpt lat="46.502316" lon="10.6284">
        <ele>3317.87458</ele>
        <time>2026-09-03T08:11:23.000Z</time>
      </trkpt>
      <trkpt lat="46.502293" lon="10.628381">
        <ele>3316.1006</ele>
        <time>2026-09-03T08:11:30.999Z</time>
      </trkpt>
      <trkpt lat="46.502269" lon="10.628383">
        <ele>3315.41483</ele>
        <time>2026-09-03T08:11:34.999Z</time>
      </trkpt>
      <trkpt lat="46.502247" lon="10.628391">
        <ele>3314.69231</ele>
        <time>2026-09-03T08:11:38.999Z</time>
      </trkpt>
      <trkpt lat="46.502219" lon="10.628387">
        <ele>3314.20373</ele>
        <time>2026-09-03T08:11:42.999Z</time>
      </trkpt>
      <trkpt lat="46.502196" lon="10.628363">
        <ele>3313.73667</ele>
        <time>2026-09-03T08:11:45.999Z</time>
      </trkpt>
      <trkpt lat="46.502176" lon="10.628392">
        <ele>3313.09935</ele>
        <time>2026-09-03T08:11:51.000Z</time>
      </trkpt>
      <trkpt lat="46.502149" lon="10.6284">
        <ele>3311.358</ele>
        <time>2026-09-03T08:11:59.000Z</time>
      </trkpt>
      <trkpt lat="46.50213" lon="10.628367">
        <ele>3310.61226</ele>
        <time>2026-09-03T08:12:02.000Z</time>
      </trkpt>
      <trkpt lat="46.50212" lon="10.62833">
        <ele>3310.11641</ele>
        <time>2026-09-03T08:12:05.000Z</time>
      </trkpt>
      <trkpt lat="46.502097" lon="10.628343">
        <ele>3309.62836</ele>
        <time>2026-09-03T08:12:09.000Z</time>
      </trkpt>
      <trkpt lat="46.502061" lon="10.628342">
        <ele>3308.94264</ele>
        <time>2026-09-03T08:12:14.000Z</time>
      </trkpt>
      <trkpt lat="46.50204" lon="10.628324">
        <ele>3308.52677</ele>
        <time>2026-09-03T08:12:16.000Z</time>
      </trkpt>
      <trkpt lat="46.502016" lon="10.628319">
        <ele>3306.95414</ele>
        <time>2026-09-03T08:12:21.000Z</time>
      </trkpt>
      <trkpt lat="46.501985" lon="10.62833">
        <ele>3305.91403</ele>
        <time>2026-09-03T08:12:24.000Z</time>
      </trkpt>
      <trkpt lat="46.501958" lon="10.628324">
        <ele>3305.00361</ele>
        <time>2026-09-03T08:12:27.000Z</time>
      </trkpt>
      <trkpt lat="46.501934" lon="10.628348">
        <ele>3303.67014</ele>
        <time>2026-09-03T08:12:32.000Z</time>
      </trkpt>
      <trkpt lat="46.501907" lon="10.62837">
        <ele>3302.48666</ele>
        <time>2026-09-03T08:12:36.000Z</time>
      </trkpt>
      <trkpt lat="46.501891" lon="10.62834">
        <ele>3300.91348</ele>
        <time>2026-09-03T08:12:41.000Z</time>
      </trkpt>
      <trkpt lat="46.501876" lon="10.628311">
        <ele>3299.79578</ele>
        <time>2026-09-03T08:12:45.000Z</time>
      </trkpt>
      <trkpt lat="46.501861" lon="10.628285">
        <ele>3299.21492</ele>
        <time>2026-09-03T08:12:48.000Z</time>
      </trkpt>
      <trkpt lat="46.501838" lon="10.628271">
        <ele>3297.73451</ele>
        <time>2026-09-03T08:12:54.000Z</time>
      </trkpt>
      <trkpt lat="46.501822" lon="10.628304">
        <ele>3296.19092</ele>
        <time>2026-09-03T08:13:02.000Z</time>
      </trkpt>
      <trkpt lat="46.501795" lon="10.628313">
        <ele>3295.04612</ele>
        <time>2026-09-03T08:13:09.999Z</time>
      </trkpt>
      <trkpt lat="46.501772" lon="10.628282">
        <ele>3293.7006</ele>
        <time>2026-09-03T08:13:16.999Z</time>
      </trkpt>
      <trkpt lat="46.501769" lon="10.628247">
        <ele>3293.33483</ele>
        <time>2026-09-03T08:13:18.999Z</time>
      </trkpt>
      <trkpt lat="46.501748" lon="10.628269">
        <ele>3292.61858</ele>
        <time>2026-09-03T08:13:22.999Z</time>
      </trkpt>
      <trkpt lat="46.50173" lon="10.628299">
        <ele>3292.27363</ele>
        <time>2026-09-03T08:13:24.999Z</time>
      </trkpt>
      <trkpt lat="46.501733" lon="10.628338">
        <ele>3291.48005</ele>
        <time>2026-09-03T08:13:28.999Z</time>
      </trkpt>
      <trkpt lat="46.501707" lon="10.628337">
        <ele>3290.29647</ele>
        <time>2026-09-03T08:13:34.999Z</time>
      </trkpt>
      <trkpt lat="46.501702" lon="10.628299">
        <ele>3289.43369</ele>
        <time>2026-09-03T08:13:37.999Z</time>
      </trkpt>
      <trkpt lat="46.501678" lon="10.628306">
        <ele>3288.69589</ele>
        <time>2026-09-03T08:13:40.999Z</time>
      </trkpt>
      <trkpt lat="46.501653" lon="10.628298">
        <ele>3286.72284</ele>
        <time>2026-09-03T08:13:46.999Z</time>
      </trkpt>
      <trkpt lat="46.501631" lon="10.628349">
        <ele>3285.42575</ele>
        <time>2026-09-03T08:13:51.999Z</time>
      </trkpt>
      <trkpt lat="46.501629" lon="10.628386">
        <ele>3283.92752</ele>
        <time>2026-09-03T08:13:56.000Z</time>
      </trkpt>
      <trkpt lat="46.501609" lon="10.628415">
        <ele>3282.218</ele>
        <time>2026-09-03T08:14:01.000Z</time>
      </trkpt>
      <trkpt lat="46.501601" lon="10.628461">
        <ele>3281.50534</ele>
        <time>2026-09-03T08:14:04.000Z</time>
      </trkpt>
      <trkpt lat="46.501596" lon="10.628497">
        <ele>3280.36471</ele>
        <time>2026-09-03T08:14:08.000Z</time>
      </trkpt>
      <trkpt lat="46.501598" lon="10.628546">
        <ele>3278.82931</ele>
        <time>2026-09-03T08:14:14.000Z</time>
      </trkpt>
      <trkpt lat="46.5016" lon="10.628579">
        <ele>3278.15641</ele>
        <time>2026-09-03T08:14:17.000Z</time>
      </trkpt>
      <trkpt lat="46.501574" lon="10.628581">
        <ele>3277.72788</ele>
        <time>2026-09-03T08:14:19.000Z</time>
      </trkpt>
      <trkpt lat="46.50155" lon="10.628572">
        <ele>3276.87607</ele>
        <time>2026-09-03T08:14:24.000Z</time>
      </trkpt>
      <trkpt lat="46.501526" lon="10.628544">
        <ele>3276.53491</ele>
        <time>2026-09-03T08:14:28.000Z</time>
      </trkpt>
      <trkpt lat="46.501506" lon="10.628519">
        <ele>3276.2466</ele>
        <time>2026-09-03T08:14:32.000Z</time>
      </trkpt>
      <trkpt lat="46.501482" lon="10.628498">
        <ele>3275.97656</ele>
        <time>2026-09-03T08:14:36.000Z</time>
      </trkpt>
      <trkpt lat="46.501464" lon="10.628466">
        <ele>3275.66622</ele>
        <time>2026-09-03T08:14:40.000Z</time>
      </trkpt>
      <trkpt lat="46.501443" lon="10.628498">
        <ele>3275.35774</ele>
        <time>2026-09-03T08:14:43.000Z</time>
      </trkpt>
      <trkpt lat="46.501418" lon="10.628522">
        <ele>3274.87584</ele>
        <time>2026-09-03T08:14:46.000Z</time>
      </trkpt>
      <trkpt lat="46.501409" lon="10.628564">
        <ele>3274.23243</ele>
        <time>2026-09-03T08:14:49.000Z</time>
      </trkpt>
      <trkpt lat="46.501405" lon="10.6286">
        <ele>3273.71333</ele>
        <time>2026-09-03T08:14:51.000Z</time>
      </trkpt>
      <trkpt lat="46.501382" lon="10.62859">
        <ele>3273.05449</ele>
        <time>2026-09-03T08:14:55.000Z</time>
      </trkpt>
      <trkpt lat="46.501359" lon="10.628563">
        <ele>3271.65034</ele>
        <time>2026-09-03T08:14:59.000Z</time>
      </trkpt>
      <trkpt lat="46.501363" lon="10.628528">
        <ele>3271.13276</ele>
        <time>2026-09-03T08:15:01.000Z</time>
      </trkpt>
      <trkpt lat="46.501359" lon="10.62849">
        <ele>3270.45576</ele>
        <time>2026-09-03T08:15:03.999Z</time>
      </trkpt>
      <trkpt lat="46.50134" lon="10.628471">
        <ele>3270.02589</ele>
        <time>2026-09-03T08:15:05.999Z</time>
      </trkpt>
      <trkpt lat="46.501309" lon="10.628444">
        <ele>3269.25804</ele>
        <time>2026-09-03T08:15:09.999Z</time>
      </trkpt>
      <trkpt lat="46.501291" lon="10.628473">
        <ele>3268.90067</ele>
        <time>2026-09-03T08:15:12.999Z</time>
      </trkpt>
      <trkpt lat="46.501265" lon="10.628459">
        <ele>3268.46171</ele>
        <time>2026-09-03T08:15:16.999Z</time>
      </trkpt>
      <trkpt lat="46.501252" lon="10.62849">
        <ele>3268.4119</ele>
        <time>2026-09-03T08:15:18.999Z</time>
      </trkpt>
      <trkpt lat="46.501237" lon="10.62855">
        <ele>3268.07631</ele>
        <time>2026-09-03T08:15:20.999Z</time>
      </trkpt>
      <trkpt lat="46.501219" lon="10.628506">
        <ele>3266.99169</ele>
        <time>2026-09-03T08:15:26.999Z</time>
      </trkpt>
      <trkpt lat="46.501196" lon="10.628522">
        <ele>3265.99516</ele>
        <time>2026-09-03T08:15:29.999Z</time>
      </trkpt>
      <trkpt lat="46.501187" lon="10.628558">
        <ele>3264.61174</ele>
        <time>2026-09-03T08:15:32.999Z</time>
      </trkpt>
      <trkpt lat="46.50116" lon="10.628579">
        <ele>3263.40408</ele>
        <time>2026-09-03T08:15:35.999Z</time>
      </trkpt>
      <trkpt lat="46.50113" lon="10.628596">
        <ele>3261.61703</ele>
        <time>2026-09-03T08:15:39.999Z</time>
      </trkpt>
      <trkpt lat="46.501109" lon="10.628575">
        <ele>3259.71337</ele>
        <time>2026-09-03T08:15:43.999Z</time>
      </trkpt>
      <trkpt lat="46.501085" lon="10.62858">
        <ele>3258.52344</ele>
        <time>2026-09-03T08:15:46.999Z</time>
      </trkpt>
      <trkpt lat="46.501061" lon="10.628579">
        <ele>3257.10419</ele>
        <time>2026-09-03T08:15:52.999Z</time>
      </trkpt>
      <trkpt lat="46.501041" lon="10.628595">
        <ele>3256.87864</ele>
        <time>2026-09-03T08:15:54.999Z</time>
      </trkpt>
      <trkpt lat="46.501019" lon="10.62862">
        <ele>3255.73816</ele>
        <time>2026-09-03T08:16:01.000Z</time>
      </trkpt>
      <trkpt lat="46.500991" lon="10.628606">
        <ele>3255.51388</ele>
        <time>2026-09-03T08:16:03.000Z</time>
      </trkpt>
      <trkpt lat="46.500988" lon="10.628642">
        <ele>3254.83669</ele>
        <time>2026-09-03T08:16:07.000Z</time>
      </trkpt>
      <trkpt lat="46.500962" lon="10.62863">
        <ele>3254.07195</ele>
        <time>2026-09-03T08:16:12.000Z</time>
      </trkpt>
      <trkpt lat="46.500929" lon="10.628645">
        <ele>3253.54326</ele>
        <time>2026-09-03T08:16:15.000Z</time>
      </trkpt>
      <trkpt lat="46.500913" lon="10.628675">
        <ele>3253.17674</ele>
        <time>2026-09-03T08:16:17.000Z</time>
      </trkpt>
      <trkpt lat="46.500884" lon="10.628672">
        <ele>3252.05889</ele>
        <time>2026-09-03T08:16:22.000Z</time>
      </trkpt>
      <trkpt lat="46.500873" lon="10.628712">
        <ele>3251.71859</ele>
        <time>2026-09-03T08:16:24.000Z</time>
      </trkpt>
      <trkpt lat="46.50085" lon="10.628722">
        <ele>3251.47416</ele>
        <time>2026-09-03T08:16:26.000Z</time>
      </trkpt>
      <trkpt lat="46.500825" lon="10.6287">
        <ele>3250.73063</ele>
        <time>2026-09-03T08:16:29.000Z</time>
      </trkpt>
      <trkpt lat="46.500793" lon="10.628679">
        <ele>3250.28281</ele>
        <time>2026-09-03T08:16:32.000Z</time>
      </trkpt>
      <trkpt lat="46.500767" lon="10.628689">
        <ele>3249.98421</ele>
        <time>2026-09-03T08:16:34.000Z</time>
      </trkpt>
      <trkpt lat="46.500742" lon="10.628696">
        <ele>3249.708</ele>
        <time>2026-09-03T08:16:36.000Z</time>
      </trkpt>
      <trkpt lat="46.500722" lon="10.628717">
        <ele>3249.47124</ele>
        <time>2026-09-03T08:16:38.000Z</time>
      </trkpt>
      <trkpt lat="46.500695" lon="10.628719">
        <ele>3248.90653</ele>
        <time>2026-09-03T08:16:42.000Z</time>
      </trkpt>
      <trkpt lat="46.500666" lon="10.628716">
        <ele>3248.76695</ele>
        <time>2026-09-03T08:16:44.000Z</time>
      </trkpt>
      <trkpt lat="46.500637" lon="10.628719">
        <ele>3248.6814</ele>
        <time>2026-09-03T08:16:46.000Z</time>
      </trkpt>
      <trkpt lat="46.500614" lon="10.628743">
        <ele>3248.56512</ele>
        <time>2026-09-03T08:16:48.000Z</time>
      </trkpt>
      <trkpt lat="46.500587" lon="10.628752">
        <ele>3248.07697</ele>
        <time>2026-09-03T08:16:51.000Z</time>
      </trkpt>
      <trkpt lat="46.500555" lon="10.628739">
        <ele>3247.732</ele>
        <time>2026-09-03T08:16:53.000Z</time>
      </trkpt>
      <trkpt lat="46.500544" lon="10.628708">
        <ele>3247.5555</ele>
        <time>2026-09-03T08:16:55.000Z</time>
      </trkpt>
      <trkpt lat="46.500525" lon="10.628687">
        <ele>3247.32581</ele>
        <time>2026-09-03T08:16:59.000Z</time>
      </trkpt>
      <trkpt lat="46.500515" lon="10.628656">
        <ele>3248.13516</ele>
        <time>2026-09-03T08:17:18.999Z</time>
      </trkpt>
      <trkpt lat="46.500488" lon="10.628647">
        <ele>3248.06383</ele>
        <time>2026-09-03T08:17:22.999Z</time>
      </trkpt>
      <trkpt lat="46.500462" lon="10.628654">
        <ele>3248.05201</ele>
        <time>2026-09-03T08:17:27.999Z</time>
      </trkpt>
      <trkpt lat="46.500448" lon="10.628684">
        <ele>3247.99555</ele>
        <time>2026-09-03T08:17:30.999Z</time>
      </trkpt>
      <trkpt lat="46.500429" lon="10.628703">
        <ele>3247.9139</ele>
        <time>2026-09-03T08:17:33.999Z</time>
      </trkpt>
      <trkpt lat="46.500403" lon="10.628698">
        <ele>3247.34711</ele>
        <time>2026-09-03T08:17:39.999Z</time>
      </trkpt>
      <trkpt lat="46.500387" lon="10.628664">
        <ele>3246.37774</ele>
        <time>2026-09-03T08:17:45.999Z</time>
      </trkpt>
      <trkpt lat="46.500371" lon="10.628617">
        <ele>3246.03552</ele>
        <time>2026-09-03T08:17:47.999Z</time>
      </trkpt>
      <trkpt lat="46.500367" lon="10.628654">
        <ele>3245.69131</ele>
        <time>2026-09-03T08:17:49.999Z</time>
      </trkpt>
      <trkpt lat="46.500345" lon="10.628681">
        <ele>3244.8412</ele>
        <time>2026-09-03T08:17:53.999Z</time>
      </trkpt>
      <trkpt lat="46.500326" lon="10.62866">
        <ele>3243.35093</ele>
        <time>2026-09-03T08:17:59.999Z</time>
      </trkpt>
      <trkpt lat="46.500315" lon="10.628698">
        <ele>3240.62857</ele>
        <time>2026-09-03T08:18:07.000Z</time>
      </trkpt>
      <trkpt lat="46.500292" lon="10.628695">
        <ele>3238.81101</ele>
        <time>2026-09-03T08:18:12.000Z</time>
      </trkpt>
      <trkpt lat="46.500287" lon="10.628732">
        <ele>3237.03902</ele>
        <time>2026-09-03T08:18:20.000Z</time>
      </trkpt>
      <trkpt lat="46.500266" lon="10.628745">
        <ele>3236.0171</ele>
        <time>2026-09-03T08:18:26.000Z</time>
      </trkpt>
      <trkpt lat="46.500253" lon="10.628774">
        <ele>3234.89168</ele>
        <time>2026-09-03T08:18:34.000Z</time>
      </trkpt>
      <trkpt lat="46.500259" lon="10.628806">
        <ele>3234.54719</ele>
        <time>2026-09-03T08:18:37.000Z</time>
      </trkpt>
      <trkpt lat="46.500266" lon="10.628838">
        <ele>3234.30571</ele>
        <time>2026-09-03T08:18:39.000Z</time>
      </trkpt>
      <trkpt lat="46.500287" lon="10.628862">
        <ele>3231.87137</ele>
        <time>2026-09-03T08:19:00.000Z</time>
      </trkpt>
      <trkpt lat="46.500275" lon="10.628895">
        <ele>3231.53221</ele>
        <time>2026-09-03T08:19:07.000Z</time>
      </trkpt>
      <trkpt lat="46.500288" lon="10.628928">
        <ele>3231.34351</ele>
        <time>2026-09-03T08:19:10.000Z</time>
      </trkpt>
      <trkpt lat="46.500252" lon="10.628923">
        <ele>3230.32328</ele>
        <time>2026-09-03T08:19:22.999Z</time>
      </trkpt>
      <trkpt lat="46.500272" lon="10.628943">
        <ele>3228.88433</ele>
        <time>2026-09-03T08:19:27.999Z</time>
      </trkpt>
      <trkpt lat="46.500245" lon="10.628951">
        <ele>3227.2184</ele>
        <time>2026-09-03T08:19:32.999Z</time>
      </trkpt>
      <trkpt lat="46.500236" lon="10.628984">
        <ele>3225.95291</ele>
        <time>2026-09-03T08:19:38.999Z</time>
      </trkpt>
      <trkpt lat="46.500227" lon="10.629014">
        <ele>3225.19837</ele>
        <time>2026-09-03T08:19:44.999Z</time>
      </trkpt>
      <trkpt lat="46.500206" lon="10.629001">
        <ele>3221.70616</ele>
        <time>2026-09-03T08:20:13.000Z</time>
      </trkpt>
      <trkpt lat="46.500183" lon="10.629008">
        <ele>3221.25941</ele>
        <time>2026-09-03T08:20:20.000Z</time>
      </trkpt>
      <trkpt lat="46.500155" lon="10.629008">
        <ele>3220.76408</ele>
        <time>2026-09-03T08:20:27.000Z</time>
      </trkpt>
      <trkpt lat="46.500132" lon="10.629016">
        <ele>3220.04448</ele>
        <time>2026-09-03T08:20:34.000Z</time>
      </trkpt>
      <trkpt lat="46.500135" lon="10.629048">
        <ele>3218.71484</ele>
        <time>2026-09-03T08:20:45.000Z</time>
      </trkpt>
      <trkpt lat="46.500114" lon="10.629062">
        <ele>3217.4342</ele>
        <time>2026-09-03T08:21:03.000Z</time>
      </trkpt>
      <trkpt lat="46.500086" lon="10.629048">
        <ele>3217.0312</ele>
        <time>2026-09-03T08:21:07.000Z</time>
      </trkpt>
      <trkpt lat="46.500058" lon="10.629046">
        <ele>3216.11324</ele>
        <time>2026-09-03T08:21:12.000Z</time>
      </trkpt>
      <trkpt lat="46.500043" lon="10.629012">
        <ele>3215.32912</ele>
        <time>2026-09-03T08:21:15.000Z</time>
      </trkpt>
      <trkpt lat="46.500024" lon="10.62899">
        <ele>3214.84673</ele>
        <time>2026-09-03T08:21:17.000Z</time>
      </trkpt>
      <trkpt lat="46.49999" lon="10.628978">
        <ele>3213.87701</ele>
        <time>2026-09-03T08:21:21.000Z</time>
      </trkpt>
      <trkpt lat="46.499973" lon="10.628947">
        <ele>3213.37506</ele>
        <time>2026-09-03T08:21:23.000Z</time>
      </trkpt>
      <trkpt lat="46.499956" lon="10.62892">
        <ele>3212.60339</ele>
        <time>2026-09-03T08:21:26.000Z</time>
      </trkpt>
      <trkpt lat="46.499945" lon="10.628963">
        <ele>3211.20733</ele>
        <time>2026-09-03T08:21:31.000Z</time>
      </trkpt>
      <trkpt lat="46.499926" lon="10.628942">
        <ele>3210.55315</ele>
        <time>2026-09-03T08:21:33.999Z</time>
      </trkpt>
      <trkpt lat="46.499912" lon="10.628905">
        <ele>3209.27758</ele>
        <time>2026-09-03T08:21:37.999Z</time>
      </trkpt>
      <trkpt lat="46.499899" lon="10.628877">
        <ele>3208.72405</ele>
        <time>2026-09-03T08:21:39.999Z</time>
      </trkpt>
      <trkpt lat="46.499887" lon="10.62891">
        <ele>3207.37541</ele>
        <time>2026-09-03T08:21:44.999Z</time>
      </trkpt>
      <trkpt lat="46.499889" lon="10.628943">
        <ele>3206.56424</ele>
        <time>2026-09-03T08:21:47.999Z</time>
      </trkpt>
      <trkpt lat="46.499873" lon="10.628973">
        <ele>3205.74245</ele>
        <time>2026-09-03T08:21:50.999Z</time>
      </trkpt>
      <trkpt lat="46.49986" lon="10.628943">
        <ele>3204.90823</ele>
        <time>2026-09-03T08:21:53.999Z</time>
      </trkpt>
      <trkpt lat="46.499845" lon="10.628968">
        <ele>3203.98708</ele>
        <time>2026-09-03T08:21:57.999Z</time>
      </trkpt>
      <trkpt lat="46.49983" lon="10.628937">
        <ele>3203.21877</ele>
        <time>2026-09-03T08:22:01.999Z</time>
      </trkpt>
      <trkpt lat="46.499822" lon="10.628904">
        <ele>3202.68373</ele>
        <time>2026-09-03T08:22:04.999Z</time>
      </trkpt>
      <trkpt lat="46.499796" lon="10.628903">
        <ele>3201.65078</ele>
        <time>2026-09-03T08:22:08.999Z</time>
      </trkpt>
      <trkpt lat="46.499771" lon="10.628914">
        <ele>3201.00462</ele>
        <time>2026-09-03T08:22:11.999Z</time>
      </trkpt>
      <trkpt lat="46.499771" lon="10.628963">
        <ele>3200.30166</ele>
        <time>2026-09-03T08:22:15.999Z</time>
      </trkpt>
      <trkpt lat="46.499769" lon="10.629">
        <ele>3199.05576</ele>
        <time>2026-09-03T08:22:21.000Z</time>
      </trkpt>
      <trkpt lat="46.499753" lon="10.629027">
        <ele>3198.30354</ele>
        <time>2026-09-03T08:22:24.000Z</time>
      </trkpt>
      <trkpt lat="46.499727" lon="10.62901">
        <ele>3196.43771</ele>
        <time>2026-09-03T08:22:36.000Z</time>
      </trkpt>
      <trkpt lat="46.499717" lon="10.629054">
        <ele>3196.158</ele>
        <time>2026-09-03T08:22:40.000Z</time>
      </trkpt>
      <trkpt lat="46.499694" lon="10.629053">
        <ele>3195.2577</ele>
        <time>2026-09-03T08:22:45.000Z</time>
      </trkpt>
      <trkpt lat="46.499674" lon="10.629019">
        <ele>3194.15812</ele>
        <time>2026-09-03T08:22:49.000Z</time>
      </trkpt>
      <trkpt lat="46.499643" lon="10.629034">
        <ele>3192.74435</ele>
        <time>2026-09-03T08:22:54.000Z</time>
      </trkpt>
      <trkpt lat="46.499621" lon="10.629">
        <ele>3190.70968</ele>
        <time>2026-09-03T08:23:01.000Z</time>
      </trkpt>
      <trkpt lat="46.49961" lon="10.628965">
        <ele>3189.18099</ele>
        <time>2026-09-03T08:23:05.000Z</time>
      </trkpt>
      <trkpt lat="46.499601" lon="10.62893">
        <ele>3188.43554</ele>
        <time>2026-09-03T08:23:08.000Z</time>
      </trkpt>
      <trkpt lat="46.499577" lon="10.628931">
        <ele>3187.58389</ele>
        <time>2026-09-03T08:23:11.000Z</time>
      </trkpt>
      <trkpt lat="46.499557" lon="10.628916">
        <ele>3186.65298</ele>
        <time>2026-09-03T08:23:14.000Z</time>
      </trkpt>
      <trkpt lat="46.49955" lon="10.628954">
        <ele>3185.77508</ele>
        <time>2026-09-03T08:23:17.000Z</time>
      </trkpt>
      <trkpt lat="46.499529" lon="10.628987">
        <ele>3184.74237</ele>
        <time>2026-09-03T08:23:20.000Z</time>
      </trkpt>
      <trkpt lat="46.499518" lon="10.629018">
        <ele>3184.14229</ele>
        <time>2026-09-03T08:23:22.000Z</time>
      </trkpt>
      <trkpt lat="46.499492" lon="10.629015">
        <ele>3182.51677</ele>
        <time>2026-09-03T08:23:27.000Z</time>
      </trkpt>
      <trkpt lat="46.499484" lon="10.62905">
        <ele>3179.36637</ele>
        <time>2026-09-03T08:23:30.000Z</time>
      </trkpt>
      <trkpt lat="46.499456" lon="10.629035">
        <ele>3175.1102</ele>
        <time>2026-09-03T08:23:36.999Z</time>
      </trkpt>
      <trkpt lat="46.49944" lon="10.629">
        <ele>3174.05567</ele>
        <time>2026-09-03T08:23:40.999Z</time>
      </trkpt>
      <trkpt lat="46.499417" lon="10.62901">
        <ele>3173.43438</ele>
        <time>2026-09-03T08:23:46.999Z</time>
      </trkpt>
      <trkpt lat="46.4994" lon="10.629051">
        <ele>3173.17156</ele>
        <time>2026-09-03T08:23:52.999Z</time>
      </trkpt>
      <trkpt lat="46.499405" lon="10.629086">
        <ele>3173.0271</ele>
        <time>2026-09-03T08:23:55.999Z</time>
      </trkpt>
      <trkpt lat="46.499385" lon="10.629121">
        <ele>3172.67245</ele>
        <time>2026-09-03T08:23:59.999Z</time>
      </trkpt>
      <trkpt lat="46.499362" lon="10.629144">
        <ele>3172.37247</ele>
        <time>2026-09-03T08:24:03.999Z</time>
      </trkpt>
      <trkpt lat="46.49935" lon="10.629181">
        <ele>3172.10703</ele>
        <time>2026-09-03T08:24:07.999Z</time>
      </trkpt>
      <trkpt lat="46.499339" lon="10.629211">
        <ele>3171.79747</ele>
        <time>2026-09-03T08:24:10.999Z</time>
      </trkpt>
      <trkpt lat="46.499315" lon="10.629203">
        <ele>3171.4107</ele>
        <time>2026-09-03T08:24:13.999Z</time>
      </trkpt>
      <trkpt lat="46.499295" lon="10.629177">
        <ele>3170.95202</ele>
        <time>2026-09-03T08:24:16.999Z</time>
      </trkpt>
      <trkpt lat="46.499274" lon="10.629149">
        <ele>3170.2878</ele>
        <time>2026-09-03T08:24:20.999Z</time>
      </trkpt>
      <trkpt lat="46.499246" lon="10.62917">
        <ele>3169.35887</ele>
        <time>2026-09-03T08:24:25.000Z</time>
      </trkpt>
      <trkpt lat="46.499222" lon="10.629179">
        <ele>3168.65586</ele>
        <time>2026-09-03T08:24:28.000Z</time>
      </trkpt>
      <trkpt lat="46.499198" lon="10.629157">
        <ele>3167.70222</ele>
        <time>2026-09-03T08:24:32.000Z</time>
      </trkpt>
      <trkpt lat="46.499188" lon="10.629122">
        <ele>3166.76856</ele>
        <time>2026-09-03T08:24:35.000Z</time>
      </trkpt>
      <trkpt lat="46.499166" lon="10.629141">
        <ele>3165.84216</ele>
        <time>2026-09-03T08:24:38.000Z</time>
      </trkpt>
      <trkpt lat="46.499159" lon="10.629176">
        <ele>3164.65113</ele>
        <time>2026-09-03T08:24:41.000Z</time>
      </trkpt>
      <trkpt lat="46.499144" lon="10.629147">
        <ele>3163.71784</ele>
        <time>2026-09-03T08:24:43.000Z</time>
      </trkpt>
      <trkpt lat="46.499124" lon="10.629177">
        <ele>3162.0329</ele>
        <time>2026-09-03T08:24:47.000Z</time>
      </trkpt>
      <trkpt lat="46.499101" lon="10.629198">
        <ele>3161.06312</ele>
        <time>2026-09-03T08:24:50.000Z</time>
      </trkpt>
      <trkpt lat="46.499074" lon="10.629205">
        <ele>3159.30248</ele>
        <time>2026-09-03T08:24:55.000Z</time>
      </trkpt>
      <trkpt lat="46.499044" lon="10.629194">
        <ele>3158.09338</ele>
        <time>2026-09-03T08:24:59.000Z</time>
      </trkpt>
      <trkpt lat="46.499022" lon="10.629176">
        <ele>3157.10665</ele>
        <time>2026-09-03T08:25:02.000Z</time>
      </trkpt>
      <trkpt lat="46.498997" lon="10.629149">
        <ele>3156.25084</ele>
        <time>2026-09-03T08:25:05.000Z</time>
      </trkpt>
      <trkpt lat="46.498976" lon="10.629129">
        <ele>3155.51743</ele>
        <time>2026-09-03T08:25:08.000Z</time>
      </trkpt>
      <trkpt lat="46.498951" lon="10.629116">
        <ele>3154.85206</ele>
        <time>2026-09-03T08:25:11.000Z</time>
      </trkpt>
      <trkpt lat="46.498924" lon="10.629112">
        <ele>3153.7736</ele>
        <time>2026-09-03T08:25:15.000Z</time>
      </trkpt>
      <trkpt lat="46.498905" lon="10.629092">
        <ele>3152.8773</ele>
        <time>2026-09-03T08:25:19.000Z</time>
      </trkpt>
      <trkpt lat="46.498889" lon="10.629068">
        <ele>3152.33521</ele>
        <time>2026-09-03T08:25:22.000Z</time>
      </trkpt>
      <trkpt lat="46.498864" lon="10.629055">
        <ele>3151.72316</ele>
        <time>2026-09-03T08:25:25.000Z</time>
      </trkpt>
      <trkpt lat="46.498841" lon="10.629043">
        <ele>3150.81458</ele>
        <time>2026-09-03T08:25:29.000Z</time>
      </trkpt>
      <trkpt lat="46.498813" lon="10.629051">
        <ele>3150.13062</ele>
        <time>2026-09-03T08:25:32.000Z</time>
      </trkpt>
      <trkpt lat="46.49879" lon="10.629055">
        <ele>3149.7198</ele>
        <time>2026-09-03T08:25:34.000Z</time>
      </trkpt>
      <trkpt lat="46.498766" lon="10.629063">
        <ele>3149.33347</ele>
        <time>2026-09-03T08:25:36.999Z</time>
      </trkpt>
      <trkpt lat="46.498758" lon="10.629096">
        <ele>3148.78313</ele>
        <time>2026-09-03T08:25:40.999Z</time>
      </trkpt>
      <trkpt lat="46.49878" lon="10.629131">
        <ele>3148.4143</ele>
        <time>2026-09-03T08:25:43.999Z</time>
      </trkpt>
      <trkpt lat="46.498788" lon="10.629165">
        <ele>3147.76081</ele>
        <time>2026-09-03T08:25:48.999Z</time>
      </trkpt>
      <trkpt lat="46.498759" lon="10.629173">
        <ele>3147.30574</ele>
        <time>2026-09-03T08:25:51.999Z</time>
      </trkpt>
      <trkpt lat="46.498752" lon="10.629206">
        <ele>3146.03469</ele>
        <time>2026-09-03T08:25:56.999Z</time>
      </trkpt>
      <trkpt lat="46.498761" lon="10.629252">
        <ele>3145.07535</ele>
        <time>2026-09-03T08:25:59.999Z</time>
      </trkpt>
      <trkpt lat="46.498731" lon="10.629257">
        <ele>3143.80534</ele>
        <time>2026-09-03T08:26:04.999Z</time>
      </trkpt>
      <trkpt lat="46.498706" lon="10.629263">
        <ele>3142.77668</ele>
        <time>2026-09-03T08:26:07.999Z</time>
      </trkpt>
      <trkpt lat="46.498695" lon="10.629294">
        <ele>3141.47342</ele>
        <time>2026-09-03T08:26:12.999Z</time>
      </trkpt>
      <trkpt lat="46.498706" lon="10.629327">
        <ele>3141.02338</ele>
        <time>2026-09-03T08:26:14.999Z</time>
      </trkpt>
      <trkpt lat="46.498691" lon="10.629379">
        <ele>3140.42317</ele>
        <time>2026-09-03T08:26:17.999Z</time>
      </trkpt>
      <trkpt lat="46.498696" lon="10.629416">
        <ele>3139.24849</ele>
        <time>2026-09-03T08:26:25.999Z</time>
      </trkpt>
      <trkpt lat="46.498691" lon="10.629455">
        <ele>3137.83008</ele>
        <time>2026-09-03T08:26:29.999Z</time>
      </trkpt>
      <trkpt lat="46.498661" lon="10.629464">
        <ele>3135.93636</ele>
        <time>2026-09-03T08:26:35.000Z</time>
      </trkpt>
      <trkpt lat="46.498634" lon="10.629462">
        <ele>3134.37898</ele>
        <time>2026-09-03T08:26:39.000Z</time>
      </trkpt>
      <trkpt lat="46.49862" lon="10.629494">
        <ele>3131.24214</ele>
        <time>2026-09-03T08:26:47.000Z</time>
      </trkpt>
      <trkpt lat="46.498602" lon="10.629519">
        <ele>3129.93672</ele>
        <time>2026-09-03T08:26:51.000Z</time>
      </trkpt>
      <trkpt lat="46.49858" lon="10.629538">
        <ele>3129.11992</ele>
        <time>2026-09-03T08:26:54.000Z</time>
      </trkpt>
      <trkpt lat="46.498561" lon="10.629565">
        <ele>3128.33909</ele>
        <time>2026-09-03T08:26:58.000Z</time>
      </trkpt>
      <trkpt lat="46.498533" lon="10.629587">
        <ele>3127.34201</ele>
        <time>2026-09-03T08:27:03.000Z</time>
      </trkpt>
      <trkpt lat="46.498512" lon="10.629605">
        <ele>3126.54665</ele>
        <time>2026-09-03T08:27:06.000Z</time>
      </trkpt>
      <trkpt lat="46.498478" lon="10.629602">
        <ele>3125.40862</ele>
        <time>2026-09-03T08:27:10.000Z</time>
      </trkpt>
      <trkpt lat="46.498453" lon="10.629581">
        <ele>3124.9614</ele>
        <time>2026-09-03T08:27:12.000Z</time>
      </trkpt>
      <trkpt lat="46.498435" lon="10.629558">
        <ele>3124.61712</ele>
        <time>2026-09-03T08:27:14.000Z</time>
      </trkpt>
      <trkpt lat="46.498413" lon="10.629553">
        <ele>3124.26806</ele>
        <time>2026-09-03T08:27:16.000Z</time>
      </trkpt>
      <trkpt lat="46.498392" lon="10.629531">
        <ele>3123.93035</ele>
        <time>2026-09-03T08:27:20.000Z</time>
      </trkpt>
      <trkpt lat="46.498363" lon="10.629516">
        <ele>3123.79345</ele>
        <time>2026-09-03T08:27:25.000Z</time>
      </trkpt>
      <trkpt lat="46.498338" lon="10.629496">
        <ele>3123.84758</ele>
        <time>2026-09-03T08:27:28.000Z</time>
      </trkpt>
      <trkpt lat="46.498316" lon="10.629474">
        <ele>3123.86251</ele>
        <time>2026-09-03T08:27:30.000Z</time>
      </trkpt>
      <trkpt lat="46.498299" lon="10.629444">
        <ele>3123.94159</ele>
        <time>2026-09-03T08:27:33.000Z</time>
      </trkpt>
      <trkpt lat="46.498281" lon="10.629424">
        <ele>3123.97937</ele>
        <time>2026-09-03T08:27:35.000Z</time>
      </trkpt>
      <trkpt lat="46.498256" lon="10.629389">
        <ele>3124.01105</ele>
        <time>2026-09-03T08:27:38.000Z</time>
      </trkpt>
      <trkpt lat="46.498234" lon="10.629374">
        <ele>3124.04881</ele>
        <time>2026-09-03T08:27:39.999Z</time>
      </trkpt>
      <trkpt lat="46.498205" lon="10.629357">
        <ele>3124.11633</ele>
        <time>2026-09-03T08:27:42.999Z</time>
      </trkpt>
      <trkpt lat="46.498176" lon="10.62936">
        <ele>3124.15886</ele>
        <time>2026-09-03T08:27:45.999Z</time>
      </trkpt>
      <trkpt lat="46.498147" lon="10.629335">
        <ele>3124.21195</ele>
        <time>2026-09-03T08:27:48.999Z</time>
      </trkpt>
      <trkpt lat="46.49812" lon="10.629331">
        <ele>3124.26548</ele>
        <time>2026-09-03T08:27:51.999Z</time>
      </trkpt>
      <trkpt lat="46.498087" lon="10.629329">
        <ele>3124.29619</ele>
        <time>2026-09-03T08:27:54.999Z</time>
      </trkpt>
      <trkpt lat="46.498058" lon="10.629324">
        <ele>3124.29686</ele>
        <time>2026-09-03T08:27:56.999Z</time>
      </trkpt>
      <trkpt lat="46.498029" lon="10.629317">
        <ele>3124.29707</ele>
        <time>2026-09-03T08:27:59.999Z</time>
      </trkpt>
      <trkpt lat="46.498003" lon="10.629305">
        <ele>3124.27406</ele>
        <time>2026-09-03T08:28:01.999Z</time>
      </trkpt>
      <trkpt lat="46.498026" lon="10.629307">
        <ele>3124.26961</ele>
        <time>2026-09-03T08:29:07.000Z</time>
      </trkpt>
      <trkpt lat="46.498005" lon="10.629298">
        <ele>3124.25695</ele>
        <time>2026-09-03T08:29:20.000Z</time>
      </trkpt>
      <trkpt lat="46.498019" lon="10.629352">
        <ele>3124.19855</ele>
        <time>2026-09-03T08:30:00.999Z</time>
      </trkpt>
      <trkpt lat="46.497996" lon="10.629333">
        <ele>3124.18536</ele>
        <time>2026-09-03T08:30:08.999Z</time>
      </trkpt>
      <trkpt lat="46.49797" lon="10.629343">
        <ele>3124.18366</ele>
        <time>2026-09-03T08:30:10.999Z</time>
      </trkpt>
      <trkpt lat="46.497958" lon="10.629378">
        <ele>3124.14335</ele>
        <time>2026-09-03T08:30:20.999Z</time>
      </trkpt>
      <trkpt lat="46.49794" lon="10.629406">
        <ele>3124.10066</ele>
        <time>2026-09-03T08:30:24.999Z</time>
      </trkpt>
      <trkpt lat="46.497924" lon="10.629435">
        <ele>3123.8865</ele>
        <time>2026-09-03T08:30:32.999Z</time>
      </trkpt>
      <trkpt lat="46.497919" lon="10.629467">
        <ele>3123.59801</ele>
        <time>2026-09-03T08:30:37.999Z</time>
      </trkpt>
      <trkpt lat="46.497908" lon="10.629502">
        <ele>3123.10788</ele>
        <time>2026-09-03T08:30:41.999Z</time>
      </trkpt>
      <trkpt lat="46.497892" lon="10.629532">
        <ele>3122.42731</ele>
        <time>2026-09-03T08:30:45.000Z</time>
      </trkpt>
      <trkpt lat="46.497847" lon="10.629543">
        <ele>3121.81956</ele>
        <time>2026-09-03T08:30:47.000Z</time>
      </trkpt>
      <trkpt lat="46.497816" lon="10.629532">
        <ele>3121.15469</ele>
        <time>2026-09-03T08:30:49.000Z</time>
      </trkpt>
      <trkpt lat="46.497788" lon="10.62955">
        <ele>3119.76476</ele>
        <time>2026-09-03T08:30:53.000Z</time>
      </trkpt>
      <trkpt lat="46.497765" lon="10.629571">
        <ele>3118.64801</ele>
        <time>2026-09-03T08:30:56.000Z</time>
      </trkpt>
      <trkpt lat="46.497744" lon="10.62959">
        <ele>3117.49741</ele>
        <time>2026-09-03T08:30:59.000Z</time>
      </trkpt>
      <trkpt lat="46.497737" lon="10.629622">
        <ele>3115.96681</ele>
        <time>2026-09-03T08:31:03.000Z</time>
      </trkpt>
      <trkpt lat="46.497761" lon="10.629632">
        <ele>3114.97752</ele>
        <time>2026-09-03T08:31:06.000Z</time>
      </trkpt>
      <trkpt lat="46.497783" lon="10.629642">
        <ele>3114.00498</ele>
        <time>2026-09-03T08:31:09.000Z</time>
      </trkpt>
      <trkpt lat="46.497792" lon="10.629686">
        <ele>3112.28219</ele>
        <time>2026-09-03T08:31:14.000Z</time>
      </trkpt>
      <trkpt lat="46.497776" lon="10.629713">
        <ele>3111.34427</ele>
        <time>2026-09-03T08:31:17.000Z</time>
      </trkpt>
      <trkpt lat="46.497748" lon="10.629725">
        <ele>3109.84552</ele>
        <time>2026-09-03T08:31:21.000Z</time>
      </trkpt>
      <trkpt lat="46.49775" lon="10.629762">
        <ele>3108.47649</ele>
        <time>2026-09-03T08:31:25.000Z</time>
      </trkpt>
      <trkpt lat="46.497773" lon="10.629788">
        <ele>3107.41529</ele>
        <time>2026-09-03T08:31:28.000Z</time>
      </trkpt>
      <trkpt lat="46.497797" lon="10.629822">
        <ele>3105.7067</ele>
        <time>2026-09-03T08:31:33.000Z</time>
      </trkpt>
      <trkpt lat="46.4978" lon="10.629862">
        <ele>3104.74201</ele>
        <time>2026-09-03T08:31:36.000Z</time>
      </trkpt>
      <trkpt lat="46.497804" lon="10.629899">
        <ele>3103.63651</ele>
        <time>2026-09-03T08:31:40.000Z</time>
      </trkpt>
      <trkpt lat="46.497806" lon="10.629933">
        <ele>3102.5812</ele>
        <time>2026-09-03T08:31:44.000Z</time>
      </trkpt>
      <trkpt lat="46.497794" lon="10.629963">
        <ele>3101.607</ele>
        <time>2026-09-03T08:31:48.000Z</time>
      </trkpt>
      <trkpt lat="46.497786" lon="10.630003">
        <ele>3100.82814</ele>
        <time>2026-09-03T08:31:51.000Z</time>
      </trkpt>
      <trkpt lat="46.497768" lon="10.630025">
        <ele>3099.87377</ele>
        <time>2026-09-03T08:31:53.999Z</time>
      </trkpt>
      <trkpt lat="46.497749" lon="10.630048">
        <ele>3098.15589</ele>
        <time>2026-09-03T08:31:58.999Z</time>
      </trkpt>
      <trkpt lat="46.497728" lon="10.630071">
        <ele>3096.76036</ele>
        <time>2026-09-03T08:32:02.999Z</time>
      </trkpt>
      <trkpt lat="46.497715" lon="10.630103">
        <ele>3094.71917</ele>
        <time>2026-09-03T08:32:09.999Z</time>
      </trkpt>
      <trkpt lat="46.497734" lon="10.630127">
        <ele>3093.94224</ele>
        <time>2026-09-03T08:32:12.999Z</time>
      </trkpt>
      <trkpt lat="46.497746" lon="10.630159">
        <ele>3092.62227</ele>
        <time>2026-09-03T08:32:17.999Z</time>
      </trkpt>
      <trkpt lat="46.497729" lon="10.630184">
        <ele>3092.05167</ele>
        <time>2026-09-03T08:32:19.999Z</time>
      </trkpt>
      <trkpt lat="46.497707" lon="10.630195">
        <ele>3091.43123</ele>
        <time>2026-09-03T08:32:21.999Z</time>
      </trkpt>
      <trkpt lat="46.497675" lon="10.630187">
        <ele>3090.83883</ele>
        <time>2026-09-03T08:32:23.999Z</time>
      </trkpt>
      <trkpt lat="46.497657" lon="10.630212">
        <ele>3090.25451</ele>
        <time>2026-09-03T08:32:25.999Z</time>
      </trkpt>
      <trkpt lat="46.497663" lon="10.630257">
        <ele>3088.98362</ele>
        <time>2026-09-03T08:32:29.999Z</time>
      </trkpt>
      <trkpt lat="46.497684" lon="10.630277">
        <ele>3088.10172</ele>
        <time>2026-09-03T08:32:32.999Z</time>
      </trkpt>
      <trkpt lat="46.497703" lon="10.630299">
        <ele>3087.35849</ele>
        <time>2026-09-03T08:32:35.999Z</time>
      </trkpt>
      <trkpt lat="46.49773" lon="10.630299">
        <ele>3086.82047</ele>
        <time>2026-09-03T08:32:37.999Z</time>
      </trkpt>
      <trkpt lat="46.497758" lon="10.630288">
        <ele>3086.06773</ele>
        <time>2026-09-03T08:32:40.999Z</time>
      </trkpt>
      <trkpt lat="46.497777" lon="10.630329">
        <ele>3084.83277</ele>
        <time>2026-09-03T08:32:45.999Z</time>
      </trkpt>
      <trkpt lat="46.497792" lon="10.630364">
        <ele>3083.60022</ele>
        <time>2026-09-03T08:32:50.000Z</time>
      </trkpt>
      <trkpt lat="46.497807" lon="10.630398">
        <ele>3082.16025</ele>
        <time>2026-09-03T08:32:55.000Z</time>
      </trkpt>
      <trkpt lat="46.497795" lon="10.630435">
        <ele>3080.79062</ele>
        <time>2026-09-03T08:32:59.000Z</time>
      </trkpt>
      <trkpt lat="46.497769" lon="10.630449">
        <ele>3079.50272</ele>
        <time>2026-09-03T08:33:03.000Z</time>
      </trkpt>
      <trkpt lat="46.497752" lon="10.630473">
        <ele>3078.10757</ele>
        <time>2026-09-03T08:33:08.000Z</time>
      </trkpt>
      <trkpt lat="46.497757" lon="10.630508">
        <ele>3077.23711</ele>
        <time>2026-09-03T08:33:11.000Z</time>
      </trkpt>
      <trkpt lat="46.497786" lon="10.630503">
        <ele>3076.22167</ele>
        <time>2026-09-03T08:33:14.000Z</time>
      </trkpt>
      <trkpt lat="46.497795" lon="10.630538">
        <ele>3074.84759</ele>
        <time>2026-09-03T08:33:19.000Z</time>
      </trkpt>
      <trkpt lat="46.497771" lon="10.630564">
        <ele>3074.18598</ele>
        <time>2026-09-03T08:33:23.000Z</time>
      </trkpt>
      <trkpt lat="46.497746" lon="10.630569">
        <ele>3073.65932</ele>
        <time>2026-09-03T08:33:28.000Z</time>
      </trkpt>
      <trkpt lat="46.497747" lon="10.630603">
        <ele>3072.9692</ele>
        <time>2026-09-03T08:33:33.000Z</time>
      </trkpt>
      <trkpt lat="46.497764" lon="10.630626">
        <ele>3072.25742</ele>
        <time>2026-09-03T08:33:37.000Z</time>
      </trkpt>
      <trkpt lat="46.497767" lon="10.630662">
        <ele>3071.51653</ele>
        <time>2026-09-03T08:33:40.000Z</time>
      </trkpt>
      <trkpt lat="46.497734" lon="10.630674">
        <ele>3070.4278</ele>
        <time>2026-09-03T08:33:44.000Z</time>
      </trkpt>
      <trkpt lat="46.497711" lon="10.630688">
        <ele>3069.57667</ele>
        <time>2026-09-03T08:33:47.000Z</time>
      </trkpt>
      <trkpt lat="46.497692" lon="10.630718">
        <ele>3067.64638</ele>
        <time>2026-09-03T08:33:53.999Z</time>
      </trkpt>
      <trkpt lat="46.497669" lon="10.630737">
        <ele>3066.11099</ele>
        <time>2026-09-03T08:33:58.999Z</time>
      </trkpt>
      <trkpt lat="46.497642" lon="10.630729">
        <ele>3065.19832</ele>
        <time>2026-09-03T08:34:01.999Z</time>
      </trkpt>
      <trkpt lat="46.49765" lon="10.630764">
        <ele>3064.41932</ele>
        <time>2026-09-03T08:34:04.999Z</time>
      </trkpt>
      <trkpt lat="46.497652" lon="10.630799">
        <ele>3063.68133</ele>
        <time>2026-09-03T08:34:08.999Z</time>
      </trkpt>
      <trkpt lat="46.497672" lon="10.630835">
        <ele>3062.91445</ele>
        <time>2026-09-03T08:34:13.999Z</time>
      </trkpt>
      <trkpt lat="46.497681" lon="10.630867">
        <ele>3062.35009</ele>
        <time>2026-09-03T08:34:16.999Z</time>
      </trkpt>
      <trkpt lat="46.49769" lon="10.630904">
        <ele>3061.71074</ele>
        <time>2026-09-03T08:34:19.999Z</time>
      </trkpt>
      <trkpt lat="46.497711" lon="10.630937">
        <ele>3061.01959</ele>
        <time>2026-09-03T08:34:22.999Z</time>
      </trkpt>
      <trkpt lat="46.497724" lon="10.630965">
        <ele>3060.32116</ele>
        <time>2026-09-03T08:34:25.999Z</time>
      </trkpt>
      <trkpt lat="46.497707" lon="10.630989">
        <ele>3059.5719</ele>
        <time>2026-09-03T08:34:29.999Z</time>
      </trkpt>
      <trkpt lat="46.497669" lon="10.630978">
        <ele>3058.89681</ele>
        <time>2026-09-03T08:34:32.999Z</time>
      </trkpt>
      <trkpt lat="46.497639" lon="10.630987">
        <ele>3058.04274</ele>
        <time>2026-09-03T08:34:35.999Z</time>
      </trkpt>
      <trkpt lat="46.497642" lon="10.631029">
        <ele>3057.50543</ele>
        <time>2026-09-03T08:34:37.999Z</time>
      </trkpt>
      <trkpt lat="46.497618" lon="10.631051">
        <ele>3055.5932</ele>
        <time>2026-09-03T08:34:44.999Z</time>
      </trkpt>
      <trkpt lat="46.49759" lon="10.631051">
        <ele>3054.01375</ele>
        <time>2026-09-03T08:34:49.999Z</time>
      </trkpt>
      <trkpt lat="46.497564" lon="10.631044">
        <ele>3052.99087</ele>
        <time>2026-09-03T08:34:52.999Z</time>
      </trkpt>
      <trkpt lat="46.497543" lon="10.631057">
        <ele>3052.05306</ele>
        <time>2026-09-03T08:34:56.000Z</time>
      </trkpt>
      <trkpt lat="46.497515" lon="10.631069">
        <ele>3051.13605</ele>
        <time>2026-09-03T08:34:59.000Z</time>
      </trkpt>
      <trkpt lat="46.497493" lon="10.631084">
        <ele>3050.29553</ele>
        <time>2026-09-03T08:35:02.000Z</time>
      </trkpt>
      <trkpt lat="46.497507" lon="10.63111">
        <ele>3049.82118</ele>
        <time>2026-09-03T08:35:04.000Z</time>
      </trkpt>
      <trkpt lat="46.497522" lon="10.631157">
        <ele>3049.27264</ele>
        <time>2026-09-03T08:35:07.000Z</time>
      </trkpt>
      <trkpt lat="46.49754" lon="10.631179">
        <ele>3048.66174</ele>
        <time>2026-09-03T08:35:10.000Z</time>
      </trkpt>
      <trkpt lat="46.497558" lon="10.6312">
        <ele>3048.03965</ele>
        <time>2026-09-03T08:35:13.000Z</time>
      </trkpt>
      <trkpt lat="46.497572" lon="10.631226">
        <ele>3047.15842</ele>
        <time>2026-09-03T08:35:17.000Z</time>
      </trkpt>
      <trkpt lat="46.497577" lon="10.631266">
        <ele>3046.31806</ele>
        <time>2026-09-03T08:35:20.000Z</time>
      </trkpt>
      <trkpt lat="46.49758" lon="10.631302">
        <ele>3045.329</ele>
        <time>2026-09-03T08:35:23.000Z</time>
      </trkpt>
      <trkpt lat="46.497593" lon="10.63133">
        <ele>3044.29254</ele>
        <time>2026-09-03T08:35:26.000Z</time>
      </trkpt>
      <trkpt lat="46.497608" lon="10.631362">
        <ele>3043.29331</ele>
        <time>2026-09-03T08:35:29.000Z</time>
      </trkpt>
      <trkpt lat="46.497601" lon="10.6314">
        <ele>3042.08346</ele>
        <time>2026-09-03T08:35:33.000Z</time>
      </trkpt>
      <trkpt lat="46.497612" lon="10.631434">
        <ele>3041.36747</ele>
        <time>2026-09-03T08:35:36.000Z</time>
      </trkpt>
      <trkpt lat="46.497638" lon="10.631446">
        <ele>3040.34227</ele>
        <time>2026-09-03T08:35:40.000Z</time>
      </trkpt>
      <trkpt lat="46.497653" lon="10.631483">
        <ele>3039.51279</ele>
        <time>2026-09-03T08:35:43.000Z</time>
      </trkpt>
      <trkpt lat="46.497655" lon="10.631518">
        <ele>3038.62916</ele>
        <time>2026-09-03T08:35:46.000Z</time>
      </trkpt>
      <trkpt lat="46.497652" lon="10.631553">
        <ele>3037.26299</ele>
        <time>2026-09-03T08:35:51.000Z</time>
      </trkpt>
      <trkpt lat="46.497669" lon="10.631586">
        <ele>3036.47787</ele>
        <time>2026-09-03T08:35:54.000Z</time>
      </trkpt>
      <trkpt lat="46.497677" lon="10.631622">
        <ele>3035.62409</ele>
        <time>2026-09-03T08:35:57.999Z</time>
      </trkpt>
      <trkpt lat="46.497693" lon="10.631658">
        <ele>3035.16424</ele>
        <time>2026-09-03T08:36:00.999Z</time>
      </trkpt>
      <trkpt lat="46.497675" lon="10.631685">
        <ele>3034.5505</ele>
        <time>2026-09-03T08:36:03.999Z</time>
      </trkpt>
      <trkpt lat="46.497662" lon="10.63172">
        <ele>3033.38428</ele>
        <time>2026-09-03T08:36:08.999Z</time>
      </trkpt>
      <trkpt lat="46.497654" lon="10.631765">
        <ele>3031.84217</ele>
        <time>2026-09-03T08:36:13.999Z</time>
      </trkpt>
      <trkpt lat="46.497644" lon="10.6318">
        <ele>3030.74478</ele>
        <time>2026-09-03T08:36:16.999Z</time>
      </trkpt>
      <trkpt lat="46.497653" lon="10.631832">
        <ele>3030.09183</ele>
        <time>2026-09-03T08:36:18.999Z</time>
      </trkpt>
      <trkpt lat="46.497629" lon="10.631841">
        <ele>3029.10971</ele>
        <time>2026-09-03T08:36:21.999Z</time>
      </trkpt>
      <trkpt lat="46.497604" lon="10.63183">
        <ele>3028.37229</ele>
        <time>2026-09-03T08:36:23.999Z</time>
      </trkpt>
      <trkpt lat="46.497579" lon="10.631834">
        <ele>3027.48365</ele>
        <time>2026-09-03T08:36:26.999Z</time>
      </trkpt>
      <trkpt lat="46.497552" lon="10.631828">
        <ele>3026.33561</ele>
        <time>2026-09-03T08:36:30.999Z</time>
      </trkpt>
      <trkpt lat="46.497524" lon="10.631838">
        <ele>3025.31905</ele>
        <time>2026-09-03T08:36:33.999Z</time>
      </trkpt>
      <trkpt lat="46.497499" lon="10.631841">
        <ele>3024.24105</ele>
        <time>2026-09-03T08:36:36.999Z</time>
      </trkpt>
      <trkpt lat="46.497478" lon="10.63187">
        <ele>3023.19668</ele>
        <time>2026-09-03T08:36:39.999Z</time>
      </trkpt>
      <trkpt lat="46.497456" lon="10.631892">
        <ele>3021.99916</ele>
        <time>2026-09-03T08:36:43.999Z</time>
      </trkpt>
      <trkpt lat="46.497423" lon="10.631902">
        <ele>3021.05056</ele>
        <time>2026-09-03T08:36:47.999Z</time>
      </trkpt>
      <trkpt lat="46.497404" lon="10.631921">
        <ele>3020.20898</ele>
        <time>2026-09-03T08:36:50.999Z</time>
      </trkpt>
      <trkpt lat="46.497384" lon="10.631936">
        <ele>3019.70585</ele>
        <time>2026-09-03T08:36:52.999Z</time>
      </trkpt>
      <trkpt lat="46.497369" lon="10.631977">
        <ele>3018.95862</ele>
        <time>2026-09-03T08:36:55.999Z</time>
      </trkpt>
      <trkpt lat="46.497372" lon="10.63201">
        <ele>3018.56531</ele>
        <time>2026-09-03T08:36:57.999Z</time>
      </trkpt>
      <trkpt lat="46.497364" lon="10.632053">
        <ele>3018.01094</ele>
        <time>2026-09-03T08:37:01.000Z</time>
      </trkpt>
      <trkpt lat="46.497347" lon="10.632092">
        <ele>3017.28069</ele>
        <time>2026-09-03T08:37:04.000Z</time>
      </trkpt>
      <trkpt lat="46.497325" lon="10.632123">
        <ele>3016.82189</ele>
        <time>2026-09-03T08:37:06.000Z</time>
      </trkpt>
      <trkpt lat="46.497313" lon="10.632153">
        <ele>3016.37822</ele>
        <time>2026-09-03T08:37:08.000Z</time>
      </trkpt>
      <trkpt lat="46.497307" lon="10.632194">
        <ele>3015.92788</ele>
        <time>2026-09-03T08:37:10.000Z</time>
      </trkpt>
      <trkpt lat="46.497305" lon="10.632229">
        <ele>3015.74123</ele>
        <time>2026-09-03T08:37:12.000Z</time>
      </trkpt>
      <trkpt lat="46.497311" lon="10.632269">
        <ele>3015.68842</ele>
        <time>2026-09-03T08:37:14.000Z</time>
      </trkpt>
      <trkpt lat="46.497315" lon="10.632307">
        <ele>3015.68293</ele>
        <time>2026-09-03T08:37:16.000Z</time>
      </trkpt>
      <trkpt lat="46.497319" lon="10.632266">
        <ele>3015.67678</ele>
        <time>2026-09-03T08:37:21.000Z</time>
      </trkpt>
      <trkpt lat="46.497323" lon="10.6323">
        <ele>3015.3058</ele>
        <time>2026-09-03T08:37:29.000Z</time>
      </trkpt>
      <trkpt lat="46.497301" lon="10.632323">
        <ele>3014.89763</ele>
        <time>2026-09-03T08:37:32.000Z</time>
      </trkpt>
      <trkpt lat="46.497279" lon="10.63234">
        <ele>3014.28276</ele>
        <time>2026-09-03T08:37:35.000Z</time>
      </trkpt>
      <trkpt lat="46.497271" lon="10.632371">
        <ele>3013.70361</ele>
        <time>2026-09-03T08:37:37.000Z</time>
      </trkpt>
      <trkpt lat="46.497259" lon="10.632416">
        <ele>3012.8044</ele>
        <time>2026-09-03T08:37:40.000Z</time>
      </trkpt>
      <trkpt lat="46.497246" lon="10.632452">
        <ele>3012.15608</ele>
        <time>2026-09-03T08:37:42.000Z</time>
      </trkpt>
      <trkpt lat="46.49723" lon="10.632485">
        <ele>3011.33969</ele>
        <time>2026-09-03T08:37:44.000Z</time>
      </trkpt>
      <trkpt lat="46.497215" lon="10.63252">
        <ele>3010.74452</ele>
        <time>2026-09-03T08:37:46.000Z</time>
      </trkpt>
      <trkpt lat="46.4972" lon="10.63255">
        <ele>3010.3431</ele>
        <time>2026-09-03T08:37:48.000Z</time>
      </trkpt>
      <trkpt lat="46.49717" lon="10.632577">
        <ele>3010.01226</ele>
        <time>2026-09-03T08:37:51.000Z</time>
      </trkpt>
      <trkpt lat="46.497161" lon="10.63261">
        <ele>3009.74421</ele>
        <time>2026-09-03T08:37:53.000Z</time>
      </trkpt>
      <trkpt lat="46.497164" lon="10.632648">
        <ele>3009.52834</ele>
        <time>2026-09-03T08:37:55.000Z</time>
      </trkpt>
      <trkpt lat="46.49715" lon="10.632691">
        <ele>3008.7545</ele>
        <time>2026-09-03T08:37:59.000Z</time>
      </trkpt>
      <trkpt lat="46.497137" lon="10.63272">
        <ele>3008.32091</ele>
        <time>2026-09-03T08:38:01.000Z</time>
      </trkpt>
      <trkpt lat="46.497133" lon="10.632757">
        <ele>3007.44594</ele>
        <time>2026-09-03T08:38:04.000Z</time>
      </trkpt>
      <trkpt lat="46.497137" lon="10.6328">
        <ele>3006.44866</ele>
        <time>2026-09-03T08:38:07.000Z</time>
      </trkpt>
      <trkpt lat="46.497142" lon="10.632846">
        <ele>3004.38847</ele>
        <time>2026-09-03T08:38:13.999Z</time>
      </trkpt>
      <trkpt lat="46.497145" lon="10.632891">
        <ele>3003.75994</ele>
        <time>2026-09-03T08:38:15.999Z</time>
      </trkpt>
      <trkpt lat="46.49715" lon="10.63293">
        <ele>3002.67307</ele>
        <time>2026-09-03T08:38:18.999Z</time>
      </trkpt>
      <trkpt lat="46.497147" lon="10.632964">
        <ele>3001.90956</ele>
        <time>2026-09-03T08:38:20.999Z</time>
      </trkpt>
      <trkpt lat="46.49714" lon="10.632997">
        <ele>3001.32177</ele>
        <time>2026-09-03T08:38:22.999Z</time>
      </trkpt>
      <trkpt lat="46.497144" lon="10.63303">
        <ele>3000.54681</ele>
        <time>2026-09-03T08:38:25.999Z</time>
      </trkpt>
      <trkpt lat="46.497139" lon="10.633077">
        <ele>2999.60048</ele>
        <time>2026-09-03T08:38:29.999Z</time>
      </trkpt>
      <trkpt lat="46.49713" lon="10.633113">
        <ele>2998.81271</ele>
        <time>2026-09-03T08:38:32.999Z</time>
      </trkpt>
      <trkpt lat="46.497115" lon="10.633151">
        <ele>2998.00015</ele>
        <time>2026-09-03T08:38:35.999Z</time>
      </trkpt>
      <trkpt lat="46.497104" lon="10.633182">
        <ele>2997.53351</ele>
        <time>2026-09-03T08:38:37.999Z</time>
      </trkpt>
      <trkpt lat="46.497098" lon="10.633223">
        <ele>2996.5002</ele>
        <time>2026-09-03T08:38:41.999Z</time>
      </trkpt>
      <trkpt lat="46.497085" lon="10.633259">
        <ele>2995.98684</ele>
        <time>2026-09-03T08:38:43.999Z</time>
      </trkpt>
      <trkpt lat="46.497068" lon="10.633283">
        <ele>2995.54526</ele>
        <time>2026-09-03T08:38:45.999Z</time>
      </trkpt>
      <trkpt lat="46.497053" lon="10.633319">
        <ele>2994.71851</ele>
        <time>2026-09-03T08:38:49.999Z</time>
      </trkpt>
      <trkpt lat="46.497055" lon="10.633357">
        <ele>2993.89308</ele>
        <time>2026-09-03T08:38:53.999Z</time>
      </trkpt>
      <trkpt lat="46.497065" lon="10.633403">
        <ele>2993.23751</ele>
        <time>2026-09-03T08:38:56.999Z</time>
      </trkpt>
      <trkpt lat="46.497065" lon="10.633461">
        <ele>2992.21824</ele>
        <time>2026-09-03T08:39:00.999Z</time>
      </trkpt>
      <trkpt lat="46.497088" lon="10.633475">
        <ele>2991.3521</ele>
        <time>2026-09-03T08:39:03.999Z</time>
      </trkpt>
      <trkpt lat="46.497116" lon="10.63348">
        <ele>2990.13852</ele>
        <time>2026-09-03T08:39:08.000Z</time>
      </trkpt>
      <trkpt lat="46.497145" lon="10.633496">
        <ele>2989.36373</ele>
        <time>2026-09-03T08:39:11.000Z</time>
      </trkpt>
      <trkpt lat="46.497173" lon="10.633512">
        <ele>2987.68626</ele>
        <time>2026-09-03T08:39:17.000Z</time>
      </trkpt>
      <trkpt lat="46.497179" lon="10.633549">
        <ele>2986.89276</ele>
        <time>2026-09-03T08:39:20.000Z</time>
      </trkpt>
      <trkpt lat="46.497168" lon="10.63358">
        <ele>2983.96255</ele>
        <time>2026-09-03T08:39:51.000Z</time>
      </trkpt>
      <trkpt lat="46.497185" lon="10.633609">
        <ele>2983.75472</ele>
        <time>2026-09-03T08:39:56.000Z</time>
      </trkpt>
      <trkpt lat="46.497205" lon="10.633631">
        <ele>2981.27038</ele>
        <time>2026-09-03T08:40:44.999Z</time>
      </trkpt>
      <trkpt lat="46.497227" lon="10.633656">
        <ele>2981.22173</ele>
        <time>2026-09-03T08:40:46.999Z</time>
      </trkpt>
      <trkpt lat="46.497252" lon="10.633661">
        <ele>2981.18069</ele>
        <time>2026-09-03T08:40:48.999Z</time>
      </trkpt>
      <trkpt lat="46.497266" lon="10.633703">
        <ele>2981.05951</ele>
        <time>2026-09-03T08:40:53.999Z</time>
      </trkpt>
      <trkpt lat="46.49727" lon="10.633757">
        <ele>2980.93215</ele>
        <time>2026-09-03T08:40:56.999Z</time>
      </trkpt>
      <trkpt lat="46.497271" lon="10.633801">
        <ele>2980.81973</ele>
        <time>2026-09-03T08:40:59.999Z</time>
      </trkpt>
      <trkpt lat="46.497279" lon="10.633844">
        <ele>2980.74144</ele>
        <time>2026-09-03T08:41:01.999Z</time>
      </trkpt>
      <trkpt lat="46.4973" lon="10.633885">
        <ele>2980.58316</ele>
        <time>2026-09-03T08:41:04.999Z</time>
      </trkpt>
      <trkpt lat="46.497309" lon="10.633934">
        <ele>2980.39784</ele>
        <time>2026-09-03T08:41:07.999Z</time>
      </trkpt>
      <trkpt lat="46.49732" lon="10.633965">
        <ele>2980.22392</ele>
        <time>2026-09-03T08:41:09.999Z</time>
      </trkpt>
      <trkpt lat="46.497334" lon="10.634002">
        <ele>2979.99545</ele>
        <time>2026-09-03T08:41:13.000Z</time>
      </trkpt>
      <trkpt lat="46.497364" lon="10.63402">
        <ele>2979.70213</ele>
        <time>2026-09-03T08:41:16.000Z</time>
      </trkpt>
      <trkpt lat="46.49737" lon="10.634055">
        <ele>2979.27843</ele>
        <time>2026-09-03T08:41:19.000Z</time>
      </trkpt>
      <trkpt lat="46.497364" lon="10.634094">
        <ele>2978.9654</ele>
        <time>2026-09-03T08:41:21.000Z</time>
      </trkpt>
      <trkpt lat="46.497353" lon="10.634141">
        <ele>2978.41303</ele>
        <time>2026-09-03T08:41:24.000Z</time>
      </trkpt>
      <trkpt lat="46.49736" lon="10.634183">
        <ele>2977.99835</ele>
        <time>2026-09-03T08:41:26.000Z</time>
      </trkpt>
      <trkpt lat="46.497367" lon="10.634228">
        <ele>2977.61974</ele>
        <time>2026-09-03T08:41:28.000Z</time>
      </trkpt>
      <trkpt lat="46.497384" lon="10.634264">
        <ele>2977.33664</ele>
        <time>2026-09-03T08:41:30.000Z</time>
      </trkpt>
      <trkpt lat="46.497389" lon="10.634301">
        <ele>2977.1153</ele>
        <time>2026-09-03T08:41:32.000Z</time>
      </trkpt>
      <trkpt lat="46.497398" lon="10.634338">
        <ele>2976.84677</ele>
        <time>2026-09-03T08:41:34.000Z</time>
      </trkpt>
      <trkpt lat="46.497398" lon="10.634373">
        <ele>2976.54007</ele>
        <time>2026-09-03T08:41:36.000Z</time>
      </trkpt>
      <trkpt lat="46.497417" lon="10.634401">
        <ele>2976.22104</ele>
        <time>2026-09-03T08:41:38.000Z</time>
      </trkpt>
      <trkpt lat="46.497432" lon="10.634437">
        <ele>2975.94496</ele>
        <time>2026-09-03T08:41:40.000Z</time>
      </trkpt>
      <trkpt lat="46.497445" lon="10.634469">
        <ele>2975.65237</ele>
        <time>2026-09-03T08:41:42.000Z</time>
      </trkpt>
      <trkpt lat="46.497452" lon="10.634502">
        <ele>2975.3828</ele>
        <time>2026-09-03T08:41:44.000Z</time>
      </trkpt>
      <trkpt lat="46.497457" lon="10.634546">
        <ele>2974.93741</ele>
        <time>2026-09-03T08:41:47.000Z</time>
      </trkpt>
      <trkpt lat="46.497483" lon="10.634556">
        <ele>2974.6031</ele>
        <time>2026-09-03T08:41:49.000Z</time>
      </trkpt>
      <trkpt lat="46.497507" lon="10.634556">
        <ele>2974.28059</ele>
        <time>2026-09-03T08:41:51.000Z</time>
      </trkpt>
      <trkpt lat="46.497479" lon="10.634567">
        <ele>2973.48771</ele>
        <time>2026-09-03T08:41:54.000Z</time>
      </trkpt>
      <trkpt lat="46.497486" lon="10.634605">
        <ele>2972.66066</ele>
        <time>2026-09-03T08:41:57.000Z</time>
      </trkpt>
      <trkpt lat="46.497478" lon="10.634642">
        <ele>2970.90515</ele>
        <time>2026-09-03T08:42:02.000Z</time>
      </trkpt>
      <trkpt lat="46.497497" lon="10.63466">
        <ele>2968.68521</ele>
        <time>2026-09-03T08:42:08.000Z</time>
      </trkpt>
      <trkpt lat="46.497519" lon="10.634688">
        <ele>2967.89795</ele>
        <time>2026-09-03T08:42:10.000Z</time>
      </trkpt>
      <trkpt lat="46.497529" lon="10.634727">
        <ele>2966.91049</ele>
        <time>2026-09-03T08:42:13.000Z</time>
      </trkpt>
      <trkpt lat="46.49754" lon="10.634758">
        <ele>2966.14016</ele>
        <time>2026-09-03T08:42:15.000Z</time>
      </trkpt>
      <trkpt lat="46.497554" lon="10.634793">
        <ele>2964.87685</ele>
        <time>2026-09-03T08:42:17.999Z</time>
      </trkpt>
      <trkpt lat="46.497564" lon="10.634834">
        <ele>2963.74253</ele>
        <time>2026-09-03T08:42:21.999Z</time>
      </trkpt>
      <trkpt lat="46.497574" lon="10.634867">
        <ele>2962.85512</ele>
        <time>2026-09-03T08:42:24.999Z</time>
      </trkpt>
      <trkpt lat="46.497555" lon="10.634909">
        <ele>2962.16913</ele>
        <time>2026-09-03T08:42:27.999Z</time>
      </trkpt>
      <trkpt lat="46.497577" lon="10.634935">
        <ele>2961.51774</ele>
        <time>2026-09-03T08:42:30.999Z</time>
      </trkpt>
      <trkpt lat="46.497602" lon="10.634982">
        <ele>2960.95762</ele>
        <time>2026-09-03T08:42:32.999Z</time>
      </trkpt>
      <trkpt lat="46.497628" lon="10.634997">
        <ele>2960.64326</ele>
        <time>2026-09-03T08:42:34.999Z</time>
      </trkpt>
      <trkpt lat="46.497653" lon="10.634998">
        <ele>2960.53356</ele>
        <time>2026-09-03T08:42:36.999Z</time>
      </trkpt>
      <trkpt lat="46.497677" lon="10.63502">
        <ele>2960.34622</ele>
        <time>2026-09-03T08:42:38.999Z</time>
      </trkpt>
      <trkpt lat="46.497704" lon="10.635032">
        <ele>2960.14042</ele>
        <time>2026-09-03T08:42:40.999Z</time>
      </trkpt>
      <trkpt lat="46.497713" lon="10.635083">
        <ele>2959.85007</ele>
        <time>2026-09-03T08:42:43.999Z</time>
      </trkpt>
      <trkpt lat="46.497736" lon="10.635087">
        <ele>2959.46612</ele>
        <time>2026-09-03T08:42:47.999Z</time>
      </trkpt>
      <trkpt lat="46.497756" lon="10.635107">
        <ele>2959.2564</ele>
        <time>2026-09-03T08:42:49.999Z</time>
      </trkpt>
      <trkpt lat="46.497776" lon="10.63513">
        <ele>2959.06336</ele>
        <time>2026-09-03T08:42:51.999Z</time>
      </trkpt>
      <trkpt lat="46.497791" lon="10.635164">
        <ele>2958.89907</ele>
        <time>2026-09-03T08:42:53.999Z</time>
      </trkpt>
      <trkpt lat="46.497815" lon="10.635196">
        <ele>2958.70607</ele>
        <time>2026-09-03T08:42:56.999Z</time>
      </trkpt>
      <trkpt lat="46.49783" lon="10.635224">
        <ele>2958.52935</ele>
        <time>2026-09-03T08:42:58.999Z</time>
      </trkpt>
      <trkpt lat="46.497844" lon="10.635265">
        <ele>2958.28484</ele>
        <time>2026-09-03T08:43:00.999Z</time>
      </trkpt>
      <trkpt lat="46.497855" lon="10.6353">
        <ele>2958.01455</ele>
        <time>2026-09-03T08:43:02.999Z</time>
      </trkpt>
      <trkpt lat="46.497879" lon="10.635314">
        <ele>2957.82734</ele>
        <time>2026-09-03T08:43:04.999Z</time>
      </trkpt>
      <trkpt lat="46.497889" lon="10.635347">
        <ele>2957.65673</ele>
        <time>2026-09-03T08:43:06.999Z</time>
      </trkpt>
      <trkpt lat="46.497888" lon="10.635384">
        <ele>2957.49634</ele>
        <time>2026-09-03T08:43:08.999Z</time>
      </trkpt>
      <trkpt lat="46.497901" lon="10.635417">
        <ele>2957.29831</ele>
        <time>2026-09-03T08:43:10.999Z</time>
      </trkpt>
      <trkpt lat="46.497918" lon="10.635449">
        <ele>2957.06719</ele>
        <time>2026-09-03T08:43:12.999Z</time>
      </trkpt>
      <trkpt lat="46.497956" lon="10.635445">
        <ele>2956.87921</ele>
        <time>2026-09-03T08:43:14.999Z</time>
      </trkpt>
      <trkpt lat="46.497979" lon="10.635428">
        <ele>2956.70864</ele>
        <time>2026-09-03T08:43:15.999Z</time>
      </trkpt>
      <trkpt lat="46.498006" lon="10.635429">
        <ele>2956.02272</ele>
        <time>2026-09-03T08:43:19.000Z</time>
      </trkpt>
      <trkpt lat="46.498023" lon="10.635485">
        <ele>2955.28906</ele>
        <time>2026-09-03T08:43:22.000Z</time>
      </trkpt>
      <trkpt lat="46.498032" lon="10.635519">
        <ele>2954.72601</ele>
        <time>2026-09-03T08:43:25.000Z</time>
      </trkpt>
      <trkpt lat="46.498052" lon="10.635548">
        <ele>2954.20806</ele>
        <time>2026-09-03T08:43:28.000Z</time>
      </trkpt>
      <trkpt lat="46.498072" lon="10.635569">
        <ele>2953.69269</ele>
        <time>2026-09-03T08:43:31.000Z</time>
      </trkpt>
      <trkpt lat="46.498078" lon="10.635603">
        <ele>2952.96637</ele>
        <time>2026-09-03T08:43:34.000Z</time>
      </trkpt>
      <trkpt lat="46.49811" lon="10.635599">
        <ele>2952.01754</ele>
        <time>2026-09-03T08:43:37.000Z</time>
      </trkpt>
      <trkpt lat="46.498139" lon="10.635604">
        <ele>2951.37695</ele>
        <time>2026-09-03T08:43:39.000Z</time>
      </trkpt>
      <trkpt lat="46.498167" lon="10.635614">
        <ele>2950.8347</ele>
        <time>2026-09-03T08:43:42.000Z</time>
      </trkpt>
      <trkpt lat="46.498192" lon="10.635634">
        <ele>2949.69861</ele>
        <time>2026-09-03T08:43:48.000Z</time>
      </trkpt>
      <trkpt lat="46.498214" lon="10.635621">
        <ele>2949.36106</ele>
        <time>2026-09-03T08:43:50.000Z</time>
      </trkpt>
      <trkpt lat="46.498241" lon="10.635611">
        <ele>2948.81776</ele>
        <time>2026-09-03T08:43:54.000Z</time>
      </trkpt>
      <trkpt lat="46.498263" lon="10.635622">
        <ele>2948.06774</ele>
        <time>2026-09-03T08:44:05.000Z</time>
      </trkpt>
      <trkpt lat="46.49825" lon="10.635652">
        <ele>2946.8061</ele>
        <time>2026-09-03T08:45:18.999Z</time>
      </trkpt>
      <trkpt lat="46.498227" lon="10.635632">
        <ele>2946.22955</ele>
        <time>2026-09-03T08:47:10.999Z</time>
      </trkpt>
      <trkpt lat="46.498247" lon="10.635658">
        <ele>2946.23064</ele>
        <time>2026-09-03T08:47:19.999Z</time>
      </trkpt>
      <trkpt lat="46.498224" lon="10.635683">
        <ele>2946.07433</ele>
        <time>2026-09-03T08:51:58.000Z</time>
      </trkpt>
      <trkpt lat="46.4982" lon="10.635719">
        <ele>2946.06513</ele>
        <time>2026-09-03T08:52:01.000Z</time>
      </trkpt>
      <trkpt lat="46.498182" lon="10.635747">
        <ele>2946.0533</ele>
        <time>2026-09-03T08:52:03.000Z</time>
      </trkpt>
      <trkpt lat="46.498184" lon="10.635786">
        <ele>2945.86903</ele>
        <time>2026-09-03T08:52:10.000Z</time>
      </trkpt>
      <trkpt lat="46.498173" lon="10.635826">
        <ele>2945.50181</ele>
        <time>2026-09-03T08:52:14.000Z</time>
      </trkpt>
      <trkpt lat="46.498164" lon="10.63586">
        <ele>2945.10926</ele>
        <time>2026-09-03T08:52:17.000Z</time>
      </trkpt>
      <trkpt lat="46.498148" lon="10.635889">
        <ele>2944.61249</ele>
        <time>2026-09-03T08:52:20.000Z</time>
      </trkpt>
      <trkpt lat="46.498141" lon="10.635938">
        <ele>2944.11612</ele>
        <time>2026-09-03T08:52:23.000Z</time>
      </trkpt>
      <trkpt lat="46.498132" lon="10.63597">
        <ele>2943.51372</ele>
        <time>2026-09-03T08:52:26.000Z</time>
      </trkpt>
      <trkpt lat="46.498107" lon="10.63596">
        <ele>2943.08156</ele>
        <time>2026-09-03T08:52:28.000Z</time>
      </trkpt>
      <trkpt lat="46.498081" lon="10.635956">
        <ele>2942.47162</ele>
        <time>2026-09-03T08:52:31.000Z</time>
      </trkpt>
      <trkpt lat="46.498059" lon="10.635972">
        <ele>2941.11692</ele>
        <time>2026-09-03T08:52:36.000Z</time>
      </trkpt>
      <trkpt lat="46.498031" lon="10.636001">
        <ele>2940.12255</ele>
        <time>2026-09-03T08:52:39.000Z</time>
      </trkpt>
      <trkpt lat="46.498007" lon="10.635994">
        <ele>2938.88519</ele>
        <time>2026-09-03T08:52:42.000Z</time>
      </trkpt>
      <trkpt lat="46.49798" lon="10.636013">
        <ele>2937.33173</ele>
        <time>2026-09-03T08:52:45.000Z</time>
      </trkpt>
      <trkpt lat="46.497953" lon="10.636009">
        <ele>2935.4924</ele>
        <time>2026-09-03T08:52:47.999Z</time>
      </trkpt>
      <trkpt lat="46.497929" lon="10.636006">
        <ele>2933.59094</ele>
        <time>2026-09-03T08:52:50.999Z</time>
      </trkpt>
      <trkpt lat="46.497957" lon="10.635996">
        <ele>2932.53312</ele>
        <time>2026-09-03T08:52:52.999Z</time>
      </trkpt>
      <trkpt lat="46.497971" lon="10.636029">
        <ele>2932.06299</ele>
        <time>2026-09-03T08:52:53.999Z</time>
      </trkpt>
      <trkpt lat="46.497981" lon="10.63607">
        <ele>2931.08316</ele>
        <time>2026-09-03T08:52:56.999Z</time>
      </trkpt>
      <trkpt lat="46.497992" lon="10.636107">
        <ele>2930.49336</ele>
        <time>2026-09-03T08:52:59.999Z</time>
      </trkpt>
      <trkpt lat="46.498014" lon="10.636129">
        <ele>2930.12498</ele>
        <time>2026-09-03T08:53:01.999Z</time>
      </trkpt>
      <trkpt lat="46.49804" lon="10.636144">
        <ele>2929.21021</ele>
        <time>2026-09-03T08:53:05.999Z</time>
      </trkpt>
      <trkpt lat="46.497998" lon="10.636187">
        <ele>2928.57267</ele>
        <time>2026-09-03T08:53:09.999Z</time>
      </trkpt>
      <trkpt lat="46.498005" lon="10.636232">
        <ele>2928.327</ele>
        <time>2026-09-03T08:53:12.999Z</time>
      </trkpt>
      <trkpt lat="46.498036" lon="10.636209">
        <ele>2928.41026</ele>
        <time>2026-09-03T08:53:14.999Z</time>
      </trkpt>
      <trkpt lat="46.498055" lon="10.636177">
        <ele>2928.43472</ele>
        <time>2026-09-03T08:53:15.999Z</time>
      </trkpt>
      <trkpt lat="46.498078" lon="10.636162">
        <ele>2928.22815</ele>
        <time>2026-09-03T08:53:18.999Z</time>
      </trkpt>
      <trkpt lat="46.498109" lon="10.636191">
        <ele>2927.0361</ele>
        <time>2026-09-03T08:53:22.999Z</time>
      </trkpt>
      <trkpt lat="46.498131" lon="10.636227">
        <ele>2925.60704</ele>
        <time>2026-09-03T08:53:25.999Z</time>
      </trkpt>
      <trkpt lat="46.498095" lon="10.636263">
        <ele>2922.165</ele>
        <time>2026-09-03T08:53:33.999Z</time>
      </trkpt>
      <trkpt lat="46.498071" lon="10.636275">
        <ele>2920.95779</ele>
        <time>2026-09-03T08:53:36.999Z</time>
      </trkpt>
      <trkpt lat="46.498043" lon="10.636286">
        <ele>2919.97285</ele>
        <time>2026-09-03T08:53:39.999Z</time>
      </trkpt>
      <trkpt lat="46.498007" lon="10.636292">
        <ele>2919.27173</ele>
        <time>2026-09-03T08:53:42.999Z</time>
      </trkpt>
      <trkpt lat="46.497984" lon="10.636296">
        <ele>2918.81926</ele>
        <time>2026-09-03T08:53:44.999Z</time>
      </trkpt>
      <trkpt lat="46.49795" lon="10.636303">
        <ele>2918.03563</ele>
        <time>2026-09-03T08:53:54.000Z</time>
      </trkpt>
      <trkpt lat="46.497936" lon="10.636345">
        <ele>2915.15893</ele>
        <time>2026-09-03T08:54:00.000Z</time>
      </trkpt>
      <trkpt lat="46.497911" lon="10.63636">
        <ele>2914.1787</ele>
        <time>2026-09-03T08:54:03.000Z</time>
      </trkpt>
      <trkpt lat="46.497894" lon="10.636383">
        <ele>2913.36965</ele>
        <time>2026-09-03T08:54:06.000Z</time>
      </trkpt>
      <trkpt lat="46.497863" lon="10.636379">
        <ele>2912.94781</ele>
        <time>2026-09-03T08:54:08.000Z</time>
      </trkpt>
      <trkpt lat="46.497838" lon="10.636403">
        <ele>2911.41052</ele>
        <time>2026-09-03T08:54:14.000Z</time>
      </trkpt>
      <trkpt lat="46.497811" lon="10.636413">
        <ele>2910.82715</ele>
        <time>2026-09-03T08:54:16.000Z</time>
      </trkpt>
      <trkpt lat="46.49778" lon="10.636408">
        <ele>2909.33377</ele>
        <time>2026-09-03T08:54:20.000Z</time>
      </trkpt>
      <trkpt lat="46.497754" lon="10.636415">
        <ele>2908.04992</ele>
        <time>2026-09-03T08:54:23.000Z</time>
      </trkpt>
      <trkpt lat="46.497757" lon="10.63645">
        <ele>2906.837</ele>
        <time>2026-09-03T08:54:26.000Z</time>
      </trkpt>
      <trkpt lat="46.497778" lon="10.636483">
        <ele>2904.99728</ele>
        <time>2026-09-03T08:54:33.000Z</time>
      </trkpt>
      <trkpt lat="46.497802" lon="10.636519">
        <ele>2904.61799</ele>
        <time>2026-09-03T08:54:35.000Z</time>
      </trkpt>
      <trkpt lat="46.497828" lon="10.636535">
        <ele>2904.06645</ele>
        <time>2026-09-03T08:54:38.000Z</time>
      </trkpt>
      <trkpt lat="46.497839" lon="10.636577">
        <ele>2902.11703</ele>
        <time>2026-09-03T08:54:51.000Z</time>
      </trkpt>
      <trkpt lat="46.497845" lon="10.636624">
        <ele>2901.56187</ele>
        <time>2026-09-03T08:54:54.000Z</time>
      </trkpt>
      <trkpt lat="46.49786" lon="10.636661">
        <ele>2899.8017</ele>
        <time>2026-09-03T08:55:01.999Z</time>
      </trkpt>
      <trkpt lat="46.497872" lon="10.63669">
        <ele>2898.61462</ele>
        <time>2026-09-03T08:55:04.999Z</time>
      </trkpt>
      <trkpt lat="46.497903" lon="10.636721">
        <ele>2897.47939</ele>
        <time>2026-09-03T08:55:07.999Z</time>
      </trkpt>
      <trkpt lat="46.497929" lon="10.636743">
        <ele>2896.3807</ele>
        <time>2026-09-03T08:55:10.999Z</time>
      </trkpt>
      <trkpt lat="46.497943" lon="10.636772">
        <ele>2895.22333</ele>
        <time>2026-09-03T08:55:14.999Z</time>
      </trkpt>
      <trkpt lat="46.497967" lon="10.636798">
        <ele>2894.82192</ele>
        <time>2026-09-03T08:55:16.999Z</time>
      </trkpt>
      <trkpt lat="46.497994" lon="10.636819">
        <ele>2894.44004</ele>
        <time>2026-09-03T08:55:18.999Z</time>
      </trkpt>
      <trkpt lat="46.49802" lon="10.636835">
        <ele>2894.07675</ele>
        <time>2026-09-03T08:55:20.999Z</time>
      </trkpt>
      <trkpt lat="46.498046" lon="10.636844">
        <ele>2893.91483</ele>
        <time>2026-09-03T08:55:22.999Z</time>
      </trkpt>
      <trkpt lat="46.498055" lon="10.636878">
        <ele>2893.37585</ele>
        <time>2026-09-03T08:55:30.999Z</time>
      </trkpt>
      <trkpt lat="46.498048" lon="10.636937">
        <ele>2892.80022</ele>
        <time>2026-09-03T08:55:33.999Z</time>
      </trkpt>
      <trkpt lat="46.498051" lon="10.636987">
        <ele>2892.12179</ele>
        <time>2026-09-03T08:55:36.999Z</time>
      </trkpt>
      <trkpt lat="46.498043" lon="10.637026">
        <ele>2891.67307</ele>
        <time>2026-09-03T08:55:38.999Z</time>
      </trkpt>
      <trkpt lat="46.498029" lon="10.637062">
        <ele>2891.21452</ele>
        <time>2026-09-03T08:55:40.999Z</time>
      </trkpt>
      <trkpt lat="46.498008" lon="10.637084">
        <ele>2890.8175</ele>
        <time>2026-09-03T08:55:42.999Z</time>
      </trkpt>
      <trkpt lat="46.498023" lon="10.637133">
        <ele>2890.47717</ele>
        <time>2026-09-03T08:55:44.999Z</time>
      </trkpt>
      <trkpt lat="46.49802" lon="10.637167">
        <ele>2890.13758</ele>
        <time>2026-09-03T08:55:46.999Z</time>
      </trkpt>
      <trkpt lat="46.497986" lon="10.637176">
        <ele>2889.85382</ele>
        <time>2026-09-03T08:55:48.999Z</time>
      </trkpt>
      <trkpt lat="46.497959" lon="10.637148">
        <ele>2889.44771</ele>
        <time>2026-09-03T08:55:50.999Z</time>
      </trkpt>
      <trkpt lat="46.497949" lon="10.637115">
        <ele>2888.51753</ele>
        <time>2026-09-03T08:55:54.000Z</time>
      </trkpt>
      <trkpt lat="46.497937" lon="10.63715">
        <ele>2887.53324</ele>
        <time>2026-09-03T08:55:57.000Z</time>
      </trkpt>
      <trkpt lat="46.497915" lon="10.637167">
        <ele>2886.48307</ele>
        <time>2026-09-03T08:56:00.000Z</time>
      </trkpt>
      <trkpt lat="46.497914" lon="10.6372">
        <ele>2886.05953</ele>
        <time>2026-09-03T08:56:02.000Z</time>
      </trkpt>
      <trkpt lat="46.497893" lon="10.63722">
        <ele>2885.55184</ele>
        <time>2026-09-03T08:56:04.000Z</time>
      </trkpt>
      <trkpt lat="46.497883" lon="10.637253">
        <ele>2885.04378</ele>
        <time>2026-09-03T08:56:06.000Z</time>
      </trkpt>
      <trkpt lat="46.497867" lon="10.637298">
        <ele>2884.23702</ele>
        <time>2026-09-03T08:56:09.000Z</time>
      </trkpt>
      <trkpt lat="46.497866" lon="10.637332">
        <ele>2883.79066</ele>
        <time>2026-09-03T08:56:11.000Z</time>
      </trkpt>
      <trkpt lat="46.497842" lon="10.637367">
        <ele>2883.49485</ele>
        <time>2026-09-03T08:56:13.000Z</time>
      </trkpt>
      <trkpt lat="46.497823" lon="10.637395">
        <ele>2883.03143</ele>
        <time>2026-09-03T08:56:15.000Z</time>
      </trkpt>
      <trkpt lat="46.497803" lon="10.637422">
        <ele>2882.59041</ele>
        <time>2026-09-03T08:56:17.000Z</time>
      </trkpt>
      <trkpt lat="46.497805" lon="10.637468">
        <ele>2882.17976</ele>
        <time>2026-09-03T08:56:19.000Z</time>
      </trkpt>
      <trkpt lat="46.497796" lon="10.637509">
        <ele>2881.67853</ele>
        <time>2026-09-03T08:56:25.000Z</time>
      </trkpt>
      <trkpt lat="46.497795" lon="10.637546">
        <ele>2881.15874</ele>
        <time>2026-09-03T08:56:28.000Z</time>
      </trkpt>
      <trkpt lat="46.497797" lon="10.637592">
        <ele>2880.4878</ele>
        <time>2026-09-03T08:56:31.000Z</time>
      </trkpt>
      <trkpt lat="46.497814" lon="10.63762">
        <ele>2879.91567</ele>
        <time>2026-09-03T08:56:33.000Z</time>
      </trkpt>
      <trkpt lat="46.497825" lon="10.637652">
        <ele>2879.20994</ele>
        <time>2026-09-03T08:56:35.000Z</time>
      </trkpt>
      <trkpt lat="46.497839" lon="10.637678">
        <ele>2878.30889</ele>
        <time>2026-09-03T08:56:37.000Z</time>
      </trkpt>
      <trkpt lat="46.497814" lon="10.637718">
        <ele>2875.89995</ele>
        <time>2026-09-03T08:56:42.000Z</time>
      </trkpt>
      <trkpt lat="46.497816" lon="10.637751">
        <ele>2875.11588</ele>
        <time>2026-09-03T08:56:44.000Z</time>
      </trkpt>
      <trkpt lat="46.497838" lon="10.637773">
        <ele>2874.29687</ele>
        <time>2026-09-03T08:56:46.000Z</time>
      </trkpt>
      <trkpt lat="46.497829" lon="10.637812">
        <ele>2873.21529</ele>
        <time>2026-09-03T08:56:49.000Z</time>
      </trkpt>
      <trkpt lat="46.497827" lon="10.637853">
        <ele>2872.25287</ele>
        <time>2026-09-03T08:56:52.000Z</time>
      </trkpt>
      <trkpt lat="46.497834" lon="10.637888">
        <ele>2871.82593</ele>
        <time>2026-09-03T08:56:58.000Z</time>
      </trkpt>
      <trkpt lat="46.497826" lon="10.637921">
        <ele>2871.53161</ele>
        <time>2026-09-03T08:57:00.000Z</time>
      </trkpt>
      <trkpt lat="46.497803" lon="10.637952">
        <ele>2870.94387</ele>
        <time>2026-09-03T08:57:03.000Z</time>
      </trkpt>
      <trkpt lat="46.49777" lon="10.637962">
        <ele>2870.52121</ele>
        <time>2026-09-03T08:57:04.999Z</time>
      </trkpt>
      <trkpt lat="46.497744" lon="10.637983">
        <ele>2869.85738</ele>
        <time>2026-09-03T08:57:07.999Z</time>
      </trkpt>
      <trkpt lat="46.49773" lon="10.638017">
        <ele>2869.33532</ele>
        <time>2026-09-03T08:57:09.999Z</time>
      </trkpt>
      <trkpt lat="46.497713" lon="10.638052">
        <ele>2868.93252</ele>
        <time>2026-09-03T08:57:11.999Z</time>
      </trkpt>
      <trkpt lat="46.497691" lon="10.638073">
        <ele>2868.52704</ele>
        <time>2026-09-03T08:57:13.999Z</time>
      </trkpt>
      <trkpt lat="46.497693" lon="10.638121">
        <ele>2868.12778</ele>
        <time>2026-09-03T08:57:15.999Z</time>
      </trkpt>
      <trkpt lat="46.497709" lon="10.638159">
        <ele>2867.74075</ele>
        <time>2026-09-03T08:57:17.999Z</time>
      </trkpt>
      <trkpt lat="46.497725" lon="10.638191">
        <ele>2867.33019</ele>
        <time>2026-09-03T08:57:19.999Z</time>
      </trkpt>
      <trkpt lat="46.497745" lon="10.638219">
        <ele>2866.78357</ele>
        <time>2026-09-03T08:57:21.999Z</time>
      </trkpt>
      <trkpt lat="46.497759" lon="10.638245">
        <ele>2865.99346</ele>
        <time>2026-09-03T08:57:23.999Z</time>
      </trkpt>
      <trkpt lat="46.497772" lon="10.638295">
        <ele>2864.25069</ele>
        <time>2026-09-03T08:57:26.999Z</time>
      </trkpt>
      <trkpt lat="46.497763" lon="10.638328">
        <ele>2861.95124</ele>
        <time>2026-09-03T08:57:29.999Z</time>
      </trkpt>
      <trkpt lat="46.497741" lon="10.638362">
        <ele>2859.96373</ele>
        <time>2026-09-03T08:57:32.999Z</time>
      </trkpt>
      <trkpt lat="46.497718" lon="10.638384">
        <ele>2855.90003</ele>
        <time>2026-09-03T08:57:41.999Z</time>
      </trkpt>
      <trkpt lat="46.4977" lon="10.638418">
        <ele>2854.64995</ele>
        <time>2026-09-03T08:57:44.999Z</time>
      </trkpt>
      <trkpt lat="46.497687" lon="10.638447">
        <ele>2854.06107</ele>
        <time>2026-09-03T08:57:47.999Z</time>
      </trkpt>
      <trkpt lat="46.497694" lon="10.638487">
        <ele>2853.77026</ele>
        <time>2026-09-03T08:57:50.999Z</time>
      </trkpt>
      <trkpt lat="46.497681" lon="10.638514">
        <ele>2853.6037</ele>
        <time>2026-09-03T08:57:53.999Z</time>
      </trkpt>
      <trkpt lat="46.497644" lon="10.638524">
        <ele>2853.44026</ele>
        <time>2026-09-03T08:57:55.999Z</time>
      </trkpt>
      <trkpt lat="46.497612" lon="10.638522">
        <ele>2853.21243</ele>
        <time>2026-09-03T08:57:57.999Z</time>
      </trkpt>
      <trkpt lat="46.497588" lon="10.638557">
        <ele>2853.02281</ele>
        <time>2026-09-03T08:58:00.000Z</time>
      </trkpt>
      <trkpt lat="46.497575" lon="10.63859">
        <ele>2852.80619</ele>
        <time>2026-09-03T08:58:02.000Z</time>
      </trkpt>
      <trkpt lat="46.497586" lon="10.638639">
        <ele>2852.63159</ele>
        <time>2026-09-03T08:58:04.000Z</time>
      </trkpt>
      <trkpt lat="46.497571" lon="10.638669">
        <ele>2852.46837</ele>
        <time>2026-09-03T08:58:06.000Z</time>
      </trkpt>
      <trkpt lat="46.497546" lon="10.638703">
        <ele>2852.13594</ele>
        <time>2026-09-03T08:58:09.000Z</time>
      </trkpt>
      <trkpt lat="46.497528" lon="10.638743">
        <ele>2851.728</ele>
        <time>2026-09-03T08:58:12.000Z</time>
      </trkpt>
      <trkpt lat="46.497541" lon="10.638786">
        <ele>2851.51013</ele>
        <time>2026-09-03T08:58:14.000Z</time>
      </trkpt>
      <trkpt lat="46.497545" lon="10.638818">
        <ele>2851.2723</ele>
        <time>2026-09-03T08:58:16.000Z</time>
      </trkpt>
      <trkpt lat="46.497572" lon="10.63885">
        <ele>2850.67092</ele>
        <time>2026-09-03T08:58:19.000Z</time>
      </trkpt>
      <trkpt lat="46.497583" lon="10.638882">
        <ele>2850.17539</ele>
        <time>2026-09-03T08:58:21.000Z</time>
      </trkpt>
      <trkpt lat="46.49761" lon="10.63889">
        <ele>2847.36861</ele>
        <time>2026-09-03T08:58:31.000Z</time>
      </trkpt>
      <trkpt lat="46.497625" lon="10.63892">
        <ele>2846.54451</ele>
        <time>2026-09-03T08:58:33.000Z</time>
      </trkpt>
      <trkpt lat="46.49763" lon="10.638968">
        <ele>2845.27944</ele>
        <time>2026-09-03T08:58:36.000Z</time>
      </trkpt>
      <trkpt lat="46.497633" lon="10.639014">
        <ele>2844.58094</ele>
        <time>2026-09-03T08:58:38.000Z</time>
      </trkpt>
      <trkpt lat="46.497652" lon="10.639058">
        <ele>2843.67095</ele>
        <time>2026-09-03T08:58:41.000Z</time>
      </trkpt>
      <trkpt lat="46.497674" lon="10.639092">
        <ele>2842.78153</ele>
        <time>2026-09-03T08:58:44.000Z</time>
      </trkpt>
      <trkpt lat="46.497687" lon="10.639126">
        <ele>2842.11791</ele>
        <time>2026-09-03T08:58:47.000Z</time>
      </trkpt>
      <trkpt lat="46.49768" lon="10.63916">
        <ele>2841.52311</ele>
        <time>2026-09-03T08:58:49.000Z</time>
      </trkpt>
      <trkpt lat="46.497683" lon="10.639208">
        <ele>2841.02309</ele>
        <time>2026-09-03T08:58:51.000Z</time>
      </trkpt>
      <trkpt lat="46.497693" lon="10.639244">
        <ele>2840.56729</ele>
        <time>2026-09-03T08:58:53.000Z</time>
      </trkpt>
      <trkpt lat="46.497677" lon="10.639285">
        <ele>2840.03789</ele>
        <time>2026-09-03T08:58:55.000Z</time>
      </trkpt>
      <trkpt lat="46.497655" lon="10.639318">
        <ele>2839.56632</ele>
        <time>2026-09-03T08:58:57.000Z</time>
      </trkpt>
      <trkpt lat="46.49765" lon="10.63936">
        <ele>2839.23504</ele>
        <time>2026-09-03T08:58:59.000Z</time>
      </trkpt>
      <trkpt lat="46.497654" lon="10.639407">
        <ele>2838.94413</ele>
        <time>2026-09-03T08:59:01.000Z</time>
      </trkpt>
      <trkpt lat="46.497652" lon="10.639448">
        <ele>2838.67477</ele>
        <time>2026-09-03T08:59:03.000Z</time>
      </trkpt>
      <trkpt lat="46.497652" lon="10.639495">
        <ele>2838.44089</ele>
        <time>2026-09-03T08:59:05.000Z</time>
      </trkpt>
      <trkpt lat="46.497641" lon="10.639533">
        <ele>2838.2097</ele>
        <time>2026-09-03T08:59:07.000Z</time>
      </trkpt>
      <trkpt lat="46.497641" lon="10.639575">
        <ele>2838.00658</ele>
        <time>2026-09-03T08:59:09.000Z</time>
      </trkpt>
      <trkpt lat="46.497647" lon="10.63961">
        <ele>2837.84613</ele>
        <time>2026-09-03T08:59:11.000Z</time>
      </trkpt>
      <trkpt lat="46.497646" lon="10.639576">
        <ele>2837.66966</ele>
        <time>2026-09-03T08:59:18.999Z</time>
      </trkpt>
      <trkpt lat="46.497653" lon="10.639608">
        <ele>2837.57973</ele>
        <time>2026-09-03T08:59:20.999Z</time>
      </trkpt>
      <trkpt lat="46.49766" lon="10.639648">
        <ele>2837.5024</ele>
        <time>2026-09-03T08:59:22.999Z</time>
      </trkpt>
      <trkpt lat="46.497676" lon="10.63968">
        <ele>2837.41973</ele>
        <time>2026-09-03T08:59:24.999Z</time>
      </trkpt>
      <trkpt lat="46.497682" lon="10.639711">
        <ele>2837.32147</ele>
        <time>2026-09-03T08:59:26.999Z</time>
      </trkpt>
      <trkpt lat="46.49769" lon="10.639751">
        <ele>2837.14376</ele>
        <time>2026-09-03T08:59:29.999Z</time>
      </trkpt>
      <trkpt lat="46.4977" lon="10.639788">
        <ele>2836.99147</ele>
        <time>2026-09-03T08:59:31.999Z</time>
      </trkpt>
      <trkpt lat="46.497704" lon="10.639826">
        <ele>2836.67808</ele>
        <time>2026-09-03T08:59:34.999Z</time>
      </trkpt>
      <trkpt lat="46.497699" lon="10.639868">
        <ele>2836.34876</ele>
        <time>2026-09-03T08:59:37.999Z</time>
      </trkpt>
      <trkpt lat="46.497687" lon="10.639899">
        <ele>2836.04515</ele>
        <time>2026-09-03T08:59:39.999Z</time>
      </trkpt>
      <trkpt lat="46.497674" lon="10.639936">
        <ele>2835.72005</ele>
        <time>2026-09-03T08:59:41.999Z</time>
      </trkpt>
      <trkpt lat="46.497664" lon="10.639979">
        <ele>2835.34916</ele>
        <time>2026-09-03T08:59:44.999Z</time>
      </trkpt>
      <trkpt lat="46.497672" lon="10.640012">
        <ele>2835.0494</ele>
        <time>2026-09-03T08:59:47.999Z</time>
      </trkpt>
      <trkpt lat="46.497678" lon="10.640062">
        <ele>2834.37081</ele>
        <time>2026-09-03T08:59:53.999Z</time>
      </trkpt>
      <trkpt lat="46.497682" lon="10.640114">
        <ele>2834.01485</ele>
        <time>2026-09-03T08:59:56.999Z</time>
      </trkpt>
      <trkpt lat="46.497676" lon="10.640157">
        <ele>2833.67476</ele>
        <time>2026-09-03T08:59:59.999Z</time>
      </trkpt>
      <trkpt lat="46.497662" lon="10.640189">
        <ele>2833.46462</ele>
        <time>2026-09-03T09:00:01.999Z</time>
      </trkpt>
      <trkpt lat="46.497649" lon="10.640217">
        <ele>2833.24936</ele>
        <time>2026-09-03T09:00:03.999Z</time>
      </trkpt>
      <trkpt lat="46.497624" lon="10.640232">
        <ele>2833.05944</ele>
        <time>2026-09-03T09:00:06.000Z</time>
      </trkpt>
      <trkpt lat="46.497594" lon="10.640244">
        <ele>2832.81579</ele>
        <time>2026-09-03T09:00:08.000Z</time>
      </trkpt>
      <trkpt lat="46.497566" lon="10.640241">
        <ele>2832.63306</ele>
        <time>2026-09-03T09:00:10.000Z</time>
      </trkpt>
      <trkpt lat="46.497541" lon="10.640259">
        <ele>2832.44119</ele>
        <time>2026-09-03T09:00:12.000Z</time>
      </trkpt>
      <trkpt lat="46.497511" lon="10.640291">
        <ele>2832.13968</ele>
        <time>2026-09-03T09:00:15.000Z</time>
      </trkpt>
      <trkpt lat="46.497491" lon="10.640315">
        <ele>2831.97611</ele>
        <time>2026-09-03T09:00:17.000Z</time>
      </trkpt>
      <trkpt lat="46.497474" lon="10.640344">
        <ele>2831.82991</ele>
        <time>2026-09-03T09:00:19.000Z</time>
      </trkpt>
      <trkpt lat="46.497458" lon="10.640381">
        <ele>2831.71716</ele>
        <time>2026-09-03T09:00:21.000Z</time>
      </trkpt>
      <trkpt lat="46.497448" lon="10.640424">
        <ele>2831.55266</ele>
        <time>2026-09-03T09:00:23.000Z</time>
      </trkpt>
      <trkpt lat="46.497436" lon="10.640456">
        <ele>2831.41836</ele>
        <time>2026-09-03T09:00:25.000Z</time>
      </trkpt>
      <trkpt lat="46.49742" lon="10.640487">
        <ele>2831.28601</ele>
        <time>2026-09-03T09:00:27.000Z</time>
      </trkpt>
      <trkpt lat="46.497406" lon="10.640521">
        <ele>2831.18881</ele>
        <time>2026-09-03T09:00:29.000Z</time>
      </trkpt>
      <trkpt lat="46.497381" lon="10.64054">
        <ele>2831.05082</ele>
        <time>2026-09-03T09:00:31.000Z</time>
      </trkpt>
      <trkpt lat="46.497357" lon="10.640546">
        <ele>2830.87714</ele>
        <time>2026-09-03T09:00:33.000Z</time>
      </trkpt>
      <trkpt lat="46.497338" lon="10.640571">
        <ele>2830.64098</ele>
        <time>2026-09-03T09:00:35.000Z</time>
      </trkpt>
      <trkpt lat="46.497316" lon="10.640595">
        <ele>2830.39413</ele>
        <time>2026-09-03T09:00:37.000Z</time>
      </trkpt>
      <trkpt lat="46.497309" lon="10.640635">
        <ele>2830.21889</ele>
        <time>2026-09-03T09:00:39.000Z</time>
      </trkpt>
      <trkpt lat="46.497292" lon="10.640677">
        <ele>2830.02837</ele>
        <time>2026-09-03T09:00:42.000Z</time>
      </trkpt>
      <trkpt lat="46.497276" lon="10.64071">
        <ele>2829.91558</ele>
        <time>2026-09-03T09:00:44.000Z</time>
      </trkpt>
      <trkpt lat="46.497265" lon="10.640746">
        <ele>2829.77437</ele>
        <time>2026-09-03T09:00:46.000Z</time>
      </trkpt>
      <trkpt lat="46.497253" lon="10.64078">
        <ele>2829.58083</ele>
        <time>2026-09-03T09:00:48.000Z</time>
      </trkpt>
      <trkpt lat="46.497225" lon="10.640791">
        <ele>2829.3323</ele>
        <time>2026-09-03T09:00:50.000Z</time>
      </trkpt>
      <trkpt lat="46.497212" lon="10.64082">
        <ele>2829.09981</ele>
        <time>2026-09-03T09:00:52.000Z</time>
      </trkpt>
      <trkpt lat="46.497213" lon="10.640858">
        <ele>2828.88527</ele>
        <time>2026-09-03T09:00:54.000Z</time>
      </trkpt>
      <trkpt lat="46.497236" lon="10.640837">
        <ele>2828.53013</ele>
        <time>2026-09-03T09:00:58.000Z</time>
      </trkpt>
      <trkpt lat="46.497215" lon="10.640861">
        <ele>2827.57775</ele>
        <time>2026-09-03T09:01:05.000Z</time>
      </trkpt>
      <trkpt lat="46.497192" lon="10.640888">
        <ele>2827.16348</ele>
        <time>2026-09-03T09:01:07.000Z</time>
      </trkpt>
      <trkpt lat="46.497178" lon="10.64092">
        <ele>2826.39722</ele>
        <time>2026-09-03T09:01:10.000Z</time>
      </trkpt>
      <trkpt lat="46.497165" lon="10.640947">
        <ele>2825.75614</ele>
        <time>2026-09-03T09:01:12.000Z</time>
      </trkpt>
      <trkpt lat="46.497139" lon="10.640974">
        <ele>2824.7206</ele>
        <time>2026-09-03T09:01:14.999Z</time>
      </trkpt>
      <trkpt lat="46.497119" lon="10.641016">
        <ele>2823.74729</ele>
        <time>2026-09-03T09:01:17.999Z</time>
      </trkpt>
      <trkpt lat="46.497107" lon="10.641059">
        <ele>2822.5164</ele>
        <time>2026-09-03T09:01:20.999Z</time>
      </trkpt>
      <trkpt lat="46.497095" lon="10.641089">
        <ele>2821.87097</ele>
        <time>2026-09-03T09:01:22.999Z</time>
      </trkpt>
      <trkpt lat="46.497084" lon="10.641123">
        <ele>2821.27505</ele>
        <time>2026-09-03T09:01:24.999Z</time>
      </trkpt>
      <trkpt lat="46.49707" lon="10.641157">
        <ele>2820.82923</ele>
        <time>2026-09-03T09:01:26.999Z</time>
      </trkpt>
      <trkpt lat="46.497063" lon="10.641194">
        <ele>2820.5348</ele>
        <time>2026-09-03T09:01:28.999Z</time>
      </trkpt>
      <trkpt lat="46.497042" lon="10.641226">
        <ele>2820.26311</ele>
        <time>2026-09-03T09:01:30.999Z</time>
      </trkpt>
      <trkpt lat="46.497026" lon="10.641256">
        <ele>2820.04424</ele>
        <time>2026-09-03T09:01:32.999Z</time>
      </trkpt>
      <trkpt lat="46.496997" lon="10.641266">
        <ele>2819.83396</ele>
        <time>2026-09-03T09:01:34.999Z</time>
      </trkpt>
      <trkpt lat="46.496979" lon="10.641293">
        <ele>2819.66026</ele>
        <time>2026-09-03T09:01:36.999Z</time>
      </trkpt>
      <trkpt lat="46.496961" lon="10.641315">
        <ele>2819.47783</ele>
        <time>2026-09-03T09:01:38.999Z</time>
      </trkpt>
      <trkpt lat="46.496937" lon="10.641323">
        <ele>2819.23259</ele>
        <time>2026-09-03T09:01:40.999Z</time>
      </trkpt>
      <trkpt lat="46.496915" lon="10.64134">
        <ele>2818.9686</ele>
        <time>2026-09-03T09:01:42.999Z</time>
      </trkpt>
      <trkpt lat="46.496898" lon="10.641376">
        <ele>2818.79745</ele>
        <time>2026-09-03T09:01:44.999Z</time>
      </trkpt>
      <trkpt lat="46.496876" lon="10.641395">
        <ele>2818.62696</ele>
        <time>2026-09-03T09:01:46.999Z</time>
      </trkpt>
      <trkpt lat="46.496852" lon="10.641405">
        <ele>2818.46795</ele>
        <time>2026-09-03T09:01:48.999Z</time>
      </trkpt>
      <trkpt lat="46.496852" lon="10.641463">
        <ele>2818.3681</ele>
        <time>2026-09-03T09:01:50.999Z</time>
      </trkpt>
      <trkpt lat="46.496833" lon="10.641484">
        <ele>2818.23886</ele>
        <time>2026-09-03T09:01:52.999Z</time>
      </trkpt>
      <trkpt lat="46.496807" lon="10.641511">
        <ele>2818.01463</ele>
        <time>2026-09-03T09:01:55.999Z</time>
      </trkpt>
      <trkpt lat="46.496772" lon="10.641517">
        <ele>2817.77861</ele>
        <time>2026-09-03T09:01:58.999Z</time>
      </trkpt>
      <trkpt lat="46.496744" lon="10.64153">
        <ele>2817.62975</ele>
        <time>2026-09-03T09:02:01.999Z</time>
      </trkpt>
      <trkpt lat="46.49671" lon="10.641509">
        <ele>2817.49664</ele>
        <time>2026-09-03T09:02:04.999Z</time>
      </trkpt>
      <trkpt lat="46.496691" lon="10.64149">
        <ele>2817.35586</ele>
        <time>2026-09-03T09:02:06.999Z</time>
      </trkpt>
      <trkpt lat="46.496667" lon="10.641525">
        <ele>2817.21055</ele>
        <time>2026-09-03T09:02:08.999Z</time>
      </trkpt>
      <trkpt lat="46.496643" lon="10.641546">
        <ele>2817.0582</ele>
        <time>2026-09-03T09:02:12.000Z</time>
      </trkpt>
      <trkpt lat="46.496629" lon="10.641574">
        <ele>2816.96695</ele>
        <time>2026-09-03T09:02:14.000Z</time>
      </trkpt>
      <trkpt lat="46.496638" lon="10.641632">
        <ele>2816.883</ele>
        <time>2026-09-03T09:02:16.000Z</time>
      </trkpt>
      <trkpt lat="46.496625" lon="10.641662">
        <ele>2816.79009</ele>
        <time>2026-09-03T09:02:18.000Z</time>
      </trkpt>
      <trkpt lat="46.496609" lon="10.641695">
        <ele>2816.07617</ele>
        <time>2026-09-03T09:02:26.000Z</time>
      </trkpt>
      <trkpt lat="46.496584" lon="10.641699">
        <ele>2815.77435</ele>
        <time>2026-09-03T09:02:28.000Z</time>
      </trkpt>
      <trkpt lat="46.496553" lon="10.6417">
        <ele>2815.12716</ele>
        <time>2026-09-03T09:02:31.000Z</time>
      </trkpt>
      <trkpt lat="46.496529" lon="10.641703">
        <ele>2814.63588</ele>
        <time>2026-09-03T09:02:33.000Z</time>
      </trkpt>
      <trkpt lat="46.496504" lon="10.64172">
        <ele>2814.11108</ele>
        <time>2026-09-03T09:02:35.000Z</time>
      </trkpt>
      <trkpt lat="46.496481" lon="10.641728">
        <ele>2813.49001</ele>
        <time>2026-09-03T09:02:37.000Z</time>
      </trkpt>
      <trkpt lat="46.496459" lon="10.64174">
        <ele>2812.84878</ele>
        <time>2026-09-03T09:02:39.000Z</time>
      </trkpt>
      <trkpt lat="46.496434" lon="10.641734">
        <ele>2812.22195</ele>
        <time>2026-09-03T09:02:41.000Z</time>
      </trkpt>
      <trkpt lat="46.496409" lon="10.641729">
        <ele>2811.5721</ele>
        <time>2026-09-03T09:02:43.000Z</time>
      </trkpt>
      <trkpt lat="46.496387" lon="10.641753">
        <ele>2811.0717</ele>
        <time>2026-09-03T09:02:45.000Z</time>
      </trkpt>
      <trkpt lat="46.496361" lon="10.641753">
        <ele>2810.54706</ele>
        <time>2026-09-03T09:02:47.000Z</time>
      </trkpt>
      <trkpt lat="46.496342" lon="10.641779">
        <ele>2810.05084</ele>
        <time>2026-09-03T09:02:49.000Z</time>
      </trkpt>
      <trkpt lat="46.496319" lon="10.641798">
        <ele>2809.60608</ele>
        <time>2026-09-03T09:02:51.000Z</time>
      </trkpt>
      <trkpt lat="46.496301" lon="10.641822">
        <ele>2809.23243</ele>
        <time>2026-09-03T09:02:53.000Z</time>
      </trkpt>
      <trkpt lat="46.496284" lon="10.641849">
        <ele>2808.88334</ele>
        <time>2026-09-03T09:02:55.000Z</time>
      </trkpt>
      <trkpt lat="46.49626" lon="10.64186">
        <ele>2808.50082</ele>
        <time>2026-09-03T09:02:57.000Z</time>
      </trkpt>
      <trkpt lat="46.496228" lon="10.641875">
        <ele>2808.0583</ele>
        <time>2026-09-03T09:03:00.000Z</time>
      </trkpt>
      <trkpt lat="46.496213" lon="10.64191">
        <ele>2807.79815</ele>
        <time>2026-09-03T09:03:02.000Z</time>
      </trkpt>
      <trkpt lat="46.496191" lon="10.64193">
        <ele>2807.56248</ele>
        <time>2026-09-03T09:03:04.000Z</time>
      </trkpt>
      <trkpt lat="46.496166" lon="10.641942">
        <ele>2807.30289</ele>
        <time>2026-09-03T09:03:06.000Z</time>
      </trkpt>
      <trkpt lat="46.49615" lon="10.641981">
        <ele>2807.04415</ele>
        <time>2026-09-03T09:03:08.000Z</time>
      </trkpt>
      <trkpt lat="46.496132" lon="10.642013">
        <ele>2806.87542</ele>
        <time>2026-09-03T09:03:10.000Z</time>
      </trkpt>
      <trkpt lat="46.496116" lon="10.642048">
        <ele>2806.66541</ele>
        <time>2026-09-03T09:03:13.000Z</time>
      </trkpt>
      <trkpt lat="46.496094" lon="10.642065">
        <ele>2806.50189</ele>
        <time>2026-09-03T09:03:15.000Z</time>
      </trkpt>
      <trkpt lat="46.496068" lon="10.64208">
        <ele>2806.3144</ele>
        <time>2026-09-03T09:03:17.000Z</time>
      </trkpt>
      <trkpt lat="46.496054" lon="10.642117">
        <ele>2805.9944</ele>
        <time>2026-09-03T09:03:19.999Z</time>
      </trkpt>
      <trkpt lat="46.49603" lon="10.642124">
        <ele>2805.77027</ele>
        <time>2026-09-03T09:03:21.999Z</time>
      </trkpt>
      <trkpt lat="46.496024" lon="10.64216">
        <ele>2805.13039</ele>
        <time>2026-09-03T09:03:25.999Z</time>
      </trkpt>
      <trkpt lat="46.496002" lon="10.642189">
        <ele>2804.68175</ele>
        <time>2026-09-03T09:03:27.999Z</time>
      </trkpt>
      <trkpt lat="46.495978" lon="10.642199">
        <ele>2804.16831</ele>
        <time>2026-09-03T09:03:29.999Z</time>
      </trkpt>
      <trkpt lat="46.495956" lon="10.642209">
        <ele>2803.5328</ele>
        <time>2026-09-03T09:03:31.999Z</time>
      </trkpt>
      <trkpt lat="46.495928" lon="10.642226">
        <ele>2802.93312</ele>
        <time>2026-09-03T09:03:33.999Z</time>
      </trkpt>
      <trkpt lat="46.495904" lon="10.64225">
        <ele>2802.38453</ele>
        <time>2026-09-03T09:03:35.999Z</time>
      </trkpt>
      <trkpt lat="46.495881" lon="10.642269">
        <ele>2801.93958</ele>
        <time>2026-09-03T09:03:37.999Z</time>
      </trkpt>
      <trkpt lat="46.495865" lon="10.642303">
        <ele>2801.60063</ele>
        <time>2026-09-03T09:03:39.999Z</time>
      </trkpt>
      <trkpt lat="46.495841" lon="10.642322">
        <ele>2801.37197</ele>
        <time>2026-09-03T09:03:41.999Z</time>
      </trkpt>
      <trkpt lat="46.495818" lon="10.642351">
        <ele>2801.19972</ele>
        <time>2026-09-03T09:03:43.999Z</time>
      </trkpt>
      <trkpt lat="46.495792" lon="10.642359">
        <ele>2801.0443</ele>
        <time>2026-09-03T09:03:45.999Z</time>
      </trkpt>
      <trkpt lat="46.495774" lon="10.642387">
        <ele>2800.92467</ele>
        <time>2026-09-03T09:03:47.999Z</time>
      </trkpt>
      <trkpt lat="46.495755" lon="10.642409">
        <ele>2800.79814</ele>
        <time>2026-09-03T09:03:49.999Z</time>
      </trkpt>
      <trkpt lat="46.495729" lon="10.642426">
        <ele>2800.68768</ele>
        <time>2026-09-03T09:03:51.999Z</time>
      </trkpt>
      <trkpt lat="46.495707" lon="10.642445">
        <ele>2800.58092</ele>
        <time>2026-09-03T09:03:53.999Z</time>
      </trkpt>
      <trkpt lat="46.495686" lon="10.642485">
        <ele>2800.72472</ele>
        <time>2026-09-03T09:03:58.999Z</time>
      </trkpt>
      <trkpt lat="46.495662" lon="10.642509">
        <ele>2800.78002</ele>
        <time>2026-09-03T09:04:01.999Z</time>
      </trkpt>
      <trkpt lat="46.49564" lon="10.642537">
        <ele>2800.72806</ele>
        <time>2026-09-03T09:04:04.999Z</time>
      </trkpt>
      <trkpt lat="46.495611" lon="10.642547">
        <ele>2800.55927</ele>
        <time>2026-09-03T09:04:07.999Z</time>
      </trkpt>
      <trkpt lat="46.495584" lon="10.642577">
        <ele>2800.30365</ele>
        <time>2026-09-03T09:04:10.999Z</time>
      </trkpt>
      <trkpt lat="46.495553" lon="10.642587">
        <ele>2800.08597</ele>
        <time>2026-09-03T09:04:12.999Z</time>
      </trkpt>
      <trkpt lat="46.495528" lon="10.642577">
        <ele>2799.82497</ele>
        <time>2026-09-03T09:04:14.999Z</time>
      </trkpt>
      <trkpt lat="46.495501" lon="10.642581">
        <ele>2799.52912</ele>
        <time>2026-09-03T09:04:16.999Z</time>
      </trkpt>
      <trkpt lat="46.495473" lon="10.642589">
        <ele>2799.22175</ele>
        <time>2026-09-03T09:04:19.000Z</time>
      </trkpt>
      <trkpt lat="46.495456" lon="10.642628">
        <ele>2798.95217</ele>
        <time>2026-09-03T09:04:21.000Z</time>
      </trkpt>
      <trkpt lat="46.495444" lon="10.642666">
        <ele>2798.76455</ele>
        <time>2026-09-03T09:04:23.000Z</time>
      </trkpt>
      <trkpt lat="46.495425" lon="10.642695">
        <ele>2798.58392</ele>
        <time>2026-09-03T09:04:25.000Z</time>
      </trkpt>
      <trkpt lat="46.495412" lon="10.642728">
        <ele>2798.39758</ele>
        <time>2026-09-03T09:04:27.000Z</time>
      </trkpt>
      <trkpt lat="46.495398" lon="10.642754">
        <ele>2798.245</ele>
        <time>2026-09-03T09:04:29.000Z</time>
      </trkpt>
      <trkpt lat="46.495378" lon="10.642784">
        <ele>2798.09244</ele>
        <time>2026-09-03T09:04:31.000Z</time>
      </trkpt>
      <trkpt lat="46.495355" lon="10.642803">
        <ele>2798.00303</ele>
        <time>2026-09-03T09:04:33.000Z</time>
      </trkpt>
      <trkpt lat="46.495328" lon="10.642813">
        <ele>2797.90049</ele>
        <time>2026-09-03T09:04:36.000Z</time>
      </trkpt>
      <trkpt lat="46.4953" lon="10.642829">
        <ele>2797.8162</ele>
        <time>2026-09-03T09:04:38.000Z</time>
      </trkpt>
      <trkpt lat="46.495272" lon="10.642828">
        <ele>2797.68559</ele>
        <time>2026-09-03T09:04:40.000Z</time>
      </trkpt>
      <trkpt lat="46.49525" lon="10.64284">
        <ele>2797.55194</ele>
        <time>2026-09-03T09:04:42.000Z</time>
      </trkpt>
      <trkpt lat="46.495221" lon="10.642863">
        <ele>2797.38447</ele>
        <time>2026-09-03T09:04:45.000Z</time>
      </trkpt>
      <trkpt lat="46.495205" lon="10.642899">
        <ele>2797.30557</ele>
        <time>2026-09-03T09:04:47.000Z</time>
      </trkpt>
      <trkpt lat="46.495197" lon="10.642937">
        <ele>2797.24876</ele>
        <time>2026-09-03T09:04:49.000Z</time>
      </trkpt>
      <trkpt lat="46.495183" lon="10.642966">
        <ele>2797.26653</ele>
        <time>2026-09-03T09:04:54.000Z</time>
      </trkpt>
      <trkpt lat="46.495156" lon="10.64296">
        <ele>2797.23867</ele>
        <time>2026-09-03T09:04:57.000Z</time>
      </trkpt>
      <trkpt lat="46.495138" lon="10.642938">
        <ele>2797.14093</ele>
        <time>2026-09-03T09:05:00.000Z</time>
      </trkpt>
      <trkpt lat="46.49511" lon="10.642917">
        <ele>2796.97664</ele>
        <time>2026-09-03T09:05:02.000Z</time>
      </trkpt>
      <trkpt lat="46.495085" lon="10.64293">
        <ele>2796.64147</ele>
        <time>2026-09-03T09:05:04.000Z</time>
      </trkpt>
      <trkpt lat="46.495057" lon="10.642929">
        <ele>2796.18119</ele>
        <time>2026-09-03T09:05:06.000Z</time>
      </trkpt>
      <trkpt lat="46.495031" lon="10.642918">
        <ele>2795.65378</ele>
        <time>2026-09-03T09:05:08.000Z</time>
      </trkpt>
      <trkpt lat="46.495001" lon="10.64292">
        <ele>2795.20952</ele>
        <time>2026-09-03T09:05:10.000Z</time>
      </trkpt>
      <trkpt lat="46.494975" lon="10.642924">
        <ele>2794.78292</ele>
        <time>2026-09-03T09:05:12.000Z</time>
      </trkpt>
      <trkpt lat="46.49495" lon="10.642901">
        <ele>2794.33367</ele>
        <time>2026-09-03T09:05:14.000Z</time>
      </trkpt>
      <trkpt lat="46.494923" lon="10.642885">
        <ele>2793.92536</ele>
        <time>2026-09-03T09:05:16.000Z</time>
      </trkpt>
      <trkpt lat="46.494894" lon="10.642881">
        <ele>2793.48913</ele>
        <time>2026-09-03T09:05:18.000Z</time>
      </trkpt>
      <trkpt lat="46.494864" lon="10.642871">
        <ele>2793.089</ele>
        <time>2026-09-03T09:05:20.000Z</time>
      </trkpt>
      <trkpt lat="46.494838" lon="10.64287">
        <ele>2792.72775</ele>
        <time>2026-09-03T09:05:22.000Z</time>
      </trkpt>
      <trkpt lat="46.494814" lon="10.642908">
        <ele>2792.39134</ele>
        <time>2026-09-03T09:05:24.000Z</time>
      </trkpt>
      <trkpt lat="46.494805" lon="10.642946">
        <ele>2792.20506</ele>
        <time>2026-09-03T09:05:26.000Z</time>
      </trkpt>
      <trkpt lat="46.494791" lon="10.642978">
        <ele>2792.06757</ele>
        <time>2026-09-03T09:05:28.000Z</time>
      </trkpt>
      <trkpt lat="46.494764" lon="10.642987">
        <ele>2791.81685</ele>
        <time>2026-09-03T09:05:34.999Z</time>
      </trkpt>
      <trkpt lat="46.494737" lon="10.642981">
        <ele>2791.55687</ele>
        <time>2026-09-03T09:05:37.999Z</time>
      </trkpt>
      <trkpt lat="46.494712" lon="10.64299">
        <ele>2791.14154</ele>
        <time>2026-09-03T09:05:40.999Z</time>
      </trkpt>
      <trkpt lat="46.494685" lon="10.642987">
        <ele>2790.80616</ele>
        <time>2026-09-03T09:05:42.999Z</time>
      </trkpt>
      <trkpt lat="46.494656" lon="10.642987">
        <ele>2790.39034</ele>
        <time>2026-09-03T09:05:44.999Z</time>
      </trkpt>
      <trkpt lat="46.494635" lon="10.64302">
        <ele>2789.72292</ele>
        <time>2026-09-03T09:05:47.999Z</time>
      </trkpt>
      <trkpt lat="46.494607" lon="10.643032">
        <ele>2789.28889</ele>
        <time>2026-09-03T09:05:49.999Z</time>
      </trkpt>
      <trkpt lat="46.494575" lon="10.643023">
        <ele>2788.86276</ele>
        <time>2026-09-03T09:05:51.999Z</time>
      </trkpt>
      <trkpt lat="46.494546" lon="10.643035">
        <ele>2788.55003</ele>
        <time>2026-09-03T09:05:53.999Z</time>
      </trkpt>
      <trkpt lat="46.494522" lon="10.643057">
        <ele>2788.3192</ele>
        <time>2026-09-03T09:05:55.999Z</time>
      </trkpt>
      <trkpt lat="46.494498" lon="10.643059">
        <ele>2788.16234</ele>
        <time>2026-09-03T09:05:57.999Z</time>
      </trkpt>
      <trkpt lat="46.494474" lon="10.643075">
        <ele>2788.06345</ele>
        <time>2026-09-03T09:05:59.999Z</time>
      </trkpt>
      <trkpt lat="46.494454" lon="10.643107">
        <ele>2787.96341</ele>
        <time>2026-09-03T09:06:01.999Z</time>
      </trkpt>
      <trkpt lat="46.49443" lon="10.643117">
        <ele>2787.86542</ele>
        <time>2026-09-03T09:06:03.999Z</time>
      </trkpt>
      <trkpt lat="46.494411" lon="10.643145">
        <ele>2787.7768</ele>
        <time>2026-09-03T09:06:05.999Z</time>
      </trkpt>
      <trkpt lat="46.494394" lon="10.643176">
        <ele>2787.68751</ele>
        <time>2026-09-03T09:06:07.999Z</time>
      </trkpt>
      <trkpt lat="46.494382" lon="10.643213">
        <ele>2787.64356</ele>
        <time>2026-09-03T09:06:09.999Z</time>
      </trkpt>
      <trkpt lat="46.494363" lon="10.643242">
        <ele>2787.59493</ele>
        <time>2026-09-03T09:06:11.999Z</time>
      </trkpt>
      <trkpt lat="46.494339" lon="10.643248">
        <ele>2787.56264</ele>
        <time>2026-09-03T09:06:13.999Z</time>
      </trkpt>
      <trkpt lat="46.494308" lon="10.643245">
        <ele>2787.53439</ele>
        <time>2026-09-03T09:06:15.999Z</time>
      </trkpt>
      <trkpt lat="46.494285" lon="10.643253">
        <ele>2787.49098</ele>
        <time>2026-09-03T09:06:17.999Z</time>
      </trkpt>
      <trkpt lat="46.494255" lon="10.643251">
        <ele>2787.45138</ele>
        <time>2026-09-03T09:06:19.999Z</time>
      </trkpt>
      <trkpt lat="46.494232" lon="10.643275">
        <ele>2787.41285</ele>
        <time>2026-09-03T09:06:21.999Z</time>
      </trkpt>
      <trkpt lat="46.494206" lon="10.643295">
        <ele>2787.40379</ele>
        <time>2026-09-03T09:06:25.000Z</time>
      </trkpt>
      <trkpt lat="46.494178" lon="10.643298">
        <ele>2787.42229</ele>
        <time>2026-09-03T09:06:28.000Z</time>
      </trkpt>
      <trkpt lat="46.494166" lon="10.643333">
        <ele>2787.43451</ele>
        <time>2026-09-03T09:06:31.000Z</time>
      </trkpt>
      <trkpt lat="46.49414" lon="10.643342">
        <ele>2787.40506</ele>
        <time>2026-09-03T09:06:34.000Z</time>
      </trkpt>
      <trkpt lat="46.494127" lon="10.643372">
        <ele>2787.29349</ele>
        <time>2026-09-03T09:06:37.000Z</time>
      </trkpt>
      <trkpt lat="46.4941" lon="10.643403">
        <ele>2787.0075</ele>
        <time>2026-09-03T09:06:41.000Z</time>
      </trkpt>
      <trkpt lat="46.494084" lon="10.643432">
        <ele>2786.83502</ele>
        <time>2026-09-03T09:06:43.000Z</time>
      </trkpt>
      <trkpt lat="46.494078" lon="10.643475">
        <ele>2786.39851</ele>
        <time>2026-09-03T09:06:46.000Z</time>
      </trkpt>
      <trkpt lat="46.494071" lon="10.643508">
        <ele>2785.77948</ele>
        <time>2026-09-03T09:06:49.000Z</time>
      </trkpt>
      <trkpt lat="46.49405" lon="10.643548">
        <ele>2784.9092</ele>
        <time>2026-09-03T09:06:52.000Z</time>
      </trkpt>
      <trkpt lat="46.494035" lon="10.643577">
        <ele>2783.92944</ele>
        <time>2026-09-03T09:06:55.000Z</time>
      </trkpt>
      <trkpt lat="46.494004" lon="10.643594">
        <ele>2783.16967</ele>
        <time>2026-09-03T09:06:57.000Z</time>
      </trkpt>
      <trkpt lat="46.49398" lon="10.643611">
        <ele>2782.42203</ele>
        <time>2026-09-03T09:06:59.000Z</time>
      </trkpt>
      <trkpt lat="46.493969" lon="10.643651">
        <ele>2781.86033</ele>
        <time>2026-09-03T09:07:01.000Z</time>
      </trkpt>
      <trkpt lat="46.493952" lon="10.64368">
        <ele>2781.4915</ele>
        <time>2026-09-03T09:07:03.000Z</time>
      </trkpt>
      <trkpt lat="46.493931" lon="10.643702">
        <ele>2781.21477</ele>
        <time>2026-09-03T09:07:05.000Z</time>
      </trkpt>
      <trkpt lat="46.493902" lon="10.6437">
        <ele>2780.99168</ele>
        <time>2026-09-03T09:07:07.000Z</time>
      </trkpt>
      <trkpt lat="46.493879" lon="10.643714">
        <ele>2780.7642</ele>
        <time>2026-09-03T09:07:09.000Z</time>
      </trkpt>
      <trkpt lat="46.493857" lon="10.643722">
        <ele>2780.62559</ele>
        <time>2026-09-03T09:07:11.000Z</time>
      </trkpt>
      <trkpt lat="46.493847" lon="10.643754">
        <ele>2780.65845</ele>
        <time>2026-09-03T09:07:13.000Z</time>
      </trkpt>
      <trkpt lat="46.493824" lon="10.643746">
        <ele>2780.70277</ele>
        <time>2026-09-03T09:07:15.000Z</time>
      </trkpt>
      <trkpt lat="46.493798" lon="10.643766">
        <ele>2780.69349</ele>
        <time>2026-09-03T09:07:18.000Z</time>
      </trkpt>
      <trkpt lat="46.493769" lon="10.643786">
        <ele>2780.6593</ele>
        <time>2026-09-03T09:07:20.000Z</time>
      </trkpt>
      <trkpt lat="46.493742" lon="10.643796">
        <ele>2780.52033</ele>
        <time>2026-09-03T09:07:23.000Z</time>
      </trkpt>
      <trkpt lat="46.493718" lon="10.643812">
        <ele>2780.36551</ele>
        <time>2026-09-03T09:07:25.000Z</time>
      </trkpt>
      <trkpt lat="46.49369" lon="10.643831">
        <ele>2780.14686</ele>
        <time>2026-09-03T09:07:28.000Z</time>
      </trkpt>
      <trkpt lat="46.493673" lon="10.643872">
        <ele>2780.01112</ele>
        <time>2026-09-03T09:07:30.000Z</time>
      </trkpt>
      <trkpt lat="46.493654" lon="10.64389">
        <ele>2779.88283</ele>
        <time>2026-09-03T09:07:32.000Z</time>
      </trkpt>
      <trkpt lat="46.493637" lon="10.643913">
        <ele>2779.77299</ele>
        <time>2026-09-03T09:07:33.999Z</time>
      </trkpt>
      <trkpt lat="46.493612" lon="10.643925">
        <ele>2779.70841</ele>
        <time>2026-09-03T09:07:35.999Z</time>
      </trkpt>
      <trkpt lat="46.493588" lon="10.643958">
        <ele>2779.67737</ele>
        <time>2026-09-03T09:07:37.999Z</time>
      </trkpt>
      <trkpt lat="46.493584" lon="10.643992">
        <ele>2779.55774</ele>
        <time>2026-09-03T09:07:40.999Z</time>
      </trkpt>
      <trkpt lat="46.493568" lon="10.644022">
        <ele>2779.48721</ele>
        <time>2026-09-03T09:07:42.999Z</time>
      </trkpt>
      <trkpt lat="46.493558" lon="10.644059">
        <ele>2779.41231</ele>
        <time>2026-09-03T09:07:44.999Z</time>
      </trkpt>
      <trkpt lat="46.493552" lon="10.644103">
        <ele>2778.98573</ele>
        <time>2026-09-03T09:07:59.999Z</time>
      </trkpt>
      <trkpt lat="46.493525" lon="10.644148">
        <ele>2778.92272</ele>
        <time>2026-09-03T09:08:01.999Z</time>
      </trkpt>
      <trkpt lat="46.493515" lon="10.644186">
        <ele>2778.82486</ele>
        <time>2026-09-03T09:08:04.999Z</time>
      </trkpt>
      <trkpt lat="46.493499" lon="10.644216">
        <ele>2778.7394</ele>
        <time>2026-09-03T09:08:06.999Z</time>
      </trkpt>
      <trkpt lat="46.49348" lon="10.644247">
        <ele>2778.68341</ele>
        <time>2026-09-03T09:08:08.999Z</time>
      </trkpt>
      <trkpt lat="46.493479" lon="10.644283">
        <ele>2778.65561</ele>
        <time>2026-09-03T09:08:10.999Z</time>
      </trkpt>
      <trkpt lat="46.493476" lon="10.644318">
        <ele>2778.61747</ele>
        <time>2026-09-03T09:08:12.999Z</time>
      </trkpt>
      <trkpt lat="46.49348" lon="10.644352">
        <ele>2778.59503</ele>
        <time>2026-09-03T09:08:13.999Z</time>
      </trkpt>
      <trkpt lat="46.493452" lon="10.644373">
        <ele>2778.54202</ele>
        <time>2026-09-03T09:08:15.999Z</time>
      </trkpt>
      <trkpt lat="46.493429" lon="10.644407">
        <ele>2778.52434</ele>
        <time>2026-09-03T09:08:17.999Z</time>
      </trkpt>
      <trkpt lat="46.493419" lon="10.644447">
        <ele>2778.525</ele>
        <time>2026-09-03T09:08:19.999Z</time>
      </trkpt>
      <trkpt lat="46.493403" lon="10.644478">
        <ele>2778.54105</ele>
        <time>2026-09-03T09:08:21.999Z</time>
      </trkpt>
      <trkpt lat="46.493385" lon="10.644507">
        <ele>2778.55441</ele>
        <time>2026-09-03T09:08:23.999Z</time>
      </trkpt>
      <trkpt lat="46.49336" lon="10.644525">
        <ele>2778.57051</ele>
        <time>2026-09-03T09:08:25.999Z</time>
      </trkpt>
      <trkpt lat="46.49334" lon="10.644553">
        <ele>2778.60287</ele>
        <time>2026-09-03T09:08:27.999Z</time>
      </trkpt>
      <trkpt lat="46.493322" lon="10.644589">
        <ele>2778.63533</ele>
        <time>2026-09-03T09:08:30.000Z</time>
      </trkpt>
      <trkpt lat="46.493314" lon="10.644634">
        <ele>2778.67043</ele>
        <time>2026-09-03T09:08:32.000Z</time>
      </trkpt>
      <trkpt lat="46.493287" lon="10.644652">
        <ele>2778.70497</ele>
        <time>2026-09-03T09:08:34.000Z</time>
      </trkpt>
      <trkpt lat="46.493262" lon="10.644652">
        <ele>2778.73051</ele>
        <time>2026-09-03T09:08:36.000Z</time>
      </trkpt>
      <trkpt lat="46.493233" lon="10.644665">
        <ele>2778.75207</ele>
        <time>2026-09-03T09:08:39.000Z</time>
      </trkpt>
      <trkpt lat="46.493202" lon="10.644658">
        <ele>2778.75362</ele>
        <time>2026-09-03T09:08:41.000Z</time>
      </trkpt>
      <trkpt lat="46.493174" lon="10.644646">
        <ele>2778.75297</ele>
        <time>2026-09-03T09:08:43.000Z</time>
      </trkpt>
      <trkpt lat="46.493154" lon="10.64468">
        <ele>2778.75694</ele>
        <time>2026-09-03T09:08:45.000Z</time>
      </trkpt>
      <trkpt lat="46.493139" lon="10.644713">
        <ele>2778.75912</ele>
        <time>2026-09-03T09:08:47.000Z</time>
      </trkpt>
      <trkpt lat="46.493119" lon="10.644738">
        <ele>2778.75994</ele>
        <time>2026-09-03T09:08:49.000Z</time>
      </trkpt>
      <trkpt lat="46.493102" lon="10.64477">
        <ele>2778.7605</ele>
        <time>2026-09-03T09:08:51.000Z</time>
      </trkpt>
      <trkpt lat="46.493088" lon="10.6448">
        <ele>2778.76683</ele>
        <time>2026-09-03T09:08:53.000Z</time>
      </trkpt>
      <trkpt lat="46.493079" lon="10.644835">
        <ele>2778.77249</ele>
        <time>2026-09-03T09:08:55.000Z</time>
      </trkpt>
      <trkpt lat="46.493065" lon="10.644865">
        <ele>2778.78064</ele>
        <time>2026-09-03T09:08:57.000Z</time>
      </trkpt>
      <trkpt lat="46.493038" lon="10.644873">
        <ele>2778.78628</ele>
        <time>2026-09-03T09:08:59.000Z</time>
      </trkpt>
      <trkpt lat="46.493016" lon="10.644881">
        <ele>2778.78888</ele>
        <time>2026-09-03T09:09:01.000Z</time>
      </trkpt>
      <trkpt lat="46.492998" lon="10.644907">
        <ele>2778.79201</ele>
        <time>2026-09-03T09:09:03.000Z</time>
      </trkpt>
      <trkpt lat="46.492992" lon="10.644952">
        <ele>2778.80225</ele>
        <time>2026-09-03T09:09:05.000Z</time>
      </trkpt>
      <trkpt lat="46.492964" lon="10.644956">
        <ele>2778.80701</ele>
        <time>2026-09-03T09:09:07.000Z</time>
      </trkpt>
      <trkpt lat="46.492935" lon="10.644953">
        <ele>2778.81223</ele>
        <time>2026-09-03T09:09:09.000Z</time>
      </trkpt>
      <trkpt lat="46.49291" lon="10.644958">
        <ele>2778.8112</ele>
        <time>2026-09-03T09:09:11.000Z</time>
      </trkpt>
      <trkpt lat="46.492884" lon="10.644967">
        <ele>2778.80935</ele>
        <time>2026-09-03T09:09:13.000Z</time>
      </trkpt>
      <trkpt lat="46.49286" lon="10.644972">
        <ele>2778.8053</ele>
        <time>2026-09-03T09:09:15.000Z</time>
      </trkpt>
      <trkpt lat="46.492851" lon="10.645018">
        <ele>2778.80657</ele>
        <time>2026-09-03T09:09:17.000Z</time>
      </trkpt>
      <trkpt lat="46.492831" lon="10.645038">
        <ele>2778.80927</ele>
        <time>2026-09-03T09:09:19.000Z</time>
      </trkpt>
      <trkpt lat="46.492798" lon="10.645041">
        <ele>2778.80746</ele>
        <time>2026-09-03T09:09:22.000Z</time>
      </trkpt>
      <trkpt lat="46.492783" lon="10.645075">
        <ele>2778.8004</ele>
        <time>2026-09-03T09:09:24.000Z</time>
      </trkpt>
      <trkpt lat="46.492764" lon="10.645097">
        <ele>2778.79281</ele>
        <time>2026-09-03T09:09:26.000Z</time>
      </trkpt>
      <trkpt lat="46.492747" lon="10.645119">
        <ele>2778.77634</ele>
        <time>2026-09-03T09:09:28.000Z</time>
      </trkpt>
      <trkpt lat="46.492734" lon="10.645092">
        <ele>2778.48823</ele>
        <time>2026-09-03T09:09:35.000Z</time>
      </trkpt>
      <trkpt lat="46.492712" lon="10.645109">
        <ele>2777.65863</ele>
        <time>2026-09-03T09:09:38.999Z</time>
      </trkpt>
      <trkpt lat="46.492684" lon="10.645096">
        <ele>2776.77384</ele>
        <time>2026-09-03T09:09:40.999Z</time>
      </trkpt>
      <trkpt lat="46.492664" lon="10.645123">
        <ele>2775.2263</ele>
        <time>2026-09-03T09:09:43.999Z</time>
      </trkpt>
      <trkpt lat="46.492642" lon="10.645135">
        <ele>2773.48417</ele>
        <time>2026-09-03T09:09:46.999Z</time>
      </trkpt>
      <trkpt lat="46.492616" lon="10.645132">
        <ele>2772.11754</ele>
        <time>2026-09-03T09:09:48.999Z</time>
      </trkpt>
      <trkpt lat="46.492589" lon="10.645116">
        <ele>2770.85445</ele>
        <time>2026-09-03T09:09:50.999Z</time>
      </trkpt>
      <trkpt lat="46.49256" lon="10.645114">
        <ele>2769.87939</ele>
        <time>2026-09-03T09:09:52.999Z</time>
      </trkpt>
      <trkpt lat="46.492537" lon="10.645108">
        <ele>2769.06688</ele>
        <time>2026-09-03T09:09:54.999Z</time>
      </trkpt>
      <trkpt lat="46.492507" lon="10.645113">
        <ele>2768.57874</ele>
        <time>2026-09-03T09:09:56.999Z</time>
      </trkpt>
      <trkpt lat="46.492487" lon="10.645132">
        <ele>2768.2538</ele>
        <time>2026-09-03T09:09:58.999Z</time>
      </trkpt>
      <trkpt lat="46.492462" lon="10.645144">
        <ele>2767.9181</ele>
        <time>2026-09-03T09:10:00.999Z</time>
      </trkpt>
      <trkpt lat="46.492439" lon="10.645149">
        <ele>2767.66567</ele>
        <time>2026-09-03T09:10:02.999Z</time>
      </trkpt>
      <trkpt lat="46.492416" lon="10.645163">
        <ele>2767.4702</ele>
        <time>2026-09-03T09:10:04.999Z</time>
      </trkpt>
      <trkpt lat="46.492393" lon="10.645176">
        <ele>2767.36727</ele>
        <time>2026-09-03T09:10:06.999Z</time>
      </trkpt>
      <trkpt lat="46.492378" lon="10.645212">
        <ele>2767.32888</ele>
        <time>2026-09-03T09:10:08.999Z</time>
      </trkpt>
      <trkpt lat="46.492352" lon="10.645228">
        <ele>2767.35147</ele>
        <time>2026-09-03T09:10:10.999Z</time>
      </trkpt>
      <trkpt lat="46.492339" lon="10.645256">
        <ele>2767.39797</ele>
        <time>2026-09-03T09:10:12.999Z</time>
      </trkpt>
      <trkpt lat="46.49234" lon="10.645312">
        <ele>2767.65559</ele>
        <time>2026-09-03T09:10:15.999Z</time>
      </trkpt>
      <trkpt lat="46.492323" lon="10.64534">
        <ele>2767.7302</ele>
        <time>2026-09-03T09:10:17.999Z</time>
      </trkpt>
      <trkpt lat="46.492297" lon="10.645335">
        <ele>2767.74673</ele>
        <time>2026-09-03T09:10:19.999Z</time>
      </trkpt>
      <trkpt lat="46.492287" lon="10.645287">
        <ele>2767.5328</ele>
        <time>2026-09-03T09:10:22.999Z</time>
      </trkpt>
      <trkpt lat="46.492262" lon="10.645286">
        <ele>2767.15175</ele>
        <time>2026-09-03T09:10:25.999Z</time>
      </trkpt>
      <trkpt lat="46.492257" lon="10.645328">
        <ele>2766.83553</ele>
        <time>2026-09-03T09:10:27.999Z</time>
      </trkpt>
      <trkpt lat="46.492231" lon="10.64533">
        <ele>2765.8262</ele>
        <time>2026-09-03T09:10:31.999Z</time>
      </trkpt>
      <trkpt lat="46.492209" lon="10.645342">
        <ele>2765.1794</ele>
        <time>2026-09-03T09:10:33.999Z</time>
      </trkpt>
      <trkpt lat="46.492176" lon="10.645329">
        <ele>2764.51764</ele>
        <time>2026-09-03T09:10:36.000Z</time>
      </trkpt>
      <trkpt lat="46.49215" lon="10.645337">
        <ele>2763.83778</ele>
        <time>2026-09-03T09:10:38.000Z</time>
      </trkpt>
      <trkpt lat="46.492126" lon="10.645347">
        <ele>2763.22059</ele>
        <time>2026-09-03T09:10:40.000Z</time>
      </trkpt>
      <trkpt lat="46.492102" lon="10.645341">
        <ele>2762.52183</ele>
        <time>2026-09-03T09:10:42.000Z</time>
      </trkpt>
      <trkpt lat="46.492076" lon="10.64531">
        <ele>2761.82887</ele>
        <time>2026-09-03T09:10:44.000Z</time>
      </trkpt>
      <trkpt lat="46.492048" lon="10.645324">
        <ele>2761.24087</ele>
        <time>2026-09-03T09:10:46.000Z</time>
      </trkpt>
      <trkpt lat="46.492034" lon="10.645372">
        <ele>2760.65985</ele>
        <time>2026-09-03T09:10:48.000Z</time>
      </trkpt>
      <trkpt lat="46.492019" lon="10.645399">
        <ele>2760.33557</ele>
        <time>2026-09-03T09:10:50.000Z</time>
      </trkpt>
      <trkpt lat="46.492007" lon="10.645371">
        <ele>2759.75527</ele>
        <time>2026-09-03T09:10:55.000Z</time>
      </trkpt>
      <trkpt lat="46.491977" lon="10.645365">
        <ele>2759.47404</ele>
        <time>2026-09-03T09:10:57.000Z</time>
      </trkpt>
      <trkpt lat="46.491955" lon="10.645376">
        <ele>2759.2278</ele>
        <time>2026-09-03T09:10:59.000Z</time>
      </trkpt>
      <trkpt lat="46.491936" lon="10.645395">
        <ele>2758.80172</ele>
        <time>2026-09-03T09:11:02.000Z</time>
      </trkpt>
      <trkpt lat="46.491913" lon="10.645432">
        <ele>2758.39315</ele>
        <time>2026-09-03T09:11:05.000Z</time>
      </trkpt>
      <trkpt lat="46.491889" lon="10.645432">
        <ele>2757.79829</ele>
        <time>2026-09-03T09:11:08.000Z</time>
      </trkpt>
      <trkpt lat="46.491877" lon="10.645468">
        <ele>2757.15462</ele>
        <time>2026-09-03T09:11:11.000Z</time>
      </trkpt>
      <trkpt lat="46.491856" lon="10.645485">
        <ele>2756.746</ele>
        <time>2026-09-03T09:11:13.000Z</time>
      </trkpt>
      <trkpt lat="46.491843" lon="10.645522">
        <ele>2756.31124</ele>
        <time>2026-09-03T09:11:15.000Z</time>
      </trkpt>
      <trkpt lat="46.491814" lon="10.645535">
        <ele>2755.97769</ele>
        <time>2026-09-03T09:11:17.000Z</time>
      </trkpt>
      <trkpt lat="46.49179" lon="10.645552">
        <ele>2755.61163</ele>
        <time>2026-09-03T09:11:19.000Z</time>
      </trkpt>
      <trkpt lat="46.49177" lon="10.645574">
        <ele>2755.27758</ele>
        <time>2026-09-03T09:11:21.000Z</time>
      </trkpt>
      <trkpt lat="46.491754" lon="10.645608">
        <ele>2754.94324</ele>
        <time>2026-09-03T09:11:23.000Z</time>
      </trkpt>
      <trkpt lat="46.491721" lon="10.645608">
        <ele>2754.57963</ele>
        <time>2026-09-03T09:11:25.000Z</time>
      </trkpt>
      <trkpt lat="46.491692" lon="10.6456">
        <ele>2754.2982</ele>
        <time>2026-09-03T09:11:27.000Z</time>
      </trkpt>
      <trkpt lat="46.491667" lon="10.645608">
        <ele>2754.10994</ele>
        <time>2026-09-03T09:11:29.000Z</time>
      </trkpt>
      <trkpt lat="46.491639" lon="10.645625">
        <ele>2753.92612</ele>
        <time>2026-09-03T09:11:31.000Z</time>
      </trkpt>
      <trkpt lat="46.491628" lon="10.645674">
        <ele>2753.71615</ele>
        <time>2026-09-03T09:11:33.000Z</time>
      </trkpt>
      <trkpt lat="46.491628" lon="10.645724">
        <ele>2753.52543</ele>
        <time>2026-09-03T09:11:35.000Z</time>
      </trkpt>
      <trkpt lat="46.491633" lon="10.645761">
        <ele>2753.31083</ele>
        <time>2026-09-03T09:11:37.000Z</time>
      </trkpt>
      <trkpt lat="46.491615" lon="10.645802">
        <ele>2752.73023</ele>
        <time>2026-09-03T09:11:41.000Z</time>
      </trkpt>
      <trkpt lat="46.491585" lon="10.645795">
        <ele>2752.45686</ele>
        <time>2026-09-03T09:11:43.000Z</time>
      </trkpt>
      <trkpt lat="46.491555" lon="10.645806">
        <ele>2752.13422</ele>
        <time>2026-09-03T09:11:45.000Z</time>
      </trkpt>
      <trkpt lat="46.491528" lon="10.645802">
        <ele>2751.92542</ele>
        <time>2026-09-03T09:11:47.000Z</time>
      </trkpt>
      <trkpt lat="46.491557" lon="10.645799">
        <ele>2750.86313</ele>
        <time>2026-09-03T09:12:13.999Z</time>
      </trkpt>
      <trkpt lat="46.491535" lon="10.645794">
        <ele>2750.67058</ele>
        <time>2026-09-03T09:12:19.999Z</time>
      </trkpt>
      <trkpt lat="46.491522" lon="10.645821">
        <ele>2750.3173</ele>
        <time>2026-09-03T09:13:13.000Z</time>
      </trkpt>
      <trkpt lat="46.491508" lon="10.64585">
        <ele>2750.26936</ele>
        <time>2026-09-03T09:13:21.000Z</time>
      </trkpt>
      <trkpt lat="46.491485" lon="10.645883">
        <ele>2750.26</ele>
        <time>2026-09-03T09:13:22.000Z</time>
      </trkpt>
      <trkpt lat="46.491456" lon="10.6459">
        <ele>2750.24046</ele>
        <time>2026-09-03T09:13:24.000Z</time>
      </trkpt>
      <trkpt lat="46.491433" lon="10.645922">
        <ele>2750.22142</ele>
        <time>2026-09-03T09:13:26.000Z</time>
      </trkpt>
      <trkpt lat="46.491416" lon="10.645959">
        <ele>2750.18288</ele>
        <time>2026-09-03T09:13:29.000Z</time>
      </trkpt>
      <trkpt lat="46.491411" lon="10.645995">
        <ele>2750.13101</ele>
        <time>2026-09-03T09:13:32.000Z</time>
      </trkpt>
      <trkpt lat="46.491424" lon="10.646022">
        <ele>2750.04911</ele>
        <time>2026-09-03T09:13:35.000Z</time>
      </trkpt>
      <trkpt lat="46.491416" lon="10.646065">
        <ele>2749.93842</ele>
        <time>2026-09-03T09:13:37.000Z</time>
      </trkpt>
      <trkpt lat="46.491404" lon="10.64611">
        <ele>2749.78422</ele>
        <time>2026-09-03T09:13:39.000Z</time>
      </trkpt>
      <trkpt lat="46.491394" lon="10.646147">
        <ele>2749.61433</ele>
        <time>2026-09-03T09:13:41.000Z</time>
      </trkpt>
      <trkpt lat="46.491369" lon="10.646171">
        <ele>2749.42877</ele>
        <time>2026-09-03T09:13:43.000Z</time>
      </trkpt>
      <trkpt lat="46.491345" lon="10.646187">
        <ele>2749.22432</ele>
        <time>2026-09-03T09:13:45.000Z</time>
      </trkpt>
      <trkpt lat="46.49133" lon="10.646215">
        <ele>2748.98468</ele>
        <time>2026-09-03T09:13:47.000Z</time>
      </trkpt>
      <trkpt lat="46.491309" lon="10.646242">
        <ele>2748.7112</ele>
        <time>2026-09-03T09:13:49.000Z</time>
      </trkpt>
      <trkpt lat="46.491298" lon="10.646275">
        <ele>2748.45798</ele>
        <time>2026-09-03T09:13:51.000Z</time>
      </trkpt>
      <trkpt lat="46.491271" lon="10.646292">
        <ele>2748.03349</ele>
        <time>2026-09-03T09:13:53.999Z</time>
      </trkpt>
      <trkpt lat="46.491243" lon="10.646277">
        <ele>2747.63456</ele>
        <time>2026-09-03T09:13:55.999Z</time>
      </trkpt>
      <trkpt lat="46.491221" lon="10.646272">
        <ele>2747.23748</ele>
        <time>2026-09-03T09:13:57.999Z</time>
      </trkpt>
      <trkpt lat="46.4912" lon="10.646294">
        <ele>2746.88974</ele>
        <time>2026-09-03T09:13:59.999Z</time>
      </trkpt>
      <trkpt lat="46.491181" lon="10.646311">
        <ele>2746.56435</ele>
        <time>2026-09-03T09:14:01.999Z</time>
      </trkpt>
      <trkpt lat="46.491161" lon="10.646334">
        <ele>2746.27921</ele>
        <time>2026-09-03T09:14:03.999Z</time>
      </trkpt>
      <trkpt lat="46.491134" lon="10.646332">
        <ele>2745.98567</ele>
        <time>2026-09-03T09:14:05.999Z</time>
      </trkpt>
      <trkpt lat="46.491103" lon="10.646351">
        <ele>2745.51643</ele>
        <time>2026-09-03T09:14:08.999Z</time>
      </trkpt>
      <trkpt lat="46.491081" lon="10.646364">
        <ele>2745.19582</ele>
        <time>2026-09-03T09:14:10.999Z</time>
      </trkpt>
      <trkpt lat="46.49106" lon="10.646383">
        <ele>2744.89841</ele>
        <time>2026-09-03T09:14:12.999Z</time>
      </trkpt>
      <trkpt lat="46.491038" lon="10.646396">
        <ele>2744.55638</ele>
        <time>2026-09-03T09:14:14.999Z</time>
      </trkpt>
      <trkpt lat="46.491015" lon="10.646404">
        <ele>2744.16632</ele>
        <time>2026-09-03T09:14:16.999Z</time>
      </trkpt>
      <trkpt lat="46.491003" lon="10.646436">
        <ele>2743.78326</ele>
        <time>2026-09-03T09:14:18.999Z</time>
      </trkpt>
      <trkpt lat="46.490975" lon="10.646444">
        <ele>2743.10494</ele>
        <time>2026-09-03T09:14:21.999Z</time>
      </trkpt>
      <trkpt lat="46.490964" lon="10.646479">
        <ele>2742.65966</ele>
        <time>2026-09-03T09:14:23.999Z</time>
      </trkpt>
      <trkpt lat="46.490947" lon="10.646512">
        <ele>2742.1619</ele>
        <time>2026-09-03T09:14:26.999Z</time>
      </trkpt>
      <trkpt lat="46.490921" lon="10.646529">
        <ele>2741.82055</ele>
        <time>2026-09-03T09:14:28.999Z</time>
      </trkpt>
      <trkpt lat="46.490886" lon="10.646525">
        <ele>2741.29298</ele>
        <time>2026-09-03T09:14:31.999Z</time>
      </trkpt>
      <trkpt lat="46.490861" lon="10.646516">
        <ele>2740.90232</ele>
        <time>2026-09-03T09:14:33.999Z</time>
      </trkpt>
      <trkpt lat="46.490838" lon="10.646506">
        <ele>2740.4429</ele>
        <time>2026-09-03T09:14:35.999Z</time>
      </trkpt>
      <trkpt lat="46.490813" lon="10.646525">
        <ele>2739.95809</ele>
        <time>2026-09-03T09:14:37.999Z</time>
      </trkpt>
      <trkpt lat="46.490784" lon="10.646543">
        <ele>2739.19479</ele>
        <time>2026-09-03T09:14:40.999Z</time>
      </trkpt>
      <trkpt lat="46.490752" lon="10.646542">
        <ele>2737.8985</ele>
        <time>2026-09-03T09:14:44.999Z</time>
      </trkpt>
      <trkpt lat="46.490735" lon="10.646565">
        <ele>2737.2096</ele>
        <time>2026-09-03T09:14:47.000Z</time>
      </trkpt>
      <trkpt lat="46.490708" lon="10.646585">
        <ele>2736.6054</ele>
        <time>2026-09-03T09:14:49.000Z</time>
      </trkpt>
      <trkpt lat="46.490691" lon="10.64662">
        <ele>2735.90489</ele>
        <time>2026-09-03T09:14:52.000Z</time>
      </trkpt>
      <trkpt lat="46.490684" lon="10.646667">
        <ele>2735.36019</ele>
        <time>2026-09-03T09:14:55.000Z</time>
      </trkpt>
      <trkpt lat="46.490701" lon="10.64669">
        <ele>2734.8926</ele>
        <time>2026-09-03T09:14:57.000Z</time>
      </trkpt>
      <trkpt lat="46.490722" lon="10.646729">
        <ele>2734.38282</ele>
        <time>2026-09-03T09:14:59.000Z</time>
      </trkpt>
      <trkpt lat="46.490734" lon="10.646777">
        <ele>2733.59643</ele>
        <time>2026-09-03T09:15:02.000Z</time>
      </trkpt>
      <trkpt lat="46.490725" lon="10.646812">
        <ele>2732.95078</ele>
        <time>2026-09-03T09:15:05.000Z</time>
      </trkpt>
      <trkpt lat="46.490707" lon="10.646851">
        <ele>2732.5534</ele>
        <time>2026-09-03T09:15:07.000Z</time>
      </trkpt>
      <trkpt lat="46.490702" lon="10.646891">
        <ele>2732.20229</ele>
        <time>2026-09-03T09:15:09.000Z</time>
      </trkpt>
      <trkpt lat="46.490691" lon="10.646925">
        <ele>2731.86977</ele>
        <time>2026-09-03T09:15:11.000Z</time>
      </trkpt>
      <trkpt lat="46.490689" lon="10.646964">
        <ele>2731.53728</ele>
        <time>2026-09-03T09:15:13.000Z</time>
      </trkpt>
      <trkpt lat="46.49069" lon="10.647">
        <ele>2731.29557</ele>
        <time>2026-09-03T09:15:15.000Z</time>
      </trkpt>
      <trkpt lat="46.490691" lon="10.647036">
        <ele>2731.09061</ele>
        <time>2026-09-03T09:15:17.000Z</time>
      </trkpt>
      <trkpt lat="46.490671" lon="10.647056">
        <ele>2730.83126</ele>
        <time>2026-09-03T09:15:20.000Z</time>
      </trkpt>
      <trkpt lat="46.490654" lon="10.647092">
        <ele>2730.62917</ele>
        <time>2026-09-03T09:15:22.000Z</time>
      </trkpt>
      <trkpt lat="46.490653" lon="10.64713">
        <ele>2730.45029</ele>
        <time>2026-09-03T09:15:24.000Z</time>
      </trkpt>
      <trkpt lat="46.490642" lon="10.647164">
        <ele>2730.2521</ele>
        <time>2026-09-03T09:15:26.000Z</time>
      </trkpt>
      <trkpt lat="46.490635" lon="10.647208">
        <ele>2729.94868</ele>
        <time>2026-09-03T09:15:29.000Z</time>
      </trkpt>
      <trkpt lat="46.49064" lon="10.647246">
        <ele>2729.6417</ele>
        <time>2026-09-03T09:15:32.000Z</time>
      </trkpt>
      <trkpt lat="46.490628" lon="10.647291">
        <ele>2729.30691</ele>
        <time>2026-09-03T09:15:35.000Z</time>
      </trkpt>
      <trkpt lat="46.490611" lon="10.647334">
        <ele>2728.94843</ele>
        <time>2026-09-03T09:15:38.000Z</time>
      </trkpt>
      <trkpt lat="46.490612" lon="10.647373">
        <ele>2728.66187</ele>
        <time>2026-09-03T09:15:40.000Z</time>
      </trkpt>
      <trkpt lat="46.490604" lon="10.647407">
        <ele>2728.33739</ele>
        <time>2026-09-03T09:15:42.000Z</time>
      </trkpt>
      <trkpt lat="46.490594" lon="10.647441">
        <ele>2728.17873</ele>
        <time>2026-09-03T09:15:43.000Z</time>
      </trkpt>
      <trkpt lat="46.490588" lon="10.647479">
        <ele>2727.78701</ele>
        <time>2026-09-03T09:15:46.000Z</time>
      </trkpt>
      <trkpt lat="46.490578" lon="10.647522">
        <ele>2727.53112</ele>
        <time>2026-09-03T09:15:48.000Z</time>
      </trkpt>
      <trkpt lat="46.490577" lon="10.647577">
        <ele>2726.99576</ele>
        <time>2026-09-03T09:15:52.000Z</time>
      </trkpt>
      <trkpt lat="46.490572" lon="10.647613">
        <ele>2725.28789</ele>
        <time>2026-09-03T09:16:04.999Z</time>
      </trkpt>
      <trkpt lat="46.490569" lon="10.64765">
        <ele>2724.99201</ele>
        <time>2026-09-03T09:16:06.999Z</time>
      </trkpt>
      <trkpt lat="46.490558" lon="10.647685">
        <ele>2724.5927</ele>
        <time>2026-09-03T09:16:08.999Z</time>
      </trkpt>
      <trkpt lat="46.49056" lon="10.647718">
        <ele>2724.14348</ele>
        <time>2026-09-03T09:16:10.999Z</time>
      </trkpt>
      <trkpt lat="46.490561" lon="10.647755">
        <ele>2723.75511</ele>
        <time>2026-09-03T09:16:12.999Z</time>
      </trkpt>
      <trkpt lat="46.490556" lon="10.647792">
        <ele>2723.31235</ele>
        <time>2026-09-03T09:16:14.999Z</time>
      </trkpt>
      <trkpt lat="46.49054" lon="10.647816">
        <ele>2722.82088</ele>
        <time>2026-09-03T09:16:16.999Z</time>
      </trkpt>
      <trkpt lat="46.490544" lon="10.64785">
        <ele>2722.38742</ele>
        <time>2026-09-03T09:16:18.999Z</time>
      </trkpt>
      <trkpt lat="46.490535" lon="10.647893">
        <ele>2721.72023</ele>
        <time>2026-09-03T09:16:21.999Z</time>
      </trkpt>
      <trkpt lat="46.490524" lon="10.647935">
        <ele>2721.01054</ele>
        <time>2026-09-03T09:16:24.999Z</time>
      </trkpt>
      <trkpt lat="46.490531" lon="10.64797">
        <ele>2720.46748</ele>
        <time>2026-09-03T09:16:26.999Z</time>
      </trkpt>
      <trkpt lat="46.490527" lon="10.648013">
        <ele>2719.83388</ele>
        <time>2026-09-03T09:16:28.999Z</time>
      </trkpt>
      <trkpt lat="46.490514" lon="10.648041">
        <ele>2719.12181</ele>
        <time>2026-09-03T09:16:30.999Z</time>
      </trkpt>
      <trkpt lat="46.4905" lon="10.648072">
        <ele>2718.3185</ele>
        <time>2026-09-03T09:16:32.999Z</time>
      </trkpt>
      <trkpt lat="46.490481" lon="10.64811">
        <ele>2717.73429</ele>
        <time>2026-09-03T09:16:34.999Z</time>
      </trkpt>
      <trkpt lat="46.490489" lon="10.648154">
        <ele>2717.31865</ele>
        <time>2026-09-03T09:16:36.999Z</time>
      </trkpt>
      <trkpt lat="46.4905" lon="10.648194">
        <ele>2717.05729</ele>
        <time>2026-09-03T09:16:38.999Z</time>
      </trkpt>
      <trkpt lat="46.490494" lon="10.648228">
        <ele>2716.80817</ele>
        <time>2026-09-03T09:16:40.999Z</time>
      </trkpt>
      <trkpt lat="46.490466" lon="10.648253">
        <ele>2716.574</ele>
        <time>2026-09-03T09:16:42.999Z</time>
      </trkpt>
      <trkpt lat="46.49046" lon="10.648292">
        <ele>2716.40739</ele>
        <time>2026-09-03T09:16:44.999Z</time>
      </trkpt>
      <trkpt lat="46.49048" lon="10.64832">
        <ele>2716.09176</ele>
        <time>2026-09-03T09:16:54.000Z</time>
      </trkpt>
      <trkpt lat="46.490459" lon="10.648364">
        <ele>2715.72327</ele>
        <time>2026-09-03T09:16:58.000Z</time>
      </trkpt>
      <trkpt lat="46.490452" lon="10.648407">
        <ele>2715.17764</ele>
        <time>2026-09-03T09:17:02.000Z</time>
      </trkpt>
      <trkpt lat="46.490446" lon="10.648452">
        <ele>2714.4519</ele>
        <time>2026-09-03T09:17:05.000Z</time>
      </trkpt>
      <trkpt lat="46.490427" lon="10.648495">
        <ele>2713.99797</ele>
        <time>2026-09-03T09:17:07.000Z</time>
      </trkpt>
      <trkpt lat="46.490422" lon="10.648535">
        <ele>2713.37146</ele>
        <time>2026-09-03T09:17:11.000Z</time>
      </trkpt>
      <trkpt lat="46.490417" lon="10.648567">
        <ele>2712.70042</ele>
        <time>2026-09-03T09:17:14.000Z</time>
      </trkpt>
      <trkpt lat="46.490409" lon="10.648599">
        <ele>2711.64876</ele>
        <time>2026-09-03T09:17:18.000Z</time>
      </trkpt>
      <trkpt lat="46.490387" lon="10.648633">
        <ele>2711.14197</ele>
        <time>2026-09-03T09:17:20.000Z</time>
      </trkpt>
      <trkpt lat="46.490377" lon="10.648682">
        <ele>2710.32509</ele>
        <time>2026-09-03T09:17:23.000Z</time>
      </trkpt>
      <trkpt lat="46.49037" lon="10.64872">
        <ele>2709.50201</ele>
        <time>2026-09-03T09:17:26.000Z</time>
      </trkpt>
      <trkpt lat="46.490352" lon="10.648745">
        <ele>2709.0033</ele>
        <time>2026-09-03T09:17:28.000Z</time>
      </trkpt>
      <trkpt lat="46.490359" lon="10.648783">
        <ele>2708.46662</ele>
        <time>2026-09-03T09:17:30.000Z</time>
      </trkpt>
      <trkpt lat="46.490356" lon="10.648824">
        <ele>2707.93694</ele>
        <time>2026-09-03T09:17:32.000Z</time>
      </trkpt>
      <trkpt lat="46.490366" lon="10.64886">
        <ele>2707.60749</ele>
        <time>2026-09-03T09:17:34.000Z</time>
      </trkpt>
      <trkpt lat="46.490368" lon="10.648897">
        <ele>2707.42402</ele>
        <time>2026-09-03T09:17:36.000Z</time>
      </trkpt>
      <trkpt lat="46.490347" lon="10.648917">
        <ele>2707.12416</ele>
        <time>2026-09-03T09:17:38.000Z</time>
      </trkpt>
      <trkpt lat="46.490323" lon="10.648934">
        <ele>2706.72651</ele>
        <time>2026-09-03T09:17:40.000Z</time>
      </trkpt>
      <trkpt lat="46.490316" lon="10.648969">
        <ele>2706.54443</ele>
        <time>2026-09-03T09:17:42.000Z</time>
      </trkpt>
      <trkpt lat="46.490308" lon="10.649007">
        <ele>2706.39196</ele>
        <time>2026-09-03T09:17:44.000Z</time>
      </trkpt>
      <trkpt lat="46.490308" lon="10.649044">
        <ele>2706.24917</ele>
        <time>2026-09-03T09:17:46.000Z</time>
      </trkpt>
      <trkpt lat="46.490314" lon="10.649083">
        <ele>2706.09464</ele>
        <time>2026-09-03T09:17:48.000Z</time>
      </trkpt>
      <trkpt lat="46.490296" lon="10.649111">
        <ele>2705.88393</ele>
        <time>2026-09-03T09:17:50.000Z</time>
      </trkpt>
      <trkpt lat="46.490284" lon="10.649145">
        <ele>2705.56553</ele>
        <time>2026-09-03T09:17:53.000Z</time>
      </trkpt>
      <trkpt lat="46.490282" lon="10.649185">
        <ele>2704.62955</ele>
        <time>2026-09-03T09:17:58.999Z</time>
      </trkpt>
      <trkpt lat="46.490276" lon="10.649219">
        <ele>2703.96738</ele>
        <time>2026-09-03T09:18:01.999Z</time>
      </trkpt>
      <trkpt lat="46.490253" lon="10.649233">
        <ele>2703.52491</ele>
        <time>2026-09-03T09:18:03.999Z</time>
      </trkpt>
      <trkpt lat="46.490244" lon="10.64927">
        <ele>2702.73924</ele>
        <time>2026-09-03T09:18:06.999Z</time>
      </trkpt>
      <trkpt lat="46.490224" lon="10.649302">
        <ele>2702.17115</ele>
        <time>2026-09-03T09:18:08.999Z</time>
      </trkpt>
      <trkpt lat="46.490194" lon="10.649324">
        <ele>2701.63182</ele>
        <time>2026-09-03T09:18:10.999Z</time>
      </trkpt>
      <trkpt lat="46.490171" lon="10.649347">
        <ele>2701.16833</ele>
        <time>2026-09-03T09:18:12.999Z</time>
      </trkpt>
      <trkpt lat="46.490138" lon="10.649356">
        <ele>2700.58257</ele>
        <time>2026-09-03T09:18:14.999Z</time>
      </trkpt>
      <trkpt lat="46.490116" lon="10.649367">
        <ele>2700.01123</ele>
        <time>2026-09-03T09:18:16.999Z</time>
      </trkpt>
      <trkpt lat="46.490099" lon="10.649411">
        <ele>2699.60925</ele>
        <time>2026-09-03T09:18:18.999Z</time>
      </trkpt>
      <trkpt lat="46.490082" lon="10.649448">
        <ele>2699.30985</ele>
        <time>2026-09-03T09:18:20.999Z</time>
      </trkpt>
      <trkpt lat="46.490059" lon="10.649472">
        <ele>2699.05032</ele>
        <time>2026-09-03T09:18:22.999Z</time>
      </trkpt>
      <trkpt lat="46.490038" lon="10.649499">
        <ele>2698.92325</ele>
        <time>2026-09-03T09:18:24.999Z</time>
      </trkpt>
      <trkpt lat="46.490008" lon="10.649506">
        <ele>2698.82342</ele>
        <time>2026-09-03T09:18:26.999Z</time>
      </trkpt>
      <trkpt lat="46.48999" lon="10.649531">
        <ele>2698.82519</ele>
        <time>2026-09-03T09:18:28.999Z</time>
      </trkpt>
      <trkpt lat="46.489977" lon="10.649568">
        <ele>2698.85725</ele>
        <time>2026-09-03T09:18:30.999Z</time>
      </trkpt>
      <trkpt lat="46.489959" lon="10.649603">
        <ele>2698.85437</ele>
        <time>2026-09-03T09:18:32.999Z</time>
      </trkpt>
      <trkpt lat="46.489943" lon="10.649636">
        <ele>2698.82023</ele>
        <time>2026-09-03T09:18:34.999Z</time>
      </trkpt>
      <trkpt lat="46.489933" lon="10.649675">
        <ele>2698.80104</ele>
        <time>2026-09-03T09:18:36.999Z</time>
      </trkpt>
      <trkpt lat="46.489912" lon="10.649703">
        <ele>2698.83746</ele>
        <time>2026-09-03T09:18:38.999Z</time>
      </trkpt>
      <trkpt lat="46.489892" lon="10.649728">
        <ele>2698.88671</ele>
        <time>2026-09-03T09:18:40.999Z</time>
      </trkpt>
      <trkpt lat="46.489869" lon="10.649745">
        <ele>2698.93056</ele>
        <time>2026-09-03T09:18:42.999Z</time>
      </trkpt>
      <trkpt lat="46.489853" lon="10.649778">
        <ele>2698.9614</ele>
        <time>2026-09-03T09:18:44.999Z</time>
      </trkpt>
      <trkpt lat="46.489855" lon="10.64982">
        <ele>2698.9747</ele>
        <time>2026-09-03T09:18:46.999Z</time>
      </trkpt>
      <trkpt lat="46.489828" lon="10.649847">
        <ele>2698.9604</ele>
        <time>2026-09-03T09:18:49.999Z</time>
      </trkpt>
      <trkpt lat="46.489813" lon="10.64989">
        <ele>2698.9316</ele>
        <time>2026-09-03T09:18:52.999Z</time>
      </trkpt>
      <trkpt lat="46.489795" lon="10.649914">
        <ele>2698.90074</ele>
        <time>2026-09-03T09:18:56.999Z</time>
      </trkpt>
      <trkpt lat="46.489788" lon="10.64995">
        <ele>2698.64982</ele>
        <time>2026-09-03T09:19:03.000Z</time>
      </trkpt>
      <trkpt lat="46.489784" lon="10.649982">
        <ele>2698.53307</ele>
        <time>2026-09-03T09:19:04.000Z</time>
      </trkpt>
      <trkpt lat="46.489759" lon="10.649989">
        <ele>2698.21818</ele>
        <time>2026-09-03T09:19:06.000Z</time>
      </trkpt>
      <trkpt lat="46.48974" lon="10.650027">
        <ele>2697.64804</ele>
        <time>2026-09-03T09:19:09.000Z</time>
      </trkpt>
      <trkpt lat="46.489714" lon="10.650031">
        <ele>2697.21311</ele>
        <time>2026-09-03T09:19:11.000Z</time>
      </trkpt>
      <trkpt lat="46.489692" lon="10.650058">
        <ele>2696.39221</ele>
        <time>2026-09-03T09:19:14.000Z</time>
      </trkpt>
      <trkpt lat="46.489684" lon="10.650089">
        <ele>2695.7894</ele>
        <time>2026-09-03T09:19:16.000Z</time>
      </trkpt>
      <trkpt lat="46.489652" lon="10.650101">
        <ele>2694.84659</ele>
        <time>2026-09-03T09:19:19.000Z</time>
      </trkpt>
      <trkpt lat="46.489656" lon="10.650152">
        <ele>2694.22742</ele>
        <time>2026-09-03T09:19:21.000Z</time>
      </trkpt>
      <trkpt lat="46.489656" lon="10.650187">
        <ele>2693.62142</ele>
        <time>2026-09-03T09:19:23.000Z</time>
      </trkpt>
      <trkpt lat="46.489633" lon="10.650197">
        <ele>2693.09492</ele>
        <time>2026-09-03T09:19:25.000Z</time>
      </trkpt>
      <trkpt lat="46.489611" lon="10.650226">
        <ele>2692.21817</ele>
        <time>2026-09-03T09:19:28.000Z</time>
      </trkpt>
      <trkpt lat="46.489607" lon="10.65026">
        <ele>2691.61694</ele>
        <time>2026-09-03T09:19:30.000Z</time>
      </trkpt>
      <trkpt lat="46.489604" lon="10.650298">
        <ele>2691.11335</ele>
        <time>2026-09-03T09:19:32.000Z</time>
      </trkpt>
      <trkpt lat="46.489593" lon="10.650335">
        <ele>2690.42508</ele>
        <time>2026-09-03T09:19:35.000Z</time>
      </trkpt>
      <trkpt lat="46.489587" lon="10.650375">
        <ele>2689.80871</ele>
        <time>2026-09-03T09:19:38.000Z</time>
      </trkpt>
      <trkpt lat="46.489583" lon="10.650419">
        <ele>2689.20478</ele>
        <time>2026-09-03T09:19:41.000Z</time>
      </trkpt>
      <trkpt lat="46.489563" lon="10.650446">
        <ele>2688.64524</ele>
        <time>2026-09-03T09:19:44.000Z</time>
      </trkpt>
      <trkpt lat="46.48957" lon="10.650484">
        <ele>2688.30811</ele>
        <time>2026-09-03T09:19:46.000Z</time>
      </trkpt>
      <trkpt lat="46.489565" lon="10.65052">
        <ele>2687.8307</ele>
        <time>2026-09-03T09:19:49.000Z</time>
      </trkpt>
      <trkpt lat="46.489587" lon="10.650501">
        <ele>2686.18778</ele>
        <time>2026-09-03T09:19:59.000Z</time>
      </trkpt>
      <trkpt lat="46.489612" lon="10.65048">
        <ele>2682.38556</ele>
        <time>2026-09-03T09:20:10.000Z</time>
      </trkpt>
      <trkpt lat="46.489626" lon="10.650452">
        <ele>2680.46279</ele>
        <time>2026-09-03T09:20:19.999Z</time>
      </trkpt>
      <trkpt lat="46.489613" lon="10.650484">
        <ele>2679.30714</ele>
        <time>2026-09-03T09:20:36.999Z</time>
      </trkpt>
      <trkpt lat="46.48959" lon="10.65053">
        <ele>2678.93654</ele>
        <time>2026-09-03T09:20:39.999Z</time>
      </trkpt>
      <trkpt lat="46.489583" lon="10.650564">
        <ele>2678.76657</ele>
        <time>2026-09-03T09:20:40.999Z</time>
      </trkpt>
      <trkpt lat="46.489584" lon="10.650624">
        <ele>2678.33123</ele>
        <time>2026-09-03T09:20:42.999Z</time>
      </trkpt>
      <trkpt lat="46.489583" lon="10.650672">
        <ele>2677.50157</ele>
        <time>2026-09-03T09:20:45.999Z</time>
      </trkpt>
      <trkpt lat="46.489575" lon="10.650729">
        <ele>2676.94715</ele>
        <time>2026-09-03T09:20:47.999Z</time>
      </trkpt>
      <trkpt lat="46.489555" lon="10.650751">
        <ele>2676.379</ele>
        <time>2026-09-03T09:20:49.999Z</time>
      </trkpt>
      <trkpt lat="46.489534" lon="10.650771">
        <ele>2675.63345</ele>
        <time>2026-09-03T09:20:52.999Z</time>
      </trkpt>
      <trkpt lat="46.489508" lon="10.650798">
        <ele>2675.01643</ele>
        <time>2026-09-03T09:20:54.999Z</time>
      </trkpt>
      <trkpt lat="46.489506" lon="10.650839">
        <ele>2674.3604</ele>
        <time>2026-09-03T09:20:56.999Z</time>
      </trkpt>
      <trkpt lat="46.48948" lon="10.650853">
        <ele>2673.66187</ele>
        <time>2026-09-03T09:20:58.999Z</time>
      </trkpt>
      <trkpt lat="46.489477" lon="10.650893">
        <ele>2672.92074</ele>
        <time>2026-09-03T09:21:00.999Z</time>
      </trkpt>
      <trkpt lat="46.489462" lon="10.650932">
        <ele>2672.0555</ele>
        <time>2026-09-03T09:21:02.999Z</time>
      </trkpt>
      <trkpt lat="46.489449" lon="10.650966">
        <ele>2671.33463</ele>
        <time>2026-09-03T09:21:05.000Z</time>
      </trkpt>
      <trkpt lat="46.489436" lon="10.651">
        <ele>2670.60565</ele>
        <time>2026-09-03T09:21:07.000Z</time>
      </trkpt>
      <trkpt lat="46.489421" lon="10.651031">
        <ele>2669.99321</ele>
        <time>2026-09-03T09:21:09.000Z</time>
      </trkpt>
      <trkpt lat="46.4894" lon="10.651062">
        <ele>2669.68015</ele>
        <time>2026-09-03T09:21:11.000Z</time>
      </trkpt>
      <trkpt lat="46.48938" lon="10.6511">
        <ele>2669.28878</ele>
        <time>2026-09-03T09:21:13.000Z</time>
      </trkpt>
      <trkpt lat="46.489377" lon="10.651136">
        <ele>2668.86599</ele>
        <time>2026-09-03T09:21:15.000Z</time>
      </trkpt>
      <trkpt lat="46.489352" lon="10.651157">
        <ele>2668.13045</ele>
        <time>2026-09-03T09:21:18.000Z</time>
      </trkpt>
      <trkpt lat="46.48936" lon="10.651198">
        <ele>2667.69753</ele>
        <time>2026-09-03T09:21:20.000Z</time>
      </trkpt>
      <trkpt lat="46.489364" lon="10.651238">
        <ele>2666.90153</ele>
        <time>2026-09-03T09:21:23.000Z</time>
      </trkpt>
      <trkpt lat="46.489357" lon="10.651278">
        <ele>2665.29729</ele>
        <time>2026-09-03T09:21:28.000Z</time>
      </trkpt>
      <trkpt lat="46.489334" lon="10.651298">
        <ele>2664.61937</ele>
        <time>2026-09-03T09:21:30.000Z</time>
      </trkpt>
      <trkpt lat="46.489325" lon="10.651339">
        <ele>2664.03412</ele>
        <time>2026-09-03T09:21:32.000Z</time>
      </trkpt>
      <trkpt lat="46.489307" lon="10.651359">
        <ele>2663.40735</ele>
        <time>2026-09-03T09:21:34.000Z</time>
      </trkpt>
      <trkpt lat="46.489297" lon="10.651396">
        <ele>2662.8021</ele>
        <time>2026-09-03T09:21:36.000Z</time>
      </trkpt>
      <trkpt lat="46.489284" lon="10.651435">
        <ele>2662.30481</ele>
        <time>2026-09-03T09:21:38.000Z</time>
      </trkpt>
      <trkpt lat="46.489259" lon="10.65144">
        <ele>2661.81286</ele>
        <time>2026-09-03T09:21:40.000Z</time>
      </trkpt>
      <trkpt lat="46.48925" lon="10.651476">
        <ele>2661.27597</ele>
        <time>2026-09-03T09:21:42.000Z</time>
      </trkpt>
      <trkpt lat="46.489256" lon="10.651513">
        <ele>2660.84007</ele>
        <time>2026-09-03T09:21:44.000Z</time>
      </trkpt>
      <trkpt lat="46.489233" lon="10.651534">
        <ele>2660.35939</ele>
        <time>2026-09-03T09:21:46.000Z</time>
      </trkpt>
      <trkpt lat="46.489216" lon="10.651565">
        <ele>2659.80041</ele>
        <time>2026-09-03T09:21:49.000Z</time>
      </trkpt>
      <trkpt lat="46.489216" lon="10.651604">
        <ele>2659.4145</ele>
        <time>2026-09-03T09:21:51.000Z</time>
      </trkpt>
      <trkpt lat="46.489248" lon="10.65163">
        <ele>2658.92383</ele>
        <time>2026-09-03T09:21:53.000Z</time>
      </trkpt>
      <trkpt lat="46.489218" lon="10.651658">
        <ele>2657.08985</ele>
        <time>2026-09-03T09:21:59.000Z</time>
      </trkpt>
      <trkpt lat="46.489223" lon="10.651699">
        <ele>2656.36304</ele>
        <time>2026-09-03T09:22:01.000Z</time>
      </trkpt>
      <trkpt lat="46.489214" lon="10.651739">
        <ele>2655.52119</ele>
        <time>2026-09-03T09:22:04.000Z</time>
      </trkpt>
      <trkpt lat="46.489182" lon="10.651721">
        <ele>2654.07545</ele>
        <time>2026-09-03T09:22:07.000Z</time>
      </trkpt>
      <trkpt lat="46.489162" lon="10.651745">
        <ele>2653.1369</ele>
        <time>2026-09-03T09:22:09.000Z</time>
      </trkpt>
      <trkpt lat="46.489157" lon="10.651789">
        <ele>2652.38893</ele>
        <time>2026-09-03T09:22:11.000Z</time>
      </trkpt>
      <trkpt lat="46.489145" lon="10.65182">
        <ele>2651.90085</ele>
        <time>2026-09-03T09:22:12.999Z</time>
      </trkpt>
      <trkpt lat="46.489155" lon="10.651849">
        <ele>2651.67389</ele>
        <time>2026-09-03T09:22:14.999Z</time>
      </trkpt>
      <trkpt lat="46.489173" lon="10.651884">
        <ele>2651.34244</ele>
        <time>2026-09-03T09:22:18.999Z</time>
      </trkpt>
      <trkpt lat="46.489196" lon="10.651886">
        <ele>2650.87938</ele>
        <time>2026-09-03T09:22:21.999Z</time>
      </trkpt>
      <trkpt lat="46.489215" lon="10.651915">
        <ele>2649.84449</ele>
        <time>2026-09-03T09:22:26.999Z</time>
      </trkpt>
      <trkpt lat="46.48924" lon="10.651919">
        <ele>2648.98291</ele>
        <time>2026-09-03T09:22:30.999Z</time>
      </trkpt>
      <trkpt lat="46.489256" lon="10.651949">
        <ele>2648.16403</ele>
        <time>2026-09-03T09:22:33.999Z</time>
      </trkpt>
      <trkpt lat="46.489239" lon="10.651979">
        <ele>2647.45578</ele>
        <time>2026-09-03T09:22:35.999Z</time>
      </trkpt>
      <trkpt lat="46.489218" lon="10.652001">
        <ele>2646.74007</ele>
        <time>2026-09-03T09:22:37.999Z</time>
      </trkpt>
      <trkpt lat="46.489202" lon="10.652032">
        <ele>2646.14297</ele>
        <time>2026-09-03T09:22:39.999Z</time>
      </trkpt>
      <trkpt lat="46.489208" lon="10.652075">
        <ele>2645.64976</ele>
        <time>2026-09-03T09:22:41.999Z</time>
      </trkpt>
      <trkpt lat="46.489212" lon="10.652113">
        <ele>2645.22748</ele>
        <time>2026-09-03T09:22:43.999Z</time>
      </trkpt>
      <trkpt lat="46.489223" lon="10.652149">
        <ele>2644.74069</ele>
        <time>2026-09-03T09:22:45.999Z</time>
      </trkpt>
      <trkpt lat="46.489234" lon="10.652187">
        <ele>2644.23278</ele>
        <time>2026-09-03T09:22:47.999Z</time>
      </trkpt>
      <trkpt lat="46.489258" lon="10.652203">
        <ele>2643.70845</ele>
        <time>2026-09-03T09:22:49.999Z</time>
      </trkpt>
      <trkpt lat="46.489237" lon="10.652222">
        <ele>2642.89967</ele>
        <time>2026-09-03T09:22:51.999Z</time>
      </trkpt>
      <trkpt lat="46.489218" lon="10.652252">
        <ele>2642.02957</ele>
        <time>2026-09-03T09:22:53.999Z</time>
      </trkpt>
      <trkpt lat="46.489238" lon="10.652295">
        <ele>2641.36442</ele>
        <time>2026-09-03T09:22:55.999Z</time>
      </trkpt>
      <trkpt lat="46.489263" lon="10.652314">
        <ele>2640.612</ele>
        <time>2026-09-03T09:22:57.999Z</time>
      </trkpt>
      <trkpt lat="46.489283" lon="10.652337">
        <ele>2639.97316</ele>
        <time>2026-09-03T09:22:59.999Z</time>
      </trkpt>
      <trkpt lat="46.489258" lon="10.652374">
        <ele>2638.35018</ele>
        <time>2026-09-03T09:23:02.999Z</time>
      </trkpt>
      <trkpt lat="46.489232" lon="10.652402">
        <ele>2635.99977</ele>
        <time>2026-09-03T09:23:12.000Z</time>
      </trkpt>
      <trkpt lat="46.489223" lon="10.652446">
        <ele>2634.8949</ele>
        <time>2026-09-03T09:23:15.000Z</time>
      </trkpt>
      <trkpt lat="46.489218" lon="10.652482">
        <ele>2634.2573</ele>
        <time>2026-09-03T09:23:21.000Z</time>
      </trkpt>
      <trkpt lat="46.489202" lon="10.652522">
        <ele>2634.11843</ele>
        <time>2026-09-03T09:23:23.000Z</time>
      </trkpt>
      <trkpt lat="46.489195" lon="10.65257">
        <ele>2633.7869</ele>
        <time>2026-09-03T09:23:26.000Z</time>
      </trkpt>
      <trkpt lat="46.489205" lon="10.652619">
        <ele>2633.40651</ele>
        <time>2026-09-03T09:23:29.000Z</time>
      </trkpt>
      <trkpt lat="46.489196" lon="10.65265">
        <ele>2633.1132</ele>
        <time>2026-09-03T09:23:31.000Z</time>
      </trkpt>
      <trkpt lat="46.489188" lon="10.65269">
        <ele>2632.85934</ele>
        <time>2026-09-03T09:23:33.000Z</time>
      </trkpt>
      <trkpt lat="46.489174" lon="10.652744">
        <ele>2632.45637</ele>
        <time>2026-09-03T09:23:36.000Z</time>
      </trkpt>
      <trkpt lat="46.489159" lon="10.652781">
        <ele>2632.1481</ele>
        <time>2026-09-03T09:23:38.000Z</time>
      </trkpt>
      <trkpt lat="46.489145" lon="10.652819">
        <ele>2631.91298</ele>
        <time>2026-09-03T09:23:40.000Z</time>
      </trkpt>
      <trkpt lat="46.489128" lon="10.652844">
        <ele>2631.63842</ele>
        <time>2026-09-03T09:23:42.000Z</time>
      </trkpt>
      <trkpt lat="46.489115" lon="10.652883">
        <ele>2631.45238</ele>
        <time>2026-09-03T09:23:44.000Z</time>
      </trkpt>
      <trkpt lat="46.489111" lon="10.652929">
        <ele>2631.28701</ele>
        <time>2026-09-03T09:23:46.000Z</time>
      </trkpt>
      <trkpt lat="46.489105" lon="10.652967">
        <ele>2631.14794</ele>
        <time>2026-09-03T09:23:48.000Z</time>
      </trkpt>
      <trkpt lat="46.4891" lon="10.653002">
        <ele>2631.03754</ele>
        <time>2026-09-03T09:23:50.000Z</time>
      </trkpt>
      <trkpt lat="46.489087" lon="10.653038">
        <ele>2630.93395</ele>
        <time>2026-09-03T09:23:52.000Z</time>
      </trkpt>
      <trkpt lat="46.48908" lon="10.653073">
        <ele>2630.81474</ele>
        <time>2026-09-03T09:23:54.000Z</time>
      </trkpt>
      <trkpt lat="46.489069" lon="10.653105">
        <ele>2630.70271</ele>
        <time>2026-09-03T09:23:56.000Z</time>
      </trkpt>
      <trkpt lat="46.489061" lon="10.653138">
        <ele>2630.57907</ele>
        <time>2026-09-03T09:23:58.000Z</time>
      </trkpt>
      <trkpt lat="46.48904" lon="10.653159">
        <ele>2630.43827</ele>
        <time>2026-09-03T09:24:00.000Z</time>
      </trkpt>
      <trkpt lat="46.489038" lon="10.653193">
        <ele>2630.30593</ele>
        <time>2026-09-03T09:24:02.000Z</time>
      </trkpt>
      <trkpt lat="46.48903" lon="10.653236">
        <ele>2630.1867</ele>
        <time>2026-09-03T09:24:05.000Z</time>
      </trkpt>
      <trkpt lat="46.489049" lon="10.653263">
        <ele>2630.0211</ele>
        <time>2026-09-03T09:24:10.000Z</time>
      </trkpt>
      <trkpt lat="46.489036" lon="10.653303">
        <ele>2627.89958</ele>
        <time>2026-09-03T09:24:21.000Z</time>
      </trkpt>
      <trkpt lat="46.489026" lon="10.653336">
        <ele>2626.70685</ele>
        <time>2026-09-03T09:24:24.000Z</time>
      </trkpt>
      <trkpt lat="46.489015" lon="10.653374">
        <ele>2625.37216</ele>
        <time>2026-09-03T09:24:27.000Z</time>
      </trkpt>
      <trkpt lat="46.489014" lon="10.653421">
        <ele>2624.5001</ele>
        <time>2026-09-03T09:24:29.000Z</time>
      </trkpt>
      <trkpt lat="46.489003" lon="10.653453">
        <ele>2623.73499</ele>
        <time>2026-09-03T09:24:31.000Z</time>
      </trkpt>
      <trkpt lat="46.48899" lon="10.653499">
        <ele>2622.45554</ele>
        <time>2026-09-03T09:24:35.000Z</time>
      </trkpt>
      <trkpt lat="46.48898" lon="10.653537">
        <ele>2621.46799</ele>
        <time>2026-09-03T09:24:38.000Z</time>
      </trkpt>
      <trkpt lat="46.488962" lon="10.653559">
        <ele>2620.66116</ele>
        <time>2026-09-03T09:24:40.000Z</time>
      </trkpt>
      <trkpt lat="46.488949" lon="10.65359">
        <ele>2619.97294</ele>
        <time>2026-09-03T09:24:41.999Z</time>
      </trkpt>
      <trkpt lat="46.488933" lon="10.653625">
        <ele>2619.43339</ele>
        <time>2026-09-03T09:24:43.999Z</time>
      </trkpt>
      <trkpt lat="46.488922" lon="10.653659">
        <ele>2618.96715</ele>
        <time>2026-09-03T09:24:45.999Z</time>
      </trkpt>
      <trkpt lat="46.488916" lon="10.653697">
        <ele>2618.56027</ele>
        <time>2026-09-03T09:24:47.999Z</time>
      </trkpt>
      <trkpt lat="46.488892" lon="10.653735">
        <ele>2618.06581</ele>
        <time>2026-09-03T09:24:50.999Z</time>
      </trkpt>
      <trkpt lat="46.48888" lon="10.653766">
        <ele>2617.84294</ele>
        <time>2026-09-03T09:24:52.999Z</time>
      </trkpt>
      <trkpt lat="46.488878" lon="10.653804">
        <ele>2617.61362</ele>
        <time>2026-09-03T09:24:54.999Z</time>
      </trkpt>
      <trkpt lat="46.488866" lon="10.653844">
        <ele>2617.17859</ele>
        <time>2026-09-03T09:24:57.999Z</time>
      </trkpt>
      <trkpt lat="46.488862" lon="10.65388">
        <ele>2616.89669</ele>
        <time>2026-09-03T09:24:59.999Z</time>
      </trkpt>
      <trkpt lat="46.488854" lon="10.653914">
        <ele>2616.64665</ele>
        <time>2026-09-03T09:25:01.999Z</time>
      </trkpt>
      <trkpt lat="46.488856" lon="10.653954">
        <ele>2616.38913</ele>
        <time>2026-09-03T09:25:03.999Z</time>
      </trkpt>
      <trkpt lat="46.488854" lon="10.653989">
        <ele>2616.19688</ele>
        <time>2026-09-03T09:25:05.999Z</time>
      </trkpt>
      <trkpt lat="46.48887" lon="10.654024">
        <ele>2616.00829</ele>
        <time>2026-09-03T09:25:07.999Z</time>
      </trkpt>
      <trkpt lat="46.488858" lon="10.65406">
        <ele>2615.80831</ele>
        <time>2026-09-03T09:25:09.999Z</time>
      </trkpt>
      <trkpt lat="46.488836" lon="10.654089">
        <ele>2615.6356</ele>
        <time>2026-09-03T09:25:11.999Z</time>
      </trkpt>
      <trkpt lat="46.488849" lon="10.654133">
        <ele>2615.48799</ele>
        <time>2026-09-03T09:25:13.999Z</time>
      </trkpt>
      <trkpt lat="46.488854" lon="10.65417">
        <ele>2615.29546</ele>
        <time>2026-09-03T09:25:15.999Z</time>
      </trkpt>
      <trkpt lat="46.488859" lon="10.654208">
        <ele>2615.06098</ele>
        <time>2026-09-03T09:25:18.000Z</time>
      </trkpt>
      <trkpt lat="46.488867" lon="10.654242">
        <ele>2614.74335</ele>
        <time>2026-09-03T09:25:20.000Z</time>
      </trkpt>
      <trkpt lat="46.488855" lon="10.654271">
        <ele>2614.33999</ele>
        <time>2026-09-03T09:25:22.000Z</time>
      </trkpt>
      <trkpt lat="46.488851" lon="10.654306">
        <ele>2613.88968</ele>
        <time>2026-09-03T09:25:24.000Z</time>
      </trkpt>
      <trkpt lat="46.488838" lon="10.654342">
        <ele>2613.17065</ele>
        <time>2026-09-03T09:25:27.000Z</time>
      </trkpt>
      <trkpt lat="46.488831" lon="10.654379">
        <ele>2612.4574</ele>
        <time>2026-09-03T09:25:30.000Z</time>
      </trkpt>
      <trkpt lat="46.488815" lon="10.654409">
        <ele>2611.91506</ele>
        <time>2026-09-03T09:25:33.000Z</time>
      </trkpt>
      <trkpt lat="46.488815" lon="10.654444">
        <ele>2611.51602</ele>
        <time>2026-09-03T09:25:35.000Z</time>
      </trkpt>
      <trkpt lat="46.488808" lon="10.654488">
        <ele>2610.85944</ele>
        <time>2026-09-03T09:25:38.000Z</time>
      </trkpt>
      <trkpt lat="46.488808" lon="10.654534">
        <ele>2610.26307</ele>
        <time>2026-09-03T09:25:41.000Z</time>
      </trkpt>
      <trkpt lat="46.488797" lon="10.654575">
        <ele>2609.81482</ele>
        <time>2026-09-03T09:25:44.000Z</time>
      </trkpt>
      <trkpt lat="46.48878" lon="10.654596">
        <ele>2609.47723</ele>
        <time>2026-09-03T09:25:46.000Z</time>
      </trkpt>
      <trkpt lat="46.48877" lon="10.654627">
        <ele>2609.10937</ele>
        <time>2026-09-03T09:25:48.000Z</time>
      </trkpt>
      <trkpt lat="46.48877" lon="10.654664">
        <ele>2608.77842</ele>
        <time>2026-09-03T09:25:50.000Z</time>
      </trkpt>
      <trkpt lat="46.488757" lon="10.65471">
        <ele>2608.22128</ele>
        <time>2026-09-03T09:25:53.000Z</time>
      </trkpt>
      <trkpt lat="46.488749" lon="10.654748">
        <ele>2607.84216</ele>
        <time>2026-09-03T09:25:55.000Z</time>
      </trkpt>
      <trkpt lat="46.488737" lon="10.654781">
        <ele>2607.43555</ele>
        <time>2026-09-03T09:25:57.000Z</time>
      </trkpt>
      <trkpt lat="46.488732" lon="10.654818">
        <ele>2607.03352</ele>
        <time>2026-09-03T09:25:59.000Z</time>
      </trkpt>
      <trkpt lat="46.488723" lon="10.654856">
        <ele>2606.68943</ele>
        <time>2026-09-03T09:26:01.000Z</time>
      </trkpt>
      <trkpt lat="46.488722" lon="10.654896">
        <ele>2606.39224</ele>
        <time>2026-09-03T09:26:03.000Z</time>
      </trkpt>
      <trkpt lat="46.488716" lon="10.654935">
        <ele>2606.02274</ele>
        <time>2026-09-03T09:26:05.000Z</time>
      </trkpt>
      <trkpt lat="46.488687" lon="10.654955">
        <ele>2605.60452</ele>
        <time>2026-09-03T09:26:08.000Z</time>
      </trkpt>
      <trkpt lat="46.488662" lon="10.654949">
        <ele>2605.35724</ele>
        <time>2026-09-03T09:26:12.000Z</time>
      </trkpt>
      <trkpt lat="46.488679" lon="10.654926">
        <ele>2605.19071</ele>
        <time>2026-09-03T09:26:16.000Z</time>
      </trkpt>
      <trkpt lat="46.488653" lon="10.654957">
        <ele>2603.93471</ele>
        <time>2026-09-03T09:26:26.000Z</time>
      </trkpt>
      <trkpt lat="46.488645" lon="10.654994">
        <ele>2602.62238</ele>
        <time>2026-09-03T09:26:31.000Z</time>
      </trkpt>
      <trkpt lat="46.488636" lon="10.655042">
        <ele>2601.44426</ele>
        <time>2026-09-03T09:26:34.000Z</time>
      </trkpt>
      <trkpt lat="46.488623" lon="10.655077">
        <ele>2600.24409</ele>
        <time>2026-09-03T09:26:37.000Z</time>
      </trkpt>
      <trkpt lat="46.488601" lon="10.655104">
        <ele>2599.27825</ele>
        <time>2026-09-03T09:26:39.000Z</time>
      </trkpt>
      <trkpt lat="46.488595" lon="10.655141">
        <ele>2597.58416</ele>
        <time>2026-09-03T09:26:42.000Z</time>
      </trkpt>
      <trkpt lat="46.48859" lon="10.655177">
        <ele>2596.1469</ele>
        <time>2026-09-03T09:26:44.000Z</time>
      </trkpt>
      <trkpt lat="46.488581" lon="10.655221">
        <ele>2594.7702</ele>
        <time>2026-09-03T09:26:46.000Z</time>
      </trkpt>
      <trkpt lat="46.488574" lon="10.655259">
        <ele>2593.64831</ele>
        <time>2026-09-03T09:26:48.000Z</time>
      </trkpt>
      <trkpt lat="46.488566" lon="10.655291">
        <ele>2592.90608</ele>
        <time>2026-09-03T09:26:49.999Z</time>
      </trkpt>
      <trkpt lat="46.488538" lon="10.655303">
        <ele>2592.4186</ele>
        <time>2026-09-03T09:26:51.999Z</time>
      </trkpt>
      <trkpt lat="46.488522" lon="10.655327">
        <ele>2592.00861</ele>
        <time>2026-09-03T09:26:53.999Z</time>
      </trkpt>
      <trkpt lat="46.488516" lon="10.655369">
        <ele>2592.00773</ele>
        <time>2026-09-03T09:26:56.999Z</time>
      </trkpt>
      <trkpt lat="46.488516" lon="10.655414">
        <ele>2592.10003</ele>
        <time>2026-09-03T09:26:58.999Z</time>
      </trkpt>
      <trkpt lat="46.488522" lon="10.655378">
        <ele>2592.2272</ele>
        <time>2026-09-03T09:27:02.999Z</time>
      </trkpt>
      <trkpt lat="46.488502" lon="10.655405">
        <ele>2591.42914</ele>
        <time>2026-09-03T09:27:09.999Z</time>
      </trkpt>
      <trkpt lat="46.48848" lon="10.655423">
        <ele>2590.95714</ele>
        <time>2026-09-03T09:27:11.999Z</time>
      </trkpt>
      <trkpt lat="46.488457" lon="10.655444">
        <ele>2590.31276</ele>
        <time>2026-09-03T09:27:13.999Z</time>
      </trkpt>
      <trkpt lat="46.488427" lon="10.655454">
        <ele>2589.63662</ele>
        <time>2026-09-03T09:27:15.999Z</time>
      </trkpt>
      <trkpt lat="46.488406" lon="10.655478">
        <ele>2588.89638</ele>
        <time>2026-09-03T09:27:17.999Z</time>
      </trkpt>
      <trkpt lat="46.48838" lon="10.655484">
        <ele>2588.19037</ele>
        <time>2026-09-03T09:27:19.999Z</time>
      </trkpt>
      <trkpt lat="46.488377" lon="10.655534">
        <ele>2587.51072</ele>
        <time>2026-09-03T09:27:21.999Z</time>
      </trkpt>
      <trkpt lat="46.488383" lon="10.655583">
        <ele>2586.92833</ele>
        <time>2026-09-03T09:27:24.000Z</time>
      </trkpt>
      <trkpt lat="46.488397" lon="10.655629">
        <ele>2586.39682</ele>
        <time>2026-09-03T09:27:26.000Z</time>
      </trkpt>
      <trkpt lat="46.488424" lon="10.655647">
        <ele>2586.25205</ele>
        <time>2026-09-03T09:27:27.000Z</time>
      </trkpt>
      <trkpt lat="46.488455" lon="10.655672">
        <ele>2586.02112</ele>
        <time>2026-09-03T09:27:29.000Z</time>
      </trkpt>
      <trkpt lat="46.488439" lon="10.655648">
        <ele>2585.73681</ele>
        <time>2026-09-03T09:27:31.000Z</time>
      </trkpt>
      <trkpt lat="46.488423" lon="10.655619">
        <ele>2585.22033</ele>
        <time>2026-09-03T09:27:34.000Z</time>
      </trkpt>
      <trkpt lat="46.488414" lon="10.655655">
        <ele>2584.0985</ele>
        <time>2026-09-03T09:27:39.000Z</time>
      </trkpt>
      <trkpt lat="46.488391" lon="10.655669">
        <ele>2583.00186</ele>
        <time>2026-09-03T09:27:44.000Z</time>
      </trkpt>
      <trkpt lat="46.48837" lon="10.655689">
        <ele>2582.00338</ele>
        <time>2026-09-03T09:27:48.000Z</time>
      </trkpt>
      <trkpt lat="46.48837" lon="10.655722">
        <ele>2581.41208</ele>
        <time>2026-09-03T09:27:50.000Z</time>
      </trkpt>
      <trkpt lat="46.488387" lon="10.655746">
        <ele>2580.05329</ele>
        <time>2026-09-03T09:27:54.000Z</time>
      </trkpt>
      <trkpt lat="46.488364" lon="10.655762">
        <ele>2579.24339</ele>
        <time>2026-09-03T09:27:57.000Z</time>
      </trkpt>
      <trkpt lat="46.488355" lon="10.655794">
        <ele>2578.62327</ele>
        <time>2026-09-03T09:27:59.000Z</time>
      </trkpt>
      <trkpt lat="46.48833" lon="10.655802">
        <ele>2577.5738</ele>
        <time>2026-09-03T09:28:03.000Z</time>
      </trkpt>
      <trkpt lat="46.488311" lon="10.655823">
        <ele>2576.81097</ele>
        <time>2026-09-03T09:28:06.000Z</time>
      </trkpt>
      <trkpt lat="46.488303" lon="10.655867">
        <ele>2575.64921</ele>
        <time>2026-09-03T09:28:11.000Z</time>
      </trkpt>
      <trkpt lat="46.488288" lon="10.655895">
        <ele>2574.46689</ele>
        <time>2026-09-03T09:28:16.000Z</time>
      </trkpt>
      <trkpt lat="46.488296" lon="10.655933">
        <ele>2573.28336</ele>
        <time>2026-09-03T09:28:20.000Z</time>
      </trkpt>
      <trkpt lat="46.488312" lon="10.65596">
        <ele>2572.34588</ele>
        <time>2026-09-03T09:28:23.000Z</time>
      </trkpt>
      <trkpt lat="46.4883" lon="10.655989">
        <ele>2571.10502</ele>
        <time>2026-09-03T09:28:27.000Z</time>
      </trkpt>
      <trkpt lat="46.48827" lon="10.655981">
        <ele>2570.45428</ele>
        <time>2026-09-03T09:28:31.000Z</time>
      </trkpt>
      <trkpt lat="46.488242" lon="10.655987">
        <ele>2570.07261</ele>
        <time>2026-09-03T09:28:33.000Z</time>
      </trkpt>
      <trkpt lat="46.488216" lon="10.656013">
        <ele>2568.8891</ele>
        <time>2026-09-03T09:28:38.000Z</time>
      </trkpt>
      <trkpt lat="46.488194" lon="10.65604">
        <ele>2568.64919</ele>
        <time>2026-09-03T09:28:39.000Z</time>
      </trkpt>
      <trkpt lat="46.488189" lon="10.656078">
        <ele>2567.40807</ele>
        <time>2026-09-03T09:28:44.000Z</time>
      </trkpt>
      <trkpt lat="46.488185" lon="10.656119">
        <ele>2566.35573</ele>
        <time>2026-09-03T09:28:49.000Z</time>
      </trkpt>
      <trkpt lat="46.488157" lon="10.656134">
        <ele>2565.65652</ele>
        <time>2026-09-03T09:28:52.000Z</time>
      </trkpt>
      <trkpt lat="46.488127" lon="10.65616">
        <ele>2564.53781</ele>
        <time>2026-09-03T09:28:56.000Z</time>
      </trkpt>
      <trkpt lat="46.488111" lon="10.656184">
        <ele>2563.59089</ele>
        <time>2026-09-03T09:28:59.000Z</time>
      </trkpt>
      <trkpt lat="46.4881" lon="10.656218">
        <ele>2562.4108</ele>
        <time>2026-09-03T09:29:03.000Z</time>
      </trkpt>
      <trkpt lat="46.488125" lon="10.656251">
        <ele>2561.25997</ele>
        <time>2026-09-03T09:29:07.999Z</time>
      </trkpt>
      <trkpt lat="46.48811" lon="10.656281">
        <ele>2560.71613</ele>
        <time>2026-09-03T09:29:09.999Z</time>
      </trkpt>
      <trkpt lat="46.48808" lon="10.656303">
        <ele>2560.17249</ele>
        <time>2026-09-03T09:29:11.999Z</time>
      </trkpt>
      <trkpt lat="46.488064" lon="10.656334">
        <ele>2559.57926</ele>
        <time>2026-09-03T09:29:13.999Z</time>
      </trkpt>
      <trkpt lat="46.488054" lon="10.656376">
        <ele>2558.69599</ele>
        <time>2026-09-03T09:29:16.999Z</time>
      </trkpt>
      <trkpt lat="46.488048" lon="10.656408">
        <ele>2558.0445</ele>
        <time>2026-09-03T09:29:18.999Z</time>
      </trkpt>
      <trkpt lat="46.488025" lon="10.656441">
        <ele>2557.07418</ele>
        <time>2026-09-03T09:29:21.999Z</time>
      </trkpt>
      <trkpt lat="46.488009" lon="10.656482">
        <ele>2556.32837</ele>
        <time>2026-09-03T09:29:24.999Z</time>
      </trkpt>
      <trkpt lat="46.487991" lon="10.656502">
        <ele>2555.83983</ele>
        <time>2026-09-03T09:29:26.999Z</time>
      </trkpt>
      <trkpt lat="46.487964" lon="10.656519">
        <ele>2554.97656</ele>
        <time>2026-09-03T09:29:31.000Z</time>
      </trkpt>
      <trkpt lat="46.487939" lon="10.656528">
        <ele>2554.24598</ele>
        <time>2026-09-03T09:29:34.000Z</time>
      </trkpt>
      <trkpt lat="46.487943" lon="10.656568">
        <ele>2553.56214</ele>
        <time>2026-09-03T09:29:36.000Z</time>
      </trkpt>
      <trkpt lat="46.487926" lon="10.656608">
        <ele>2550.38336</ele>
        <time>2026-09-03T09:29:46.000Z</time>
      </trkpt>
      <trkpt lat="46.487941" lon="10.656637">
        <ele>2549.97609</ele>
        <time>2026-09-03T09:29:47.000Z</time>
      </trkpt>
      <trkpt lat="46.487927" lon="10.656678">
        <ele>2548.96169</ele>
        <time>2026-09-03T09:29:50.000Z</time>
      </trkpt>
      <trkpt lat="46.487904" lon="10.65669">
        <ele>2548.35543</ele>
        <time>2026-09-03T09:29:52.000Z</time>
      </trkpt>
      <trkpt lat="46.487858" lon="10.656713">
        <ele>2547.17181</ele>
        <time>2026-09-03T09:29:55.000Z</time>
      </trkpt>
      <trkpt lat="46.487829" lon="10.656701">
        <ele>2545.93487</ele>
        <time>2026-09-03T09:29:58.000Z</time>
      </trkpt>
      <trkpt lat="46.487827" lon="10.656743">
        <ele>2545.09361</ele>
        <time>2026-09-03T09:30:00.000Z</time>
      </trkpt>
      <trkpt lat="46.487839" lon="10.656796">
        <ele>2544.42585</ele>
        <time>2026-09-03T09:30:02.000Z</time>
      </trkpt>
      <trkpt lat="46.48785" lon="10.656835">
        <ele>2543.98849</ele>
        <time>2026-09-03T09:30:04.000Z</time>
      </trkpt>
      <trkpt lat="46.48783" lon="10.656864">
        <ele>2543.73919</ele>
        <time>2026-09-03T09:30:06.000Z</time>
      </trkpt>
      <trkpt lat="46.487811" lon="10.656887">
        <ele>2542.79343</ele>
        <time>2026-09-03T09:30:11.000Z</time>
      </trkpt>
      <trkpt lat="46.487786" lon="10.656895">
        <ele>2542.277</ele>
        <time>2026-09-03T09:30:14.000Z</time>
      </trkpt>
      <trkpt lat="46.487763" lon="10.656898">
        <ele>2540.81167</ele>
        <time>2026-09-03T09:30:22.000Z</time>
      </trkpt>
      <trkpt lat="46.487773" lon="10.656945">
        <ele>2539.3472</ele>
        <time>2026-09-03T09:30:27.000Z</time>
      </trkpt>
      <trkpt lat="46.487796" lon="10.656954">
        <ele>2538.71294</ele>
        <time>2026-09-03T09:30:29.000Z</time>
      </trkpt>
      <trkpt lat="46.487828" lon="10.656954">
        <ele>2537.64551</ele>
        <time>2026-09-03T09:30:32.000Z</time>
      </trkpt>
      <trkpt lat="46.48785" lon="10.656969">
        <ele>2536.30087</ele>
        <time>2026-09-03T09:30:37.000Z</time>
      </trkpt>
      <trkpt lat="46.487849" lon="10.657033">
        <ele>2535.91918</ele>
        <time>2026-09-03T09:30:39.000Z</time>
      </trkpt>
      <trkpt lat="46.487825" lon="10.657019">
        <ele>2535.5182</ele>
        <time>2026-09-03T09:30:42.000Z</time>
      </trkpt>
      <trkpt lat="46.487798" lon="10.657023">
        <ele>2534.94987</ele>
        <time>2026-09-03T09:30:45.000Z</time>
      </trkpt>
      <trkpt lat="46.487815" lon="10.657059">
        <ele>2534.21178</ele>
        <time>2026-09-03T09:30:49.000Z</time>
      </trkpt>
      <trkpt lat="46.487791" lon="10.657063">
        <ele>2533.87537</ele>
        <time>2026-09-03T09:30:51.000Z</time>
      </trkpt>
      <trkpt lat="46.487768" lon="10.65705">
        <ele>2533.32428</ele>
        <time>2026-09-03T09:30:54.000Z</time>
      </trkpt>
      <trkpt lat="46.487753" lon="10.657088">
        <ele>2532.60483</ele>
        <time>2026-09-03T09:30:57.000Z</time>
      </trkpt>
      <trkpt lat="46.487773" lon="10.65712">
        <ele>2531.87</ele>
        <time>2026-09-03T09:31:00.000Z</time>
      </trkpt>
      <trkpt lat="46.487802" lon="10.657131">
        <ele>2530.69419</ele>
        <time>2026-09-03T09:31:05.000Z</time>
      </trkpt>
      <trkpt lat="46.487827" lon="10.657138">
        <ele>2529.83886</ele>
        <time>2026-09-03T09:31:08.000Z</time>
      </trkpt>
      <trkpt lat="46.487851" lon="10.657139">
        <ele>2529.32412</ele>
        <time>2026-09-03T09:31:10.000Z</time>
      </trkpt>
      <trkpt lat="46.487879" lon="10.657126">
        <ele>2528.7583</ele>
        <time>2026-09-03T09:31:12.000Z</time>
      </trkpt>
      <trkpt lat="46.487882" lon="10.657176">
        <ele>2527.36861</ele>
        <time>2026-09-03T09:31:17.000Z</time>
      </trkpt>
      <trkpt lat="46.487868" lon="10.657207">
        <ele>2526.24286</ele>
        <time>2026-09-03T09:31:22.000Z</time>
      </trkpt>
      <trkpt lat="46.48785" lon="10.657243">
        <ele>2525.79837</ele>
        <time>2026-09-03T09:31:24.000Z</time>
      </trkpt>
      <trkpt lat="46.487835" lon="10.657277">
        <ele>2525.19154</ele>
        <time>2026-09-03T09:31:27.000Z</time>
      </trkpt>
      <trkpt lat="46.487803" lon="10.657285">
        <ele>2524.59296</ele>
        <time>2026-09-03T09:31:30.000Z</time>
      </trkpt>
      <trkpt lat="46.487792" lon="10.65732">
        <ele>2523.58096</ele>
        <time>2026-09-03T09:31:35.000Z</time>
      </trkpt>
      <trkpt lat="46.487778" lon="10.657349">
        <ele>2522.97403</ele>
        <time>2026-09-03T09:31:38.000Z</time>
      </trkpt>
      <trkpt lat="46.487762" lon="10.657374">
        <ele>2522.31353</ele>
        <time>2026-09-03T09:31:42.000Z</time>
      </trkpt>
      <trkpt lat="46.487732" lon="10.657353">
        <ele>2521.79398</ele>
        <time>2026-09-03T09:31:45.000Z</time>
      </trkpt>
      <trkpt lat="46.487702" lon="10.657361">
        <ele>2521.23293</ele>
        <time>2026-09-03T09:31:48.000Z</time>
      </trkpt>
      <trkpt lat="46.487681" lon="10.657375">
        <ele>2520.44386</ele>
        <time>2026-09-03T09:31:52.000Z</time>
      </trkpt>
      <trkpt lat="46.487659" lon="10.657387">
        <ele>2519.7793</ele>
        <time>2026-09-03T09:31:55.000Z</time>
      </trkpt>
      <trkpt lat="46.487661" lon="10.65742">
        <ele>2518.71723</ele>
        <time>2026-09-03T09:32:00.000Z</time>
      </trkpt>
      <trkpt lat="46.487659" lon="10.657467">
        <ele>2518.02044</ele>
        <time>2026-09-03T09:32:03.000Z</time>
      </trkpt>
      <trkpt lat="46.487684" lon="10.657484">
        <ele>2517.02751</ele>
        <time>2026-09-03T09:32:07.000Z</time>
      </trkpt>
      <trkpt lat="46.487718" lon="10.657522">
        <ele>2515.98898</ele>
        <time>2026-09-03T09:32:11.000Z</time>
      </trkpt>
      <trkpt lat="46.487736" lon="10.657545">
        <ele>2514.47779</ele>
        <time>2026-09-03T09:32:16.000Z</time>
      </trkpt>
      <trkpt lat="46.487751" lon="10.657576">
        <ele>2513.47886</ele>
        <time>2026-09-03T09:32:19.000Z</time>
      </trkpt>
      <trkpt lat="46.48778" lon="10.657575">
        <ele>2512.70502</ele>
        <time>2026-09-03T09:32:22.000Z</time>
      </trkpt>
      <trkpt lat="46.4878" lon="10.657591">
        <ele>2511.70454</ele>
        <time>2026-09-03T09:32:26.000Z</time>
      </trkpt>
      <trkpt lat="46.487833" lon="10.657586">
        <ele>2510.32661</ele>
        <time>2026-09-03T09:32:32.000Z</time>
      </trkpt>
      <trkpt lat="46.487852" lon="10.657603">
        <ele>2509.78504</ele>
        <time>2026-09-03T09:32:34.000Z</time>
      </trkpt>
      <trkpt lat="46.487872" lon="10.657635">
        <ele>2508.77333</ele>
        <time>2026-09-03T09:32:38.000Z</time>
      </trkpt>
      <trkpt lat="46.487904" lon="10.657647">
        <ele>2507.74776</ele>
        <time>2026-09-03T09:32:42.000Z</time>
      </trkpt>
      <trkpt lat="46.487926" lon="10.657645">
        <ele>2507.26097</ele>
        <time>2026-09-03T09:32:44.000Z</time>
      </trkpt>
      <trkpt lat="46.487913" lon="10.657687">
        <ele>2505.93668</ele>
        <time>2026-09-03T09:32:50.000Z</time>
      </trkpt>
      <trkpt lat="46.487899" lon="10.657727">
        <ele>2505.35863</ele>
        <time>2026-09-03T09:32:53.000Z</time>
      </trkpt>
      <trkpt lat="46.487864" lon="10.657739">
        <ele>2504.60841</ele>
        <time>2026-09-03T09:32:56.000Z</time>
      </trkpt>
      <trkpt lat="46.48784" lon="10.657763">
        <ele>2503.89323</ele>
        <time>2026-09-03T09:32:59.000Z</time>
      </trkpt>
      <trkpt lat="46.487833" lon="10.657795">
        <ele>2503.33834</ele>
        <time>2026-09-03T09:33:02.000Z</time>
      </trkpt>
      <trkpt lat="46.487807" lon="10.657807">
        <ele>2502.77818</ele>
        <time>2026-09-03T09:33:05.000Z</time>
      </trkpt>
      <trkpt lat="46.487775" lon="10.657822">
        <ele>2501.89034</ele>
        <time>2026-09-03T09:33:09.000Z</time>
      </trkpt>
      <trkpt lat="46.487752" lon="10.657833">
        <ele>2501.16152</ele>
        <time>2026-09-03T09:33:12.000Z</time>
      </trkpt>
      <trkpt lat="46.487755" lon="10.657872">
        <ele>2499.12483</ele>
        <time>2026-09-03T09:33:19.000Z</time>
      </trkpt>
      <trkpt lat="46.487769" lon="10.657898">
        <ele>2498.52697</ele>
        <time>2026-09-03T09:33:21.000Z</time>
      </trkpt>
      <trkpt lat="46.487784" lon="10.657925">
        <ele>2497.73536</ele>
        <time>2026-09-03T09:33:24.000Z</time>
      </trkpt>
      <trkpt lat="46.487814" lon="10.65793">
        <ele>2496.33098</ele>
        <time>2026-09-03T09:33:30.000Z</time>
      </trkpt>
      <trkpt lat="46.487834" lon="10.657956">
        <ele>2495.85786</ele>
        <time>2026-09-03T09:33:32.000Z</time>
      </trkpt>
      <trkpt lat="46.487823" lon="10.65799">
        <ele>2495.25194</ele>
        <time>2026-09-03T09:33:36.000Z</time>
      </trkpt>
      <trkpt lat="46.4878" lon="10.657992">
        <ele>2494.58603</ele>
        <time>2026-09-03T09:33:40.000Z</time>
      </trkpt>
      <trkpt lat="46.487795" lon="10.658029">
        <ele>2492.88059</ele>
        <time>2026-09-03T09:33:48.000Z</time>
      </trkpt>
      <trkpt lat="46.487819" lon="10.65803">
        <ele>2492.15942</ele>
        <time>2026-09-03T09:33:51.000Z</time>
      </trkpt>
      <trkpt lat="46.48783" lon="10.658071">
        <ele>2491.37127</ele>
        <time>2026-09-03T09:33:54.000Z</time>
      </trkpt>
      <trkpt lat="46.487804" lon="10.658093">
        <ele>2490.60512</ele>
        <time>2026-09-03T09:33:57.000Z</time>
      </trkpt>
      <trkpt lat="46.487782" lon="10.658084">
        <ele>2490.00701</ele>
        <time>2026-09-03T09:34:00.000Z</time>
      </trkpt>
      <trkpt lat="46.487758" lon="10.658101">
        <ele>2489.60188</ele>
        <time>2026-09-03T09:34:02.000Z</time>
      </trkpt>
      <trkpt lat="46.487729" lon="10.658092">
        <ele>2488.98533</ele>
        <time>2026-09-03T09:34:05.000Z</time>
      </trkpt>
      <trkpt lat="46.487717" lon="10.658128">
        <ele>2488.33586</ele>
        <time>2026-09-03T09:34:08.000Z</time>
      </trkpt>
      <trkpt lat="46.48771" lon="10.658164">
        <ele>2487.86585</ele>
        <time>2026-09-03T09:34:11.000Z</time>
      </trkpt>
      <trkpt lat="46.487727" lon="10.658187">
        <ele>2487.4432</ele>
        <time>2026-09-03T09:34:13.000Z</time>
      </trkpt>
      <trkpt lat="46.487749" lon="10.658201">
        <ele>2486.99439</ele>
        <time>2026-09-03T09:34:15.000Z</time>
      </trkpt>
      <trkpt lat="46.487763" lon="10.658236">
        <ele>2486.31857</ele>
        <time>2026-09-03T09:34:18.000Z</time>
      </trkpt>
      <trkpt lat="46.487736" lon="10.658253">
        <ele>2485.05548</ele>
        <time>2026-09-03T09:34:25.000Z</time>
      </trkpt>
      <trkpt lat="46.487717" lon="10.658283">
        <ele>2484.53968</ele>
        <time>2026-09-03T09:34:28.000Z</time>
      </trkpt>
      <trkpt lat="46.487739" lon="10.658292">
        <ele>2483.99141</ele>
        <time>2026-09-03T09:34:31.000Z</time>
      </trkpt>
      <trkpt lat="46.487745" lon="10.658327">
        <ele>2483.56641</ele>
        <time>2026-09-03T09:34:33.000Z</time>
      </trkpt>
      <trkpt lat="46.487726" lon="10.658348">
        <ele>2482.52595</ele>
        <time>2026-09-03T09:34:38.000Z</time>
      </trkpt>
      <trkpt lat="46.48773" lon="10.658384">
        <ele>2481.39349</ele>
        <time>2026-09-03T09:34:43.000Z</time>
      </trkpt>
      <trkpt lat="46.487753" lon="10.658416">
        <ele>2480.45543</ele>
        <time>2026-09-03T09:34:47.000Z</time>
      </trkpt>
      <trkpt lat="46.487782" lon="10.658452">
        <ele>2479.44203</ele>
        <time>2026-09-03T09:34:51.000Z</time>
      </trkpt>
      <trkpt lat="46.487786" lon="10.658485">
        <ele>2478.72608</ele>
        <time>2026-09-03T09:34:54.000Z</time>
      </trkpt>
      <trkpt lat="46.487764" lon="10.658505">
        <ele>2478.02868</ele>
        <time>2026-09-03T09:34:57.000Z</time>
      </trkpt>
      <trkpt lat="46.487738" lon="10.658519">
        <ele>2477.38872</ele>
        <time>2026-09-03T09:35:00.000Z</time>
      </trkpt>
      <trkpt lat="46.487717" lon="10.658537">
        <ele>2476.91584</ele>
        <time>2026-09-03T09:35:02.000Z</time>
      </trkpt>
      <trkpt lat="46.4877" lon="10.658558">
        <ele>2476.6844</ele>
        <time>2026-09-03T09:35:03.000Z</time>
      </trkpt>
      <trkpt lat="46.487694" lon="10.658594">
        <ele>2475.94771</ele>
        <time>2026-09-03T09:35:06.000Z</time>
      </trkpt>
      <trkpt lat="46.487692" lon="10.658628">
        <ele>2475.37735</ele>
        <time>2026-09-03T09:35:08.000Z</time>
      </trkpt>
      <trkpt lat="46.4877" lon="10.658662">
        <ele>2474.70069</ele>
        <time>2026-09-03T09:35:10.000Z</time>
      </trkpt>
      <trkpt lat="46.487724" lon="10.658701">
        <ele>2473.95104</ele>
        <time>2026-09-03T09:35:12.000Z</time>
      </trkpt>
      <trkpt lat="46.487729" lon="10.658736">
        <ele>2473.15327</ele>
        <time>2026-09-03T09:35:14.000Z</time>
      </trkpt>
      <trkpt lat="46.48773" lon="10.658783">
        <ele>2471.61464</ele>
        <time>2026-09-03T09:35:17.000Z</time>
      </trkpt>
      <trkpt lat="46.487702" lon="10.65882">
        <ele>2470.18582</ele>
        <time>2026-09-03T09:35:20.000Z</time>
      </trkpt>
      <trkpt lat="46.487689" lon="10.658859">
        <ele>2469.06606</ele>
        <time>2026-09-03T09:35:23.000Z</time>
      </trkpt>
      <trkpt lat="46.487692" lon="10.658901">
        <ele>2468.61292</ele>
        <time>2026-09-03T09:35:25.000Z</time>
      </trkpt>
      <trkpt lat="46.487703" lon="10.658939">
        <ele>2468.07023</ele>
        <time>2026-09-03T09:35:27.000Z</time>
      </trkpt>
      <trkpt lat="46.487707" lon="10.658983">
        <ele>2467.58344</ele>
        <time>2026-09-03T09:35:29.000Z</time>
      </trkpt>
      <trkpt lat="46.487711" lon="10.65903">
        <ele>2467.24854</ele>
        <time>2026-09-03T09:35:31.000Z</time>
      </trkpt>
      <trkpt lat="46.487724" lon="10.659065">
        <ele>2467.02422</ele>
        <time>2026-09-03T09:35:33.000Z</time>
      </trkpt>
      <trkpt lat="46.487728" lon="10.659102">
        <ele>2466.79262</ele>
        <time>2026-09-03T09:35:35.000Z</time>
      </trkpt>
      <trkpt lat="46.487722" lon="10.659145">
        <ele>2466.62223</ele>
        <time>2026-09-03T09:35:37.000Z</time>
      </trkpt>
      <trkpt lat="46.487727" lon="10.659186">
        <ele>2466.46355</ele>
        <time>2026-09-03T09:35:39.000Z</time>
      </trkpt>
      <trkpt lat="46.487725" lon="10.659227">
        <ele>2466.24812</ele>
        <time>2026-09-03T09:35:40.999Z</time>
      </trkpt>
      <trkpt lat="46.487714" lon="10.659267">
        <ele>2466.09187</ele>
        <time>2026-09-03T09:35:42.999Z</time>
      </trkpt>
      <trkpt lat="46.487706" lon="10.659308">
        <ele>2465.96929</ele>
        <time>2026-09-03T09:35:44.999Z</time>
      </trkpt>
      <trkpt lat="46.48771" lon="10.659343">
        <ele>2465.8594</ele>
        <time>2026-09-03T09:35:47.000Z</time>
      </trkpt>
      <trkpt lat="46.48771" lon="10.659376">
        <ele>2465.81913</ele>
        <time>2026-09-03T09:35:49.000Z</time>
      </trkpt>
      <trkpt lat="46.487712" lon="10.65941">
        <ele>2465.83453</ele>
        <time>2026-09-03T09:35:51.000Z</time>
      </trkpt>
      <trkpt lat="46.487718" lon="10.659448">
        <ele>2465.82918</ele>
        <time>2026-09-03T09:35:53.000Z</time>
      </trkpt>
      <trkpt lat="46.487698" lon="10.659479">
        <ele>2465.80031</ele>
        <time>2026-09-03T09:35:55.000Z</time>
      </trkpt>
      <trkpt lat="46.487695" lon="10.659516">
        <ele>2465.74304</ele>
        <time>2026-09-03T09:35:57.000Z</time>
      </trkpt>
      <trkpt lat="46.487685" lon="10.659551">
        <ele>2465.73622</ele>
        <time>2026-09-03T09:35:59.000Z</time>
      </trkpt>
      <trkpt lat="46.487693" lon="10.659596">
        <ele>2465.71968</ele>
        <time>2026-09-03T09:36:01.000Z</time>
      </trkpt>
      <trkpt lat="46.487697" lon="10.659642">
        <ele>2465.64738</ele>
        <time>2026-09-03T09:36:04.000Z</time>
      </trkpt>
      <trkpt lat="46.4877" lon="10.659676">
        <ele>2465.56899</ele>
        <time>2026-09-03T09:36:06.000Z</time>
      </trkpt>
      <trkpt lat="46.487707" lon="10.659711">
        <ele>2465.47377</ele>
        <time>2026-09-03T09:36:08.000Z</time>
      </trkpt>
      <trkpt lat="46.487716" lon="10.659741">
        <ele>2465.29301</ele>
        <time>2026-09-03T09:36:10.000Z</time>
      </trkpt>
      <trkpt lat="46.487718" lon="10.659778">
        <ele>2465.06523</ele>
        <time>2026-09-03T09:36:12.000Z</time>
      </trkpt>
      <trkpt lat="46.487711" lon="10.659811">
        <ele>2464.76468</ele>
        <time>2026-09-03T09:36:14.000Z</time>
      </trkpt>
      <trkpt lat="46.487707" lon="10.659844">
        <ele>2464.42657</ele>
        <time>2026-09-03T09:36:16.000Z</time>
      </trkpt>
      <trkpt lat="46.487698" lon="10.659878">
        <ele>2464.04162</ele>
        <time>2026-09-03T09:36:18.000Z</time>
      </trkpt>
      <trkpt lat="46.487703" lon="10.659917">
        <ele>2463.64161</ele>
        <time>2026-09-03T09:36:20.000Z</time>
      </trkpt>
      <trkpt lat="46.487697" lon="10.65996">
        <ele>2462.96938</ele>
        <time>2026-09-03T09:36:23.000Z</time>
      </trkpt>
      <trkpt lat="46.487694" lon="10.660001">
        <ele>2462.49152</ele>
        <time>2026-09-03T09:36:25.000Z</time>
      </trkpt>
      <trkpt lat="46.487698" lon="10.660041">
        <ele>2461.93372</ele>
        <time>2026-09-03T09:36:27.000Z</time>
      </trkpt>
      <trkpt lat="46.48769" lon="10.660077">
        <ele>2461.45025</ele>
        <time>2026-09-03T09:36:29.000Z</time>
      </trkpt>
      <trkpt lat="46.487685" lon="10.660113">
        <ele>2461.059</ele>
        <time>2026-09-03T09:36:31.000Z</time>
      </trkpt>
      <trkpt lat="46.487677" lon="10.660144">
        <ele>2460.83221</ele>
        <time>2026-09-03T09:36:33.000Z</time>
      </trkpt>
      <trkpt lat="46.487681" lon="10.660186">
        <ele>2460.57527</ele>
        <time>2026-09-03T09:36:35.000Z</time>
      </trkpt>
      <trkpt lat="46.487675" lon="10.660224">
        <ele>2460.39176</ele>
        <time>2026-09-03T09:36:37.000Z</time>
      </trkpt>
      <trkpt lat="46.487685" lon="10.660258">
        <ele>2460.21473</ele>
        <time>2026-09-03T09:36:39.000Z</time>
      </trkpt>
      <trkpt lat="46.487685" lon="10.660296">
        <ele>2459.96251</ele>
        <time>2026-09-03T09:36:42.000Z</time>
      </trkpt>
      <trkpt lat="46.487695" lon="10.660327">
        <ele>2459.6907</ele>
        <time>2026-09-03T09:36:45.000Z</time>
      </trkpt>
      <trkpt lat="46.487707" lon="10.660356">
        <ele>2459.52506</ele>
        <time>2026-09-03T09:36:47.000Z</time>
      </trkpt>
      <trkpt lat="46.487706" lon="10.660407">
        <ele>2459.32325</ele>
        <time>2026-09-03T09:36:49.000Z</time>
      </trkpt>
      <trkpt lat="46.487718" lon="10.660443">
        <ele>2459.07884</ele>
        <time>2026-09-03T09:36:51.000Z</time>
      </trkpt>
      <trkpt lat="46.487726" lon="10.660482">
        <ele>2458.84596</ele>
        <time>2026-09-03T09:36:53.000Z</time>
      </trkpt>
      <trkpt lat="46.487735" lon="10.660514">
        <ele>2458.58448</ele>
        <time>2026-09-03T09:36:55.000Z</time>
      </trkpt>
      <trkpt lat="46.487747" lon="10.660548">
        <ele>2458.32101</ele>
        <time>2026-09-03T09:36:57.000Z</time>
      </trkpt>
      <trkpt lat="46.487747" lon="10.660584">
        <ele>2458.09191</ele>
        <time>2026-09-03T09:36:59.000Z</time>
      </trkpt>
      <trkpt lat="46.487756" lon="10.660619">
        <ele>2457.82804</ele>
        <time>2026-09-03T09:37:01.000Z</time>
      </trkpt>
      <trkpt lat="46.487753" lon="10.66066">
        <ele>2457.59878</ele>
        <time>2026-09-03T09:37:03.000Z</time>
      </trkpt>
      <trkpt lat="46.487752" lon="10.660697">
        <ele>2457.32181</ele>
        <time>2026-09-03T09:37:06.000Z</time>
      </trkpt>
      <trkpt lat="46.487752" lon="10.660754">
        <ele>2456.99822</ele>
        <time>2026-09-03T09:37:09.000Z</time>
      </trkpt>
      <trkpt lat="46.487742" lon="10.660794">
        <ele>2456.68848</ele>
        <time>2026-09-03T09:37:11.000Z</time>
      </trkpt>
      <trkpt lat="46.48775" lon="10.660839">
        <ele>2456.39431</ele>
        <time>2026-09-03T09:37:13.000Z</time>
      </trkpt>
      <trkpt lat="46.487759" lon="10.660878">
        <ele>2456.13282</ele>
        <time>2026-09-03T09:37:15.000Z</time>
      </trkpt>
      <trkpt lat="46.48775" lon="10.660908">
        <ele>2455.8834</ele>
        <time>2026-09-03T09:37:17.000Z</time>
      </trkpt>
      <trkpt lat="46.487733" lon="10.660929">
        <ele>2455.39001</ele>
        <time>2026-09-03T09:37:20.000Z</time>
      </trkpt>
      <trkpt lat="46.487749" lon="10.660962">
        <ele>2455.02475</ele>
        <time>2026-09-03T09:37:22.000Z</time>
      </trkpt>
      <trkpt lat="46.487756" lon="10.661015">
        <ele>2454.3902</ele>
        <time>2026-09-03T09:37:25.000Z</time>
      </trkpt>
      <trkpt lat="46.487751" lon="10.661081">
        <ele>2453.90549</ele>
        <time>2026-09-03T09:37:27.000Z</time>
      </trkpt>
      <trkpt lat="46.487744" lon="10.661123">
        <ele>2453.24602</ele>
        <time>2026-09-03T09:37:30.000Z</time>
      </trkpt>
      <trkpt lat="46.487723" lon="10.661154">
        <ele>2452.79729</ele>
        <time>2026-09-03T09:37:32.000Z</time>
      </trkpt>
      <trkpt lat="46.487725" lon="10.661199">
        <ele>2452.36032</ele>
        <time>2026-09-03T09:37:34.000Z</time>
      </trkpt>
      <trkpt lat="46.487729" lon="10.661239">
        <ele>2452.00767</ele>
        <time>2026-09-03T09:37:36.000Z</time>
      </trkpt>
      <trkpt lat="46.487745" lon="10.661274">
        <ele>2451.70901</ele>
        <time>2026-09-03T09:37:38.000Z</time>
      </trkpt>
      <trkpt lat="46.487752" lon="10.661305">
        <ele>2451.43203</ele>
        <time>2026-09-03T09:37:39.999Z</time>
      </trkpt>
      <trkpt lat="46.48776" lon="10.661348">
        <ele>2451.10277</ele>
        <time>2026-09-03T09:37:41.999Z</time>
      </trkpt>
      <trkpt lat="46.487755" lon="10.661384">
        <ele>2450.78659</ele>
        <time>2026-09-03T09:37:43.999Z</time>
      </trkpt>
      <trkpt lat="46.487759" lon="10.66142">
        <ele>2450.47824</ele>
        <time>2026-09-03T09:37:45.999Z</time>
      </trkpt>
      <trkpt lat="46.487749" lon="10.661451">
        <ele>2450.23944</ele>
        <time>2026-09-03T09:37:47.999Z</time>
      </trkpt>
      <trkpt lat="46.487737" lon="10.661484">
        <ele>2450.03212</ele>
        <time>2026-09-03T09:37:49.999Z</time>
      </trkpt>
      <trkpt lat="46.487742" lon="10.661531">
        <ele>2449.75173</ele>
        <time>2026-09-03T09:37:53.000Z</time>
      </trkpt>
      <trkpt lat="46.487742" lon="10.661567">
        <ele>2449.57983</ele>
        <time>2026-09-03T09:37:55.000Z</time>
      </trkpt>
      <trkpt lat="46.487735" lon="10.661617">
        <ele>2449.32991</ele>
        <time>2026-09-03T09:37:58.000Z</time>
      </trkpt>
      <trkpt lat="46.487732" lon="10.661677">
        <ele>2449.02208</ele>
        <time>2026-09-03T09:38:01.000Z</time>
      </trkpt>
      <trkpt lat="46.487754" lon="10.661721">
        <ele>2448.52155</ele>
        <time>2026-09-03T09:38:07.000Z</time>
      </trkpt>
      <trkpt lat="46.487743" lon="10.661761">
        <ele>2448.34915</ele>
        <time>2026-09-03T09:38:09.000Z</time>
      </trkpt>
      <trkpt lat="46.487747" lon="10.66181">
        <ele>2448.19787</ele>
        <time>2026-09-03T09:38:11.000Z</time>
      </trkpt>
      <trkpt lat="46.487758" lon="10.661845">
        <ele>2448.06871</ele>
        <time>2026-09-03T09:38:13.000Z</time>
      </trkpt>
      <trkpt lat="46.487772" lon="10.661878">
        <ele>2447.93897</ele>
        <time>2026-09-03T09:38:15.000Z</time>
      </trkpt>
      <trkpt lat="46.487766" lon="10.661923">
        <ele>2447.78738</ele>
        <time>2026-09-03T09:38:17.000Z</time>
      </trkpt>
      <trkpt lat="46.487765" lon="10.661967">
        <ele>2447.61687</ele>
        <time>2026-09-03T09:38:20.000Z</time>
      </trkpt>
      <trkpt lat="46.487772" lon="10.662007">
        <ele>2447.43918</ele>
        <time>2026-09-03T09:38:23.000Z</time>
      </trkpt>
      <trkpt lat="46.487771" lon="10.662049">
        <ele>2447.2983</ele>
        <time>2026-09-03T09:38:25.000Z</time>
      </trkpt>
      <trkpt lat="46.487738" lon="10.662052">
        <ele>2447.08382</ele>
        <time>2026-09-03T09:38:27.000Z</time>
      </trkpt>
      <trkpt lat="46.487714" lon="10.662071">
        <ele>2446.70147</ele>
        <time>2026-09-03T09:38:30.000Z</time>
      </trkpt>
      <trkpt lat="46.48768" lon="10.662075">
        <ele>2446.48103</ele>
        <time>2026-09-03T09:38:32.000Z</time>
      </trkpt>
      <trkpt lat="46.487644" lon="10.66207">
        <ele>2446.32639</ele>
        <time>2026-09-03T09:38:34.000Z</time>
      </trkpt>
      <trkpt lat="46.487619" lon="10.662088">
        <ele>2446.18253</ele>
        <time>2026-09-03T09:38:36.000Z</time>
      </trkpt>
      <trkpt lat="46.487594" lon="10.662117">
        <ele>2446.06886</ele>
        <time>2026-09-03T09:38:38.000Z</time>
      </trkpt>
      <trkpt lat="46.487572" lon="10.662147">
        <ele>2445.98563</ele>
        <time>2026-09-03T09:38:40.000Z</time>
      </trkpt>
      <trkpt lat="46.487556" lon="10.662182">
        <ele>2445.9371</ele>
        <time>2026-09-03T09:38:42.000Z</time>
      </trkpt>
      <trkpt lat="46.487536" lon="10.662209">
        <ele>2445.92117</ele>
        <time>2026-09-03T09:38:44.000Z</time>
      </trkpt>
      <trkpt lat="46.487519" lon="10.662238">
        <ele>2445.90704</ele>
        <time>2026-09-03T09:38:46.000Z</time>
      </trkpt>
      <trkpt lat="46.487508" lon="10.662274">
        <ele>2445.90082</ele>
        <time>2026-09-03T09:38:48.000Z</time>
      </trkpt>
      <trkpt lat="46.4875" lon="10.662315">
        <ele>2445.8911</ele>
        <time>2026-09-03T09:38:51.000Z</time>
      </trkpt>
      <trkpt lat="46.487488" lon="10.662357">
        <ele>2445.86379</ele>
        <time>2026-09-03T09:38:54.000Z</time>
      </trkpt>
      <trkpt lat="46.48747" lon="10.662406">
        <ele>2445.79862</ele>
        <time>2026-09-03T09:38:57.000Z</time>
      </trkpt>
      <trkpt lat="46.487446" lon="10.662447">
        <ele>2445.73831</ele>
        <time>2026-09-03T09:39:00.000Z</time>
      </trkpt>
      <trkpt lat="46.487417" lon="10.662476">
        <ele>2445.69757</ele>
        <time>2026-09-03T09:39:02.000Z</time>
      </trkpt>
      <trkpt lat="46.487392" lon="10.662497">
        <ele>2445.63721</ele>
        <time>2026-09-03T09:39:04.000Z</time>
      </trkpt>
      <trkpt lat="46.487377" lon="10.662535">
        <ele>2445.54758</ele>
        <time>2026-09-03T09:39:06.000Z</time>
      </trkpt>
      <trkpt lat="46.487363" lon="10.662565">
        <ele>2445.46775</ele>
        <time>2026-09-03T09:39:08.000Z</time>
      </trkpt>
      <trkpt lat="46.487363" lon="10.662604">
        <ele>2445.33044</ele>
        <time>2026-09-03T09:39:11.000Z</time>
      </trkpt>
      <trkpt lat="46.487339" lon="10.662634">
        <ele>2445.23792</ele>
        <time>2026-09-03T09:39:13.000Z</time>
      </trkpt>
      <trkpt lat="46.487323" lon="10.662671">
        <ele>2445.1522</ele>
        <time>2026-09-03T09:39:15.000Z</time>
      </trkpt>
      <trkpt lat="46.487303" lon="10.662717">
        <ele>2444.98445</ele>
        <time>2026-09-03T09:39:18.000Z</time>
      </trkpt>
      <trkpt lat="46.487287" lon="10.66274">
        <ele>2444.82895</ele>
        <time>2026-09-03T09:39:20.000Z</time>
      </trkpt>
      <trkpt lat="46.487258" lon="10.662759">
        <ele>2444.60106</ele>
        <time>2026-09-03T09:39:23.000Z</time>
      </trkpt>
      <trkpt lat="46.487237" lon="10.662788">
        <ele>2444.47201</ele>
        <time>2026-09-03T09:39:25.000Z</time>
      </trkpt>
      <trkpt lat="46.487221" lon="10.66282">
        <ele>2444.37781</ele>
        <time>2026-09-03T09:39:27.000Z</time>
      </trkpt>
      <trkpt lat="46.487198" lon="10.662834">
        <ele>2444.30242</ele>
        <time>2026-09-03T09:39:29.000Z</time>
      </trkpt>
      <trkpt lat="46.487185" lon="10.66288">
        <ele>2444.17267</ele>
        <time>2026-09-03T09:39:32.000Z</time>
      </trkpt>
      <trkpt lat="46.487202" lon="10.662914">
        <ele>2443.88017</ele>
        <time>2026-09-03T09:39:35.000Z</time>
      </trkpt>
      <trkpt lat="46.487213" lon="10.662944">
        <ele>2443.76459</ele>
        <time>2026-09-03T09:39:36.000Z</time>
      </trkpt>
      <trkpt lat="46.487196" lon="10.662975">
        <ele>2443.28493</ele>
        <time>2026-09-03T09:39:39.000Z</time>
      </trkpt>
      <trkpt lat="46.487183" lon="10.663018">
        <ele>2442.81844</ele>
        <time>2026-09-03T09:39:41.000Z</time>
      </trkpt>
      <trkpt lat="46.487169" lon="10.663054">
        <ele>2442.37308</ele>
        <time>2026-09-03T09:39:43.000Z</time>
      </trkpt>
      <trkpt lat="46.487163" lon="10.663104">
        <ele>2441.96883</ele>
        <time>2026-09-03T09:39:45.000Z</time>
      </trkpt>
      <trkpt lat="46.487164" lon="10.663151">
        <ele>2441.58128</ele>
        <time>2026-09-03T09:39:46.999Z</time>
      </trkpt>
      <trkpt lat="46.487159" lon="10.663186">
        <ele>2441.12902</ele>
        <time>2026-09-03T09:39:48.999Z</time>
      </trkpt>
      <trkpt lat="46.487136" lon="10.663212">
        <ele>2440.76362</ele>
        <time>2026-09-03T09:39:50.999Z</time>
      </trkpt>
      <trkpt lat="46.487124" lon="10.663249">
        <ele>2440.20058</ele>
        <time>2026-09-03T09:39:53.999Z</time>
      </trkpt>
      <trkpt lat="46.487122" lon="10.663296">
        <ele>2439.91399</ele>
        <time>2026-09-03T09:39:55.999Z</time>
      </trkpt>
      <trkpt lat="46.487114" lon="10.663336">
        <ele>2439.70627</ele>
        <time>2026-09-03T09:39:57.999Z</time>
      </trkpt>
      <trkpt lat="46.48712" lon="10.663389">
        <ele>2438.89526</ele>
        <time>2026-09-03T09:40:04.000Z</time>
      </trkpt>
      <trkpt lat="46.487097" lon="10.663421">
        <ele>2438.33896</ele>
        <time>2026-09-03T09:40:07.000Z</time>
      </trkpt>
      <trkpt lat="46.487102" lon="10.663456">
        <ele>2437.87129</ele>
        <time>2026-09-03T09:40:09.000Z</time>
      </trkpt>
      <trkpt lat="46.4871" lon="10.663491">
        <ele>2437.41302</ele>
        <time>2026-09-03T09:40:11.000Z</time>
      </trkpt>
      <trkpt lat="46.487099" lon="10.663524">
        <ele>2436.65283</ele>
        <time>2026-09-03T09:40:14.000Z</time>
      </trkpt>
      <trkpt lat="46.487094" lon="10.663563">
        <ele>2436.17831</ele>
        <time>2026-09-03T09:40:16.000Z</time>
      </trkpt>
      <trkpt lat="46.487073" lon="10.663583">
        <ele>2435.42659</ele>
        <time>2026-09-03T09:40:19.000Z</time>
      </trkpt>
      <trkpt lat="46.487054" lon="10.663603">
        <ele>2434.78813</ele>
        <time>2026-09-03T09:40:21.000Z</time>
      </trkpt>
      <trkpt lat="46.487033" lon="10.663628">
        <ele>2434.30215</ele>
        <time>2026-09-03T09:40:23.000Z</time>
      </trkpt>
      <trkpt lat="46.48701" lon="10.663655">
        <ele>2433.59914</ele>
        <time>2026-09-03T09:40:26.000Z</time>
      </trkpt>
      <trkpt lat="46.486992" lon="10.663687">
        <ele>2433.02764</ele>
        <time>2026-09-03T09:40:28.000Z</time>
      </trkpt>
      <trkpt lat="46.486975" lon="10.663712">
        <ele>2432.54148</ele>
        <time>2026-09-03T09:40:30.000Z</time>
      </trkpt>
      <trkpt lat="46.486955" lon="10.663735">
        <ele>2432.16614</ele>
        <time>2026-09-03T09:40:32.000Z</time>
      </trkpt>
      <trkpt lat="46.486942" lon="10.66377">
        <ele>2431.81451</ele>
        <time>2026-09-03T09:40:34.000Z</time>
      </trkpt>
      <trkpt lat="46.486917" lon="10.663787">
        <ele>2431.38136</ele>
        <time>2026-09-03T09:40:36.000Z</time>
      </trkpt>
      <trkpt lat="46.486893" lon="10.663801">
        <ele>2431.03491</ele>
        <time>2026-09-03T09:40:38.000Z</time>
      </trkpt>
      <trkpt lat="46.486871" lon="10.663806">
        <ele>2430.69544</ele>
        <time>2026-09-03T09:40:40.000Z</time>
      </trkpt>
      <trkpt lat="46.486846" lon="10.663823">
        <ele>2430.42842</ele>
        <time>2026-09-03T09:40:42.000Z</time>
      </trkpt>
      <trkpt lat="46.486829" lon="10.663848">
        <ele>2430.1307</ele>
        <time>2026-09-03T09:40:44.000Z</time>
      </trkpt>
      <trkpt lat="46.486812" lon="10.663894">
        <ele>2429.8801</ele>
        <time>2026-09-03T09:40:47.000Z</time>
      </trkpt>
      <trkpt lat="46.486795" lon="10.663919">
        <ele>2429.76303</ele>
        <time>2026-09-03T09:40:49.000Z</time>
      </trkpt>
      <trkpt lat="46.486785" lon="10.663962">
        <ele>2429.66316</ele>
        <time>2026-09-03T09:40:51.000Z</time>
      </trkpt>
      <trkpt lat="46.486794" lon="10.664003">
        <ele>2429.62544</ele>
        <time>2026-09-03T09:40:53.000Z</time>
      </trkpt>
      <trkpt lat="46.486807" lon="10.66405">
        <ele>2429.49623</ele>
        <time>2026-09-03T09:40:55.000Z</time>
      </trkpt>
      <trkpt lat="46.486794" lon="10.66408">
        <ele>2429.38271</ele>
        <time>2026-09-03T09:40:57.000Z</time>
      </trkpt>
      <trkpt lat="46.486773" lon="10.664065">
        <ele>2429.00745</ele>
        <time>2026-09-03T09:41:03.000Z</time>
      </trkpt>
      <trkpt lat="46.486752" lon="10.664089">
        <ele>2428.77304</ele>
        <time>2026-09-03T09:41:05.000Z</time>
      </trkpt>
      <trkpt lat="46.486728" lon="10.664104">
        <ele>2428.49342</ele>
        <time>2026-09-03T09:41:07.000Z</time>
      </trkpt>
      <trkpt lat="46.486719" lon="10.664139">
        <ele>2427.88555</ele>
        <time>2026-09-03T09:41:10.000Z</time>
      </trkpt>
      <trkpt lat="46.486704" lon="10.664171">
        <ele>2426.9771</ele>
        <time>2026-09-03T09:41:14.000Z</time>
      </trkpt>
      <trkpt lat="46.486677" lon="10.664177">
        <ele>2426.43013</ele>
        <time>2026-09-03T09:41:16.000Z</time>
      </trkpt>
      <trkpt lat="46.486664" lon="10.664211">
        <ele>2425.64855</ele>
        <time>2026-09-03T09:41:19.000Z</time>
      </trkpt>
      <trkpt lat="46.486645" lon="10.664229">
        <ele>2425.21913</ele>
        <time>2026-09-03T09:41:21.000Z</time>
      </trkpt>
      <trkpt lat="46.48663" lon="10.664272">
        <ele>2424.55491</ele>
        <time>2026-09-03T09:41:24.000Z</time>
      </trkpt>
      <trkpt lat="46.486618" lon="10.664311">
        <ele>2423.93298</ele>
        <time>2026-09-03T09:41:27.000Z</time>
      </trkpt>
      <trkpt lat="46.486601" lon="10.664336">
        <ele>2423.3972</ele>
        <time>2026-09-03T09:41:29.000Z</time>
      </trkpt>
      <trkpt lat="46.486588" lon="10.664366">
        <ele>2422.8787</ele>
        <time>2026-09-03T09:41:31.000Z</time>
      </trkpt>
      <trkpt lat="46.486568" lon="10.664403">
        <ele>2422.44612</ele>
        <time>2026-09-03T09:41:33.000Z</time>
      </trkpt>
      <trkpt lat="46.486547" lon="10.664436">
        <ele>2422.04454</ele>
        <time>2026-09-03T09:41:35.000Z</time>
      </trkpt>
      <trkpt lat="46.486524" lon="10.664466">
        <ele>2421.63671</ele>
        <time>2026-09-03T09:41:37.000Z</time>
      </trkpt>
      <trkpt lat="46.486497" lon="10.664485">
        <ele>2421.36219</ele>
        <time>2026-09-03T09:41:39.000Z</time>
      </trkpt>
      <trkpt lat="46.486484" lon="10.664521">
        <ele>2421.08375</ele>
        <time>2026-09-03T09:41:41.000Z</time>
      </trkpt>
      <trkpt lat="46.486456" lon="10.664548">
        <ele>2420.8539</ele>
        <time>2026-09-03T09:41:44.000Z</time>
      </trkpt>
      <trkpt lat="46.486434" lon="10.664552">
        <ele>2420.58863</ele>
        <time>2026-09-03T09:41:45.999Z</time>
      </trkpt>
      <trkpt lat="46.486412" lon="10.66457">
        <ele>2419.97045</ele>
        <time>2026-09-03T09:41:48.999Z</time>
      </trkpt>
      <trkpt lat="46.486404" lon="10.664608">
        <ele>2419.50364</ele>
        <time>2026-09-03T09:41:50.999Z</time>
      </trkpt>
      <trkpt lat="46.486408" lon="10.664653">
        <ele>2419.1409</ele>
        <time>2026-09-03T09:41:52.999Z</time>
      </trkpt>
      <trkpt lat="46.486408" lon="10.664688">
        <ele>2418.89235</ele>
        <time>2026-09-03T09:41:54.999Z</time>
      </trkpt>
      <trkpt lat="46.486391" lon="10.664721">
        <ele>2418.69762</ele>
        <time>2026-09-03T09:41:57.999Z</time>
      </trkpt>
      <trkpt lat="46.486365" lon="10.664719">
        <ele>2418.52738</ele>
        <time>2026-09-03T09:41:59.999Z</time>
      </trkpt>
      <trkpt lat="46.48634" lon="10.664724">
        <ele>2418.25639</ele>
        <time>2026-09-03T09:42:01.999Z</time>
      </trkpt>
      <trkpt lat="46.486317" lon="10.664735">
        <ele>2417.92169</ele>
        <time>2026-09-03T09:42:04.000Z</time>
      </trkpt>
      <trkpt lat="46.486318" lon="10.664786">
        <ele>2417.55492</ele>
        <time>2026-09-03T09:42:06.000Z</time>
      </trkpt>
      <trkpt lat="46.486328" lon="10.664825">
        <ele>2417.1847</ele>
        <time>2026-09-03T09:42:08.000Z</time>
      </trkpt>
      <trkpt lat="46.486332" lon="10.664871">
        <ele>2416.70421</ele>
        <time>2026-09-03T09:42:11.000Z</time>
      </trkpt>
      <trkpt lat="46.486336" lon="10.664908">
        <ele>2416.31677</ele>
        <time>2026-09-03T09:42:13.000Z</time>
      </trkpt>
      <trkpt lat="46.486346" lon="10.66494">
        <ele>2415.96213</ele>
        <time>2026-09-03T09:42:15.000Z</time>
      </trkpt>
      <trkpt lat="46.486345" lon="10.664979">
        <ele>2415.3631</ele>
        <time>2026-09-03T09:42:18.000Z</time>
      </trkpt>
      <trkpt lat="46.486359" lon="10.665025">
        <ele>2414.53648</ele>
        <time>2026-09-03T09:42:21.000Z</time>
      </trkpt>
      <trkpt lat="46.486357" lon="10.665062">
        <ele>2413.99972</ele>
        <time>2026-09-03T09:42:23.000Z</time>
      </trkpt>
      <trkpt lat="46.486356" lon="10.665098">
        <ele>2413.64323</ele>
        <time>2026-09-03T09:42:25.000Z</time>
      </trkpt>
      <trkpt lat="46.486333" lon="10.665132">
        <ele>2413.28148</ele>
        <time>2026-09-03T09:42:27.000Z</time>
      </trkpt>
      <trkpt lat="46.486315" lon="10.665158">
        <ele>2412.97247</ele>
        <time>2026-09-03T09:42:29.000Z</time>
      </trkpt>
      <trkpt lat="46.486295" lon="10.665197">
        <ele>2412.66332</ele>
        <time>2026-09-03T09:42:32.000Z</time>
      </trkpt>
      <trkpt lat="46.486287" lon="10.665238">
        <ele>2412.52713</ele>
        <time>2026-09-03T09:42:34.000Z</time>
      </trkpt>
      <trkpt lat="46.486271" lon="10.665264">
        <ele>2412.36424</ele>
        <time>2026-09-03T09:42:36.000Z</time>
      </trkpt>
      <trkpt lat="46.486278" lon="10.665304">
        <ele>2412.22326</ele>
        <time>2026-09-03T09:42:38.000Z</time>
      </trkpt>
      <trkpt lat="46.486277" lon="10.665338">
        <ele>2412.08282</ele>
        <time>2026-09-03T09:42:40.000Z</time>
      </trkpt>
      <trkpt lat="46.486261" lon="10.665365">
        <ele>2411.95677</ele>
        <time>2026-09-03T09:42:42.000Z</time>
      </trkpt>
      <trkpt lat="46.486273" lon="10.665396">
        <ele>2411.34212</ele>
        <time>2026-09-03T09:42:48.000Z</time>
      </trkpt>
      <trkpt lat="46.486267" lon="10.665429">
        <ele>2411.08587</ele>
        <time>2026-09-03T09:42:50.000Z</time>
      </trkpt>
      <trkpt lat="46.486259" lon="10.665461">
        <ele>2410.81139</ele>
        <time>2026-09-03T09:42:52.000Z</time>
      </trkpt>
      <trkpt lat="46.486251" lon="10.665495">
        <ele>2410.48622</ele>
        <time>2026-09-03T09:42:54.000Z</time>
      </trkpt>
      <trkpt lat="46.486226" lon="10.665513">
        <ele>2410.08665</ele>
        <time>2026-09-03T09:42:56.000Z</time>
      </trkpt>
      <trkpt lat="46.48621" lon="10.665538">
        <ele>2409.40005</ele>
        <time>2026-09-03T09:42:59.000Z</time>
      </trkpt>
      <trkpt lat="46.486181" lon="10.66556">
        <ele>2408.71186</ele>
        <time>2026-09-03T09:43:02.000Z</time>
      </trkpt>
      <trkpt lat="46.486181" lon="10.665608">
        <ele>2408.03372</ele>
        <time>2026-09-03T09:43:05.000Z</time>
      </trkpt>
      <trkpt lat="46.486176" lon="10.665647">
        <ele>2407.52611</ele>
        <time>2026-09-03T09:43:07.000Z</time>
      </trkpt>
      <trkpt lat="46.486175" lon="10.665689">
        <ele>2407.03127</ele>
        <time>2026-09-03T09:43:09.000Z</time>
      </trkpt>
      <trkpt lat="46.486176" lon="10.665726">
        <ele>2406.34287</ele>
        <time>2026-09-03T09:43:12.000Z</time>
      </trkpt>
      <trkpt lat="46.486174" lon="10.665764">
        <ele>2405.67635</ele>
        <time>2026-09-03T09:43:15.000Z</time>
      </trkpt>
      <trkpt lat="46.486169" lon="10.665805">
        <ele>2405.16814</ele>
        <time>2026-09-03T09:43:17.000Z</time>
      </trkpt>
      <trkpt lat="46.486161" lon="10.665836">
        <ele>2404.82031</ele>
        <time>2026-09-03T09:43:19.000Z</time>
      </trkpt>
      <trkpt lat="46.486148" lon="10.665882">
        <ele>2404.26214</ele>
        <time>2026-09-03T09:43:22.000Z</time>
      </trkpt>
      <trkpt lat="46.486138" lon="10.665928">
        <ele>2403.81494</ele>
        <time>2026-09-03T09:43:25.000Z</time>
      </trkpt>
      <trkpt lat="46.486131" lon="10.665967">
        <ele>2403.38564</ele>
        <time>2026-09-03T09:43:28.000Z</time>
      </trkpt>
      <trkpt lat="46.486117" lon="10.666004">
        <ele>2402.98841</ele>
        <time>2026-09-03T09:43:31.000Z</time>
      </trkpt>
      <trkpt lat="46.486106" lon="10.666063">
        <ele>2402.4769</ele>
        <time>2026-09-03T09:43:35.000Z</time>
      </trkpt>
      <trkpt lat="46.486091" lon="10.666094">
        <ele>2402.24594</ele>
        <time>2026-09-03T09:43:37.000Z</time>
      </trkpt>
      <trkpt lat="46.486079" lon="10.66613">
        <ele>2401.90331</ele>
        <time>2026-09-03T09:43:40.000Z</time>
      </trkpt>
      <trkpt lat="46.486071" lon="10.666162">
        <ele>2401.64321</ele>
        <time>2026-09-03T09:43:42.000Z</time>
      </trkpt>
      <trkpt lat="46.486045" lon="10.6662">
        <ele>2401.37129</ele>
        <time>2026-09-03T09:43:44.000Z</time>
      </trkpt>
      <trkpt lat="46.486025" lon="10.666222">
        <ele>2401.02528</ele>
        <time>2026-09-03T09:43:46.999Z</time>
      </trkpt>
      <trkpt lat="46.486025" lon="10.666275">
        <ele>2400.81743</ele>
        <time>2026-09-03T09:43:48.999Z</time>
      </trkpt>
      <trkpt lat="46.486016" lon="10.66631">
        <ele>2400.66632</ele>
        <time>2026-09-03T09:43:50.999Z</time>
      </trkpt>
      <trkpt lat="46.485992" lon="10.666336">
        <ele>2400.31821</ele>
        <time>2026-09-03T09:43:54.999Z</time>
      </trkpt>
      <trkpt lat="46.485983" lon="10.666366">
        <ele>2400.13601</ele>
        <time>2026-09-03T09:43:56.999Z</time>
      </trkpt>
      <trkpt lat="46.485981" lon="10.66641">
        <ele>2399.77673</ele>
        <time>2026-09-03T09:43:59.999Z</time>
      </trkpt>
      <trkpt lat="46.485951" lon="10.666464">
        <ele>2399.43451</ele>
        <time>2026-09-03T09:44:02.999Z</time>
      </trkpt>
      <trkpt lat="46.485939" lon="10.666504">
        <ele>2399.24203</ele>
        <time>2026-09-03T09:44:04.999Z</time>
      </trkpt>
      <trkpt lat="46.485931" lon="10.666535">
        <ele>2399.02056</ele>
        <time>2026-09-03T09:44:06.999Z</time>
      </trkpt>
      <trkpt lat="46.485924" lon="10.666571">
        <ele>2398.78407</ele>
        <time>2026-09-03T09:44:08.999Z</time>
      </trkpt>
      <trkpt lat="46.485936" lon="10.666616">
        <ele>2398.57165</ele>
        <time>2026-09-03T09:44:11.000Z</time>
      </trkpt>
      <trkpt lat="46.485933" lon="10.666664">
        <ele>2397.98224</ele>
        <time>2026-09-03T09:44:16.000Z</time>
      </trkpt>
      <trkpt lat="46.485913" lon="10.666695">
        <ele>2397.67325</ele>
        <time>2026-09-03T09:44:18.000Z</time>
      </trkpt>
      <trkpt lat="46.485894" lon="10.666721">
        <ele>2397.07832</ele>
        <time>2026-09-03T09:44:21.000Z</time>
      </trkpt>
      <trkpt lat="46.485883" lon="10.666758">
        <ele>2396.36762</ele>
        <time>2026-09-03T09:44:24.000Z</time>
      </trkpt>
      <trkpt lat="46.485881" lon="10.666813">
        <ele>2395.64374</ele>
        <time>2026-09-03T09:44:27.000Z</time>
      </trkpt>
      <trkpt lat="46.485885" lon="10.666856">
        <ele>2395.10107</ele>
        <time>2026-09-03T09:44:29.000Z</time>
      </trkpt>
      <trkpt lat="46.485904" lon="10.666879">
        <ele>2394.60515</ele>
        <time>2026-09-03T09:44:31.000Z</time>
      </trkpt>
      <trkpt lat="46.485938" lon="10.666894">
        <ele>2393.61574</ele>
        <time>2026-09-03T09:44:34.000Z</time>
      </trkpt>
      <trkpt lat="46.485949" lon="10.666929">
        <ele>2392.90584</ele>
        <time>2026-09-03T09:44:37.000Z</time>
      </trkpt>
      <trkpt lat="46.485943" lon="10.666969">
        <ele>2392.09039</ele>
        <time>2026-09-03T09:44:40.000Z</time>
      </trkpt>
      <trkpt lat="46.485914" lon="10.666992">
        <ele>2391.51391</ele>
        <time>2026-09-03T09:44:43.000Z</time>
      </trkpt>
      <trkpt lat="46.485916" lon="10.667029">
        <ele>2391.05235</ele>
        <time>2026-09-03T09:44:46.000Z</time>
      </trkpt>
      <trkpt lat="46.485927" lon="10.667067">
        <ele>2390.63059</ele>
        <time>2026-09-03T09:44:48.000Z</time>
      </trkpt>
      <trkpt lat="46.485924" lon="10.667123">
        <ele>2390.15328</ele>
        <time>2026-09-03T09:44:50.000Z</time>
      </trkpt>
      <trkpt lat="46.485939" lon="10.667161">
        <ele>2389.83442</ele>
        <time>2026-09-03T09:44:53.000Z</time>
      </trkpt>
      <trkpt lat="46.485928" lon="10.667201">
        <ele>2389.48756</ele>
        <time>2026-09-03T09:44:56.000Z</time>
      </trkpt>
      <trkpt lat="46.485932" lon="10.667244">
        <ele>2389.15761</ele>
        <time>2026-09-03T09:44:59.000Z</time>
      </trkpt>
      <trkpt lat="46.485905" lon="10.667277">
        <ele>2388.63304</ele>
        <time>2026-09-03T09:45:03.000Z</time>
      </trkpt>
      <trkpt lat="46.485894" lon="10.667309">
        <ele>2388.31397</ele>
        <time>2026-09-03T09:45:05.000Z</time>
      </trkpt>
      <trkpt lat="46.48587" lon="10.667353">
        <ele>2387.92484</ele>
        <time>2026-09-03T09:45:08.000Z</time>
      </trkpt>
      <trkpt lat="46.485853" lon="10.667379">
        <ele>2387.51982</ele>
        <time>2026-09-03T09:45:11.000Z</time>
      </trkpt>
      <trkpt lat="46.485831" lon="10.6674">
        <ele>2386.98141</ele>
        <time>2026-09-03T09:45:14.000Z</time>
      </trkpt>
      <trkpt lat="46.485802" lon="10.667405">
        <ele>2386.78661</ele>
        <time>2026-09-03T09:45:15.000Z</time>
      </trkpt>
      <trkpt lat="46.485792" lon="10.667443">
        <ele>2386.43374</ele>
        <time>2026-09-03T09:45:17.000Z</time>
      </trkpt>
      <trkpt lat="46.485792" lon="10.667477">
        <ele>2386.15779</ele>
        <time>2026-09-03T09:45:19.000Z</time>
      </trkpt>
      <trkpt lat="46.485793" lon="10.667511">
        <ele>2385.8548</ele>
        <time>2026-09-03T09:45:21.000Z</time>
      </trkpt>
      <trkpt lat="46.485794" lon="10.667561">
        <ele>2385.42161</ele>
        <time>2026-09-03T09:45:24.000Z</time>
      </trkpt>
      <trkpt lat="46.48579" lon="10.6676">
        <ele>2384.7669</ele>
        <time>2026-09-03T09:45:30.000Z</time>
      </trkpt>
      <trkpt lat="46.485788" lon="10.667641">
        <ele>2384.4077</ele>
        <time>2026-09-03T09:45:33.000Z</time>
      </trkpt>
      <trkpt lat="46.485797" lon="10.667694">
        <ele>2383.82915</ele>
        <time>2026-09-03T09:45:37.000Z</time>
      </trkpt>
      <trkpt lat="46.485794" lon="10.667728">
        <ele>2383.68865</ele>
        <time>2026-09-03T09:45:38.000Z</time>
      </trkpt>
      <trkpt lat="46.485772" lon="10.667757">
        <ele>2383.39103</ele>
        <time>2026-09-03T09:45:41.000Z</time>
      </trkpt>
      <trkpt lat="46.485767" lon="10.66779">
        <ele>2383.19623</ele>
        <time>2026-09-03T09:45:43.000Z</time>
      </trkpt>
      <trkpt lat="46.485767" lon="10.667826">
        <ele>2382.79374</ele>
        <time>2026-09-03T09:45:46.000Z</time>
      </trkpt>
      <trkpt lat="46.485741" lon="10.667863">
        <ele>2382.10667</ele>
        <time>2026-09-03T09:45:50.000Z</time>
      </trkpt>
      <trkpt lat="46.485718" lon="10.667883">
        <ele>2381.48031</ele>
        <time>2026-09-03T09:45:53.000Z</time>
      </trkpt>
      <trkpt lat="46.485694" lon="10.667899">
        <ele>2380.62342</ele>
        <time>2026-09-03T09:45:55.999Z</time>
      </trkpt>
      <trkpt lat="46.485685" lon="10.667936">
        <ele>2380.14341</ele>
        <time>2026-09-03T09:45:57.999Z</time>
      </trkpt>
      <trkpt lat="46.485681" lon="10.667975">
        <ele>2379.05274</ele>
        <time>2026-09-03T09:46:01.999Z</time>
      </trkpt>
      <trkpt lat="46.485677" lon="10.668018">
        <ele>2378.32863</ele>
        <time>2026-09-03T09:46:03.999Z</time>
      </trkpt>
      <trkpt lat="46.485652" lon="10.668045">
        <ele>2377.08211</ele>
        <time>2026-09-03T09:46:06.999Z</time>
      </trkpt>
      <trkpt lat="46.485641" lon="10.668089">
        <ele>2376.00319</ele>
        <time>2026-09-03T09:46:09.999Z</time>
      </trkpt>
      <trkpt lat="46.485648" lon="10.668123">
        <ele>2374.78629</ele>
        <time>2026-09-03T09:46:12.999Z</time>
      </trkpt>
      <trkpt lat="46.485663" lon="10.668152">
        <ele>2373.86672</ele>
        <time>2026-09-03T09:46:16.000Z</time>
      </trkpt>
      <trkpt lat="46.485654" lon="10.668185">
        <ele>2373.17194</ele>
        <time>2026-09-03T09:46:19.000Z</time>
      </trkpt>
      <trkpt lat="46.485643" lon="10.668224">
        <ele>2372.87725</ele>
        <time>2026-09-03T09:46:21.000Z</time>
      </trkpt>
      <trkpt lat="46.485627" lon="10.668258">
        <ele>2372.41471</ele>
        <time>2026-09-03T09:46:24.000Z</time>
      </trkpt>
      <trkpt lat="46.485623" lon="10.668295">
        <ele>2372.08822</ele>
        <time>2026-09-03T09:46:26.000Z</time>
      </trkpt>
      <trkpt lat="46.485614" lon="10.668336">
        <ele>2371.6855</ele>
        <time>2026-09-03T09:46:29.000Z</time>
      </trkpt>
      <trkpt lat="46.485609" lon="10.66837">
        <ele>2371.37751</ele>
        <time>2026-09-03T09:46:31.000Z</time>
      </trkpt>
      <trkpt lat="46.485615" lon="10.668401">
        <ele>2371.03176</ele>
        <time>2026-09-03T09:46:33.000Z</time>
      </trkpt>
      <trkpt lat="46.485622" lon="10.668445">
        <ele>2370.42113</ele>
        <time>2026-09-03T09:46:36.000Z</time>
      </trkpt>
      <trkpt lat="46.485616" lon="10.668488">
        <ele>2369.90012</ele>
        <time>2026-09-03T09:46:39.000Z</time>
      </trkpt>
      <trkpt lat="46.485621" lon="10.668526">
        <ele>2369.58545</ele>
        <time>2026-09-03T09:46:41.000Z</time>
      </trkpt>
      <trkpt lat="46.485611" lon="10.668563">
        <ele>2369.2781</ele>
        <time>2026-09-03T09:46:43.000Z</time>
      </trkpt>
      <trkpt lat="46.485604" lon="10.668605">
        <ele>2369.06132</ele>
        <time>2026-09-03T09:46:45.000Z</time>
      </trkpt>
      <trkpt lat="46.48561" lon="10.668646">
        <ele>2368.92423</ele>
        <time>2026-09-03T09:46:47.000Z</time>
      </trkpt>
      <trkpt lat="46.485613" lon="10.668681">
        <ele>2368.81149</ele>
        <time>2026-09-03T09:46:49.000Z</time>
      </trkpt>
      <trkpt lat="46.48562" lon="10.668718">
        <ele>2368.72293</ele>
        <time>2026-09-03T09:46:51.000Z</time>
      </trkpt>
      <trkpt lat="46.485614" lon="10.668755">
        <ele>2368.59597</ele>
        <time>2026-09-03T09:46:53.000Z</time>
      </trkpt>
      <trkpt lat="46.485601" lon="10.668786">
        <ele>2368.46702</ele>
        <time>2026-09-03T09:46:55.000Z</time>
      </trkpt>
      <trkpt lat="46.485598" lon="10.668832">
        <ele>2368.10347</ele>
        <time>2026-09-03T09:46:59.000Z</time>
      </trkpt>
      <trkpt lat="46.48559" lon="10.668865">
        <ele>2367.6714</ele>
        <time>2026-09-03T09:47:02.000Z</time>
      </trkpt>
      <trkpt lat="46.4856" lon="10.668909">
        <ele>2367.1294</ele>
        <time>2026-09-03T09:47:05.000Z</time>
      </trkpt>
      <trkpt lat="46.485603" lon="10.668952">
        <ele>2366.74732</ele>
        <time>2026-09-03T09:47:07.000Z</time>
      </trkpt>
      <trkpt lat="46.485608" lon="10.668994">
        <ele>2366.41368</ele>
        <time>2026-09-03T09:47:09.000Z</time>
      </trkpt>
      <trkpt lat="46.485615" lon="10.669033">
        <ele>2366.05916</ele>
        <time>2026-09-03T09:47:11.000Z</time>
      </trkpt>
      <trkpt lat="46.485623" lon="10.669069">
        <ele>2365.76142</ele>
        <time>2026-09-03T09:47:13.000Z</time>
      </trkpt>
      <trkpt lat="46.485625" lon="10.669108">
        <ele>2365.51486</ele>
        <time>2026-09-03T09:47:15.000Z</time>
      </trkpt>
      <trkpt lat="46.485622" lon="10.669142">
        <ele>2365.31908</ele>
        <time>2026-09-03T09:47:17.000Z</time>
      </trkpt>
      <trkpt lat="46.485625" lon="10.669176">
        <ele>2365.08641</ele>
        <time>2026-09-03T09:47:19.000Z</time>
      </trkpt>
      <trkpt lat="46.485618" lon="10.669209">
        <ele>2364.89243</ele>
        <time>2026-09-03T09:47:21.000Z</time>
      </trkpt>
      <trkpt lat="46.485612" lon="10.66925">
        <ele>2364.47329</ele>
        <time>2026-09-03T09:47:24.000Z</time>
      </trkpt>
      <trkpt lat="46.485602" lon="10.669285">
        <ele>2363.90141</ele>
        <time>2026-09-03T09:47:27.000Z</time>
      </trkpt>
      <trkpt lat="46.485599" lon="10.669327">
        <ele>2363.07716</ele>
        <time>2026-09-03T09:47:31.000Z</time>
      </trkpt>
      <trkpt lat="46.485586" lon="10.669368">
        <ele>2362.59438</ele>
        <time>2026-09-03T09:47:33.000Z</time>
      </trkpt>
      <trkpt lat="46.485579" lon="10.6694">
        <ele>2362.16669</ele>
        <time>2026-09-03T09:47:35.000Z</time>
      </trkpt>
      <trkpt lat="46.485572" lon="10.669441">
        <ele>2361.69306</ele>
        <time>2026-09-03T09:47:37.000Z</time>
      </trkpt>
      <trkpt lat="46.485569" lon="10.669485">
        <ele>2360.99131</ele>
        <time>2026-09-03T09:47:40.000Z</time>
      </trkpt>
      <trkpt lat="46.485584" lon="10.669521">
        <ele>2360.16293</ele>
        <time>2026-09-03T09:47:43.000Z</time>
      </trkpt>
      <trkpt lat="46.48559" lon="10.669567">
        <ele>2359.09705</ele>
        <time>2026-09-03T09:47:46.999Z</time>
      </trkpt>
      <trkpt lat="46.485588" lon="10.669607">
        <ele>2358.25124</ele>
        <time>2026-09-03T09:47:49.999Z</time>
      </trkpt>
      <trkpt lat="46.485587" lon="10.669646">
        <ele>2357.44032</ele>
        <time>2026-09-03T09:47:52.999Z</time>
      </trkpt>
      <trkpt lat="46.485599" lon="10.66968">
        <ele>2356.68305</ele>
        <time>2026-09-03T09:47:55.999Z</time>
      </trkpt>
      <trkpt lat="46.485595" lon="10.669719">
        <ele>2356.08259</ele>
        <time>2026-09-03T09:47:57.999Z</time>
      </trkpt>
      <trkpt lat="46.485604" lon="10.669759">
        <ele>2355.00804</ele>
        <time>2026-09-03T09:48:01.999Z</time>
      </trkpt>
      <trkpt lat="46.485604" lon="10.669801">
        <ele>2354.58422</ele>
        <time>2026-09-03T09:48:03.999Z</time>
      </trkpt>
      <trkpt lat="46.485624" lon="10.669832">
        <ele>2353.96771</ele>
        <time>2026-09-03T09:48:06.999Z</time>
      </trkpt>
      <trkpt lat="46.485619" lon="10.669866">
        <ele>2353.35212</ele>
        <time>2026-09-03T09:48:09.999Z</time>
      </trkpt>
      <trkpt lat="46.485604" lon="10.669916">
        <ele>2352.96065</ele>
        <time>2026-09-03T09:48:12.999Z</time>
      </trkpt>
      <trkpt lat="46.48561" lon="10.669955">
        <ele>2352.51243</ele>
        <time>2026-09-03T09:48:16.999Z</time>
      </trkpt>
      <trkpt lat="46.48561" lon="10.670001">
        <ele>2352.13999</ele>
        <time>2026-09-03T09:48:19.999Z</time>
      </trkpt>
      <trkpt lat="46.48561" lon="10.670038">
        <ele>2351.90742</ele>
        <time>2026-09-03T09:48:22.000Z</time>
      </trkpt>
      <trkpt lat="46.485615" lon="10.670084">
        <ele>2351.40015</ele>
        <time>2026-09-03T09:48:27.000Z</time>
      </trkpt>
      <trkpt lat="46.485619" lon="10.670122">
        <ele>2351.13703</ele>
        <time>2026-09-03T09:48:29.000Z</time>
      </trkpt>
      <trkpt lat="46.485606" lon="10.670149">
        <ele>2350.89148</ele>
        <time>2026-09-03T09:48:31.000Z</time>
      </trkpt>
      <trkpt lat="46.485588" lon="10.670175">
        <ele>2350.47011</ele>
        <time>2026-09-03T09:48:34.000Z</time>
      </trkpt>
      <trkpt lat="46.485563" lon="10.670207">
        <ele>2350.0119</ele>
        <time>2026-09-03T09:48:37.000Z</time>
      </trkpt>
      <trkpt lat="46.485552" lon="10.670253">
        <ele>2349.32986</ele>
        <time>2026-09-03T09:48:41.000Z</time>
      </trkpt>
      <trkpt lat="46.48553" lon="10.670258">
        <ele>2348.99025</ele>
        <time>2026-09-03T09:48:43.000Z</time>
      </trkpt>
      <trkpt lat="46.485497" lon="10.670243">
        <ele>2348.44478</ele>
        <time>2026-09-03T09:48:46.000Z</time>
      </trkpt>
      <trkpt lat="46.485473" lon="10.670242">
        <ele>2347.95797</ele>
        <time>2026-09-03T09:48:48.000Z</time>
      </trkpt>
      <trkpt lat="46.485453" lon="10.670264">
        <ele>2347.2478</ele>
        <time>2026-09-03T09:48:51.000Z</time>
      </trkpt>
      <trkpt lat="46.485432" lon="10.67024">
        <ele>2346.77196</ele>
        <time>2026-09-03T09:48:53.000Z</time>
      </trkpt>
      <trkpt lat="46.48541" lon="10.670199">
        <ele>2346.05261</ele>
        <time>2026-09-03T09:48:56.000Z</time>
      </trkpt>
      <trkpt lat="46.485386" lon="10.670199">
        <ele>2345.58891</ele>
        <time>2026-09-03T09:48:58.000Z</time>
      </trkpt>
      <trkpt lat="46.485373" lon="10.670228">
        <ele>2345.16492</ele>
        <time>2026-09-03T09:49:00.000Z</time>
      </trkpt>
      <trkpt lat="46.485344" lon="10.670238">
        <ele>2344.55968</ele>
        <time>2026-09-03T09:49:03.000Z</time>
      </trkpt>
      <trkpt lat="46.485315" lon="10.670206">
        <ele>2343.48348</ele>
        <time>2026-09-03T09:49:08.000Z</time>
      </trkpt>
      <trkpt lat="46.485295" lon="10.67019">
        <ele>2343.01003</ele>
        <time>2026-09-03T09:49:10.000Z</time>
      </trkpt>
      <trkpt lat="46.485272" lon="10.670197">
        <ele>2342.06335</ele>
        <time>2026-09-03T09:49:15.000Z</time>
      </trkpt>
      <trkpt lat="46.485233" lon="10.670204">
        <ele>2341.69422</ele>
        <time>2026-09-03T09:49:17.000Z</time>
      </trkpt>
      <trkpt lat="46.485208" lon="10.670189">
        <ele>2340.44599</ele>
        <time>2026-09-03T09:49:24.000Z</time>
      </trkpt>
      <trkpt lat="46.485183" lon="10.670167">
        <ele>2340.013</ele>
        <time>2026-09-03T09:49:27.000Z</time>
      </trkpt>
      <trkpt lat="46.485157" lon="10.670156">
        <ele>2339.57551</ele>
        <time>2026-09-03T09:49:30.000Z</time>
      </trkpt>
      <trkpt lat="46.485134" lon="10.670134">
        <ele>2338.87585</ele>
        <time>2026-09-03T09:49:35.000Z</time>
      </trkpt>
      <trkpt lat="46.485103" lon="10.670133">
        <ele>2338.2386</ele>
        <time>2026-09-03T09:49:39.000Z</time>
      </trkpt>
      <trkpt lat="46.485084" lon="10.670115">
        <ele>2337.92966</ele>
        <time>2026-09-03T09:49:41.000Z</time>
      </trkpt>
      <trkpt lat="46.485058" lon="10.67009">
        <ele>2337.48643</ele>
        <time>2026-09-03T09:49:44.000Z</time>
      </trkpt>
      <trkpt lat="46.48504" lon="10.670111">
        <ele>2337.04013</ele>
        <time>2026-09-03T09:49:47.000Z</time>
      </trkpt>
      <trkpt lat="46.485021" lon="10.670129">
        <ele>2336.49911</ele>
        <time>2026-09-03T09:49:51.000Z</time>
      </trkpt>
      <trkpt lat="46.485009" lon="10.670167">
        <ele>2333.58985</ele>
        <time>2026-09-03T09:50:47.000Z</time>
      </trkpt>
      <trkpt lat="46.484989" lon="10.670192">
        <ele>2333.53503</ele>
        <time>2026-09-03T09:50:49.000Z</time>
      </trkpt>
      <trkpt lat="46.48497" lon="10.670225">
        <ele>2333.39924</ele>
        <time>2026-09-03T09:50:52.000Z</time>
      </trkpt>
      <trkpt lat="46.484978" lon="10.670263">
        <ele>2333.27506</ele>
        <time>2026-09-03T09:50:54.000Z</time>
      </trkpt>
      <trkpt lat="46.484972" lon="10.670321">
        <ele>2332.94671</ele>
        <time>2026-09-03T09:50:57.000Z</time>
      </trkpt>
      <trkpt lat="46.484974" lon="10.670376">
        <ele>2332.70677</ele>
        <time>2026-09-03T09:50:59.000Z</time>
      </trkpt>
      <trkpt lat="46.484964" lon="10.670423">
        <ele>2332.40319</ele>
        <time>2026-09-03T09:51:01.000Z</time>
      </trkpt>
      <trkpt lat="46.484961" lon="10.670467">
        <ele>2332.16006</ele>
        <time>2026-09-03T09:51:03.000Z</time>
      </trkpt>
      <trkpt lat="46.484941" lon="10.670507">
        <ele>2331.97964</ele>
        <time>2026-09-03T09:51:05.000Z</time>
      </trkpt>
      <trkpt lat="46.484927" lon="10.670552">
        <ele>2331.83939</ele>
        <time>2026-09-03T09:51:07.000Z</time>
      </trkpt>
      <trkpt lat="46.484901" lon="10.670583">
        <ele>2331.71018</ele>
        <time>2026-09-03T09:51:09.000Z</time>
      </trkpt>
      <trkpt lat="46.48488" lon="10.670613">
        <ele>2331.56955</ele>
        <time>2026-09-03T09:51:11.000Z</time>
      </trkpt>
      <trkpt lat="46.484866" lon="10.670651">
        <ele>2331.47193</ele>
        <time>2026-09-03T09:51:13.000Z</time>
      </trkpt>
      <trkpt lat="46.484848" lon="10.670688">
        <ele>2331.37141</ele>
        <time>2026-09-03T09:51:15.000Z</time>
      </trkpt>
      <trkpt lat="46.484835" lon="10.670731">
        <ele>2331.28551</ele>
        <time>2026-09-03T09:51:17.000Z</time>
      </trkpt>
      <trkpt lat="46.484808" lon="10.67076">
        <ele>2331.1863</ele>
        <time>2026-09-03T09:51:19.000Z</time>
      </trkpt>
      <trkpt lat="46.484783" lon="10.670785">
        <ele>2331.09139</ele>
        <time>2026-09-03T09:51:21.000Z</time>
      </trkpt>
      <trkpt lat="46.484745" lon="10.670783">
        <ele>2330.98278</ele>
        <time>2026-09-03T09:51:23.000Z</time>
      </trkpt>
      <trkpt lat="46.484718" lon="10.670784">
        <ele>2330.82745</ele>
        <time>2026-09-03T09:51:25.000Z</time>
      </trkpt>
      <trkpt lat="46.484694" lon="10.670792">
        <ele>2330.67805</ele>
        <time>2026-09-03T09:51:27.000Z</time>
      </trkpt>
      <trkpt lat="46.484665" lon="10.670765">
        <ele>2330.4571</ele>
        <time>2026-09-03T09:51:30.000Z</time>
      </trkpt>
      <trkpt lat="46.484637" lon="10.670775">
        <ele>2329.67453</ele>
        <time>2026-09-03T09:51:43.000Z</time>
      </trkpt>
      <trkpt lat="46.484608" lon="10.670774">
        <ele>2329.52368</ele>
        <time>2026-09-03T09:51:45.000Z</time>
      </trkpt>
      <trkpt lat="46.484581" lon="10.670807">
        <ele>2329.30321</ele>
        <time>2026-09-03T09:51:48.000Z</time>
      </trkpt>
      <trkpt lat="46.484566" lon="10.670832">
        <ele>2329.04724</ele>
        <time>2026-09-03T09:51:51.000Z</time>
      </trkpt>
      <trkpt lat="46.484561" lon="10.670894">
        <ele>2328.76323</ele>
        <time>2026-09-03T09:51:54.000Z</time>
      </trkpt>
      <trkpt lat="46.484562" lon="10.670933">
        <ele>2328.56072</ele>
        <time>2026-09-03T09:51:56.000Z</time>
      </trkpt>
      <trkpt lat="46.484556" lon="10.670969">
        <ele>2328.24975</ele>
        <time>2026-09-03T09:51:59.000Z</time>
      </trkpt>
      <trkpt lat="46.484551" lon="10.671013">
        <ele>2328.06484</ele>
        <time>2026-09-03T09:52:01.000Z</time>
      </trkpt>
      <trkpt lat="46.484541" lon="10.671046">
        <ele>2327.88116</ele>
        <time>2026-09-03T09:52:02.999Z</time>
      </trkpt>
      <trkpt lat="46.484556" lon="10.671082">
        <ele>2327.61201</ele>
        <time>2026-09-03T09:52:05.999Z</time>
      </trkpt>
      <trkpt lat="46.484543" lon="10.671126">
        <ele>2327.38015</ele>
        <time>2026-09-03T09:52:07.999Z</time>
      </trkpt>
      <trkpt lat="46.484554" lon="10.671156">
        <ele>2327.18375</ele>
        <time>2026-09-03T09:52:09.999Z</time>
      </trkpt>
      <trkpt lat="46.484557" lon="10.671197">
        <ele>2326.88641</ele>
        <time>2026-09-03T09:52:12.999Z</time>
      </trkpt>
      <trkpt lat="46.484542" lon="10.671251">
        <ele>2326.58878</ele>
        <time>2026-09-03T09:52:15.999Z</time>
      </trkpt>
      <trkpt lat="46.48453" lon="10.671294">
        <ele>2326.40236</ele>
        <time>2026-09-03T09:52:17.999Z</time>
      </trkpt>
      <trkpt lat="46.484528" lon="10.671328">
        <ele>2326.24652</ele>
        <time>2026-09-03T09:52:19.999Z</time>
      </trkpt>
      <trkpt lat="46.48452" lon="10.671373">
        <ele>2326.15865</ele>
        <time>2026-09-03T09:52:21.999Z</time>
      </trkpt>
      <trkpt lat="46.484516" lon="10.671414">
        <ele>2326.03446</ele>
        <time>2026-09-03T09:52:23.999Z</time>
      </trkpt>
      <trkpt lat="46.484506" lon="10.67145">
        <ele>2325.88866</ele>
        <time>2026-09-03T09:52:25.999Z</time>
      </trkpt>
      <trkpt lat="46.484496" lon="10.671488">
        <ele>2325.73312</ele>
        <time>2026-09-03T09:52:27.999Z</time>
      </trkpt>
      <trkpt lat="46.484486" lon="10.67152">
        <ele>2325.59636</ele>
        <time>2026-09-03T09:52:29.999Z</time>
      </trkpt>
      <trkpt lat="46.48447" lon="10.671548">
        <ele>2325.3184</ele>
        <time>2026-09-03T09:52:33.000Z</time>
      </trkpt>
      <trkpt lat="46.484457" lon="10.671579">
        <ele>2325.19249</ele>
        <time>2026-09-03T09:52:34.000Z</time>
      </trkpt>
      <trkpt lat="46.484448" lon="10.671629">
        <ele>2325.01107</ele>
        <time>2026-09-03T09:52:36.000Z</time>
      </trkpt>
      <trkpt lat="46.484441" lon="10.671662">
        <ele>2324.83501</ele>
        <time>2026-09-03T09:52:38.000Z</time>
      </trkpt>
      <trkpt lat="46.484427" lon="10.671688">
        <ele>2324.7046</ele>
        <time>2026-09-03T09:52:40.000Z</time>
      </trkpt>
      <trkpt lat="46.484406" lon="10.67172">
        <ele>2324.59159</ele>
        <time>2026-09-03T09:52:42.000Z</time>
      </trkpt>
      <trkpt lat="46.484394" lon="10.671754">
        <ele>2324.48198</ele>
        <time>2026-09-03T09:52:44.000Z</time>
      </trkpt>
      <trkpt lat="46.484389" lon="10.671797">
        <ele>2324.3986</ele>
        <time>2026-09-03T09:52:46.000Z</time>
      </trkpt>
      <trkpt lat="46.484381" lon="10.671832">
        <ele>2324.36493</ele>
        <time>2026-09-03T09:52:48.000Z</time>
      </trkpt>
      <trkpt lat="46.484357" lon="10.671875">
        <ele>2324.35873</ele>
        <time>2026-09-03T09:52:51.000Z</time>
      </trkpt>
      <trkpt lat="46.484342" lon="10.671905">
        <ele>2324.32306</ele>
        <time>2026-09-03T09:52:53.000Z</time>
      </trkpt>
      <trkpt lat="46.484327" lon="10.671938">
        <ele>2324.29803</ele>
        <time>2026-09-03T09:52:55.000Z</time>
      </trkpt>
      <trkpt lat="46.484317" lon="10.671971">
        <ele>2324.25219</ele>
        <time>2026-09-03T09:52:57.000Z</time>
      </trkpt>
      <trkpt lat="46.484305" lon="10.672016">
        <ele>2324.18638</ele>
        <time>2026-09-03T09:53:01.000Z</time>
      </trkpt>
      <trkpt lat="46.484299" lon="10.672051">
        <ele>2324.14994</ele>
        <time>2026-09-03T09:53:03.000Z</time>
      </trkpt>
      <trkpt lat="46.484278" lon="10.672096">
        <ele>2324.14818</ele>
        <time>2026-09-03T09:53:05.000Z</time>
      </trkpt>
      <trkpt lat="46.484267" lon="10.672129">
        <ele>2324.14902</ele>
        <time>2026-09-03T09:53:07.000Z</time>
      </trkpt>
      <trkpt lat="46.484251" lon="10.672166">
        <ele>2324.13998</ele>
        <time>2026-09-03T09:53:09.000Z</time>
      </trkpt>
      <trkpt lat="46.484235" lon="10.672199">
        <ele>2324.13704</ele>
        <time>2026-09-03T09:53:11.000Z</time>
      </trkpt>
      <trkpt lat="46.484219" lon="10.672234">
        <ele>2324.12413</ele>
        <time>2026-09-03T09:53:13.000Z</time>
      </trkpt>
      <trkpt lat="46.484206" lon="10.672269">
        <ele>2324.10677</ele>
        <time>2026-09-03T09:53:15.000Z</time>
      </trkpt>
      <trkpt lat="46.4842" lon="10.672309">
        <ele>2324.08911</ele>
        <time>2026-09-03T09:53:17.000Z</time>
      </trkpt>
      <trkpt lat="46.484198" lon="10.672354">
        <ele>2324.08</ele>
        <time>2026-09-03T09:53:19.000Z</time>
      </trkpt>
      <trkpt lat="46.4842" lon="10.672404">
        <ele>2324.00763</ele>
        <time>2026-09-03T09:53:24.000Z</time>
      </trkpt>
      <trkpt lat="46.484204" lon="10.672452">
        <ele>2323.93287</ele>
        <time>2026-09-03T09:53:27.000Z</time>
      </trkpt>
      <trkpt lat="46.484185" lon="10.672498">
        <ele>2323.85929</ele>
        <time>2026-09-03T09:53:31.000Z</time>
      </trkpt>
      <trkpt lat="46.484177" lon="10.67253">
        <ele>2323.83865</ele>
        <time>2026-09-03T09:53:33.000Z</time>
      </trkpt>
      <trkpt lat="46.484162" lon="10.672565">
        <ele>2323.81584</ele>
        <time>2026-09-03T09:53:35.000Z</time>
      </trkpt>
      <trkpt lat="46.484149" lon="10.672592">
        <ele>2323.78884</ele>
        <time>2026-09-03T09:53:38.000Z</time>
      </trkpt>
      <trkpt lat="46.48415" lon="10.672639">
        <ele>2323.78906</ele>
        <time>2026-09-03T09:53:40.000Z</time>
      </trkpt>
      <trkpt lat="46.484136" lon="10.67267">
        <ele>2323.78402</ele>
        <time>2026-09-03T09:53:42.000Z</time>
      </trkpt>
      <trkpt lat="46.484136" lon="10.67271">
        <ele>2323.78446</ele>
        <time>2026-09-03T09:53:47.000Z</time>
      </trkpt>
      <trkpt lat="46.48413" lon="10.672765">
        <ele>2323.79916</ele>
        <time>2026-09-03T09:53:51.000Z</time>
      </trkpt>
      <trkpt lat="46.484111" lon="10.672813">
        <ele>2323.84812</ele>
        <time>2026-09-03T09:53:54.999Z</time>
      </trkpt>
      <trkpt lat="46.484077" lon="10.67287">
        <ele>2323.90396</ele>
        <time>2026-09-03T09:53:56.999Z</time>
      </trkpt>
      <trkpt lat="46.484102" lon="10.67286">
        <ele>2323.98563</ele>
        <time>2026-09-03T09:53:59.999Z</time>
      </trkpt>
      <trkpt lat="46.484089" lon="10.672897">
        <ele>2324.03367</ele>
        <time>2026-09-03T09:54:01.999Z</time>
      </trkpt>
      <trkpt lat="46.484081" lon="10.672929">
        <ele>2324.12238</ele>
        <time>2026-09-03T09:54:03.999Z</time>
      </trkpt>
      <trkpt lat="46.484063" lon="10.672963">
        <ele>2324.24684</ele>
        <time>2026-09-03T09:54:06.999Z</time>
      </trkpt>
      <trkpt lat="46.484038" lon="10.672979">
        <ele>2324.43409</ele>
        <time>2026-09-03T09:54:10.999Z</time>
      </trkpt>
      <trkpt lat="46.484016" lon="10.672992">
        <ele>2324.53144</ele>
        <time>2026-09-03T09:54:12.999Z</time>
      </trkpt>
      <trkpt lat="46.484" lon="10.673026">
        <ele>2324.61035</ele>
        <time>2026-09-03T09:54:14.999Z</time>
      </trkpt>
      <trkpt lat="46.483964" lon="10.673048">
        <ele>2324.82189</ele>
        <time>2026-09-03T09:54:19.999Z</time>
      </trkpt>
      <trkpt lat="46.483931" lon="10.673041">
        <ele>2324.87465</ele>
        <time>2026-09-03T09:54:21.999Z</time>
      </trkpt>
      <trkpt lat="46.483896" lon="10.673041">
        <ele>2324.92246</ele>
        <time>2026-09-03T09:54:23.999Z</time>
      </trkpt>
      <trkpt lat="46.483868" lon="10.673063">
        <ele>2324.9784</ele>
        <time>2026-09-03T09:54:27.999Z</time>
      </trkpt>
      <trkpt lat="46.483838" lon="10.673095">
        <ele>2324.98095</ele>
        <time>2026-09-03T09:54:30.999Z</time>
      </trkpt>
      <trkpt lat="46.48381" lon="10.673106">
        <ele>2324.99296</ele>
        <time>2026-09-03T09:54:32.999Z</time>
      </trkpt>
      <trkpt lat="46.483779" lon="10.673102">
        <ele>2324.97752</ele>
        <time>2026-09-03T09:54:34.999Z</time>
      </trkpt>
      <trkpt lat="46.483752" lon="10.673099">
        <ele>2324.91899</ele>
        <time>2026-09-03T09:54:37.999Z</time>
      </trkpt>
      <trkpt lat="46.483721" lon="10.673131">
        <ele>2324.68566</ele>
        <time>2026-09-03T09:54:43.000Z</time>
      </trkpt>
      <trkpt lat="46.483728" lon="10.673168">
        <ele>2324.51848</ele>
        <time>2026-09-03T09:54:45.000Z</time>
      </trkpt>
      <trkpt lat="46.483707" lon="10.673195">
        <ele>2324.10247</ele>
        <time>2026-09-03T09:54:48.000Z</time>
      </trkpt>
      <trkpt lat="46.483681" lon="10.673191">
        <ele>2323.56543</ele>
        <time>2026-09-03T09:54:51.000Z</time>
      </trkpt>
      <trkpt lat="46.483653" lon="10.673202">
        <ele>2323.21171</ele>
        <time>2026-09-03T09:54:53.000Z</time>
      </trkpt>
      <trkpt lat="46.483616" lon="10.673219">
        <ele>2322.90596</ele>
        <time>2026-09-03T09:54:55.000Z</time>
      </trkpt>
      <trkpt lat="46.483584" lon="10.673224">
        <ele>2322.38871</ele>
        <time>2026-09-03T09:54:58.000Z</time>
      </trkpt>
      <trkpt lat="46.483554" lon="10.673239">
        <ele>2321.8681</ele>
        <time>2026-09-03T09:55:01.000Z</time>
      </trkpt>
      <trkpt lat="46.483533" lon="10.673258">
        <ele>2321.35155</ele>
        <time>2026-09-03T09:55:04.000Z</time>
      </trkpt>
      <trkpt lat="46.48351" lon="10.673272">
        <ele>2320.96933</ele>
        <time>2026-09-03T09:55:06.000Z</time>
      </trkpt>
      <trkpt lat="46.483501" lon="10.673303">
        <ele>2320.62284</ele>
        <time>2026-09-03T09:55:08.000Z</time>
      </trkpt>
      <trkpt lat="46.483466" lon="10.673303">
        <ele>2320.1569</ele>
        <time>2026-09-03T09:55:11.000Z</time>
      </trkpt>
      <trkpt lat="46.483443" lon="10.673315">
        <ele>2319.84436</ele>
        <time>2026-09-03T09:55:13.000Z</time>
      </trkpt>
      <trkpt lat="46.48342" lon="10.673342">
        <ele>2319.54152</ele>
        <time>2026-09-03T09:55:15.000Z</time>
      </trkpt>
      <trkpt lat="46.483396" lon="10.673378">
        <ele>2319.26838</ele>
        <time>2026-09-03T09:55:17.000Z</time>
      </trkpt>
      <trkpt lat="46.483378" lon="10.673417">
        <ele>2318.99181</ele>
        <time>2026-09-03T09:55:19.000Z</time>
      </trkpt>
      <trkpt lat="46.483358" lon="10.673447">
        <ele>2318.71481</ele>
        <time>2026-09-03T09:55:21.000Z</time>
      </trkpt>
      <trkpt lat="46.48334" lon="10.673472">
        <ele>2318.47851</ele>
        <time>2026-09-03T09:55:23.000Z</time>
      </trkpt>
      <trkpt lat="46.483319" lon="10.673489">
        <ele>2318.18733</ele>
        <time>2026-09-03T09:55:25.000Z</time>
      </trkpt>
      <trkpt lat="46.483295" lon="10.673489">
        <ele>2317.91475</ele>
        <time>2026-09-03T09:55:27.000Z</time>
      </trkpt>
      <trkpt lat="46.483282" lon="10.673534">
        <ele>2317.6136</ele>
        <time>2026-09-03T09:55:29.000Z</time>
      </trkpt>
      <trkpt lat="46.483265" lon="10.673563">
        <ele>2317.41267</ele>
        <time>2026-09-03T09:55:31.000Z</time>
      </trkpt>
      <trkpt lat="46.483242" lon="10.673578">
        <ele>2317.19974</ele>
        <time>2026-09-03T09:55:33.000Z</time>
      </trkpt>
      <trkpt lat="46.483222" lon="10.673597">
        <ele>2317.01477</ele>
        <time>2026-09-03T09:55:35.000Z</time>
      </trkpt>
      <trkpt lat="46.4832" lon="10.673616">
        <ele>2316.8529</ele>
        <time>2026-09-03T09:55:37.000Z</time>
      </trkpt>
      <trkpt lat="46.483178" lon="10.673631">
        <ele>2316.74903</ele>
        <time>2026-09-03T09:55:39.000Z</time>
      </trkpt>
      <trkpt lat="46.483157" lon="10.673615">
        <ele>2316.70479</ele>
        <time>2026-09-03T09:55:41.000Z</time>
      </trkpt>
      <trkpt lat="46.483124" lon="10.673622">
        <ele>2316.38747</ele>
        <time>2026-09-03T09:55:45.000Z</time>
      </trkpt>
      <trkpt lat="46.483129" lon="10.67367">
        <ele>2316.07808</ele>
        <time>2026-09-03T09:55:48.000Z</time>
      </trkpt>
      <trkpt lat="46.483121" lon="10.673706">
        <ele>2315.83906</ele>
        <time>2026-09-03T09:55:50.000Z</time>
      </trkpt>
      <trkpt lat="46.483097" lon="10.673742">
        <ele>2315.30224</ele>
        <time>2026-09-03T09:55:54.000Z</time>
      </trkpt>
      <trkpt lat="46.483081" lon="10.673778">
        <ele>2315.0857</ele>
        <time>2026-09-03T09:55:56.000Z</time>
      </trkpt>
      <trkpt lat="46.483086" lon="10.673812">
        <ele>2314.94212</ele>
        <time>2026-09-03T09:55:58.000Z</time>
      </trkpt>
      <trkpt lat="46.483103" lon="10.673781">
        <ele>2314.88276</ele>
        <time>2026-09-03T09:55:59.999Z</time>
      </trkpt>
      <trkpt lat="46.483056" lon="10.673777">
        <ele>2314.54212</ele>
        <time>2026-09-03T09:56:11.999Z</time>
      </trkpt>
      <trkpt lat="46.483021" lon="10.673768">
        <ele>2314.47943</ele>
        <time>2026-09-03T09:56:12.999Z</time>
      </trkpt>
      <trkpt lat="46.483009" lon="10.673796">
        <ele>2314.29431</ele>
        <time>2026-09-03T09:56:14.999Z</time>
      </trkpt>
      <trkpt lat="46.482965" lon="10.673806">
        <ele>2314.04729</ele>
        <time>2026-09-03T09:56:16.999Z</time>
      </trkpt>
      <trkpt lat="46.482934" lon="10.673809">
        <ele>2313.47581</ele>
        <time>2026-09-03T09:56:19.999Z</time>
      </trkpt>
      <trkpt lat="46.482891" lon="10.673806">
        <ele>2312.73959</ele>
        <time>2026-09-03T09:56:23.999Z</time>
      </trkpt>
      <trkpt lat="46.482859" lon="10.67382">
        <ele>2312.43779</ele>
        <time>2026-09-03T09:56:25.999Z</time>
      </trkpt>
      <trkpt lat="46.482829" lon="10.673827">
        <ele>2312.20752</ele>
        <time>2026-09-03T09:56:27.999Z</time>
      </trkpt>
      <trkpt lat="46.482804" lon="10.67383">
        <ele>2312.07812</ele>
        <time>2026-09-03T09:56:29.999Z</time>
      </trkpt>
      <trkpt lat="46.48278" lon="10.673838">
        <ele>2311.90732</ele>
        <time>2026-09-03T09:56:31.999Z</time>
      </trkpt>
      <trkpt lat="46.482754" lon="10.673825">
        <ele>2311.58386</ele>
        <time>2026-09-03T09:56:34.999Z</time>
      </trkpt>
      <trkpt lat="46.482768" lon="10.673855">
        <ele>2311.31223</ele>
        <time>2026-09-03T09:56:36.999Z</time>
      </trkpt>
      <trkpt lat="46.482771" lon="10.673894">
        <ele>2311.01448</ele>
        <time>2026-09-03T09:56:38.999Z</time>
      </trkpt>
      <trkpt lat="46.48274" lon="10.673898">
        <ele>2310.29767</ele>
        <time>2026-09-03T09:56:43.999Z</time>
      </trkpt>
      <trkpt lat="46.482711" lon="10.673905">
        <ele>2309.83166</ele>
        <time>2026-09-03T09:56:47.000Z</time>
      </trkpt>
      <trkpt lat="46.482699" lon="10.673939">
        <ele>2309.09444</ele>
        <time>2026-09-03T09:56:52.000Z</time>
      </trkpt>
      <trkpt lat="46.482699" lon="10.673973">
        <ele>2308.69967</ele>
        <time>2026-09-03T09:56:55.000Z</time>
      </trkpt>
      <trkpt lat="46.482684" lon="10.673999">
        <ele>2308.27067</ele>
        <time>2026-09-03T09:56:58.000Z</time>
      </trkpt>
      <trkpt lat="46.482665" lon="10.674036">
        <ele>2307.82368</ele>
        <time>2026-09-03T09:57:01.000Z</time>
      </trkpt>
      <trkpt lat="46.482641" lon="10.674068">
        <ele>2306.01258</ele>
        <time>2026-09-03T09:57:09.000Z</time>
      </trkpt>
      <trkpt lat="46.482649" lon="10.674106">
        <ele>2305.06217</ele>
        <time>2026-09-03T09:57:12.000Z</time>
      </trkpt>
      <trkpt lat="46.482639" lon="10.674135">
        <ele>2304.24754</ele>
        <time>2026-09-03T09:57:15.000Z</time>
      </trkpt>
      <trkpt lat="46.482623" lon="10.674161">
        <ele>2303.25526</ele>
        <time>2026-09-03T09:57:19.000Z</time>
      </trkpt>
      <trkpt lat="46.482599" lon="10.674188">
        <ele>2302.55563</ele>
        <time>2026-09-03T09:57:22.000Z</time>
      </trkpt>
      <trkpt lat="46.482578" lon="10.674176">
        <ele>2301.53239</ele>
        <time>2026-09-03T09:57:26.000Z</time>
      </trkpt>
      <trkpt lat="46.482556" lon="10.674215">
        <ele>2300.40578</ele>
        <time>2026-09-03T09:57:31.000Z</time>
      </trkpt>
      <trkpt lat="46.482536" lon="10.674233">
        <ele>2299.74517</ele>
        <time>2026-09-03T09:57:33.000Z</time>
      </trkpt>
      <trkpt lat="46.48253" lon="10.674279">
        <ele>2298.58127</ele>
        <time>2026-09-03T09:57:37.000Z</time>
      </trkpt>
      <trkpt lat="46.482521" lon="10.674322">
        <ele>2297.60298</ele>
        <time>2026-09-03T09:57:41.000Z</time>
      </trkpt>
      <trkpt lat="46.48251" lon="10.674352">
        <ele>2297.16403</ele>
        <time>2026-09-03T09:57:43.000Z</time>
      </trkpt>
      <trkpt lat="46.482494" lon="10.674384">
        <ele>2296.16732</ele>
        <time>2026-09-03T09:57:47.000Z</time>
      </trkpt>
      <trkpt lat="46.482474" lon="10.674402">
        <ele>2295.07773</ele>
        <time>2026-09-03T09:57:51.000Z</time>
      </trkpt>
      <trkpt lat="46.482466" lon="10.674437">
        <ele>2293.89037</ele>
        <time>2026-09-03T09:57:56.000Z</time>
      </trkpt>
      <trkpt lat="46.482445" lon="10.674471">
        <ele>2293.19839</ele>
        <time>2026-09-03T09:57:59.000Z</time>
      </trkpt>
      <trkpt lat="46.482437" lon="10.674529">
        <ele>2292.19621</ele>
        <time>2026-09-03T09:58:04.999Z</time>
      </trkpt>
      <trkpt lat="46.482428" lon="10.674565">
        <ele>2291.61004</ele>
        <time>2026-09-03T09:58:07.999Z</time>
      </trkpt>
      <trkpt lat="46.4824" lon="10.674591">
        <ele>2290.80389</ele>
        <time>2026-09-03T09:58:11.999Z</time>
      </trkpt>
      <trkpt lat="46.482377" lon="10.674603">
        <ele>2290.26883</ele>
        <time>2026-09-03T09:58:14.999Z</time>
      </trkpt>
      <trkpt lat="46.482354" lon="10.674641">
        <ele>2289.66333</ele>
        <time>2026-09-03T09:58:17.999Z</time>
      </trkpt>
      <trkpt lat="46.482352" lon="10.674684">
        <ele>2289.05579</ele>
        <time>2026-09-03T09:58:20.999Z</time>
      </trkpt>
      <trkpt lat="46.482329" lon="10.674711">
        <ele>2288.22495</ele>
        <time>2026-09-03T09:58:24.999Z</time>
      </trkpt>
      <trkpt lat="46.482309" lon="10.67474">
        <ele>2287.65251</ele>
        <time>2026-09-03T09:58:27.999Z</time>
      </trkpt>
      <trkpt lat="46.482296" lon="10.674774">
        <ele>2287.12816</ele>
        <time>2026-09-03T09:58:30.999Z</time>
      </trkpt>
      <trkpt lat="46.482321" lon="10.67477">
        <ele>2286.63538</ele>
        <time>2026-09-03T09:58:33.999Z</time>
      </trkpt>
      <trkpt lat="46.482346" lon="10.67479">
        <ele>2285.95282</ele>
        <time>2026-09-03T09:58:37.999Z</time>
      </trkpt>
      <trkpt lat="46.482374" lon="10.674772">
        <ele>2285.35111</ele>
        <time>2026-09-03T09:58:41.999Z</time>
      </trkpt>
      <trkpt lat="46.482397" lon="10.67478">
        <ele>2285.1012</ele>
        <time>2026-09-03T09:58:43.999Z</time>
      </trkpt>
      <trkpt lat="46.482424" lon="10.674777">
        <ele>2284.51743</ele>
        <time>2026-09-03T09:58:47.999Z</time>
      </trkpt>
      <trkpt lat="46.48242" lon="10.674817">
        <ele>2283.93203</ele>
        <time>2026-09-03T09:58:51.000Z</time>
      </trkpt>
      <trkpt lat="46.4824" lon="10.674834">
        <ele>2283.43207</ele>
        <time>2026-09-03T09:58:53.000Z</time>
      </trkpt>
      <trkpt lat="46.482375" lon="10.674863">
        <ele>2282.90552</ele>
        <time>2026-09-03T09:58:56.000Z</time>
      </trkpt>
      <trkpt lat="46.482366" lon="10.674897">
        <ele>2282.38403</ele>
        <time>2026-09-03T09:58:59.000Z</time>
      </trkpt>
      <trkpt lat="46.482351" lon="10.674929">
        <ele>2281.7941</ele>
        <time>2026-09-03T09:59:02.000Z</time>
      </trkpt>
      <trkpt lat="46.482339" lon="10.674968">
        <ele>2280.99886</ele>
        <time>2026-09-03T09:59:05.000Z</time>
      </trkpt>
      <trkpt lat="46.482333" lon="10.675003">
        <ele>2280.00287</ele>
        <time>2026-09-03T09:59:08.000Z</time>
      </trkpt>
      <trkpt lat="46.482306" lon="10.675043">
        <ele>2278.9519</ele>
        <time>2026-09-03T09:59:11.000Z</time>
      </trkpt>
      <trkpt lat="46.482276" lon="10.675074">
        <ele>2278.00692</ele>
        <time>2026-09-03T09:59:14.000Z</time>
      </trkpt>
      <trkpt lat="46.482255" lon="10.675114">
        <ele>2276.94075</ele>
        <time>2026-09-03T09:59:18.000Z</time>
      </trkpt>
      <trkpt lat="46.482242" lon="10.675147">
        <ele>2276.45118</ele>
        <time>2026-09-03T09:59:20.000Z</time>
      </trkpt>
      <trkpt lat="46.482226" lon="10.675185">
        <ele>2276.125</ele>
        <time>2026-09-03T09:59:22.000Z</time>
      </trkpt>
      <trkpt lat="46.482204" lon="10.675211">
        <ele>2275.8701</ele>
        <time>2026-09-03T09:59:24.000Z</time>
      </trkpt>
      <trkpt lat="46.482183" lon="10.675244">
        <ele>2275.37274</ele>
        <time>2026-09-03T09:59:28.000Z</time>
      </trkpt>
      <trkpt lat="46.48217" lon="10.675279">
        <ele>2275.22327</ele>
        <time>2026-09-03T09:59:30.000Z</time>
      </trkpt>
      <trkpt lat="46.482157" lon="10.675324">
        <ele>2275.11125</ele>
        <time>2026-09-03T09:59:33.000Z</time>
      </trkpt>
      <trkpt lat="46.482142" lon="10.675366">
        <ele>2274.97327</ele>
        <time>2026-09-03T09:59:36.000Z</time>
      </trkpt>
      <trkpt lat="46.482128" lon="10.675403">
        <ele>2274.85636</ele>
        <time>2026-09-03T09:59:39.000Z</time>
      </trkpt>
      <trkpt lat="46.482117" lon="10.675448">
        <ele>2274.64332</ele>
        <time>2026-09-03T09:59:43.000Z</time>
      </trkpt>
      <trkpt lat="46.482105" lon="10.675479">
        <ele>2274.40958</ele>
        <time>2026-09-03T09:59:46.000Z</time>
      </trkpt>
      <trkpt lat="46.482105" lon="10.675516">
        <ele>2274.20978</ele>
        <time>2026-09-03T09:59:48.000Z</time>
      </trkpt>
      <trkpt lat="46.482093" lon="10.675547">
        <ele>2273.95433</ele>
        <time>2026-09-03T09:59:50.000Z</time>
      </trkpt>
      <trkpt lat="46.482076" lon="10.675576">
        <ele>2273.43626</ele>
        <time>2026-09-03T09:59:53.000Z</time>
      </trkpt>
      <trkpt lat="46.482052" lon="10.675605">
        <ele>2272.89214</ele>
        <time>2026-09-03T09:59:56.000Z</time>
      </trkpt>
      <trkpt lat="46.482041" lon="10.675636">
        <ele>2272.31595</ele>
        <time>2026-09-03T09:59:59.000Z</time>
      </trkpt>
      <trkpt lat="46.482015" lon="10.675656">
        <ele>2271.5712</ele>
        <time>2026-09-03T10:00:02.000Z</time>
      </trkpt>
      <trkpt lat="46.481999" lon="10.675694">
        <ele>2270.83492</ele>
        <time>2026-09-03T10:00:05.000Z</time>
      </trkpt>
      <trkpt lat="46.481993" lon="10.675731">
        <ele>2270.37558</ele>
        <time>2026-09-03T10:00:07.000Z</time>
      </trkpt>
      <trkpt lat="46.48198" lon="10.67576">
        <ele>2269.65036</ele>
        <time>2026-09-03T10:00:10.000Z</time>
      </trkpt>
      <trkpt lat="46.481983" lon="10.675796">
        <ele>2268.95333</ele>
        <time>2026-09-03T10:00:13.000Z</time>
      </trkpt>
      <trkpt lat="46.481993" lon="10.675827">
        <ele>2268.52117</ele>
        <time>2026-09-03T10:00:15.000Z</time>
      </trkpt>
      <trkpt lat="46.481995" lon="10.675868">
        <ele>2267.74135</ele>
        <time>2026-09-03T10:00:19.000Z</time>
      </trkpt>
      <trkpt lat="46.482014" lon="10.675904">
        <ele>2267.02607</ele>
        <time>2026-09-03T10:00:23.000Z</time>
      </trkpt>
      <trkpt lat="46.482025" lon="10.675934">
        <ele>2266.75861</ele>
        <time>2026-09-03T10:00:25.000Z</time>
      </trkpt>
      <trkpt lat="46.482037" lon="10.675968">
        <ele>2265.69885</ele>
        <time>2026-09-03T10:00:29.999Z</time>
      </trkpt>
      <trkpt lat="46.482043" lon="10.676015">
        <ele>2264.83339</ele>
        <time>2026-09-03T10:00:33.999Z</time>
      </trkpt>
      <trkpt lat="46.482045" lon="10.676048">
        <ele>2264.05988</ele>
        <time>2026-09-03T10:00:36.999Z</time>
      </trkpt>
      <trkpt lat="46.482034" lon="10.676093">
        <ele>2263.19592</ele>
        <time>2026-09-03T10:00:39.999Z</time>
      </trkpt>
      <trkpt lat="46.482018" lon="10.676122">
        <ele>2262.54702</ele>
        <time>2026-09-03T10:00:41.999Z</time>
      </trkpt>
      <trkpt lat="46.482021" lon="10.676155">
        <ele>2262.24829</ele>
        <time>2026-09-03T10:00:42.999Z</time>
      </trkpt>
      <trkpt lat="46.482017" lon="10.676188">
        <ele>2261.5851</ele>
        <time>2026-09-03T10:00:44.999Z</time>
      </trkpt>
      <trkpt lat="46.481998" lon="10.676219">
        <ele>2260.9785</ele>
        <time>2026-09-03T10:00:46.999Z</time>
      </trkpt>
      <trkpt lat="46.481992" lon="10.676266">
        <ele>2260.38801</ele>
        <time>2026-09-03T10:00:48.999Z</time>
      </trkpt>
      <trkpt lat="46.481985" lon="10.676318">
        <ele>2259.93616</ele>
        <time>2026-09-03T10:00:50.999Z</time>
      </trkpt>
      <trkpt lat="46.482003" lon="10.676349">
        <ele>2259.71088</ele>
        <time>2026-09-03T10:00:51.999Z</time>
      </trkpt>
      <trkpt lat="46.482001" lon="10.6764">
        <ele>2259.33685</ele>
        <time>2026-09-03T10:00:53.999Z</time>
      </trkpt>
      <trkpt lat="46.481986" lon="10.676449">
        <ele>2259.05164</ele>
        <time>2026-09-03T10:00:55.999Z</time>
      </trkpt>
      <trkpt lat="46.481999" lon="10.676491">
        <ele>2258.93384</ele>
        <time>2026-09-03T10:00:59.000Z</time>
      </trkpt>
      <trkpt lat="46.482009" lon="10.676527">
        <ele>2258.99028</ele>
        <time>2026-09-03T10:01:02.000Z</time>
      </trkpt>
      <trkpt lat="46.481988" lon="10.676568">
        <ele>2259.07905</ele>
        <time>2026-09-03T10:01:04.000Z</time>
      </trkpt>
      <trkpt lat="46.481992" lon="10.67662">
        <ele>2259.35867</ele>
        <time>2026-09-03T10:01:06.000Z</time>
      </trkpt>
      <trkpt lat="46.481972" lon="10.676664">
        <ele>2259.63744</ele>
        <time>2026-09-03T10:01:08.000Z</time>
      </trkpt>
      <trkpt lat="46.481953" lon="10.676694">
        <ele>2260.08035</ele>
        <time>2026-09-03T10:01:10.000Z</time>
      </trkpt>
      <trkpt lat="46.481932" lon="10.676732">
        <ele>2260.78923</ele>
        <time>2026-09-03T10:01:12.000Z</time>
      </trkpt>
      <trkpt lat="46.481898" lon="10.676759">
        <ele>2261.71767</ele>
        <time>2026-09-03T10:01:14.000Z</time>
      </trkpt>
      <trkpt lat="46.481876" lon="10.676796">
        <ele>2262.65421</ele>
        <time>2026-09-03T10:01:16.000Z</time>
      </trkpt>
      <trkpt lat="46.481898" lon="10.676778">
        <ele>2263.52428</ele>
        <time>2026-09-03T10:01:21.000Z</time>
      </trkpt>
      <trkpt lat="46.481938" lon="10.676746">
        <ele>2263.49858</ele>
        <time>2026-09-03T10:01:30.000Z</time>
      </trkpt>
      <trkpt lat="46.48192" lon="10.676793">
        <ele>2264.20691</ele>
        <time>2026-09-03T10:01:46.000Z</time>
      </trkpt>
      <trkpt lat="46.481901" lon="10.676808">
        <ele>2264.46874</ele>
        <time>2026-09-03T10:01:51.000Z</time>
      </trkpt>
      <trkpt lat="46.48189" lon="10.67684">
        <ele>2264.80354</ele>
        <time>2026-09-03T10:01:56.000Z</time>
      </trkpt>
      <trkpt lat="46.481899" lon="10.676884">
        <ele>2265.17704</ele>
        <time>2026-09-03T10:01:59.000Z</time>
      </trkpt>
      <trkpt lat="46.481891" lon="10.676929">
        <ele>2266.2149</ele>
        <time>2026-09-03T10:02:03.000Z</time>
      </trkpt>
      <trkpt lat="46.481876" lon="10.676966">
        <ele>2266.58532</ele>
        <time>2026-09-03T10:02:04.000Z</time>
      </trkpt>
      <trkpt lat="46.481866" lon="10.676996">
        <ele>2267.67292</ele>
        <time>2026-09-03T10:02:07.000Z</time>
      </trkpt>
      <trkpt lat="46.481856" lon="10.677026">
        <ele>2268.69662</ele>
        <time>2026-09-03T10:02:10.000Z</time>
      </trkpt>
      <trkpt lat="46.481832" lon="10.677062">
        <ele>2269.75813</ele>
        <time>2026-09-03T10:02:14.000Z</time>
      </trkpt>
      <trkpt lat="46.481811" lon="10.677088">
        <ele>2270.38406</ele>
        <time>2026-09-03T10:02:17.000Z</time>
      </trkpt>
      <trkpt lat="46.481807" lon="10.677122">
        <ele>2270.69726</ele>
        <time>2026-09-03T10:02:19.000Z</time>
      </trkpt>
      <trkpt lat="46.481793" lon="10.677168">
        <ele>2270.91881</ele>
        <time>2026-09-03T10:02:21.000Z</time>
      </trkpt>
      <trkpt lat="46.481778" lon="10.6772">
        <ele>2271.08016</ele>
        <time>2026-09-03T10:02:23.000Z</time>
      </trkpt>
      <trkpt lat="46.48175" lon="10.677213">
        <ele>2271.33633</ele>
        <time>2026-09-03T10:02:26.000Z</time>
      </trkpt>
      <trkpt lat="46.481771" lon="10.677189">
        <ele>2271.46926</ele>
        <time>2026-09-03T10:02:28.000Z</time>
      </trkpt>
      <trkpt lat="46.481755" lon="10.677242">
        <ele>2271.82849</ele>
        <time>2026-09-03T10:02:34.000Z</time>
      </trkpt>
      <trkpt lat="46.481737" lon="10.677264">
        <ele>2271.86903</ele>
        <time>2026-09-03T10:02:35.000Z</time>
      </trkpt>
      <trkpt lat="46.481702" lon="10.67728">
        <ele>2271.93287</ele>
        <time>2026-09-03T10:02:37.000Z</time>
      </trkpt>
      <trkpt lat="46.481667" lon="10.677335">
        <ele>2271.95314</ele>
        <time>2026-09-03T10:02:39.999Z</time>
      </trkpt>
      <trkpt lat="46.481654" lon="10.677372">
        <ele>2271.95885</ele>
        <time>2026-09-03T10:02:41.999Z</time>
      </trkpt>
      <trkpt lat="46.481649" lon="10.677422">
        <ele>2271.96828</ele>
        <time>2026-09-03T10:02:44.999Z</time>
      </trkpt>
      <trkpt lat="46.481633" lon="10.677453">
        <ele>2271.98633</ele>
        <time>2026-09-03T10:02:46.999Z</time>
      </trkpt>
      <trkpt lat="46.481618" lon="10.677495">
        <ele>2271.97735</ele>
        <time>2026-09-03T10:02:49.999Z</time>
      </trkpt>
      <trkpt lat="46.481599" lon="10.677534">
        <ele>2271.96339</ele>
        <time>2026-09-03T10:02:51.999Z</time>
      </trkpt>
      <trkpt lat="46.481585" lon="10.677577">
        <ele>2271.94331</ele>
        <time>2026-09-03T10:02:58.999Z</time>
      </trkpt>
      <trkpt lat="46.481576" lon="10.677632">
        <ele>2271.94118</ele>
        <time>2026-09-03T10:03:01.999Z</time>
      </trkpt>
      <trkpt lat="46.481557" lon="10.677667">
        <ele>2271.94182</ele>
        <time>2026-09-03T10:03:04.000Z</time>
      </trkpt>
      <trkpt lat="46.481534" lon="10.677708">
        <ele>2271.93892</ele>
        <time>2026-09-03T10:03:06.000Z</time>
      </trkpt>
      <trkpt lat="46.481511" lon="10.677741">
        <ele>2271.9466</ele>
        <time>2026-09-03T10:03:08.000Z</time>
      </trkpt>
      <trkpt lat="46.481495" lon="10.677771">
        <ele>2271.96038</ele>
        <time>2026-09-03T10:03:10.000Z</time>
      </trkpt>
      <trkpt lat="46.481497" lon="10.677826">
        <ele>2271.96732</ele>
        <time>2026-09-03T10:03:12.000Z</time>
      </trkpt>
      <trkpt lat="46.481501" lon="10.67787">
        <ele>2271.96727</ele>
        <time>2026-09-03T10:03:14.000Z</time>
      </trkpt>
      <trkpt lat="46.481492" lon="10.677914">
        <ele>2271.96047</ele>
        <time>2026-09-03T10:03:16.000Z</time>
      </trkpt>
      <trkpt lat="46.481497" lon="10.677956">
        <ele>2271.9533</ele>
        <time>2026-09-03T10:03:18.000Z</time>
      </trkpt>
      <trkpt lat="46.481498" lon="10.678">
        <ele>2271.93955</ele>
        <time>2026-09-03T10:03:20.000Z</time>
      </trkpt>
      <trkpt lat="46.481494" lon="10.678043">
        <ele>2271.91697</ele>
        <time>2026-09-03T10:03:22.000Z</time>
      </trkpt>
      <trkpt lat="46.481492" lon="10.67808">
        <ele>2271.89074</ele>
        <time>2026-09-03T10:03:24.000Z</time>
      </trkpt>
      <trkpt lat="46.481497" lon="10.678124">
        <ele>2271.86432</ele>
        <time>2026-09-03T10:03:26.000Z</time>
      </trkpt>
      <trkpt lat="46.481515" lon="10.678161">
        <ele>2271.83163</ele>
        <time>2026-09-03T10:03:28.000Z</time>
      </trkpt>
      <trkpt lat="46.481527" lon="10.678197">
        <ele>2271.79919</ele>
        <time>2026-09-03T10:03:30.000Z</time>
      </trkpt>
      <trkpt lat="46.481518" lon="10.678244">
        <ele>2271.75739</ele>
        <time>2026-09-03T10:03:32.000Z</time>
      </trkpt>
      <trkpt lat="46.4815" lon="10.678275">
        <ele>2271.68101</ele>
        <time>2026-09-03T10:03:34.000Z</time>
      </trkpt>
      <trkpt lat="46.481476" lon="10.678303">
        <ele>2271.59867</ele>
        <time>2026-09-03T10:03:36.000Z</time>
      </trkpt>
      <trkpt lat="46.481445" lon="10.678325">
        <ele>2271.49611</ele>
        <time>2026-09-03T10:03:38.000Z</time>
      </trkpt>
      <trkpt lat="46.48143" lon="10.678362">
        <ele>2271.35985</ele>
        <time>2026-09-03T10:03:40.000Z</time>
      </trkpt>
      <trkpt lat="46.481418" lon="10.678403">
        <ele>2271.19194</ele>
        <time>2026-09-03T10:03:42.000Z</time>
      </trkpt>
      <trkpt lat="46.481405" lon="10.678439">
        <ele>2271.01511</ele>
        <time>2026-09-03T10:03:44.000Z</time>
      </trkpt>
      <trkpt lat="46.481393" lon="10.678473">
        <ele>2270.825</ele>
        <time>2026-09-03T10:03:46.000Z</time>
      </trkpt>
      <trkpt lat="46.481397" lon="10.678506">
        <ele>2270.65128</ele>
        <time>2026-09-03T10:03:48.000Z</time>
      </trkpt>
      <trkpt lat="46.481389" lon="10.67854">
        <ele>2270.46564</ele>
        <time>2026-09-03T10:03:50.000Z</time>
      </trkpt>
      <trkpt lat="46.481376" lon="10.678581">
        <ele>2270.2565</ele>
        <time>2026-09-03T10:03:53.000Z</time>
      </trkpt>
      <trkpt lat="46.481409" lon="10.678575">
        <ele>2269.9917</ele>
        <time>2026-09-03T10:04:01.000Z</time>
      </trkpt>
      <trkpt lat="46.481386" lon="10.678605">
        <ele>2269.75082</ele>
        <time>2026-09-03T10:04:05.000Z</time>
      </trkpt>
      <trkpt lat="46.481389" lon="10.678653">
        <ele>2269.49151</ele>
        <time>2026-09-03T10:04:08.000Z</time>
      </trkpt>
      <trkpt lat="46.481396" lon="10.678686">
        <ele>2269.10243</ele>
        <time>2026-09-03T10:04:11.000Z</time>
      </trkpt>
      <trkpt lat="46.481387" lon="10.678739">
        <ele>2268.82216</ele>
        <time>2026-09-03T10:04:13.000Z</time>
      </trkpt>
      <trkpt lat="46.481368" lon="10.678768">
        <ele>2268.48341</ele>
        <time>2026-09-03T10:04:15.000Z</time>
      </trkpt>
      <trkpt lat="46.48137" lon="10.67881">
        <ele>2268.24483</ele>
        <time>2026-09-03T10:04:17.000Z</time>
      </trkpt>
      <trkpt lat="46.481391" lon="10.678843">
        <ele>2267.98106</ele>
        <time>2026-09-03T10:04:19.000Z</time>
      </trkpt>
      <trkpt lat="46.481382" lon="10.678877">
        <ele>2267.6999</ele>
        <time>2026-09-03T10:04:21.000Z</time>
      </trkpt>
      <trkpt lat="46.481387" lon="10.678914">
        <ele>2267.48219</ele>
        <time>2026-09-03T10:04:23.000Z</time>
      </trkpt>
      <trkpt lat="46.481396" lon="10.678952">
        <ele>2267.33799</ele>
        <time>2026-09-03T10:04:25.000Z</time>
      </trkpt>
      <trkpt lat="46.481404" lon="10.678985">
        <ele>2267.21625</ele>
        <time>2026-09-03T10:04:27.000Z</time>
      </trkpt>
      <trkpt lat="46.481406" lon="10.679019">
        <ele>2267.13738</ele>
        <time>2026-09-03T10:04:29.000Z</time>
      </trkpt>
      <trkpt lat="46.481423" lon="10.67905">
        <ele>2267.018</ele>
        <time>2026-09-03T10:04:33.000Z</time>
      </trkpt>
      <trkpt lat="46.481439" lon="10.679091">
        <ele>2266.92262</ele>
        <time>2026-09-03T10:04:36.000Z</time>
      </trkpt>
      <trkpt lat="46.481441" lon="10.679134">
        <ele>2266.83367</ele>
        <time>2026-09-03T10:04:39.000Z</time>
      </trkpt>
      <trkpt lat="46.48143" lon="10.679174">
        <ele>2266.67678</ele>
        <time>2026-09-03T10:04:43.000Z</time>
      </trkpt>
      <trkpt lat="46.481413" lon="10.679196">
        <ele>2266.45096</ele>
        <time>2026-09-03T10:04:47.999Z</time>
      </trkpt>
      <trkpt lat="46.481442" lon="10.679196">
        <ele>2265.60957</ele>
        <time>2026-09-03T10:05:05.999Z</time>
      </trkpt>
      <trkpt lat="46.481431" lon="10.679154">
        <ele>2263.84878</ele>
        <time>2026-09-03T10:06:41.000Z</time>
      </trkpt>
      <trkpt lat="46.481315" lon="10.678978">
        <ele>2263.84922</ele>
        <time>2026-09-03T10:08:01.999Z</time>
      </trkpt>
      <trkpt lat="46.4814" lon="10.679122">
        <ele>2263.8463</ele>
        <time>2026-09-03T10:08:02.999Z</time>
      </trkpt>
      <trkpt lat="46.481413" lon="10.67917">
        <ele>2263.8435</ele>
        <time>2026-09-03T10:08:03.999Z</time>
      </trkpt>
      <trkpt lat="46.481435" lon="10.679198">
        <ele>2263.82154</ele>
        <time>2026-09-03T10:08:13.000Z</time>
      </trkpt>
      <trkpt lat="46.48144" lon="10.679165">
        <ele>2263.81088</ele>
        <time>2026-09-03T10:08:19.000Z</time>
      </trkpt>
      <trkpt lat="46.481441" lon="10.6792">
        <ele>2263.8139</ele>
        <time>2026-09-03T10:08:44.000Z</time>
      </trkpt>
      <trkpt lat="46.481429" lon="10.679172">
        <ele>2263.84658</ele>
        <time>2026-09-03T10:09:38.999Z</time>
      </trkpt>
    </trkseg>
  </trk>
</gpx>